<?xml version='1.0' encoding='UTF-8'?><gpx version="1.1" creator="JPX - https://github.com/jenetics/jpx" xmlns="http://www.topografix.com/GPX/1/1"><trk><trkseg><trkpt lat="45.4055206" lon="7.6618198"><ele>421.99999999999994</ele><time>2026-04-25T08:23:38.46Z</time></trkpt><trkpt lat="45.4055863" lon="7.6618035"><ele>422.0</ele><time>2026-04-25T08:24:34.457Z</time></trkpt><trkpt lat="45.4055329" lon="7.6618908"><ele>422.0</ele><time>2026-04-25T08:24:52.455Z</time></trkpt><trkpt lat="45.4054812" lon="7.6619505"><ele>422.0</ele><time>2026-04-25T08:24:55.456Z</time></trkpt><trkpt lat="45.4054219" lon="7.6619838"><ele>421.99999999999994</ele><time>2026-04-25T08:24:58.458Z</time></trkpt><trkpt lat="45.4053804" lon="7.6621045"><ele>422.0</ele><time>2026-04-25T08:25:01.461Z</time></trkpt><trkpt lat="45.4054104" lon="7.6622354"><ele>422.20000000000005</ele><time>2026-04-25T08:25:03.462Z</time></trkpt><trkpt lat="45.4054552" lon="7.6623644"><ele>422.4</ele><time>2026-04-25T08:25:05.448Z</time></trkpt><trkpt lat="45.405501" lon="7.6625169"><ele>422.6</ele><time>2026-04-25T08:25:07.455Z</time></trkpt><trkpt lat="45.4055155" lon="7.6626122"><ele>422.79999999999995</ele><time>2026-04-25T08:25:08.45Z</time></trkpt><trkpt lat="45.4055224" lon="7.6627485"><ele>423.0</ele><time>2026-04-25T08:25:09.457Z</time></trkpt><trkpt lat="45.4055271" lon="7.6629033"><ele>423.0</ele><time>2026-04-25T08:25:10.459Z</time></trkpt><trkpt lat="45.4055233" lon="7.6630527"><ele>423.0</ele><time>2026-04-25T08:25:11.45Z</time></trkpt><trkpt lat="45.4055202" lon="7.6631901"><ele>423.0</ele><time>2026-04-25T08:25:12.458Z</time></trkpt><trkpt lat="45.4055201" lon="7.663303"><ele>423.0</ele><time>2026-04-25T08:25:13.449Z</time></trkpt><trkpt lat="45.405531" lon="7.6634063"><ele>423.0</ele><time>2026-04-25T08:25:14.45Z</time></trkpt><trkpt lat="45.4055565" lon="7.6635114"><ele>423.0</ele><time>2026-04-25T08:25:15.454Z</time></trkpt><trkpt lat="45.4055869" lon="7.6636138"><ele>423.57142857142856</ele><time>2026-04-25T08:25:16.453Z</time></trkpt><trkpt lat="45.4056122" lon="7.6637153"><ele>424.14285714285717</ele><time>2026-04-25T08:25:17.457Z</time></trkpt><trkpt lat="45.4056309" lon="7.6638055"><ele>424.7142857142857</ele><time>2026-04-25T08:25:18.454Z</time></trkpt><trkpt lat="45.4056602" lon="7.6639434"><ele>425.2857142857143</ele><time>2026-04-25T08:25:20.454Z</time></trkpt><trkpt lat="45.4057183" lon="7.6639979"><ele>425.8571428571429</ele><time>2026-04-25T08:25:22.451Z</time></trkpt><trkpt lat="45.4057835" lon="7.6639855"><ele>426.42857142857144</ele><time>2026-04-25T08:25:23.462Z</time></trkpt><trkpt lat="45.4058537" lon="7.663974"><ele>427.0</ele><time>2026-04-25T08:25:24.458Z</time></trkpt><trkpt lat="45.4059174" lon="7.6639884"><ele>427.00000000000006</ele><time>2026-04-25T08:25:25.465Z</time></trkpt><trkpt lat="45.4059902" lon="7.6639947"><ele>427.0</ele><time>2026-04-25T08:25:26.46Z</time></trkpt><trkpt lat="45.4060753" lon="7.6639911"><ele>427.0</ele><time>2026-04-25T08:25:27.465Z</time></trkpt><trkpt lat="45.4061617" lon="7.6639635"><ele>427.0</ele><time>2026-04-25T08:25:28.46Z</time></trkpt><trkpt lat="45.4062301" lon="7.663943"><ele>427.00000000000006</ele><time>2026-04-25T08:25:29.467Z</time></trkpt><trkpt lat="45.4063366" lon="7.6639581"><ele>427.0</ele><time>2026-04-25T08:25:31.462Z</time></trkpt><trkpt lat="45.4063743" lon="7.6640929"><ele>427.0</ele><time>2026-04-25T08:25:33.462Z</time></trkpt><trkpt lat="45.4062751" lon="7.6642276"><ele>427.00000000000006</ele><time>2026-04-25T08:25:35.455Z</time></trkpt><trkpt lat="45.406184" lon="7.6642828"><ele>427.00000000000006</ele><time>2026-04-25T08:25:36.453Z</time></trkpt><trkpt lat="45.4060891" lon="7.6643484"><ele>427.0</ele><time>2026-04-25T08:25:37.456Z</time></trkpt><trkpt lat="45.4059984" lon="7.6644164"><ele>427.0</ele><time>2026-04-25T08:25:38.443Z</time></trkpt><trkpt lat="45.4059087" lon="7.6644789"><ele>427.0</ele><time>2026-04-25T08:25:39.454Z</time></trkpt><trkpt lat="45.4058196" lon="7.6645101"><ele>427.00000000000006</ele><time>2026-04-25T08:25:40.461Z</time></trkpt><trkpt lat="45.4057297" lon="7.6645083"><ele>427.00000000000006</ele><time>2026-04-25T08:25:41.456Z</time></trkpt><trkpt lat="45.405622" lon="7.6644653"><ele>427.0</ele><time>2026-04-25T08:25:42.462Z</time></trkpt><trkpt lat="45.4055264" lon="7.6644099"><ele>427.0</ele><time>2026-04-25T08:25:43.458Z</time></trkpt><trkpt lat="45.4054193" lon="7.6643356"><ele>426.25</ele><time>2026-04-25T08:25:44.455Z</time></trkpt><trkpt lat="45.405318" lon="7.6642668"><ele>425.5</ele><time>2026-04-25T08:25:45.458Z</time></trkpt><trkpt lat="45.4052075" lon="7.6641977"><ele>424.75</ele><time>2026-04-25T08:25:46.463Z</time></trkpt><trkpt lat="45.4050841" lon="7.6641503"><ele>424.0</ele><time>2026-04-25T08:25:47.464Z</time></trkpt><trkpt lat="45.4049602" lon="7.6641131"><ele>424.0</ele><time>2026-04-25T08:25:48.455Z</time></trkpt><trkpt lat="45.4048316" lon="7.6640875"><ele>424.0</ele><time>2026-04-25T08:25:49.459Z</time></trkpt><trkpt lat="45.40471" lon="7.6640666"><ele>424.0</ele><time>2026-04-25T08:25:50.458Z</time></trkpt><trkpt lat="45.4045937" lon="7.6640503"><ele>424.0</ele><time>2026-04-25T08:25:51.46Z</time></trkpt><trkpt lat="45.4044805" lon="7.6640403"><ele>423.6</ele><time>2026-04-25T08:25:52.458Z</time></trkpt><trkpt lat="45.4043623" lon="7.6640358"><ele>423.2</ele><time>2026-04-25T08:25:53.459Z</time></trkpt><trkpt lat="45.404249" lon="7.6640343"><ele>422.8</ele><time>2026-04-25T08:25:54.46Z</time></trkpt><trkpt lat="45.4041417" lon="7.6640367"><ele>422.40000000000003</ele><time>2026-04-25T08:25:55.46Z</time></trkpt><trkpt lat="45.4040343" lon="7.6640405"><ele>422.0</ele><time>2026-04-25T08:25:56.463Z</time></trkpt><trkpt lat="45.4039353" lon="7.6640444"><ele>421.99999999999994</ele><time>2026-04-25T08:25:57.463Z</time></trkpt><trkpt lat="45.403845" lon="7.6640425"><ele>422.0</ele><time>2026-04-25T08:25:58.443Z</time></trkpt><trkpt lat="45.4037687" lon="7.6640393"><ele>422.0</ele><time>2026-04-25T08:25:59.451Z</time></trkpt><trkpt lat="45.4037047" lon="7.6640337"><ele>422.0</ele><time>2026-04-25T08:26:00.465Z</time></trkpt><trkpt lat="45.4036179" lon="7.6640509"><ele>421.99999999999994</ele><time>2026-04-25T08:26:02.452Z</time></trkpt><trkpt lat="45.4035584" lon="7.6640994"><ele>422.0</ele><time>2026-04-25T08:26:07.464Z</time></trkpt><trkpt lat="45.4036015" lon="7.664313"><ele>427.5</ele><time>2026-04-25T08:26:09.458Z</time></trkpt><trkpt lat="45.4036614" lon="7.664474"><ele>433.0</ele><time>2026-04-25T08:26:10.459Z</time></trkpt><trkpt lat="45.4037164" lon="7.6646332"><ele>438.5</ele><time>2026-04-25T08:26:11.461Z</time></trkpt><trkpt lat="45.4037614" lon="7.6647795"><ele>444.0</ele><time>2026-04-25T08:26:12.455Z</time></trkpt><trkpt lat="45.4038006" lon="7.6649069"><ele>444.0</ele><time>2026-04-25T08:26:13.443Z</time></trkpt><trkpt lat="45.4038199" lon="7.6650322"><ele>444.0</ele><time>2026-04-25T08:26:14.446Z</time></trkpt><trkpt lat="45.4038393" lon="7.6651644"><ele>444.0</ele><time>2026-04-25T08:26:15.458Z</time></trkpt><trkpt lat="45.4038616" lon="7.6652977"><ele>444.0</ele><time>2026-04-25T08:26:16.459Z</time></trkpt><trkpt lat="45.4038482" lon="7.6653935"><ele>444.0</ele><time>2026-04-25T08:26:17.462Z</time></trkpt><trkpt lat="45.4038134" lon="7.6655202"><ele>444.0</ele><time>2026-04-25T08:26:19.461Z</time></trkpt><trkpt lat="45.403776" lon="7.6655942"><ele>443.3333333333333</ele><time>2026-04-25T08:26:20.453Z</time></trkpt><trkpt lat="45.4037498" lon="7.6656793"><ele>442.66666666666663</ele><time>2026-04-25T08:26:21.46Z</time></trkpt><trkpt lat="45.4037254" lon="7.6657998"><ele>442.0</ele><time>2026-04-25T08:26:22.455Z</time></trkpt><trkpt lat="45.4036735" lon="7.6659145"><ele>441.3333333333333</ele><time>2026-04-25T08:26:23.458Z</time></trkpt><trkpt lat="45.4036149" lon="7.6659977"><ele>440.66666666666663</ele><time>2026-04-25T08:26:24.459Z</time></trkpt><trkpt lat="45.4035559" lon="7.6660584"><ele>440.0</ele><time>2026-04-25T08:26:25.459Z</time></trkpt><trkpt lat="45.4034965" lon="7.6660982"><ele>444.16666666666663</ele><time>2026-04-25T08:26:26.461Z</time></trkpt><trkpt lat="45.4034344" lon="7.6661283"><ele>448.3333333333333</ele><time>2026-04-25T08:26:27.47Z</time></trkpt><trkpt lat="45.4033568" lon="7.6661301"><ele>452.5</ele><time>2026-04-25T08:26:28.461Z</time></trkpt><trkpt lat="45.4032752" lon="7.6661444"><ele>456.66666666666663</ele><time>2026-04-25T08:26:29.463Z</time></trkpt><trkpt lat="45.4031914" lon="7.6661621"><ele>460.8333333333333</ele><time>2026-04-25T08:26:30.466Z</time></trkpt><trkpt lat="45.4031018" lon="7.6661561"><ele>465.0</ele><time>2026-04-25T08:26:31.463Z</time></trkpt><trkpt lat="45.4030077" lon="7.6661528"><ele>466.8333333333333</ele><time>2026-04-25T08:26:32.458Z</time></trkpt><trkpt lat="45.402924" lon="7.6661383"><ele>468.66666666666663</ele><time>2026-04-25T08:26:33.463Z</time></trkpt><trkpt lat="45.4028392" lon="7.6660964"><ele>470.5</ele><time>2026-04-25T08:26:35.465Z</time></trkpt><trkpt lat="45.4027864" lon="7.6660007"><ele>472.3333333333333</ele><time>2026-04-25T08:26:38.462Z</time></trkpt><trkpt lat="45.4028576" lon="7.6659379"><ele>474.16666666666663</ele><time>2026-04-25T08:27:15.457Z</time></trkpt><trkpt lat="45.4029276" lon="7.6659671"><ele>476.0</ele><time>2026-04-25T08:27:17.46Z</time></trkpt><trkpt lat="45.4030162" lon="7.6660136"><ele>474.16666666666663</ele><time>2026-04-25T08:27:19.46Z</time></trkpt><trkpt lat="45.403105" lon="7.6660594"><ele>472.3333333333333</ele><time>2026-04-25T08:27:21.463Z</time></trkpt><trkpt lat="45.403179" lon="7.6660877"><ele>470.5</ele><time>2026-04-25T08:27:23.457Z</time></trkpt><trkpt lat="45.4032684" lon="7.666125"><ele>468.66666666666663</ele><time>2026-04-25T08:27:26.457Z</time></trkpt><trkpt lat="45.403335" lon="7.6661668"><ele>466.8333333333333</ele><time>2026-04-25T08:27:28.451Z</time></trkpt><trkpt lat="45.4033879" lon="7.6662228"><ele>465.0</ele><time>2026-04-25T08:27:30.458Z</time></trkpt><trkpt lat="45.4034575" lon="7.666275"><ele>465.0</ele><time>2026-04-25T08:27:32.457Z</time></trkpt><trkpt lat="45.4035298" lon="7.666311"><ele>465.0</ele><time>2026-04-25T08:27:34.46Z</time></trkpt><trkpt lat="45.4035745" lon="7.6663766"><ele>465.0</ele><time>2026-04-25T08:27:36.457Z</time></trkpt><trkpt lat="45.4036023" lon="7.6664646"><ele>465.0</ele><time>2026-04-25T08:27:38.466Z</time></trkpt><trkpt lat="45.4036377" lon="7.6665681"><ele>465.0</ele><time>2026-04-25T08:27:40.459Z</time></trkpt><trkpt lat="45.403661" lon="7.6667221"><ele>465.0</ele><time>2026-04-25T08:27:42.456Z</time></trkpt><trkpt lat="45.4036691" lon="7.6668442"><ele>464.8</ele><time>2026-04-25T08:27:44.46Z</time></trkpt><trkpt lat="45.4036985" lon="7.6669642"><ele>464.6</ele><time>2026-04-25T08:27:46.451Z</time></trkpt><trkpt lat="45.4037514" lon="7.667076"><ele>464.4</ele><time>2026-04-25T08:27:48.451Z</time></trkpt><trkpt lat="45.4037989" lon="7.6672213"><ele>464.2</ele><time>2026-04-25T08:27:50.465Z</time></trkpt><trkpt lat="45.4038394" lon="7.6673733"><ele>464.0</ele><time>2026-04-25T08:27:52.445Z</time></trkpt><trkpt lat="45.4038521" lon="7.667467"><ele>463.99999999999994</ele><time>2026-04-25T08:27:53.454Z</time></trkpt><trkpt lat="45.4038662" lon="7.6675977"><ele>464.0</ele><time>2026-04-25T08:27:54.457Z</time></trkpt><trkpt lat="45.4038871" lon="7.6677399"><ele>464.0</ele><time>2026-04-25T08:27:55.456Z</time></trkpt><trkpt lat="45.4039092" lon="7.6678609"><ele>464.0</ele><time>2026-04-25T08:27:56.457Z</time></trkpt><trkpt lat="45.403925" lon="7.667961"><ele>463.99999999999994</ele><time>2026-04-25T08:27:57.454Z</time></trkpt><trkpt lat="45.4039346" lon="7.6680576"><ele>464.0</ele><time>2026-04-25T08:27:58.454Z</time></trkpt><trkpt lat="45.4039444" lon="7.6681678"><ele>466.3333333333333</ele><time>2026-04-25T08:27:59.458Z</time></trkpt><trkpt lat="45.4039521" lon="7.6682795"><ele>468.66666666666663</ele><time>2026-04-25T08:28:00.457Z</time></trkpt><trkpt lat="45.4039516" lon="7.6683692"><ele>471.0</ele><time>2026-04-25T08:28:01.458Z</time></trkpt><trkpt lat="45.4039823" lon="7.6685232"><ele>473.33333333333337</ele><time>2026-04-25T08:28:03.462Z</time></trkpt><trkpt lat="45.4040182" lon="7.6686604"><ele>475.6666666666667</ele><time>2026-04-25T08:28:05.459Z</time></trkpt><trkpt lat="45.4040365" lon="7.6687619"><ele>478.0</ele><time>2026-04-25T08:28:08.465Z</time></trkpt><trkpt lat="45.404061" lon="7.6688469"><ele>479.50000000000006</ele><time>2026-04-25T08:29:29.261Z</time></trkpt><trkpt lat="45.4041563" lon="7.6689465"><ele>481.0</ele><time>2026-04-25T08:29:31.268Z</time></trkpt><trkpt lat="45.4042296" lon="7.6689856"><ele>482.5</ele><time>2026-04-25T08:29:32.259Z</time></trkpt><trkpt lat="45.4043042" lon="7.6690154"><ele>484.0</ele><time>2026-04-25T08:29:33.268Z</time></trkpt><trkpt lat="45.4043679" lon="7.6690401"><ele>485.50000000000006</ele><time>2026-04-25T08:29:34.167Z</time></trkpt><trkpt lat="45.4044407" lon="7.6691174"><ele>487.0</ele><time>2026-04-25T08:29:36.023Z</time></trkpt><trkpt lat="45.4044889" lon="7.6692671"><ele>487.00000000000006</ele><time>2026-04-25T08:29:38.02Z</time></trkpt><trkpt lat="45.4045236" lon="7.6693636"><ele>487.0</ele><time>2026-04-25T08:29:39.024Z</time></trkpt><trkpt lat="45.4045574" lon="7.6694504"><ele>487.0</ele><time>2026-04-25T08:29:40.015Z</time></trkpt><trkpt lat="45.4045817" lon="7.6695545"><ele>487.0</ele><time>2026-04-25T08:29:41.024Z</time></trkpt><trkpt lat="45.404598" lon="7.669657"><ele>487.00000000000006</ele><time>2026-04-25T08:29:42.017Z</time></trkpt><trkpt lat="45.4046204" lon="7.6697487"><ele>487.0</ele><time>2026-04-25T08:29:43.021Z</time></trkpt><trkpt lat="45.4046621" lon="7.6698613"><ele>489.75</ele><time>2026-04-25T08:29:45.021Z</time></trkpt><trkpt lat="45.4047686" lon="7.6699215"><ele>492.5</ele><time>2026-04-25T08:29:48.017Z</time></trkpt><trkpt lat="45.4048784" lon="7.6699149"><ele>495.25</ele><time>2026-04-25T08:29:49.013Z</time></trkpt><trkpt lat="45.4049951" lon="7.6699174"><ele>498.0</ele><time>2026-04-25T08:29:50.024Z</time></trkpt><trkpt lat="45.4051118" lon="7.669925"><ele>498.0</ele><time>2026-04-25T08:29:51.021Z</time></trkpt><trkpt lat="45.405212" lon="7.6699227"><ele>498.0</ele><time>2026-04-25T08:29:52.016Z</time></trkpt><trkpt lat="45.4053003" lon="7.6699255"><ele>498.0</ele><time>2026-04-25T08:29:53.018Z</time></trkpt><trkpt lat="45.4053814" lon="7.6699174"><ele>498.0</ele><time>2026-04-25T08:29:54.018Z</time></trkpt><trkpt lat="45.4054537" lon="7.6699146"><ele>498.0</ele><time>2026-04-25T08:29:55.015Z</time></trkpt><trkpt lat="45.4055242" lon="7.6699152"><ele>498.0</ele><time>2026-04-25T08:29:57.022Z</time></trkpt><trkpt lat="45.4055119" lon="7.670032"><ele>498.0</ele><time>2026-04-25T08:30:02.019Z</time></trkpt><trkpt lat="45.4054556" lon="7.6700884"><ele>497.99999999999994</ele><time>2026-04-25T08:30:03.018Z</time></trkpt><trkpt lat="45.4053561" lon="7.6701957"><ele>497.99999999999994</ele><time>2026-04-25T08:30:04.024Z</time></trkpt><trkpt lat="45.405247" lon="7.6702972"><ele>498.0</ele><time>2026-04-25T08:30:05.019Z</time></trkpt><trkpt lat="45.4051492" lon="7.6703738"><ele>498.0</ele><time>2026-04-25T08:30:06.022Z</time></trkpt><trkpt lat="45.4050492" lon="7.6704356"><ele>499.1666666666667</ele><time>2026-04-25T08:30:07.023Z</time></trkpt><trkpt lat="45.4049696" lon="7.6704846"><ele>500.33333333333337</ele><time>2026-04-25T08:30:08.021Z</time></trkpt><trkpt lat="45.4049145" lon="7.6705413"><ele>501.5</ele><time>2026-04-25T08:30:09.019Z</time></trkpt><trkpt lat="45.4048622" lon="7.6706289"><ele>502.6666666666667</ele><time>2026-04-25T08:30:11.081Z</time></trkpt><trkpt lat="45.4048631" lon="7.6707318"><ele>503.83333333333337</ele><time>2026-04-25T08:30:25.007Z</time></trkpt><trkpt lat="45.4049172" lon="7.6708143"><ele>505.0</ele><time>2026-04-25T08:30:27.023Z</time></trkpt><trkpt lat="45.4050253" lon="7.670891"><ele>505.00000000000006</ele><time>2026-04-25T08:30:29.012Z</time></trkpt><trkpt lat="45.4051014" lon="7.6709281"><ele>505.0</ele><time>2026-04-25T08:30:30.017Z</time></trkpt><trkpt lat="45.4051797" lon="7.6709693"><ele>505.0</ele><time>2026-04-25T08:30:31.012Z</time></trkpt><trkpt lat="45.4052575" lon="7.6710122"><ele>505.0</ele><time>2026-04-25T08:30:32.015Z</time></trkpt><trkpt lat="45.4053497" lon="7.6710475"><ele>505.00000000000006</ele><time>2026-04-25T08:30:33.029Z</time></trkpt><trkpt lat="45.4054456" lon="7.6710918"><ele>505.0</ele><time>2026-04-25T08:30:34.02Z</time></trkpt><trkpt lat="45.4055523" lon="7.6711291"><ele>504.8</ele><time>2026-04-25T08:30:35.019Z</time></trkpt><trkpt lat="45.405661" lon="7.671157"><ele>504.6</ele><time>2026-04-25T08:30:36.03Z</time></trkpt><trkpt lat="45.4057685" lon="7.6711828"><ele>504.4</ele><time>2026-04-25T08:30:37.014Z</time></trkpt><trkpt lat="45.4058682" lon="7.6712162"><ele>504.2</ele><time>2026-04-25T08:30:38.02Z</time></trkpt><trkpt lat="45.4059625" lon="7.6712432"><ele>504.0</ele><time>2026-04-25T08:30:39.014Z</time></trkpt><trkpt lat="45.4060554" lon="7.671275"><ele>504.0</ele><time>2026-04-25T08:30:40.023Z</time></trkpt><trkpt lat="45.4061417" lon="7.6713099"><ele>504.0</ele><time>2026-04-25T08:30:41.016Z</time></trkpt><trkpt lat="45.4062273" lon="7.671345"><ele>504.0</ele><time>2026-04-25T08:30:42.021Z</time></trkpt><trkpt lat="45.4063068" lon="7.6713682"><ele>504.0</ele><time>2026-04-25T08:30:43.02Z</time></trkpt><trkpt lat="45.4063819" lon="7.6713827"><ele>504.0</ele><time>2026-04-25T08:30:44.039Z</time></trkpt><trkpt lat="45.406466" lon="7.6714467"><ele>504.0</ele><time>2026-04-25T08:30:46.017Z</time></trkpt><trkpt lat="45.4065405" lon="7.6715645"><ele>505.5</ele><time>2026-04-25T08:30:48.026Z</time></trkpt><trkpt lat="45.4065867" lon="7.6716297"><ele>507.0</ele><time>2026-04-25T08:30:49.016Z</time></trkpt><trkpt lat="45.4066412" lon="7.6717004"><ele>508.5</ele><time>2026-04-25T08:30:50.02Z</time></trkpt><trkpt lat="45.4066959" lon="7.6717796"><ele>510.0</ele><time>2026-04-25T08:30:51.025Z</time></trkpt><trkpt lat="45.4067616" lon="7.6718556"><ele>511.5</ele><time>2026-04-25T08:30:52.021Z</time></trkpt><trkpt lat="45.4068325" lon="7.6719409"><ele>513.0</ele><time>2026-04-25T08:30:53.019Z</time></trkpt><trkpt lat="45.4069068" lon="7.6720208"><ele>514.1666666666666</ele><time>2026-04-25T08:30:54.027Z</time></trkpt><trkpt lat="45.4069794" lon="7.6720897"><ele>515.3333333333334</ele><time>2026-04-25T08:30:55.036Z</time></trkpt><trkpt lat="45.4070531" lon="7.6721533"><ele>516.5</ele><time>2026-04-25T08:30:56.015Z</time></trkpt><trkpt lat="45.407118" lon="7.6722029"><ele>517.6666666666667</ele><time>2026-04-25T08:30:57.01Z</time></trkpt><trkpt lat="45.4071828" lon="7.6722498"><ele>518.8333333333334</ele><time>2026-04-25T08:30:58.011Z</time></trkpt><trkpt lat="45.4072789" lon="7.6723362"><ele>520.0</ele><time>2026-04-25T08:31:00.017Z</time></trkpt><trkpt lat="45.407339" lon="7.6724774"><ele>520.0</ele><time>2026-04-25T08:31:02.023Z</time></trkpt><trkpt lat="45.4073689" lon="7.6725912"><ele>520.0</ele><time>2026-04-25T08:31:03.026Z</time></trkpt><trkpt lat="45.4073949" lon="7.6726991"><ele>520.0</ele><time>2026-04-25T08:31:04.02Z</time></trkpt><trkpt lat="45.4074284" lon="7.6727884"><ele>520.0</ele><time>2026-04-25T08:31:05.022Z</time></trkpt><trkpt lat="45.4074925" lon="7.6729434"><ele>520.0</ele><time>2026-04-25T08:31:07.016Z</time></trkpt><trkpt lat="45.4075318" lon="7.6730244"><ele>520.0</ele><time>2026-04-25T08:31:08.022Z</time></trkpt><trkpt lat="45.4075838" lon="7.6731066"><ele>517.8333333333334</ele><time>2026-04-25T08:31:09.02Z</time></trkpt><trkpt lat="45.4076441" lon="7.6731824"><ele>515.6666666666667</ele><time>2026-04-25T08:31:10.021Z</time></trkpt><trkpt lat="45.4077299" lon="7.6732681"><ele>513.5</ele><time>2026-04-25T08:31:12.017Z</time></trkpt><trkpt lat="45.4078053" lon="7.673348"><ele>511.33333333333337</ele><time>2026-04-25T08:31:14.024Z</time></trkpt><trkpt lat="45.4078789" lon="7.6733363"><ele>509.1666666666667</ele><time>2026-04-25T08:31:17.017Z</time></trkpt><trkpt lat="45.4079419" lon="7.6733136"><ele>507.0</ele><time>2026-04-25T08:31:19.019Z</time></trkpt><trkpt lat="45.4080313" lon="7.6732893"><ele>507.0</ele><time>2026-04-25T08:31:21.025Z</time></trkpt><trkpt lat="45.4080993" lon="7.6732873"><ele>507.00000000000006</ele><time>2026-04-25T08:31:22.023Z</time></trkpt><trkpt lat="45.4082025" lon="7.6732673"><ele>507.00000000000006</ele><time>2026-04-25T08:31:24.025Z</time></trkpt><trkpt lat="45.4083256" lon="7.6732797"><ele>507.0</ele><time>2026-04-25T08:31:25.946Z</time></trkpt><trkpt lat="45.4084181" lon="7.6732869"><ele>507.0</ele><time>2026-04-25T08:31:27.959Z</time></trkpt><trkpt lat="45.408512" lon="7.6733205"><ele>507.0</ele><time>2026-04-25T08:31:29.943Z</time></trkpt><trkpt lat="45.408575" lon="7.6733236"><ele>507.0</ele><time>2026-04-25T08:31:31.95Z</time></trkpt><trkpt lat="45.408641" lon="7.6732882"><ele>507.0</ele><time>2026-04-25T08:31:34.948Z</time></trkpt><trkpt lat="45.4087118" lon="7.6732029"><ele>507.0</ele><time>2026-04-25T08:31:37.955Z</time></trkpt><trkpt lat="45.4087744" lon="7.6731517"><ele>507.0</ele><time>2026-04-25T08:31:40.948Z</time></trkpt><trkpt lat="45.4088292" lon="7.6730762"><ele>507.0</ele><time>2026-04-25T08:31:43.96Z</time></trkpt><trkpt lat="45.4089015" lon="7.6730168"><ele>507.5</ele><time>2026-04-25T08:31:53.965Z</time></trkpt><trkpt lat="45.4089475" lon="7.6729109"><ele>508.0</ele><time>2026-04-25T08:31:55.959Z</time></trkpt><trkpt lat="45.4089941" lon="7.6727952"><ele>508.5</ele><time>2026-04-25T08:31:57.951Z</time></trkpt><trkpt lat="45.4090466" lon="7.6727417"><ele>509.0</ele><time>2026-04-25T08:31:59.957Z</time></trkpt><trkpt lat="45.4091476" lon="7.6728243"><ele>509.5</ele><time>2026-04-25T08:32:04.952Z</time></trkpt><trkpt lat="45.4091676" lon="7.6729124"><ele>510.0</ele><time>2026-04-25T08:32:08.96Z</time></trkpt><trkpt lat="45.4092333" lon="7.6729331"><ele>507.3333333333333</ele><time>2026-04-25T08:32:17.954Z</time></trkpt><trkpt lat="45.4093076" lon="7.6729155"><ele>504.66666666666663</ele><time>2026-04-25T08:32:20.955Z</time></trkpt><trkpt lat="45.4093807" lon="7.6728864"><ele>502.0</ele><time>2026-04-25T08:32:24.014Z</time></trkpt><trkpt lat="45.4094669" lon="7.672884"><ele>499.3333333333333</ele><time>2026-04-25T08:32:26.965Z</time></trkpt><trkpt lat="45.4095267" lon="7.672932"><ele>496.66666666666663</ele><time>2026-04-25T08:32:28.944Z</time></trkpt><trkpt lat="45.4096064" lon="7.6729818"><ele>494.0</ele><time>2026-04-25T08:32:30.946Z</time></trkpt><trkpt lat="45.4096639" lon="7.6730492"><ele>493.66666666666663</ele><time>2026-04-25T08:32:32.959Z</time></trkpt><trkpt lat="45.4097063" lon="7.6731201"><ele>493.3333333333333</ele><time>2026-04-25T08:32:35.958Z</time></trkpt><trkpt lat="45.4097301" lon="7.6732425"><ele>493.0</ele><time>2026-04-25T08:32:55.951Z</time></trkpt><trkpt lat="45.4098226" lon="7.6732688"><ele>492.66666666666663</ele><time>2026-04-25T08:33:00.954Z</time></trkpt><trkpt lat="45.4098986" lon="7.6733247"><ele>492.3333333333333</ele><time>2026-04-25T08:33:02.952Z</time></trkpt><trkpt lat="45.4099921" lon="7.6733929"><ele>492.0</ele><time>2026-04-25T08:33:04.952Z</time></trkpt><trkpt lat="45.4101037" lon="7.6734779"><ele>492.0</ele><time>2026-04-25T08:33:06.948Z</time></trkpt><trkpt lat="45.4101734" lon="7.6735423"><ele>492.0</ele><time>2026-04-25T08:33:08.959Z</time></trkpt><trkpt lat="45.4102561" lon="7.6736027"><ele>492.0</ele><time>2026-04-25T08:33:10.958Z</time></trkpt><trkpt lat="45.4103059" lon="7.6736606"><ele>492.0</ele><time>2026-04-25T08:33:11.957Z</time></trkpt><trkpt lat="45.4103614" lon="7.6737715"><ele>492.0</ele><time>2026-04-25T08:33:12.951Z</time></trkpt><trkpt lat="45.4103989" lon="7.6739069"><ele>492.0</ele><time>2026-04-25T08:33:13.952Z</time></trkpt><trkpt lat="45.4104675" lon="7.6740026"><ele>492.1666666666667</ele><time>2026-04-25T08:33:14.955Z</time></trkpt><trkpt lat="45.4105311" lon="7.6741059"><ele>492.33333333333337</ele><time>2026-04-25T08:33:15.948Z</time></trkpt><trkpt lat="45.4105924" lon="7.6741923"><ele>492.5</ele><time>2026-04-25T08:33:16.94Z</time></trkpt><trkpt lat="45.4106504" lon="7.6742997"><ele>492.6666666666667</ele><time>2026-04-25T08:33:17.949Z</time></trkpt><trkpt lat="45.4107005" lon="7.6743988"><ele>492.83333333333337</ele><time>2026-04-25T08:33:18.95Z</time></trkpt><trkpt lat="45.4107394" lon="7.6744861"><ele>493.0</ele><time>2026-04-25T08:33:19.949Z</time></trkpt><trkpt lat="45.41077" lon="7.6745714"><ele>492.33333333333337</ele><time>2026-04-25T08:33:21.945Z</time></trkpt><trkpt lat="45.4107589" lon="7.6746925"><ele>491.6666666666667</ele><time>2026-04-25T08:33:28.941Z</time></trkpt><trkpt lat="45.4107326" lon="7.6747741"><ele>491.0</ele><time>2026-04-25T08:33:31.952Z</time></trkpt><trkpt lat="45.4106908" lon="7.6748603"><ele>490.33333333333337</ele><time>2026-04-25T08:33:34.953Z</time></trkpt><trkpt lat="45.4106084" lon="7.6748305"><ele>489.6666666666667</ele><time>2026-04-25T08:33:37.952Z</time></trkpt><trkpt lat="45.4105353" lon="7.6747579"><ele>489.0</ele><time>2026-04-25T08:33:39.952Z</time></trkpt><trkpt lat="45.4104879" lon="7.6746559"><ele>489.0</ele><time>2026-04-25T08:33:41.955Z</time></trkpt><trkpt lat="45.4104265" lon="7.6745801"><ele>489.0</ele><time>2026-04-25T08:33:43.954Z</time></trkpt><trkpt lat="45.4103706" lon="7.6744724"><ele>489.0</ele><time>2026-04-25T08:33:45.961Z</time></trkpt><trkpt lat="45.4103171" lon="7.6743834"><ele>489.0</ele><time>2026-04-25T08:33:47.953Z</time></trkpt><trkpt lat="45.4102981" lon="7.6742966"><ele>489.0</ele><time>2026-04-25T08:33:49.95Z</time></trkpt><trkpt lat="45.410242" lon="7.6742099"><ele>489.0</ele><time>2026-04-25T08:33:52.953Z</time></trkpt><trkpt lat="45.4101731" lon="7.6741193"><ele>488.3333333333333</ele><time>2026-04-25T08:33:55.956Z</time></trkpt><trkpt lat="45.4101152" lon="7.6740451"><ele>487.66666666666663</ele><time>2026-04-25T08:33:57.953Z</time></trkpt><trkpt lat="45.4100559" lon="7.6739637"><ele>487.0</ele><time>2026-04-25T08:34:00.959Z</time></trkpt><trkpt lat="45.410032" lon="7.6738691"><ele>486.3333333333333</ele><time>2026-04-25T08:34:04.958Z</time></trkpt><trkpt lat="45.4100058" lon="7.6737849"><ele>485.66666666666663</ele><time>2026-04-25T08:34:07.952Z</time></trkpt><trkpt lat="45.409943" lon="7.6736669"><ele>485.0</ele><time>2026-04-25T08:35:18.953Z</time></trkpt><trkpt lat="45.4098803" lon="7.673616"><ele>484.99999999999994</ele><time>2026-04-25T08:35:22.95Z</time></trkpt><trkpt lat="45.4098127" lon="7.6735074"><ele>485.0</ele><time>2026-04-25T08:35:29.936Z</time></trkpt><trkpt lat="45.4097848" lon="7.6736188"><ele>485.0</ele><time>2026-04-25T08:36:47.953Z</time></trkpt><trkpt lat="45.4097112" lon="7.6736487"><ele>485.0</ele><time>2026-04-25T08:40:50.958Z</time></trkpt><trkpt lat="45.4096269" lon="7.6736875"><ele>484.99999999999994</ele><time>2026-04-25T08:40:54.962Z</time></trkpt><trkpt lat="45.4095541" lon="7.6736873"><ele>485.0</ele><time>2026-04-25T08:40:57.965Z</time></trkpt><trkpt lat="45.4094761" lon="7.6737012"><ele>484.1428571428572</ele><time>2026-04-25T08:41:01.964Z</time></trkpt><trkpt lat="45.4094108" lon="7.6736344"><ele>483.28571428571433</ele><time>2026-04-25T08:41:07.956Z</time></trkpt><trkpt lat="45.409368" lon="7.673563"><ele>482.42857142857144</ele><time>2026-04-25T08:41:12.03Z</time></trkpt><trkpt lat="45.409336" lon="7.6734616"><ele>481.5714285714286</ele><time>2026-04-25T08:41:16.952Z</time></trkpt><trkpt lat="45.4093262" lon="7.6733629"><ele>480.7142857142858</ele><time>2026-04-25T08:41:20.949Z</time></trkpt><trkpt lat="45.4092888" lon="7.6732782"><ele>479.85714285714283</ele><time>2026-04-25T08:41:26.948Z</time></trkpt><trkpt lat="45.4092248" lon="7.6732686"><ele>479.0</ele><time>2026-04-25T08:41:30.952Z</time></trkpt><trkpt lat="45.4092533" lon="7.6731863"><ele>481.49999999999994</ele><time>2026-04-25T08:41:37.026Z</time></trkpt><trkpt lat="45.4092939" lon="7.6730967"><ele>484.0</ele><time>2026-04-25T08:41:50.952Z</time></trkpt><trkpt lat="45.4093705" lon="7.6730405"><ele>486.5</ele><time>2026-04-25T08:41:54.957Z</time></trkpt><trkpt lat="45.4094294" lon="7.6729903"><ele>489.0</ele><time>2026-04-25T08:41:57.947Z</time></trkpt><trkpt lat="45.4094982" lon="7.6729486"><ele>491.49999999999994</ele><time>2026-04-25T08:42:01.949Z</time></trkpt><trkpt lat="45.4096073" lon="7.6729379"><ele>494.0</ele><time>2026-04-25T08:42:13.958Z</time></trkpt><trkpt lat="45.4096495" lon="7.6728569"><ele>493.7142857142857</ele><time>2026-04-25T08:42:16.95Z</time></trkpt><trkpt lat="45.4096974" lon="7.6727838"><ele>493.42857142857144</ele><time>2026-04-25T08:42:19.957Z</time></trkpt><trkpt lat="45.4097408" lon="7.6727155"><ele>493.14285714285717</ele><time>2026-04-25T08:42:23.951Z</time></trkpt><trkpt lat="45.4098026" lon="7.6726357"><ele>492.8571428571429</ele><time>2026-04-25T08:42:28.949Z</time></trkpt><trkpt lat="45.4098485" lon="7.6725663"><ele>492.57142857142856</ele><time>2026-04-25T08:42:32.948Z</time></trkpt><trkpt lat="45.4098899" lon="7.6724927"><ele>492.28571428571433</ele><time>2026-04-25T08:42:35.953Z</time></trkpt><trkpt lat="45.4099155" lon="7.6725819"><ele>492.00000000000006</ele><time>2026-04-25T08:42:44.011Z</time></trkpt><trkpt lat="45.4099055" lon="7.6727004"><ele>492.0</ele><time>2026-04-25T08:42:48.952Z</time></trkpt><trkpt lat="45.4098637" lon="7.6727919"><ele>492.0</ele><time>2026-04-25T08:42:51.949Z</time></trkpt><trkpt lat="45.409805" lon="7.6728604"><ele>492.0</ele><time>2026-04-25T08:42:54.952Z</time></trkpt><trkpt lat="45.4097644" lon="7.6729424"><ele>492.0</ele><time>2026-04-25T08:43:00.951Z</time></trkpt><trkpt lat="45.4098521" lon="7.672975"><ele>492.0</ele><time>2026-04-25T08:43:05.946Z</time></trkpt><trkpt lat="45.409915" lon="7.6729864"><ele>492.0</ele><time>2026-04-25T08:43:08.044Z</time></trkpt><trkpt lat="45.4099401" lon="7.6730937"><ele>492.0</ele><time>2026-04-25T08:43:11.948Z</time></trkpt><trkpt lat="45.4099189" lon="7.673183"><ele>492.0</ele><time>2026-04-25T08:43:15.952Z</time></trkpt><trkpt lat="45.4098949" lon="7.6732934"><ele>492.0</ele><time>2026-04-25T08:43:25.96Z</time></trkpt><trkpt lat="45.40988" lon="7.6734366"><ele>492.0</ele><time>2026-04-25T08:43:33.948Z</time></trkpt><trkpt lat="45.4098224" lon="7.6735155"><ele>492.0</ele><time>2026-04-25T08:43:39.029Z</time></trkpt><trkpt lat="45.4097607" lon="7.6735414"><ele>492.0</ele><time>2026-04-25T08:43:41.944Z</time></trkpt><trkpt lat="45.4096653" lon="7.6735796"><ele>492.0</ele><time>2026-04-25T08:45:38.956Z</time></trkpt><trkpt lat="45.4097215" lon="7.6735114"><ele>492.0</ele><time>2026-04-25T08:45:42.958Z</time></trkpt><trkpt lat="45.4097884" lon="7.6734584"><ele>492.0</ele><time>2026-04-25T08:45:47.958Z</time></trkpt><trkpt lat="45.4098578" lon="7.6734674"><ele>492.0</ele><time>2026-04-25T08:45:50.958Z</time></trkpt><trkpt lat="45.4099166" lon="7.6735002"><ele>492.0</ele><time>2026-04-25T08:45:52.961Z</time></trkpt><trkpt lat="45.4099965" lon="7.6735603"><ele>492.0</ele><time>2026-04-25T08:45:55.952Z</time></trkpt><trkpt lat="45.4100673" lon="7.6736313"><ele>492.1428571428572</ele><time>2026-04-25T08:45:58.959Z</time></trkpt><trkpt lat="45.4101177" lon="7.6737036"><ele>492.28571428571433</ele><time>2026-04-25T08:46:01.956Z</time></trkpt><trkpt lat="45.4101779" lon="7.6737577"><ele>492.42857142857144</ele><time>2026-04-25T08:46:04.961Z</time></trkpt><trkpt lat="45.4102416" lon="7.6737759"><ele>492.5714285714286</ele><time>2026-04-25T08:46:06.953Z</time></trkpt><trkpt lat="45.4103147" lon="7.6737476"><ele>492.7142857142858</ele><time>2026-04-25T08:46:08.96Z</time></trkpt><trkpt lat="45.4103982" lon="7.6737378"><ele>492.85714285714283</ele><time>2026-04-25T08:46:09.961Z</time></trkpt><trkpt lat="45.4104707" lon="7.6736883"><ele>493.0</ele><time>2026-04-25T08:46:11.959Z</time></trkpt><trkpt lat="45.4105257" lon="7.6736367"><ele>493.0</ele><time>2026-04-25T08:46:13.951Z</time></trkpt><trkpt lat="45.4105794" lon="7.6735745"><ele>493.0</ele><time>2026-04-25T08:46:15.953Z</time></trkpt><trkpt lat="45.4106412" lon="7.6735341"><ele>493.0</ele><time>2026-04-25T08:46:17.951Z</time></trkpt><trkpt lat="45.4107299" lon="7.6735169"><ele>493.0</ele><time>2026-04-25T08:46:20.941Z</time></trkpt><trkpt lat="45.4107907" lon="7.6734872"><ele>493.0</ele><time>2026-04-25T08:46:22.954Z</time></trkpt><trkpt lat="45.4108607" lon="7.6734797"><ele>493.0</ele><time>2026-04-25T08:46:25.952Z</time></trkpt><trkpt lat="45.4109225" lon="7.6735444"><ele>493.0</ele><time>2026-04-25T08:46:33.953Z</time></trkpt><trkpt lat="45.4109811" lon="7.6736085"><ele>493.00000000000006</ele><time>2026-04-25T08:46:36.956Z</time></trkpt><trkpt lat="45.4110278" lon="7.6736797"><ele>493.0</ele><time>2026-04-25T08:46:39.952Z</time></trkpt><trkpt lat="45.4110772" lon="7.6737597"><ele>493.0</ele><time>2026-04-25T08:46:49.952Z</time></trkpt><trkpt lat="45.41115" lon="7.6737971"><ele>493.0</ele><time>2026-04-25T08:46:53.951Z</time></trkpt><trkpt lat="45.411223" lon="7.6738434"><ele>493.00000000000006</ele><time>2026-04-25T08:46:57.954Z</time></trkpt><trkpt lat="45.4112605" lon="7.6739562"><ele>493.0</ele><time>2026-04-25T08:47:00.954Z</time></trkpt><trkpt lat="45.4112576" lon="7.674046"><ele>493.00000000000006</ele><time>2026-04-25T08:47:04.952Z</time></trkpt><trkpt lat="45.4111777" lon="7.6740654"><ele>493.0</ele><time>2026-04-25T08:47:11.95Z</time></trkpt><trkpt lat="45.4111083" lon="7.6740669"><ele>493.0</ele><time>2026-04-25T08:47:14.96Z</time></trkpt><trkpt lat="45.4110377" lon="7.6741071"><ele>493.0</ele><time>2026-04-25T08:47:17.961Z</time></trkpt><trkpt lat="45.4109524" lon="7.6741612"><ele>493.00000000000006</ele><time>2026-04-25T08:47:20.953Z</time></trkpt><trkpt lat="45.4108672" lon="7.6741866"><ele>493.0</ele><time>2026-04-25T08:47:23.959Z</time></trkpt><trkpt lat="45.4108015" lon="7.6742174"><ele>493.0</ele><time>2026-04-25T08:47:27.956Z</time></trkpt><trkpt lat="45.4107451" lon="7.6741751"><ele>493.0</ele><time>2026-04-25T08:47:32.949Z</time></trkpt><trkpt lat="45.4108149" lon="7.6741625"><ele>493.0</ele><time>2026-04-25T08:47:36.95Z</time></trkpt><trkpt lat="45.4108853" lon="7.6741086"><ele>493.0</ele><time>2026-04-25T08:47:47.95Z</time></trkpt><trkpt lat="45.4109137" lon="7.6740132"><ele>493.0</ele><time>2026-04-25T08:47:53.96Z</time></trkpt><trkpt lat="45.4109007" lon="7.6739139"><ele>493.0</ele><time>2026-04-25T08:47:57.955Z</time></trkpt><trkpt lat="45.4109324" lon="7.6738286"><ele>493.0</ele><time>2026-04-25T08:48:00.959Z</time></trkpt><trkpt lat="45.4109121" lon="7.6737189"><ele>493.0</ele><time>2026-04-25T08:48:23.939Z</time></trkpt><trkpt lat="45.4108534" lon="7.6736601"><ele>493.0</ele><time>2026-04-25T08:48:27.95Z</time></trkpt><trkpt lat="45.4108117" lon="7.673584"><ele>493.0</ele><time>2026-04-25T08:48:30.957Z</time></trkpt><trkpt lat="45.4107486" lon="7.6735807"><ele>493.0</ele><time>2026-04-25T08:48:35.956Z</time></trkpt><trkpt lat="45.4107016" lon="7.6736821"><ele>493.0</ele><time>2026-04-25T08:48:44.958Z</time></trkpt><trkpt lat="45.4106586" lon="7.6737477"><ele>493.0</ele><time>2026-04-25T08:48:46.955Z</time></trkpt><trkpt lat="45.4106017" lon="7.6738566"><ele>493.0</ele><time>2026-04-25T08:48:49.956Z</time></trkpt><trkpt lat="45.4105505" lon="7.6739424"><ele>493.0</ele><time>2026-04-25T08:48:52.95Z</time></trkpt><trkpt lat="45.4105749" lon="7.6738422"><ele>493.0</ele><time>2026-04-25T08:49:04.95Z</time></trkpt><trkpt lat="45.4105886" lon="7.673745"><ele>493.0</ele><time>2026-04-25T08:49:07.953Z</time></trkpt><trkpt lat="45.4106116" lon="7.6736607"><ele>493.0</ele><time>2026-04-25T08:49:09.951Z</time></trkpt><trkpt lat="45.4106604" lon="7.6735846"><ele>493.0</ele><time>2026-04-25T08:49:12.958Z</time></trkpt><trkpt lat="45.4106995" lon="7.6734935"><ele>493.0</ele><time>2026-04-25T08:49:18.955Z</time></trkpt><trkpt lat="45.4107063" lon="7.6736004"><ele>493.0</ele><time>2026-04-25T08:49:25.949Z</time></trkpt><trkpt lat="45.4106944" lon="7.673711"><ele>493.0</ele><time>2026-04-25T08:49:29.956Z</time></trkpt><trkpt lat="45.4106407" lon="7.6737984"><ele>493.0</ele><time>2026-04-25T08:49:32.963Z</time></trkpt><trkpt lat="45.4105841" lon="7.6738769"><ele>493.0</ele><time>2026-04-25T08:49:35.953Z</time></trkpt><trkpt lat="45.4105149" lon="7.6738979"><ele>493.0</ele><time>2026-04-25T08:49:38.954Z</time></trkpt><trkpt lat="45.4104427" lon="7.6739284"><ele>493.0</ele><time>2026-04-25T08:49:41.953Z</time></trkpt><trkpt lat="45.4103795" lon="7.673939"><ele>493.0</ele><time>2026-04-25T08:49:43.959Z</time></trkpt><trkpt lat="45.4103046" lon="7.6739492"><ele>493.0</ele><time>2026-04-25T08:49:46.954Z</time></trkpt><trkpt lat="45.4102056" lon="7.6739104"><ele>492.83333333333337</ele><time>2026-04-25T08:49:59.956Z</time></trkpt><trkpt lat="45.4101388" lon="7.6738644"><ele>492.6666666666667</ele><time>2026-04-25T08:50:01.945Z</time></trkpt><trkpt lat="45.4100847" lon="7.6738038"><ele>492.5</ele><time>2026-04-25T08:50:04.968Z</time></trkpt><trkpt lat="45.4099883" lon="7.6736946"><ele>492.33333333333337</ele><time>2026-04-25T08:50:10.96Z</time></trkpt><trkpt lat="45.4099249" lon="7.6736464"><ele>492.1666666666667</ele><time>2026-04-25T08:50:12.943Z</time></trkpt><trkpt lat="45.409929" lon="7.6735395"><ele>492.0</ele><time>2026-04-25T08:50:16.955Z</time></trkpt><trkpt lat="45.4099896" lon="7.6735129"><ele>492.00000000000006</ele><time>2026-04-25T08:50:19.951Z</time></trkpt><trkpt lat="45.4100389" lon="7.6735794"><ele>492.0</ele><time>2026-04-25T08:50:22.955Z</time></trkpt><trkpt lat="45.4100891" lon="7.6736351"><ele>492.00000000000006</ele><time>2026-04-25T08:50:24.953Z</time></trkpt><trkpt lat="45.4101446" lon="7.6737053"><ele>492.00000000000006</ele><time>2026-04-25T08:50:27.027Z</time></trkpt><trkpt lat="45.4102002" lon="7.6737662"><ele>492.0</ele><time>2026-04-25T08:50:28.954Z</time></trkpt><trkpt lat="45.4102792" lon="7.6737935"><ele>492.00000000000006</ele><time>2026-04-25T08:50:31.951Z</time></trkpt><trkpt lat="45.410359" lon="7.6737582"><ele>492.00000000000006</ele><time>2026-04-25T08:50:33.954Z</time></trkpt><trkpt lat="45.4104213" lon="7.6737038"><ele>490.8333333333333</ele><time>2026-04-25T08:50:35.946Z</time></trkpt><trkpt lat="45.4104795" lon="7.6736413"><ele>489.66666666666663</ele><time>2026-04-25T08:50:37.945Z</time></trkpt><trkpt lat="45.410551" lon="7.6735603"><ele>488.5</ele><time>2026-04-25T08:50:39.949Z</time></trkpt><trkpt lat="45.410626" lon="7.6735174"><ele>487.3333333333333</ele><time>2026-04-25T08:50:41.949Z</time></trkpt><trkpt lat="45.4106934" lon="7.6735148"><ele>486.16666666666663</ele><time>2026-04-25T08:50:43.952Z</time></trkpt><trkpt lat="45.4107638" lon="7.6734878"><ele>485.0</ele><time>2026-04-25T08:50:45.952Z</time></trkpt><trkpt lat="45.4108513" lon="7.6734864"><ele>486.3333333333333</ele><time>2026-04-25T08:50:48.94Z</time></trkpt><trkpt lat="45.4109068" lon="7.6735469"><ele>487.66666666666663</ele><time>2026-04-25T08:50:51.948Z</time></trkpt><trkpt lat="45.4109679" lon="7.6736223"><ele>489.0</ele><time>2026-04-25T08:50:54.951Z</time></trkpt><trkpt lat="45.4110366" lon="7.6736885"><ele>490.33333333333337</ele><time>2026-04-25T08:50:57.952Z</time></trkpt><trkpt lat="45.4110744" lon="7.673786"><ele>491.6666666666667</ele><time>2026-04-25T08:51:01.95Z</time></trkpt><trkpt lat="45.4111" lon="7.6738738"><ele>493.0</ele><time>2026-04-25T08:51:12.933Z</time></trkpt><trkpt lat="45.4111843" lon="7.6738625"><ele>493.0</ele><time>2026-04-25T08:51:17.947Z</time></trkpt><trkpt lat="45.4112409" lon="7.6739162"><ele>493.0</ele><time>2026-04-25T08:51:20.953Z</time></trkpt><trkpt lat="45.4112599" lon="7.6740228"><ele>493.0</ele><time>2026-04-25T08:51:23.96Z</time></trkpt><trkpt lat="45.4112105" lon="7.6740805"><ele>493.0</ele><time>2026-04-25T08:51:30.954Z</time></trkpt><trkpt lat="45.4111378" lon="7.674082"><ele>493.0</ele><time>2026-04-25T08:51:35.026Z</time></trkpt><trkpt lat="45.411068" lon="7.6741074"><ele>493.0</ele><time>2026-04-25T08:51:37.952Z</time></trkpt><trkpt lat="45.4109979" lon="7.6741328"><ele>493.0</ele><time>2026-04-25T08:51:39.963Z</time></trkpt><trkpt lat="45.4109208" lon="7.6741602"><ele>493.0</ele><time>2026-04-25T08:51:41.967Z</time></trkpt><trkpt lat="45.410855" lon="7.6741611"><ele>493.0</ele><time>2026-04-25T08:51:44.03Z</time></trkpt><trkpt lat="45.4107834" lon="7.6741626"><ele>493.0</ele><time>2026-04-25T08:51:45.966Z</time></trkpt><trkpt lat="45.4107046" lon="7.6741807"><ele>493.0</ele><time>2026-04-25T08:51:48.957Z</time></trkpt><trkpt lat="45.4106359" lon="7.6741293"><ele>493.0</ele><time>2026-04-25T08:51:52.958Z</time></trkpt><trkpt lat="45.4106039" lon="7.674048"><ele>493.0</ele><time>2026-04-25T08:51:55.962Z</time></trkpt><trkpt lat="45.4105843" lon="7.6739256"><ele>493.0</ele><time>2026-04-25T08:51:59.029Z</time></trkpt><trkpt lat="45.4105896" lon="7.6738359"><ele>493.0</ele><time>2026-04-25T08:52:00.951Z</time></trkpt><trkpt lat="45.4106088" lon="7.6737282"><ele>493.0</ele><time>2026-04-25T08:52:03.952Z</time></trkpt><trkpt lat="45.4106249" lon="7.673631"><ele>493.0</ele><time>2026-04-25T08:52:07.023Z</time></trkpt><trkpt lat="45.4106654" lon="7.6737196"><ele>493.0</ele><time>2026-04-25T08:52:16.956Z</time></trkpt><trkpt lat="45.4106329" lon="7.6738154"><ele>493.0</ele><time>2026-04-25T08:52:19.949Z</time></trkpt><trkpt lat="45.4105794" lon="7.6738985"><ele>493.0</ele><time>2026-04-25T08:52:23.044Z</time></trkpt><trkpt lat="45.4105134" lon="7.6738753"><ele>493.0</ele><time>2026-04-25T08:52:25.952Z</time></trkpt><trkpt lat="45.4105216" lon="7.6739778"><ele>493.00000000000006</ele><time>2026-04-25T08:52:40.031Z</time></trkpt><trkpt lat="45.4105548" lon="7.6740589"><ele>493.0</ele><time>2026-04-25T08:52:41.952Z</time></trkpt><trkpt lat="45.4105757" lon="7.6741707"><ele>493.0</ele><time>2026-04-25T08:52:43.953Z</time></trkpt><trkpt lat="45.4106086" lon="7.6742579"><ele>493.0</ele><time>2026-04-25T08:52:45.955Z</time></trkpt><trkpt lat="45.4106612" lon="7.6743319"><ele>493.00000000000006</ele><time>2026-04-25T08:52:48.029Z</time></trkpt><trkpt lat="45.4106893" lon="7.6744461"><ele>493.0</ele><time>2026-04-25T08:52:49.962Z</time></trkpt><trkpt lat="45.4107286" lon="7.6745488"><ele>492.1428571428571</ele><time>2026-04-25T08:52:51.953Z</time></trkpt><trkpt lat="45.410771" lon="7.6746272"><ele>491.28571428571433</ele><time>2026-04-25T08:52:53.958Z</time></trkpt><trkpt lat="45.4108133" lon="7.6747093"><ele>490.42857142857144</ele><time>2026-04-25T08:52:55.957Z</time></trkpt><trkpt lat="45.4108544" lon="7.6748046"><ele>489.57142857142856</ele><time>2026-04-25T08:52:57.989Z</time></trkpt><trkpt lat="45.410888" lon="7.6748969"><ele>488.71428571428567</ele><time>2026-04-25T08:52:59.953Z</time></trkpt><trkpt lat="45.4109275" lon="7.6749853"><ele>487.8571428571429</ele><time>2026-04-25T08:53:01.963Z</time></trkpt><trkpt lat="45.4109608" lon="7.6750692"><ele>487.0</ele><time>2026-04-25T08:53:03.964Z</time></trkpt><trkpt lat="45.4109875" lon="7.6751533"><ele>487.00000000000006</ele><time>2026-04-25T08:53:05.958Z</time></trkpt><trkpt lat="45.4110348" lon="7.6752325"><ele>487.0</ele><time>2026-04-25T08:53:09.95Z</time></trkpt><trkpt lat="45.4111158" lon="7.6752814"><ele>487.0</ele><time>2026-04-25T08:53:15.956Z</time></trkpt><trkpt lat="45.4111928" lon="7.6753003"><ele>487.0</ele><time>2026-04-25T08:53:18.955Z</time></trkpt><trkpt lat="45.4112659" lon="7.6753364"><ele>487.00000000000006</ele><time>2026-04-25T08:53:21.944Z</time></trkpt><trkpt lat="45.4113015" lon="7.6754226"><ele>487.0</ele><time>2026-04-25T08:53:45.954Z</time></trkpt><trkpt lat="45.4113646" lon="7.675491"><ele>489.25</ele><time>2026-04-25T08:55:46.956Z</time></trkpt><trkpt lat="45.4114428" lon="7.6755076"><ele>491.5</ele><time>2026-04-25T09:03:48.956Z</time></trkpt><trkpt lat="45.4115095" lon="7.6754915"><ele>493.75</ele><time>2026-04-25T09:04:24.955Z</time></trkpt><trkpt lat="45.4116778" lon="7.6754247"><ele>496.0</ele><time>2026-04-25T09:04:26.96Z</time></trkpt><trkpt lat="45.4118552" lon="7.6754093"><ele>496.0</ele><time>2026-04-25T09:04:28.009Z</time></trkpt><trkpt lat="45.4120215" lon="7.6753763"><ele>496.0</ele><time>2026-04-25T09:04:28.956Z</time></trkpt><trkpt lat="45.4121306" lon="7.6754014"><ele>496.0</ele><time>2026-04-25T09:04:29.947Z</time></trkpt><trkpt lat="45.4121916" lon="7.67544"><ele>496.0</ele><time>2026-04-25T09:04:30.95Z</time></trkpt><trkpt lat="45.4122677" lon="7.6755016"><ele>496.0</ele><time>2026-04-25T09:04:32.951Z</time></trkpt><trkpt lat="45.4123309" lon="7.6755583"><ele>496.33333333333337</ele><time>2026-04-25T09:04:34.956Z</time></trkpt><trkpt lat="45.4123879" lon="7.6756096"><ele>496.6666666666667</ele><time>2026-04-25T09:04:37.948Z</time></trkpt><trkpt lat="45.4124535" lon="7.6756872"><ele>497.0</ele><time>2026-04-25T09:04:57.954Z</time></trkpt><trkpt lat="45.4125149" lon="7.6757826"><ele>497.33333333333337</ele><time>2026-04-25T09:05:00.959Z</time></trkpt><trkpt lat="45.4125554" lon="7.6758708"><ele>497.6666666666667</ele><time>2026-04-25T09:05:28.958Z</time></trkpt><trkpt lat="45.4125531" lon="7.675987"><ele>498.0</ele><time>2026-04-25T09:05:43.024Z</time></trkpt><trkpt lat="45.4125458" lon="7.6761068"><ele>499.3333333333333</ele><time>2026-04-25T09:05:52.956Z</time></trkpt><trkpt lat="45.412612" lon="7.6761483"><ele>500.66666666666663</ele><time>2026-04-25T09:05:56.98Z</time></trkpt><trkpt lat="45.4126682" lon="7.6762375"><ele>502.0</ele><time>2026-04-25T09:06:10.048Z</time></trkpt><trkpt lat="45.4126032" lon="7.6762587"><ele>503.3333333333333</ele><time>2026-04-25T09:06:36.95Z</time></trkpt><trkpt lat="45.4126659" lon="7.6761835"><ele>504.66666666666663</ele><time>2026-04-25T09:07:39.957Z</time></trkpt><trkpt lat="45.4127465" lon="7.6762515"><ele>506.0</ele><time>2026-04-25T09:09:27.958Z</time></trkpt><trkpt lat="45.4128213" lon="7.6763116"><ele>506.00000000000006</ele><time>2026-04-25T09:09:30.966Z</time></trkpt><trkpt lat="45.4128982" lon="7.6763236"><ele>506.0</ele><time>2026-04-25T09:09:33.962Z</time></trkpt><trkpt lat="45.4129612" lon="7.6763267"><ele>506.00000000000006</ele><time>2026-04-25T09:09:36.966Z</time></trkpt><trkpt lat="45.4130383" lon="7.6763712"><ele>506.00000000000006</ele><time>2026-04-25T09:09:39.964Z</time></trkpt><trkpt lat="45.4130629" lon="7.6764543"><ele>506.0</ele><time>2026-04-25T09:09:48.966Z</time></trkpt><trkpt lat="45.4130767" lon="7.6765744"><ele>506.00000000000006</ele><time>2026-04-25T09:09:52.964Z</time></trkpt><trkpt lat="45.4131386" lon="7.6766216"><ele>506.00000000000006</ele><time>2026-04-25T09:09:54.961Z</time></trkpt><trkpt lat="45.4132078" lon="7.6766379"><ele>506.1428571428572</ele><time>2026-04-25T09:09:56.963Z</time></trkpt><trkpt lat="45.4132729" lon="7.676668"><ele>506.28571428571433</ele><time>2026-04-25T09:09:59.959Z</time></trkpt><trkpt lat="45.4132047" lon="7.6766701"><ele>506.42857142857144</ele><time>2026-04-25T09:10:14.961Z</time></trkpt><trkpt lat="45.4131341" lon="7.6766467"><ele>506.5714285714286</ele><time>2026-04-25T09:10:17.963Z</time></trkpt><trkpt lat="45.4131192" lon="7.6765587"><ele>506.7142857142858</ele><time>2026-04-25T09:10:21.962Z</time></trkpt><trkpt lat="45.4131127" lon="7.6764592"><ele>506.85714285714283</ele><time>2026-04-25T09:10:35.964Z</time></trkpt><trkpt lat="45.4130572" lon="7.6765039"><ele>507.0</ele><time>2026-04-25T09:10:42.958Z</time></trkpt><trkpt lat="45.4130637" lon="7.6766241"><ele>507.0</ele><time>2026-04-25T09:10:46.948Z</time></trkpt><trkpt lat="45.413072" lon="7.676743"><ele>507.0</ele><time>2026-04-25T09:10:53.943Z</time></trkpt><trkpt lat="45.4130182" lon="7.6768006"><ele>507.0</ele><time>2026-04-25T09:10:57.944Z</time></trkpt><trkpt lat="45.4130017" lon="7.6768906"><ele>507.0</ele><time>2026-04-25T09:13:25.944Z</time></trkpt><trkpt lat="45.4129314" lon="7.6769401"><ele>507.0</ele><time>2026-04-25T09:13:57.95Z</time></trkpt><trkpt lat="45.4128672" lon="7.6769511"><ele>507.0</ele><time>2026-04-25T09:14:00.945Z</time></trkpt><trkpt lat="45.4128053" lon="7.6769717"><ele>507.0</ele><time>2026-04-25T09:14:02.946Z</time></trkpt><trkpt lat="45.4127312" lon="7.6769793"><ele>506.6666666666667</ele><time>2026-04-25T09:14:05.954Z</time></trkpt><trkpt lat="45.4126659" lon="7.6769834"><ele>506.33333333333337</ele><time>2026-04-25T09:14:08.951Z</time></trkpt><trkpt lat="45.412704" lon="7.6770705"><ele>506.0</ele><time>2026-04-25T09:14:26.948Z</time></trkpt><trkpt lat="45.4127713" lon="7.6771052"><ele>505.6666666666667</ele><time>2026-04-25T09:14:29.944Z</time></trkpt><trkpt lat="45.4128376" lon="7.6771141"><ele>505.33333333333337</ele><time>2026-04-25T09:14:31.946Z</time></trkpt><trkpt lat="45.4129273" lon="7.6771183"><ele>505.0</ele><time>2026-04-25T09:14:33.946Z</time></trkpt><trkpt lat="45.4130312" lon="7.6771342"><ele>507.6</ele><time>2026-04-25T09:14:35.945Z</time></trkpt><trkpt lat="45.413133" lon="7.6771579"><ele>510.2</ele><time>2026-04-25T09:14:37.936Z</time></trkpt><trkpt lat="45.4131961" lon="7.6771685"><ele>512.8</ele><time>2026-04-25T09:14:38.944Z</time></trkpt><trkpt lat="45.4133037" lon="7.6771757"><ele>515.4</ele><time>2026-04-25T09:14:40.946Z</time></trkpt><trkpt lat="45.4133985" lon="7.6772159"><ele>518.0</ele><time>2026-04-25T09:14:42.959Z</time></trkpt><trkpt lat="45.4134871" lon="7.6772545"><ele>518.0</ele><time>2026-04-25T09:14:44.954Z</time></trkpt><trkpt lat="45.4135948" lon="7.6773106"><ele>518.0</ele><time>2026-04-25T09:14:46.954Z</time></trkpt><trkpt lat="45.4136674" lon="7.6773593"><ele>518.0</ele><time>2026-04-25T09:14:48.939Z</time></trkpt><trkpt lat="45.4137263" lon="7.6774349"><ele>518.0</ele><time>2026-04-25T09:14:51.954Z</time></trkpt><trkpt lat="45.4137729" lon="7.6774998"><ele>518.0</ele><time>2026-04-25T09:14:54.947Z</time></trkpt><trkpt lat="45.4138096" lon="7.6775848"><ele>518.0</ele><time>2026-04-25T09:15:18.949Z</time></trkpt><trkpt lat="45.413882" lon="7.6775858"><ele>518.6</ele><time>2026-04-25T09:15:20.944Z</time></trkpt><trkpt lat="45.4139776" lon="7.6775699"><ele>519.1999999999999</ele><time>2026-04-25T09:15:22.96Z</time></trkpt><trkpt lat="45.4140611" lon="7.6775816"><ele>519.8</ele><time>2026-04-25T09:15:24.946Z</time></trkpt><trkpt lat="45.414142" lon="7.6776275"><ele>520.4</ele><time>2026-04-25T09:15:26.937Z</time></trkpt><trkpt lat="45.4142155" lon="7.6777174"><ele>521.0</ele><time>2026-04-25T09:15:28.949Z</time></trkpt><trkpt lat="45.4142993" lon="7.6778277"><ele>521.0</ele><time>2026-04-25T09:15:30.954Z</time></trkpt><trkpt lat="45.4144061" lon="7.6779318"><ele>521.0</ele><time>2026-04-25T09:15:32.947Z</time></trkpt><trkpt lat="45.4144593" lon="7.6780111"><ele>521.0</ele><time>2026-04-25T09:15:33.947Z</time></trkpt><trkpt lat="45.4145341" lon="7.6780652"><ele>521.0</ele><time>2026-04-25T09:15:34.947Z</time></trkpt><trkpt lat="45.4145997" lon="7.6781005"><ele>521.0</ele><time>2026-04-25T09:15:35.939Z</time></trkpt><trkpt lat="45.414684" lon="7.6781772"><ele>524.8</ele><time>2026-04-25T09:15:37.949Z</time></trkpt><trkpt lat="45.4147863" lon="7.6782613"><ele>528.6</ele><time>2026-04-25T09:15:39.945Z</time></trkpt><trkpt lat="45.414885" lon="7.6783493"><ele>532.4</ele><time>2026-04-25T09:15:41.946Z</time></trkpt><trkpt lat="45.414957" lon="7.6783982"><ele>536.2</ele><time>2026-04-25T09:15:43.941Z</time></trkpt><trkpt lat="45.4150352" lon="7.6784022"><ele>540.0</ele><time>2026-04-25T09:15:46.938Z</time></trkpt><trkpt lat="45.4151236" lon="7.6784253"><ele>540.0</ele><time>2026-04-25T09:15:49.949Z</time></trkpt><trkpt lat="45.4152605" lon="7.6783668"><ele>540.0</ele><time>2026-04-25T09:15:51.941Z</time></trkpt><trkpt lat="45.4153653" lon="7.6783333"><ele>540.0</ele><time>2026-04-25T09:15:53.944Z</time></trkpt><trkpt lat="45.4154352" lon="7.6782332"><ele>540.0</ele><time>2026-04-25T09:15:54.943Z</time></trkpt><trkpt lat="45.4155146" lon="7.6781786"><ele>540.0</ele><time>2026-04-25T09:15:55.955Z</time></trkpt><trkpt lat="45.4155943" lon="7.678131"><ele>540.1666666666666</ele><time>2026-04-25T09:15:56.953Z</time></trkpt><trkpt lat="45.4156741" lon="7.6781005"><ele>540.3333333333334</ele><time>2026-04-25T09:15:57.95Z</time></trkpt><trkpt lat="45.4157453" lon="7.678059"><ele>540.5</ele><time>2026-04-25T09:15:58.947Z</time></trkpt><trkpt lat="45.4158204" lon="7.6780116"><ele>540.6666666666667</ele><time>2026-04-25T09:15:59.946Z</time></trkpt><trkpt lat="45.4158997" lon="7.6779673"><ele>540.8333333333334</ele><time>2026-04-25T09:16:00.952Z</time></trkpt><trkpt lat="45.4159777" lon="7.6779334"><ele>541.0</ele><time>2026-04-25T09:16:01.949Z</time></trkpt><trkpt lat="45.4160558" lon="7.6779118"><ele>541.0</ele><time>2026-04-25T09:16:02.952Z</time></trkpt><trkpt lat="45.4161357" lon="7.6778883"><ele>541.0</ele><time>2026-04-25T09:16:03.947Z</time></trkpt><trkpt lat="45.4162201" lon="7.6778528"><ele>541.0</ele><time>2026-04-25T09:16:04.952Z</time></trkpt><trkpt lat="45.4163114" lon="7.6778186"><ele>541.0</ele><time>2026-04-25T09:16:06.031Z</time></trkpt><trkpt lat="45.4163996" lon="7.6777876"><ele>541.0</ele><time>2026-04-25T09:16:06.956Z</time></trkpt><trkpt lat="45.4164937" lon="7.6777522"><ele>542.1666666666667</ele><time>2026-04-25T09:16:07.954Z</time></trkpt><trkpt lat="45.4165779" lon="7.6777164"><ele>543.3333333333334</ele><time>2026-04-25T09:16:08.961Z</time></trkpt><trkpt lat="45.4166608" lon="7.6776721"><ele>544.5</ele><time>2026-04-25T09:16:10.032Z</time></trkpt><trkpt lat="45.4167411" lon="7.6776103"><ele>545.6666666666666</ele><time>2026-04-25T09:16:11.029Z</time></trkpt><trkpt lat="45.4168158" lon="7.6775569"><ele>546.8333333333333</ele><time>2026-04-25T09:16:11.95Z</time></trkpt><trkpt lat="45.4168899" lon="7.6775024"><ele>548.0</ele><time>2026-04-25T09:16:12.941Z</time></trkpt><trkpt lat="45.4169683" lon="7.6774619"><ele>548.0</ele><time>2026-04-25T09:16:13.936Z</time></trkpt><trkpt lat="45.4170422" lon="7.6774198"><ele>548.0</ele><time>2026-04-25T09:16:15.03Z</time></trkpt><trkpt lat="45.4171159" lon="7.6773895"><ele>548.0</ele><time>2026-04-25T09:16:16.029Z</time></trkpt><trkpt lat="45.417195" lon="7.6773597"><ele>548.0</ele><time>2026-04-25T09:16:16.956Z</time></trkpt><trkpt lat="45.4172719" lon="7.6773375"><ele>548.0</ele><time>2026-04-25T09:16:17.954Z</time></trkpt><trkpt lat="45.4173534" lon="7.6773209"><ele>548.0</ele><time>2026-04-25T09:16:18.993Z</time></trkpt><trkpt lat="45.417428" lon="7.6772896"><ele>549.4</ele><time>2026-04-25T09:16:20.033Z</time></trkpt><trkpt lat="45.4174977" lon="7.6772672"><ele>550.8</ele><time>2026-04-25T09:16:21.027Z</time></trkpt><trkpt lat="45.417564" lon="7.6772684"><ele>552.2</ele><time>2026-04-25T09:16:21.954Z</time></trkpt><trkpt lat="45.4176813" lon="7.6772605"><ele>553.6</ele><time>2026-04-25T09:16:23.946Z</time></trkpt><trkpt lat="45.4177952" lon="7.6772136"><ele>555.0</ele><time>2026-04-25T09:16:26.027Z</time></trkpt><trkpt lat="45.4178627" lon="7.6771495"><ele>555.0</ele><time>2026-04-25T09:16:27.946Z</time></trkpt><trkpt lat="45.41796" lon="7.6770857"><ele>555.0</ele><time>2026-04-25T09:16:29.946Z</time></trkpt><trkpt lat="45.4180285" lon="7.6770583"><ele>555.0</ele><time>2026-04-25T09:16:31.031Z</time></trkpt><trkpt lat="45.4181072" lon="7.6770383"><ele>555.0</ele><time>2026-04-25T09:16:31.956Z</time></trkpt><trkpt lat="45.418196" lon="7.6770094"><ele>555.0</ele><time>2026-04-25T09:16:33.031Z</time></trkpt><trkpt lat="45.4182877" lon="7.6770038"><ele>555.0</ele><time>2026-04-25T09:16:33.95Z</time></trkpt><trkpt lat="45.4183819" lon="7.6770177"><ele>555.4</ele><time>2026-04-25T09:16:34.945Z</time></trkpt><trkpt lat="45.4184746" lon="7.6770554"><ele>555.8</ele><time>2026-04-25T09:16:35.937Z</time></trkpt><trkpt lat="45.4185615" lon="7.6771118"><ele>556.2</ele><time>2026-04-25T09:16:36.951Z</time></trkpt><trkpt lat="45.4186505" lon="7.6771969"><ele>556.6</ele><time>2026-04-25T09:16:37.946Z</time></trkpt><trkpt lat="45.4187325" lon="7.6772798"><ele>557.0</ele><time>2026-04-25T09:16:38.944Z</time></trkpt><trkpt lat="45.4188163" lon="7.6773684"><ele>558.4</ele><time>2026-04-25T09:16:40.01Z</time></trkpt><trkpt lat="45.4189087" lon="7.6774444"><ele>559.8000000000001</ele><time>2026-04-25T09:16:41.014Z</time></trkpt><trkpt lat="45.4190059" lon="7.6775234"><ele>561.2</ele><time>2026-04-25T09:16:41.951Z</time></trkpt><trkpt lat="45.4191004" lon="7.6775917"><ele>562.6</ele><time>2026-04-25T09:16:42.947Z</time></trkpt><trkpt lat="45.4191925" lon="7.6776533"><ele>564.0</ele><time>2026-04-25T09:16:43.948Z</time></trkpt><trkpt lat="45.4192846" lon="7.677708"><ele>564.0</ele><time>2026-04-25T09:16:44.95Z</time></trkpt><trkpt lat="45.41938" lon="7.6777531"><ele>564.0</ele><time>2026-04-25T09:16:45.947Z</time></trkpt><trkpt lat="45.4194678" lon="7.6777839"><ele>564.0</ele><time>2026-04-25T09:16:46.947Z</time></trkpt><trkpt lat="45.4195557" lon="7.677807"><ele>564.0</ele><time>2026-04-25T09:16:48.007Z</time></trkpt><trkpt lat="45.4196439" lon="7.6778315"><ele>564.0</ele><time>2026-04-25T09:16:49.01Z</time></trkpt><trkpt lat="45.4197375" lon="7.677859"><ele>564.8</ele><time>2026-04-25T09:16:50.016Z</time></trkpt><trkpt lat="45.4198304" lon="7.6778948"><ele>565.5999999999999</ele><time>2026-04-25T09:16:51.014Z</time></trkpt><trkpt lat="45.4199232" lon="7.6779335"><ele>566.4</ele><time>2026-04-25T09:16:51.949Z</time></trkpt><trkpt lat="45.4200168" lon="7.6779754"><ele>567.1999999999999</ele><time>2026-04-25T09:16:53.014Z</time></trkpt><trkpt lat="45.4201065" lon="7.6780213"><ele>568.0</ele><time>2026-04-25T09:16:54.011Z</time></trkpt><trkpt lat="45.4202007" lon="7.6780663"><ele>568.0</ele><time>2026-04-25T09:16:55.019Z</time></trkpt><trkpt lat="45.4202911" lon="7.6781076"><ele>568.0</ele><time>2026-04-25T09:16:56.005Z</time></trkpt><trkpt lat="45.4203826" lon="7.678142"><ele>568.0</ele><time>2026-04-25T09:16:56.953Z</time></trkpt><trkpt lat="45.4204826" lon="7.6781869"><ele>568.0</ele><time>2026-04-25T09:16:58.039Z</time></trkpt><trkpt lat="45.4205893" lon="7.678241"><ele>568.0</ele><time>2026-04-25T09:16:59.032Z</time></trkpt><trkpt lat="45.4206913" lon="7.6783007"><ele>569.6</ele><time>2026-04-25T09:17:00.026Z</time></trkpt><trkpt lat="45.4207917" lon="7.6783548"><ele>571.1999999999999</ele><time>2026-04-25T09:17:01.042Z</time></trkpt><trkpt lat="45.4208915" lon="7.6784123"><ele>572.8</ele><time>2026-04-25T09:17:01.952Z</time></trkpt><trkpt lat="45.4209916" lon="7.6784693"><ele>574.4</ele><time>2026-04-25T09:17:02.959Z</time></trkpt><trkpt lat="45.4210903" lon="7.6785184"><ele>576.0</ele><time>2026-04-25T09:17:03.979Z</time></trkpt><trkpt lat="45.4211809" lon="7.6785678"><ele>575.6</ele><time>2026-04-25T09:17:05.029Z</time></trkpt><trkpt lat="45.4212658" lon="7.6786353"><ele>575.2</ele><time>2026-04-25T09:17:06.015Z</time></trkpt><trkpt lat="45.4213458" lon="7.6786993"><ele>574.8</ele><time>2026-04-25T09:17:06.951Z</time></trkpt><trkpt lat="45.421416" lon="7.6787492"><ele>574.4</ele><time>2026-04-25T09:17:07.936Z</time></trkpt><trkpt lat="45.4214813" lon="7.6787828"><ele>574.0</ele><time>2026-04-25T09:17:08.968Z</time></trkpt><trkpt lat="45.4215897" lon="7.6788312"><ele>575.7142857142857</ele><time>2026-04-25T09:17:10.963Z</time></trkpt><trkpt lat="45.4216562" lon="7.6788769"><ele>577.4285714285714</ele><time>2026-04-25T09:17:13.958Z</time></trkpt><trkpt lat="45.4217021" lon="7.6789492"><ele>579.1428571428571</ele><time>2026-04-25T09:17:16.955Z</time></trkpt><trkpt lat="45.4216724" lon="7.6788643"><ele>580.8571428571429</ele><time>2026-04-25T09:26:23.956Z</time></trkpt><trkpt lat="45.4216779" lon="7.6789677"><ele>582.5714285714286</ele><time>2026-04-25T09:30:13.952Z</time></trkpt><trkpt lat="45.4216291" lon="7.6788845"><ele>584.2857142857142</ele><time>2026-04-25T09:31:15.956Z</time></trkpt><trkpt lat="45.4215707" lon="7.678847"><ele>586.0</ele><time>2026-04-25T09:31:18.96Z</time></trkpt><trkpt lat="45.421507" lon="7.6788078"><ele>586.0</ele><time>2026-04-25T09:31:21.952Z</time></trkpt><trkpt lat="45.4214269" lon="7.678765"><ele>586.0</ele><time>2026-04-25T09:31:24.963Z</time></trkpt><trkpt lat="45.4213663" lon="7.6787317"><ele>586.0</ele><time>2026-04-25T09:31:26.939Z</time></trkpt><trkpt lat="45.4213032" lon="7.6786902"><ele>586.0</ele><time>2026-04-25T09:31:28.949Z</time></trkpt><trkpt lat="45.421224" lon="7.6786218"><ele>586.0</ele><time>2026-04-25T09:31:31.949Z</time></trkpt><trkpt lat="45.4211604" lon="7.6785774"><ele>586.0</ele><time>2026-04-25T09:31:33.951Z</time></trkpt><trkpt lat="45.4210978" lon="7.6785224"><ele>584.3333333333334</ele><time>2026-04-25T09:31:35.955Z</time></trkpt><trkpt lat="45.4210191" lon="7.6784747"><ele>582.6666666666667</ele><time>2026-04-25T09:31:37.953Z</time></trkpt><trkpt lat="45.4209299" lon="7.6784532"><ele>581.0</ele><time>2026-04-25T09:31:39.949Z</time></trkpt><trkpt lat="45.4208469" lon="7.6784157"><ele>579.3333333333334</ele><time>2026-04-25T09:31:41.964Z</time></trkpt><trkpt lat="45.4207761" lon="7.6783782"><ele>577.6666666666666</ele><time>2026-04-25T09:31:43.955Z</time></trkpt><trkpt lat="45.4206991" lon="7.6783363"><ele>576.0</ele><time>2026-04-25T09:31:45.949Z</time></trkpt><trkpt lat="45.420581" lon="7.6782719"><ele>576.0</ele><time>2026-04-25T09:31:47.947Z</time></trkpt><trkpt lat="45.4205122" lon="7.678225"><ele>576.0</ele><time>2026-04-25T09:31:48.945Z</time></trkpt><trkpt lat="45.4204378" lon="7.6781841"><ele>576.0</ele><time>2026-04-25T09:31:49.949Z</time></trkpt><trkpt lat="45.4203591" lon="7.6781473"><ele>576.0</ele><time>2026-04-25T09:31:50.95Z</time></trkpt><trkpt lat="45.4202787" lon="7.6781045"><ele>576.0</ele><time>2026-04-25T09:31:51.953Z</time></trkpt><trkpt lat="45.4201912" lon="7.678066"><ele>576.0</ele><time>2026-04-25T09:31:52.95Z</time></trkpt><trkpt lat="45.420102" lon="7.6780186"><ele>574.4</ele><time>2026-04-25T09:31:53.958Z</time></trkpt><trkpt lat="45.4200134" lon="7.6779748"><ele>572.8</ele><time>2026-04-25T09:31:54.95Z</time></trkpt><trkpt lat="45.4199204" lon="7.6779289"><ele>571.1999999999999</ele><time>2026-04-25T09:31:55.944Z</time></trkpt><trkpt lat="45.4198291" lon="7.6778898"><ele>569.6</ele><time>2026-04-25T09:31:56.951Z</time></trkpt><trkpt lat="45.419732" lon="7.6778533"><ele>568.0</ele><time>2026-04-25T09:31:57.954Z</time></trkpt><trkpt lat="45.4196419" lon="7.6778157"><ele>567.3333333333334</ele><time>2026-04-25T09:31:58.956Z</time></trkpt><trkpt lat="45.4195536" lon="7.6777896"><ele>566.6666666666667</ele><time>2026-04-25T09:31:59.953Z</time></trkpt><trkpt lat="45.4194689" lon="7.67776"><ele>566.0</ele><time>2026-04-25T09:32:00.951Z</time></trkpt><trkpt lat="45.419384" lon="7.6777341"><ele>565.3333333333334</ele><time>2026-04-25T09:32:01.945Z</time></trkpt><trkpt lat="45.419306" lon="7.6776944"><ele>564.6666666666666</ele><time>2026-04-25T09:32:02.955Z</time></trkpt><trkpt lat="45.4192299" lon="7.6776552"><ele>564.0</ele><time>2026-04-25T09:32:03.947Z</time></trkpt><trkpt lat="45.4191546" lon="7.6776188"><ele>564.0</ele><time>2026-04-25T09:32:04.956Z</time></trkpt><trkpt lat="45.4190749" lon="7.6775728"><ele>564.0</ele><time>2026-04-25T09:32:05.95Z</time></trkpt><trkpt lat="45.4190022" lon="7.6775272"><ele>564.0</ele><time>2026-04-25T09:32:06.956Z</time></trkpt><trkpt lat="45.4189266" lon="7.6774756"><ele>564.0</ele><time>2026-04-25T09:32:07.952Z</time></trkpt><trkpt lat="45.4188522" lon="7.677409"><ele>564.0</ele><time>2026-04-25T09:32:08.953Z</time></trkpt><trkpt lat="45.4187771" lon="7.6773292"><ele>564.0</ele><time>2026-04-25T09:32:09.949Z</time></trkpt><trkpt lat="45.4187038" lon="7.6772503"><ele>562.8333333333334</ele><time>2026-04-25T09:32:10.946Z</time></trkpt><trkpt lat="45.4186274" lon="7.6771778"><ele>561.6666666666666</ele><time>2026-04-25T09:32:11.955Z</time></trkpt><trkpt lat="45.4185584" lon="7.6771129"><ele>560.5</ele><time>2026-04-25T09:32:12.959Z</time></trkpt><trkpt lat="45.4184865" lon="7.6770549"><ele>559.3333333333333</ele><time>2026-04-25T09:32:13.958Z</time></trkpt><trkpt lat="45.4184156" lon="7.6770147"><ele>558.1666666666666</ele><time>2026-04-25T09:32:14.951Z</time></trkpt><trkpt lat="45.4183408" lon="7.6769995"><ele>557.0</ele><time>2026-04-25T09:32:15.954Z</time></trkpt><trkpt lat="45.4182595" lon="7.6770115"><ele>557.0</ele><time>2026-04-25T09:32:16.956Z</time></trkpt><trkpt lat="45.4181866" lon="7.6770202"><ele>557.0</ele><time>2026-04-25T09:32:17.959Z</time></trkpt><trkpt lat="45.4181225" lon="7.6770416"><ele>557.0</ele><time>2026-04-25T09:32:18.951Z</time></trkpt><trkpt lat="45.4180149" lon="7.6770731"><ele>557.0</ele><time>2026-04-25T09:32:20.956Z</time></trkpt><trkpt lat="45.4179387" lon="7.6770915"><ele>557.0</ele><time>2026-04-25T09:32:23.949Z</time></trkpt><trkpt lat="45.4178748" lon="7.6771262"><ele>557.0</ele><time>2026-04-25T09:32:26.958Z</time></trkpt><trkpt lat="45.4178202" lon="7.6771975"><ele>556.6666666666666</ele><time>2026-04-25T09:32:31.951Z</time></trkpt><trkpt lat="45.4177437" lon="7.6772407"><ele>556.3333333333333</ele><time>2026-04-25T09:32:34.944Z</time></trkpt><trkpt lat="45.4176538" lon="7.6772788"><ele>556.0</ele><time>2026-04-25T09:32:36.956Z</time></trkpt><trkpt lat="45.4175608" lon="7.6773172"><ele>555.6666666666666</ele><time>2026-04-25T09:32:38.944Z</time></trkpt><trkpt lat="45.4174537" lon="7.677328"><ele>555.3333333333334</ele><time>2026-04-25T09:32:40.95Z</time></trkpt><trkpt lat="45.4173878" lon="7.6773384"><ele>555.0</ele><time>2026-04-25T09:32:41.949Z</time></trkpt><trkpt lat="45.4173255" lon="7.6773579"><ele>555.0000000000001</ele><time>2026-04-25T09:32:42.953Z</time></trkpt><trkpt lat="45.4172616" lon="7.6773713"><ele>555.0</ele><time>2026-04-25T09:32:43.95Z</time></trkpt><trkpt lat="45.4171478" lon="7.6774231"><ele>555.0</ele><time>2026-04-25T09:32:45.952Z</time></trkpt><trkpt lat="45.4170821" lon="7.6774486"><ele>555.0</ele><time>2026-04-25T09:32:46.958Z</time></trkpt><trkpt lat="45.4170219" lon="7.677477"><ele>555.0</ele><time>2026-04-25T09:32:47.956Z</time></trkpt><trkpt lat="45.4169623" lon="7.6775077"><ele>555.0000000000001</ele><time>2026-04-25T09:32:48.951Z</time></trkpt><trkpt lat="45.4169026" lon="7.6775475"><ele>555.0</ele><time>2026-04-25T09:32:49.948Z</time></trkpt><trkpt lat="45.4168405" lon="7.6776022"><ele>553.8333333333334</ele><time>2026-04-25T09:32:50.956Z</time></trkpt><trkpt lat="45.4167714" lon="7.6776459"><ele>552.6666666666666</ele><time>2026-04-25T09:32:51.951Z</time></trkpt><trkpt lat="45.4167054" lon="7.6776837"><ele>551.5</ele><time>2026-04-25T09:32:52.956Z</time></trkpt><trkpt lat="45.4166306" lon="7.6777146"><ele>550.3333333333333</ele><time>2026-04-25T09:32:53.946Z</time></trkpt><trkpt lat="45.4165546" lon="7.6777393"><ele>549.1666666666666</ele><time>2026-04-25T09:32:54.954Z</time></trkpt><trkpt lat="45.4164756" lon="7.6777724"><ele>548.0</ele><time>2026-04-25T09:32:55.955Z</time></trkpt><trkpt lat="45.4163993" lon="7.6777986"><ele>547.1666666666666</ele><time>2026-04-25T09:32:56.946Z</time></trkpt><trkpt lat="45.4163207" lon="7.6778281"><ele>546.3333333333333</ele><time>2026-04-25T09:32:57.95Z</time></trkpt><trkpt lat="45.4162472" lon="7.677858"><ele>545.5</ele><time>2026-04-25T09:32:58.958Z</time></trkpt><trkpt lat="45.4161711" lon="7.6778882"><ele>544.6666666666666</ele><time>2026-04-25T09:32:59.957Z</time></trkpt><trkpt lat="45.4160931" lon="7.6779214"><ele>543.8333333333334</ele><time>2026-04-25T09:33:00.959Z</time></trkpt><trkpt lat="45.4160171" lon="7.6779532"><ele>543.0</ele><time>2026-04-25T09:33:01.954Z</time></trkpt><trkpt lat="45.4159388" lon="7.6779852"><ele>542.6666666666666</ele><time>2026-04-25T09:33:02.952Z</time></trkpt><trkpt lat="45.4158609" lon="7.6780132"><ele>542.3333333333334</ele><time>2026-04-25T09:33:03.949Z</time></trkpt><trkpt lat="45.4157855" lon="7.6780466"><ele>542.0</ele><time>2026-04-25T09:33:04.953Z</time></trkpt><trkpt lat="45.4157132" lon="7.6780884"><ele>541.6666666666667</ele><time>2026-04-25T09:33:05.956Z</time></trkpt><trkpt lat="45.41564" lon="7.6781386"><ele>541.3333333333334</ele><time>2026-04-25T09:33:06.952Z</time></trkpt><trkpt lat="45.4155713" lon="7.6781801"><ele>541.0</ele><time>2026-04-25T09:33:07.952Z</time></trkpt><trkpt lat="45.4155128" lon="7.67822"><ele>540.8333333333334</ele><time>2026-04-25T09:33:08.949Z</time></trkpt><trkpt lat="45.4154518" lon="7.6782562"><ele>540.6666666666667</ele><time>2026-04-25T09:33:09.955Z</time></trkpt><trkpt lat="45.4153963" lon="7.6783024"><ele>540.5</ele><time>2026-04-25T09:33:10.956Z</time></trkpt><trkpt lat="45.4152998" lon="7.6783825"><ele>540.3333333333334</ele><time>2026-04-25T09:33:12.947Z</time></trkpt><trkpt lat="45.4152246" lon="7.6784568"><ele>540.1666666666666</ele><time>2026-04-25T09:33:14.961Z</time></trkpt><trkpt lat="45.4151617" lon="7.6784815"><ele>540.0</ele><time>2026-04-25T09:33:16.95Z</time></trkpt><trkpt lat="45.4150858" lon="7.6784756"><ele>540.0</ele><time>2026-04-25T09:33:19.936Z</time></trkpt><trkpt lat="45.4150164" lon="7.6784605"><ele>540.0</ele><time>2026-04-25T09:33:21.95Z</time></trkpt><trkpt lat="45.4149301" lon="7.6784086"><ele>540.0</ele><time>2026-04-25T09:33:23.952Z</time></trkpt><trkpt lat="45.4148157" lon="7.6783422"><ele>540.0</ele><time>2026-04-25T09:33:25.955Z</time></trkpt><trkpt lat="45.4147123" lon="7.6782854"><ele>540.0</ele><time>2026-04-25T09:33:27.947Z</time></trkpt><trkpt lat="45.4146487" lon="7.6782581"><ele>536.2</ele><time>2026-04-25T09:33:28.954Z</time></trkpt><trkpt lat="45.4145853" lon="7.6782407"><ele>532.4</ele><time>2026-04-25T09:33:29.955Z</time></trkpt><trkpt lat="45.4144924" lon="7.6781828"><ele>528.6</ele><time>2026-04-25T09:33:31.952Z</time></trkpt><trkpt lat="45.4144007" lon="7.6781163"><ele>524.8</ele><time>2026-04-25T09:33:33.949Z</time></trkpt><trkpt lat="45.414328" lon="7.6780334"><ele>521.0</ele><time>2026-04-25T09:33:35.955Z</time></trkpt><trkpt lat="45.4142636" lon="7.6779245"><ele>521.0</ele><time>2026-04-25T09:33:37.949Z</time></trkpt><trkpt lat="45.4141812" lon="7.6778459"><ele>521.0</ele><time>2026-04-25T09:33:39.951Z</time></trkpt><trkpt lat="45.4140828" lon="7.6778181"><ele>521.0</ele><time>2026-04-25T09:33:41.952Z</time></trkpt><trkpt lat="45.4139873" lon="7.6778086"><ele>521.0</ele><time>2026-04-25T09:33:43.941Z</time></trkpt><trkpt lat="45.4138969" lon="7.6778058"><ele>521.0</ele><time>2026-04-25T09:33:45.95Z</time></trkpt><trkpt lat="45.413839" lon="7.6778473"><ele>521.0</ele><time>2026-04-25T09:33:53.956Z</time></trkpt><trkpt lat="45.4138065" lon="7.6779342"><ele>521.0</ele><time>2026-04-25T09:33:56.959Z</time></trkpt><trkpt lat="45.4137689" lon="7.6780348"><ele>521.0</ele><time>2026-04-25T09:33:59.946Z</time></trkpt><trkpt lat="45.41375" lon="7.6781416"><ele>521.0</ele><time>2026-04-25T09:34:02.95Z</time></trkpt><trkpt lat="45.4137316" lon="7.6782318"><ele>521.0</ele><time>2026-04-25T09:34:05.94Z</time></trkpt><trkpt lat="45.4137905" lon="7.6783095"><ele>521.0</ele><time>2026-04-25T09:34:10.946Z</time></trkpt><trkpt lat="45.4138512" lon="7.6783437"><ele>521.0</ele><time>2026-04-25T09:34:12.966Z</time></trkpt><trkpt lat="45.4139136" lon="7.6783706"><ele>521.0</ele><time>2026-04-25T09:34:15.947Z</time></trkpt><trkpt lat="45.4139759" lon="7.6784391"><ele>521.0</ele><time>2026-04-25T09:34:19.959Z</time></trkpt><trkpt lat="45.4140298" lon="7.6785338"><ele>521.0</ele><time>2026-04-25T09:34:22.953Z</time></trkpt><trkpt lat="45.4140906" lon="7.678622"><ele>521.0</ele><time>2026-04-25T09:34:26.958Z</time></trkpt><trkpt lat="45.414153" lon="7.6787146"><ele>521.0</ele><time>2026-04-25T09:34:28.952Z</time></trkpt><trkpt lat="45.4142472" lon="7.6788395"><ele>519.0</ele><time>2026-04-25T09:34:30.95Z</time></trkpt><trkpt lat="45.4143308" lon="7.6789648"><ele>517.0</ele><time>2026-04-25T09:34:32.954Z</time></trkpt><trkpt lat="45.4143779" lon="7.6790268"><ele>515.0</ele><time>2026-04-25T09:34:33.966Z</time></trkpt><trkpt lat="45.4144456" lon="7.6791392"><ele>513.0</ele><time>2026-04-25T09:34:35.95Z</time></trkpt><trkpt lat="45.4144911" lon="7.6792541"><ele>511.0</ele><time>2026-04-25T09:34:37.952Z</time></trkpt><trkpt lat="45.4145254" lon="7.6793519"><ele>511.0</ele><time>2026-04-25T09:34:39.952Z</time></trkpt><trkpt lat="45.4144642" lon="7.6794267"><ele>511.0</ele><time>2026-04-25T09:34:43.952Z</time></trkpt><trkpt lat="45.4143796" lon="7.679448"><ele>511.0</ele><time>2026-04-25T09:34:45.951Z</time></trkpt><trkpt lat="45.4142729" lon="7.6795102"><ele>511.0</ele><time>2026-04-25T09:34:47.957Z</time></trkpt><trkpt lat="45.4141882" lon="7.6795745"><ele>511.0</ele><time>2026-04-25T09:34:49.958Z</time></trkpt><trkpt lat="45.4141101" lon="7.6796457"><ele>510.5</ele><time>2026-04-25T09:34:51.953Z</time></trkpt><trkpt lat="45.4140292" lon="7.6797568"><ele>510.0</ele><time>2026-04-25T09:34:53.952Z</time></trkpt><trkpt lat="45.413955" lon="7.6798912"><ele>509.5</ele><time>2026-04-25T09:34:55.951Z</time></trkpt><trkpt lat="45.413874" lon="7.6800033"><ele>509.0</ele><time>2026-04-25T09:34:57.95Z</time></trkpt><trkpt lat="45.4137801" lon="7.6801053"><ele>509.2</ele><time>2026-04-25T09:34:59.953Z</time></trkpt><trkpt lat="45.4137023" lon="7.6802053"><ele>509.4</ele><time>2026-04-25T09:35:01.953Z</time></trkpt><trkpt lat="45.4136577" lon="7.6803073"><ele>509.6</ele><time>2026-04-25T09:35:03.948Z</time></trkpt><trkpt lat="45.4135947" lon="7.6804069"><ele>509.8</ele><time>2026-04-25T09:35:05.945Z</time></trkpt><trkpt lat="45.4135103" lon="7.6804633"><ele>510.0</ele><time>2026-04-25T09:35:07.957Z</time></trkpt><trkpt lat="45.4134378" lon="7.6804477"><ele>510.0</ele><time>2026-04-25T09:35:09.947Z</time></trkpt><trkpt lat="45.4133779" lon="7.6803772"><ele>510.0</ele><time>2026-04-25T09:35:11.951Z</time></trkpt><trkpt lat="45.4133137" lon="7.6803074"><ele>510.0</ele><time>2026-04-25T09:35:13.954Z</time></trkpt><trkpt lat="45.4132346" lon="7.6802156"><ele>510.0</ele><time>2026-04-25T09:35:15.948Z</time></trkpt><trkpt lat="45.4131849" lon="7.6801189"><ele>510.0</ele><time>2026-04-25T09:35:17.942Z</time></trkpt><trkpt lat="45.4131442" lon="7.6800103"><ele>510.0</ele><time>2026-04-25T09:35:19.94Z</time></trkpt><trkpt lat="45.4131135" lon="7.6798887"><ele>509.0</ele><time>2026-04-25T09:35:21.953Z</time></trkpt><trkpt lat="45.4130879" lon="7.6797846"><ele>508.0</ele><time>2026-04-25T09:35:23.948Z</time></trkpt><trkpt lat="45.4130431" lon="7.6797102"><ele>507.0</ele><time>2026-04-25T09:35:25.951Z</time></trkpt><trkpt lat="45.4129791" lon="7.6796318"><ele>506.0</ele><time>2026-04-25T09:35:27.95Z</time></trkpt><trkpt lat="45.4129195" lon="7.6795547"><ele>505.0</ele><time>2026-04-25T09:35:29.95Z</time></trkpt><trkpt lat="45.4128199" lon="7.6794652"><ele>504.0</ele><time>2026-04-25T09:35:31.951Z</time></trkpt><trkpt lat="45.41274" lon="7.6794164"><ele>504.0</ele><time>2026-04-25T09:35:32.948Z</time></trkpt><trkpt lat="45.4126289" lon="7.6793661"><ele>504.0</ele><time>2026-04-25T09:35:33.945Z</time></trkpt><trkpt lat="45.4125318" lon="7.6793257"><ele>504.0</ele><time>2026-04-25T09:35:34.948Z</time></trkpt><trkpt lat="45.4124585" lon="7.6792668"><ele>504.0</ele><time>2026-04-25T09:35:35.946Z</time></trkpt><trkpt lat="45.4123599" lon="7.6791929"><ele>504.0</ele><time>2026-04-25T09:35:37.947Z</time></trkpt><trkpt lat="45.4122966" lon="7.6791127"><ele>504.0</ele><time>2026-04-25T09:35:39.951Z</time></trkpt><trkpt lat="45.4122457" lon="7.6790105"><ele>504.0</ele><time>2026-04-25T09:35:41.949Z</time></trkpt><trkpt lat="45.4121793" lon="7.6789578"><ele>504.0</ele><time>2026-04-25T09:35:44.942Z</time></trkpt><trkpt lat="45.412079" lon="7.6789171"><ele>504.0</ele><time>2026-04-25T09:35:46.958Z</time></trkpt><trkpt lat="45.4120136" lon="7.6788884"><ele>504.0</ele><time>2026-04-25T09:35:47.941Z</time></trkpt><trkpt lat="45.4118951" lon="7.6788566"><ele>503.0</ele><time>2026-04-25T09:35:49.952Z</time></trkpt><trkpt lat="45.4117889" lon="7.6788084"><ele>502.0</ele><time>2026-04-25T09:35:51.949Z</time></trkpt><trkpt lat="45.4116927" lon="7.6787401"><ele>501.0</ele><time>2026-04-25T09:35:53.95Z</time></trkpt><trkpt lat="45.4116074" lon="7.6786677"><ele>500.0</ele><time>2026-04-25T09:35:55.958Z</time></trkpt><trkpt lat="45.4115345" lon="7.6786031"><ele>499.0</ele><time>2026-04-25T09:35:57.954Z</time></trkpt><trkpt lat="45.4114431" lon="7.6785417"><ele>499.00000000000006</ele><time>2026-04-25T09:35:59.95Z</time></trkpt><trkpt lat="45.4113659" lon="7.6784463"><ele>499.0</ele><time>2026-04-25T09:36:01.95Z</time></trkpt><trkpt lat="45.411296" lon="7.6784236"><ele>499.0</ele><time>2026-04-25T09:36:03.95Z</time></trkpt><trkpt lat="45.4112183" lon="7.6784281"><ele>499.0</ele><time>2026-04-25T09:36:05.953Z</time></trkpt><trkpt lat="45.4111252" lon="7.6784092"><ele>499.00000000000006</ele><time>2026-04-25T09:36:07.95Z</time></trkpt><trkpt lat="45.4110261" lon="7.6783702"><ele>499.0</ele><time>2026-04-25T09:36:09.952Z</time></trkpt><trkpt lat="45.4109324" lon="7.6783209"><ele>501.2</ele><time>2026-04-25T09:36:11.933Z</time></trkpt><trkpt lat="45.4108281" lon="7.6782721"><ele>503.4</ele><time>2026-04-25T09:36:13.938Z</time></trkpt><trkpt lat="45.4107421" lon="7.6782401"><ele>505.6</ele><time>2026-04-25T09:36:15.936Z</time></trkpt><trkpt lat="45.4106602" lon="7.6782339"><ele>507.8</ele><time>2026-04-25T09:36:17.942Z</time></trkpt><trkpt lat="45.4105713" lon="7.6782888"><ele>510.0</ele><time>2026-04-25T09:36:19.948Z</time></trkpt><trkpt lat="45.4104983" lon="7.6783582"><ele>511.4</ele><time>2026-04-25T09:36:21.953Z</time></trkpt><trkpt lat="45.4104494" lon="7.6784583"><ele>512.8</ele><time>2026-04-25T09:36:23.94Z</time></trkpt><trkpt lat="45.4104263" lon="7.6785967"><ele>514.2</ele><time>2026-04-25T09:36:25.952Z</time></trkpt><trkpt lat="45.4104225" lon="7.6787545"><ele>515.6</ele><time>2026-04-25T09:36:27.948Z</time></trkpt><trkpt lat="45.4104289" lon="7.6788535"><ele>517.0</ele><time>2026-04-25T09:36:28.957Z</time></trkpt><trkpt lat="45.4104277" lon="7.679014"><ele>518.8333333333334</ele><time>2026-04-25T09:36:30.949Z</time></trkpt><trkpt lat="45.4103899" lon="7.6790899"><ele>520.6666666666667</ele><time>2026-04-25T09:36:32.953Z</time></trkpt><trkpt lat="45.4102999" lon="7.6790811"><ele>522.5</ele><time>2026-04-25T09:36:34.955Z</time></trkpt><trkpt lat="45.4102101" lon="7.6790559"><ele>524.3333333333334</ele><time>2026-04-25T09:36:36.953Z</time></trkpt><trkpt lat="45.4101355" lon="7.679039"><ele>526.1666666666666</ele><time>2026-04-25T09:36:38.952Z</time></trkpt><trkpt lat="45.410048" lon="7.6790762"><ele>528.0</ele><time>2026-04-25T09:36:40.949Z</time></trkpt><trkpt lat="45.4099479" lon="7.6791595"><ele>528.0</ele><time>2026-04-25T09:36:42.951Z</time></trkpt><trkpt lat="45.4098389" lon="7.6792515"><ele>528.0</ele><time>2026-04-25T09:36:44.938Z</time></trkpt><trkpt lat="45.4097365" lon="7.6793041"><ele>528.0</ele><time>2026-04-25T09:36:46.955Z</time></trkpt><trkpt lat="45.4096411" lon="7.679317"><ele>528.0</ele><time>2026-04-25T09:36:48.955Z</time></trkpt><trkpt lat="45.4095458" lon="7.6792832"><ele>528.0</ele><time>2026-04-25T09:36:50.95Z</time></trkpt><trkpt lat="45.4094681" lon="7.6792236"><ele>530.0</ele><time>2026-04-25T09:36:53.026Z</time></trkpt><trkpt lat="45.409385" lon="7.6791569"><ele>532.0</ele><time>2026-04-25T09:36:55.009Z</time></trkpt><trkpt lat="45.4092964" lon="7.6791003"><ele>534.0</ele><time>2026-04-25T09:36:56.95Z</time></trkpt><trkpt lat="45.409192" lon="7.6790551"><ele>536.0</ele><time>2026-04-25T09:36:58.955Z</time></trkpt><trkpt lat="45.4090935" lon="7.6790333"><ele>538.0</ele><time>2026-04-25T09:37:01.033Z</time></trkpt><trkpt lat="45.4089795" lon="7.6790273"><ele>538.0</ele><time>2026-04-25T09:37:02.955Z</time></trkpt><trkpt lat="45.4088685" lon="7.6790057"><ele>538.0</ele><time>2026-04-25T09:37:04.955Z</time></trkpt><trkpt lat="45.4087635" lon="7.6790378"><ele>538.0</ele><time>2026-04-25T09:37:06.95Z</time></trkpt><trkpt lat="45.4086405" lon="7.6790668"><ele>538.0</ele><time>2026-04-25T09:37:08.97Z</time></trkpt><trkpt lat="45.4085704" lon="7.6790809"><ele>538.0</ele><time>2026-04-25T09:37:10.949Z</time></trkpt><trkpt lat="45.4086617" lon="7.6791963"><ele>538.0</ele><time>2026-04-25T09:37:28.962Z</time></trkpt><trkpt lat="45.4087271" lon="7.6792564"><ele>538.0</ele><time>2026-04-25T09:37:29.95Z</time></trkpt><trkpt lat="45.4087991" lon="7.6793117"><ele>538.0</ele><time>2026-04-25T09:37:30.957Z</time></trkpt><trkpt lat="45.4088702" lon="7.67936"><ele>538.0</ele><time>2026-04-25T09:37:31.943Z</time></trkpt><trkpt lat="45.4089466" lon="7.6794116"><ele>538.0</ele><time>2026-04-25T09:37:32.946Z</time></trkpt><trkpt lat="45.4090264" lon="7.6794738"><ele>538.0</ele><time>2026-04-25T09:37:33.951Z</time></trkpt><trkpt lat="45.4090953" lon="7.6795408"><ele>539.3333333333334</ele><time>2026-04-25T09:37:34.96Z</time></trkpt><trkpt lat="45.4091623" lon="7.6796144"><ele>540.6666666666667</ele><time>2026-04-25T09:37:35.955Z</time></trkpt><trkpt lat="45.4092259" lon="7.6796879"><ele>542.0</ele><time>2026-04-25T09:37:36.958Z</time></trkpt><trkpt lat="45.4092952" lon="7.679764"><ele>543.3333333333334</ele><time>2026-04-25T09:37:37.954Z</time></trkpt><trkpt lat="45.4093645" lon="7.6798317"><ele>544.6666666666666</ele><time>2026-04-25T09:37:39.034Z</time></trkpt><trkpt lat="45.409433" lon="7.6798974"><ele>546.0</ele><time>2026-04-25T09:37:40.037Z</time></trkpt><trkpt lat="45.4095017" lon="7.679953"><ele>546.0</ele><time>2026-04-25T09:37:41.029Z</time></trkpt><trkpt lat="45.4095792" lon="7.6799995"><ele>546.0</ele><time>2026-04-25T09:37:41.95Z</time></trkpt><trkpt lat="45.409654" lon="7.6800453"><ele>546.0</ele><time>2026-04-25T09:37:42.951Z</time></trkpt><trkpt lat="45.4097295" lon="7.6800838"><ele>546.0</ele><time>2026-04-25T09:37:43.951Z</time></trkpt><trkpt lat="45.4098078" lon="7.6801235"><ele>546.0</ele><time>2026-04-25T09:37:44.95Z</time></trkpt><trkpt lat="45.4098822" lon="7.6801645"><ele>546.0</ele><time>2026-04-25T09:37:45.948Z</time></trkpt><trkpt lat="45.4099496" lon="7.6802038"><ele>545.6</ele><time>2026-04-25T09:37:46.941Z</time></trkpt><trkpt lat="45.4100142" lon="7.6802593"><ele>545.2</ele><time>2026-04-25T09:37:47.946Z</time></trkpt><trkpt lat="45.4100699" lon="7.680302"><ele>544.8</ele><time>2026-04-25T09:37:48.945Z</time></trkpt><trkpt lat="45.4101282" lon="7.6803501"><ele>544.4</ele><time>2026-04-25T09:37:49.949Z</time></trkpt><trkpt lat="45.4102476" lon="7.6803969"><ele>544.0</ele><time>2026-04-25T09:37:51.951Z</time></trkpt><trkpt lat="45.4103775" lon="7.6804068"><ele>544.0</ele><time>2026-04-25T09:37:53.952Z</time></trkpt><trkpt lat="45.4104984" lon="7.6803827"><ele>544.0</ele><time>2026-04-25T09:37:55.953Z</time></trkpt><trkpt lat="45.4106208" lon="7.680335"><ele>544.0</ele><time>2026-04-25T09:37:57.948Z</time></trkpt><trkpt lat="45.4107387" lon="7.6802836"><ele>544.0</ele><time>2026-04-25T09:37:59.956Z</time></trkpt><trkpt lat="45.4108558" lon="7.6802602"><ele>545.6666666666667</ele><time>2026-04-25T09:38:01.95Z</time></trkpt><trkpt lat="45.4109498" lon="7.680267"><ele>547.3333333333334</ele><time>2026-04-25T09:38:03.968Z</time></trkpt><trkpt lat="45.4110198" lon="7.6803013"><ele>549.0</ele><time>2026-04-25T09:38:05.94Z</time></trkpt><trkpt lat="45.4110855" lon="7.6803816"><ele>550.6666666666666</ele><time>2026-04-25T09:38:08.016Z</time></trkpt><trkpt lat="45.4111391" lon="7.6805102"><ele>552.3333333333333</ele><time>2026-04-25T09:38:09.948Z</time></trkpt><trkpt lat="45.4111748" lon="7.6806028"><ele>554.0</ele><time>2026-04-25T09:38:10.953Z</time></trkpt><trkpt lat="45.4112104" lon="7.6807055"><ele>554.0</ele><time>2026-04-25T09:38:11.943Z</time></trkpt><trkpt lat="45.4112632" lon="7.6808327"><ele>554.0</ele><time>2026-04-25T09:38:12.946Z</time></trkpt><trkpt lat="45.4113238" lon="7.6809461"><ele>554.0</ele><time>2026-04-25T09:38:13.95Z</time></trkpt><trkpt lat="45.4113846" lon="7.6810471"><ele>554.0</ele><time>2026-04-25T09:38:14.943Z</time></trkpt><trkpt lat="45.4114411" lon="7.6811382"><ele>554.0</ele><time>2026-04-25T09:38:16.011Z</time></trkpt><trkpt lat="45.4114981" lon="7.681213"><ele>554.8333333333333</ele><time>2026-04-25T09:38:17.046Z</time></trkpt><trkpt lat="45.4115626" lon="7.6812791"><ele>555.6666666666666</ele><time>2026-04-25T09:38:17.947Z</time></trkpt><trkpt lat="45.41163" lon="7.6813408"><ele>556.5</ele><time>2026-04-25T09:38:19.034Z</time></trkpt><trkpt lat="45.4116986" lon="7.6814143"><ele>557.3333333333334</ele><time>2026-04-25T09:38:19.939Z</time></trkpt><trkpt lat="45.4117656" lon="7.6814792"><ele>558.1666666666667</ele><time>2026-04-25T09:38:20.945Z</time></trkpt><trkpt lat="45.4118329" lon="7.6815388"><ele>559.0</ele><time>2026-04-25T09:38:21.947Z</time></trkpt><trkpt lat="45.4118828" lon="7.6816036"><ele>559.0</ele><time>2026-04-25T09:38:22.948Z</time></trkpt><trkpt lat="45.4119449" lon="7.6816798"><ele>559.0</ele><time>2026-04-25T09:38:23.949Z</time></trkpt><trkpt lat="45.4120127" lon="7.6817319"><ele>559.0</ele><time>2026-04-25T09:38:25.029Z</time></trkpt><trkpt lat="45.412078" lon="7.6817781"><ele>559.0</ele><time>2026-04-25T09:38:26.029Z</time></trkpt><trkpt lat="45.4121456" lon="7.6818401"><ele>559.0</ele><time>2026-04-25T09:38:26.956Z</time></trkpt><trkpt lat="45.4122047" lon="7.6819007"><ele>559.0</ele><time>2026-04-25T09:38:27.954Z</time></trkpt><trkpt lat="45.412265" lon="7.6819588"><ele>559.3333333333334</ele><time>2026-04-25T09:38:28.967Z</time></trkpt><trkpt lat="45.4123238" lon="7.682025"><ele>559.6666666666667</ele><time>2026-04-25T09:38:30.029Z</time></trkpt><trkpt lat="45.4123825" lon="7.6821031"><ele>560.0</ele><time>2026-04-25T09:38:31.032Z</time></trkpt><trkpt lat="45.4124354" lon="7.6821738"><ele>560.3333333333334</ele><time>2026-04-25T09:38:31.959Z</time></trkpt><trkpt lat="45.412482" lon="7.6822431"><ele>560.6666666666666</ele><time>2026-04-25T09:38:32.966Z</time></trkpt><trkpt lat="45.412536" lon="7.6823148"><ele>561.0</ele><time>2026-04-25T09:38:33.988Z</time></trkpt><trkpt lat="45.4126052" lon="7.6823771"><ele>561.0</ele><time>2026-04-25T09:38:35.023Z</time></trkpt><trkpt lat="45.4126764" lon="7.6824427"><ele>561.0</ele><time>2026-04-25T09:38:36.033Z</time></trkpt><trkpt lat="45.4127522" lon="7.6824991"><ele>561.0</ele><time>2026-04-25T09:38:36.961Z</time></trkpt><trkpt lat="45.4128325" lon="7.6825561"><ele>561.0</ele><time>2026-04-25T09:38:37.96Z</time></trkpt><trkpt lat="45.412908" lon="7.6825996"><ele>561.0</ele><time>2026-04-25T09:38:38.977Z</time></trkpt><trkpt lat="45.4129739" lon="7.68264"><ele>561.0</ele><time>2026-04-25T09:38:40.038Z</time></trkpt><trkpt lat="45.4130419" lon="7.6826887"><ele>558.2857142857142</ele><time>2026-04-25T09:38:41.03Z</time></trkpt><trkpt lat="45.4131064" lon="7.6827397"><ele>555.5714285714286</ele><time>2026-04-25T09:38:41.946Z</time></trkpt><trkpt lat="45.4131648" lon="7.6827975"><ele>552.8571428571429</ele><time>2026-04-25T09:38:42.938Z</time></trkpt><trkpt lat="45.4132144" lon="7.6828663"><ele>550.1428571428571</ele><time>2026-04-25T09:38:43.962Z</time></trkpt><trkpt lat="45.4132563" lon="7.6829457"><ele>547.4285714285714</ele><time>2026-04-25T09:38:45.038Z</time></trkpt><trkpt lat="45.4132922" lon="7.6830356"><ele>544.7142857142857</ele><time>2026-04-25T09:38:46.03Z</time></trkpt><trkpt lat="45.4133266" lon="7.683124"><ele>542.0</ele><time>2026-04-25T09:38:46.954Z</time></trkpt><trkpt lat="45.4133795" lon="7.683275"><ele>542.0</ele><time>2026-04-25T09:38:48.986Z</time></trkpt><trkpt lat="45.4133931" lon="7.6833639"><ele>542.0</ele><time>2026-04-25T09:38:50.033Z</time></trkpt><trkpt lat="45.4133931" lon="7.6835397"><ele>542.0</ele><time>2026-04-25T09:38:51.945Z</time></trkpt><trkpt lat="45.4133795" lon="7.6836388"><ele>542.0</ele><time>2026-04-25T09:38:52.937Z</time></trkpt><trkpt lat="45.4133575" lon="7.6837413"><ele>542.0</ele><time>2026-04-25T09:38:53.94Z</time></trkpt><trkpt lat="45.4133341" lon="7.6838325"><ele>542.0</ele><time>2026-04-25T09:38:54.954Z</time></trkpt><trkpt lat="45.4133127" lon="7.6839402"><ele>543.6</ele><time>2026-04-25T09:38:55.952Z</time></trkpt><trkpt lat="45.4132971" lon="7.6840603"><ele>545.2</ele><time>2026-04-25T09:38:56.956Z</time></trkpt><trkpt lat="45.4132777" lon="7.6841725"><ele>546.8</ele><time>2026-04-25T09:38:57.948Z</time></trkpt><trkpt lat="45.4132569" lon="7.6842727"><ele>548.4</ele><time>2026-04-25T09:38:58.955Z</time></trkpt><trkpt lat="45.4132648" lon="7.6844324"><ele>550.0</ele><time>2026-04-25T09:39:00.955Z</time></trkpt><trkpt lat="45.4132995" lon="7.6845692"><ele>551.4</ele><time>2026-04-25T09:39:02.945Z</time></trkpt><trkpt lat="45.4133521" lon="7.6846758"><ele>552.8</ele><time>2026-04-25T09:39:05.012Z</time></trkpt><trkpt lat="45.4134148" lon="7.6848114"><ele>554.2</ele><time>2026-04-25T09:39:06.944Z</time></trkpt><trkpt lat="45.413491" lon="7.6849243"><ele>555.6</ele><time>2026-04-25T09:39:08.952Z</time></trkpt><trkpt lat="45.4135842" lon="7.6850269"><ele>557.0</ele><time>2026-04-25T09:39:10.96Z</time></trkpt><trkpt lat="45.4136381" lon="7.6850804"><ele>557.0</ele><time>2026-04-25T09:39:11.958Z</time></trkpt><trkpt lat="45.4136847" lon="7.6851462"><ele>557.0</ele><time>2026-04-25T09:39:12.95Z</time></trkpt><trkpt lat="45.4137388" lon="7.6852658"><ele>557.0</ele><time>2026-04-25T09:39:15.033Z</time></trkpt><trkpt lat="45.4137979" lon="7.6853736"><ele>557.0</ele><time>2026-04-25T09:39:16.952Z</time></trkpt><trkpt lat="45.4138788" lon="7.6855234"><ele>557.0</ele><time>2026-04-25T09:39:18.949Z</time></trkpt><trkpt lat="45.4139305" lon="7.6856106"><ele>558.1666666666666</ele><time>2026-04-25T09:39:19.95Z</time></trkpt><trkpt lat="45.4139817" lon="7.685703"><ele>559.3333333333333</ele><time>2026-04-25T09:39:21.04Z</time></trkpt><trkpt lat="45.4140309" lon="7.685801"><ele>560.5</ele><time>2026-04-25T09:39:21.96Z</time></trkpt><trkpt lat="45.4140811" lon="7.6859041"><ele>561.6666666666666</ele><time>2026-04-25T09:39:22.956Z</time></trkpt><trkpt lat="45.4141331" lon="7.686009"><ele>562.8333333333334</ele><time>2026-04-25T09:39:23.985Z</time></trkpt><trkpt lat="45.4141883" lon="7.6861137"><ele>564.0</ele><time>2026-04-25T09:39:24.949Z</time></trkpt><trkpt lat="45.4142442" lon="7.6862097"><ele>564.0</ele><time>2026-04-25T09:39:25.955Z</time></trkpt><trkpt lat="45.4143022" lon="7.6863055"><ele>564.0</ele><time>2026-04-25T09:39:26.957Z</time></trkpt><trkpt lat="45.41436" lon="7.6863913"><ele>564.0</ele><time>2026-04-25T09:39:27.957Z</time></trkpt><trkpt lat="45.4144165" lon="7.6864684"><ele>564.0</ele><time>2026-04-25T09:39:29.049Z</time></trkpt><trkpt lat="45.4144728" lon="7.6865417"><ele>564.0</ele><time>2026-04-25T09:39:30.035Z</time></trkpt><trkpt lat="45.4145299" lon="7.686623"><ele>564.0</ele><time>2026-04-25T09:39:31.025Z</time></trkpt><trkpt lat="45.4145894" lon="7.6866961"><ele>564.0</ele><time>2026-04-25T09:39:31.954Z</time></trkpt><trkpt lat="45.41465" lon="7.6867775"><ele>564.0</ele><time>2026-04-25T09:39:32.949Z</time></trkpt><trkpt lat="45.414711" lon="7.6868596"><ele>564.0</ele><time>2026-04-25T09:39:33.95Z</time></trkpt><trkpt lat="45.4147704" lon="7.6869401"><ele>564.0</ele><time>2026-04-25T09:39:34.952Z</time></trkpt><trkpt lat="45.4148346" lon="7.6870156"><ele>564.0</ele><time>2026-04-25T09:39:35.952Z</time></trkpt><trkpt lat="45.4148988" lon="7.6870898"><ele>564.0</ele><time>2026-04-25T09:39:36.95Z</time></trkpt><trkpt lat="45.4149701" lon="7.6871507"><ele>563.5</ele><time>2026-04-25T09:39:38.032Z</time></trkpt><trkpt lat="45.415045" lon="7.687205"><ele>563.0</ele><time>2026-04-25T09:39:39.031Z</time></trkpt><trkpt lat="45.4151235" lon="7.6872479"><ele>562.5</ele><time>2026-04-25T09:39:40.029Z</time></trkpt><trkpt lat="45.4152115" lon="7.6872731"><ele>562.0</ele><time>2026-04-25T09:39:41.031Z</time></trkpt><trkpt lat="45.4152953" lon="7.6872935"><ele>561.5</ele><time>2026-04-25T09:39:41.944Z</time></trkpt><trkpt lat="45.4153811" lon="7.6873104"><ele>561.0</ele><time>2026-04-25T09:39:42.955Z</time></trkpt><trkpt lat="45.415468" lon="7.6873286"><ele>558.6666666666666</ele><time>2026-04-25T09:39:43.968Z</time></trkpt><trkpt lat="45.4155569" lon="7.6873462"><ele>556.3333333333334</ele><time>2026-04-25T09:39:44.947Z</time></trkpt><trkpt lat="45.4156454" lon="7.6873619"><ele>554.0</ele><time>2026-04-25T09:39:46.029Z</time></trkpt><trkpt lat="45.4157332" lon="7.6873833"><ele>551.6666666666667</ele><time>2026-04-25T09:39:46.956Z</time></trkpt><trkpt lat="45.4158187" lon="7.6874036"><ele>549.3333333333334</ele><time>2026-04-25T09:39:47.951Z</time></trkpt><trkpt lat="45.4158993" lon="7.6874222"><ele>547.0</ele><time>2026-04-25T09:39:48.972Z</time></trkpt><trkpt lat="45.4159826" lon="7.6874435"><ele>547.0</ele><time>2026-04-25T09:39:50.042Z</time></trkpt><trkpt lat="45.4160661" lon="7.6874591"><ele>547.0</ele><time>2026-04-25T09:39:51.028Z</time></trkpt><trkpt lat="45.4161495" lon="7.6874737"><ele>547.0</ele><time>2026-04-25T09:39:51.962Z</time></trkpt><trkpt lat="45.4162363" lon="7.6874859"><ele>547.0</ele><time>2026-04-25T09:39:52.955Z</time></trkpt><trkpt lat="45.4163184" lon="7.6874913"><ele>547.0</ele><time>2026-04-25T09:39:54.083Z</time></trkpt><trkpt lat="45.4164012" lon="7.6874966"><ele>547.0</ele><time>2026-04-25T09:39:55.03Z</time></trkpt><trkpt lat="45.4164813" lon="7.6874924"><ele>545.5</ele><time>2026-04-25T09:39:56.032Z</time></trkpt><trkpt lat="45.4165668" lon="7.6874839"><ele>544.0</ele><time>2026-04-25T09:39:56.953Z</time></trkpt><trkpt lat="45.4166551" lon="7.6874678"><ele>542.5</ele><time>2026-04-25T09:39:57.95Z</time></trkpt><trkpt lat="45.4167408" lon="7.6874576"><ele>541.0</ele><time>2026-04-25T09:39:58.967Z</time></trkpt><trkpt lat="45.4168195" lon="7.6874374"><ele>539.5</ele><time>2026-04-25T09:39:59.98Z</time></trkpt><trkpt lat="45.4168996" lon="7.6874195"><ele>538.0</ele><time>2026-04-25T09:40:00.955Z</time></trkpt><trkpt lat="45.4169801" lon="7.6874007"><ele>538.0</ele><time>2026-04-25T09:40:01.949Z</time></trkpt><trkpt lat="45.4170581" lon="7.6873902"><ele>538.0</ele><time>2026-04-25T09:40:02.951Z</time></trkpt><trkpt lat="45.4171293" lon="7.6873675"><ele>538.0</ele><time>2026-04-25T09:40:03.946Z</time></trkpt><trkpt lat="45.4172412" lon="7.6873317"><ele>538.0</ele><time>2026-04-25T09:40:05.95Z</time></trkpt><trkpt lat="45.4173289" lon="7.687328"><ele>538.0</ele><time>2026-04-25T09:40:07.947Z</time></trkpt><trkpt lat="45.4174142" lon="7.6873523"><ele>538.0</ele><time>2026-04-25T09:40:09.941Z</time></trkpt><trkpt lat="45.4174763" lon="7.6874312"><ele>539.25</ele><time>2026-04-25T09:40:11.95Z</time></trkpt><trkpt lat="45.4175359" lon="7.6875577"><ele>540.5</ele><time>2026-04-25T09:40:13.949Z</time></trkpt><trkpt lat="45.417564" lon="7.6877428"><ele>541.75</ele><time>2026-04-25T09:40:15.948Z</time></trkpt><trkpt lat="45.4175615" lon="7.6879218"><ele>543.0</ele><time>2026-04-25T09:40:16.94Z</time></trkpt><trkpt lat="45.4175708" lon="7.6881689"><ele>548.0</ele><time>2026-04-25T09:40:17.947Z</time></trkpt><trkpt lat="45.4175919" lon="7.6883957"><ele>553.0</ele><time>2026-04-25T09:40:18.974Z</time></trkpt><trkpt lat="45.4176071" lon="7.6885687"><ele>558.0</ele><time>2026-04-25T09:40:19.993Z</time></trkpt><trkpt lat="45.4176124" lon="7.6886779"><ele>563.0</ele><time>2026-04-25T09:40:20.958Z</time></trkpt><trkpt lat="45.417611" lon="7.6887822"><ele>568.0</ele><time>2026-04-25T09:40:21.957Z</time></trkpt><trkpt lat="45.4175785" lon="7.6889504"><ele>571.8</ele><time>2026-04-25T09:40:23.945Z</time></trkpt><trkpt lat="45.417542" lon="7.689084"><ele>575.5999999999999</ele><time>2026-04-25T09:40:24.94Z</time></trkpt><trkpt lat="45.4175077" lon="7.6892181"><ele>579.4000000000001</ele><time>2026-04-25T09:40:25.945Z</time></trkpt><trkpt lat="45.4174895" lon="7.6893219"><ele>583.2</ele><time>2026-04-25T09:40:26.948Z</time></trkpt><trkpt lat="45.4174825" lon="7.6894773"><ele>587.0</ele><time>2026-04-25T09:40:28.949Z</time></trkpt><trkpt lat="45.4174785" lon="7.6896079"><ele>591.0</ele><time>2026-04-25T09:40:29.956Z</time></trkpt><trkpt lat="45.4174691" lon="7.689783"><ele>595.0</ele><time>2026-04-25T09:40:30.947Z</time></trkpt><trkpt lat="45.4174569" lon="7.6899907"><ele>599.0</ele><time>2026-04-25T09:40:31.945Z</time></trkpt><trkpt lat="45.4174595" lon="7.6901975"><ele>603.0</ele><time>2026-04-25T09:40:32.952Z</time></trkpt><trkpt lat="45.4174765" lon="7.6903896"><ele>605.8</ele><time>2026-04-25T09:40:33.953Z</time></trkpt><trkpt lat="45.4174806" lon="7.6905671"><ele>608.5999999999999</ele><time>2026-04-25T09:40:34.954Z</time></trkpt><trkpt lat="45.417495" lon="7.6907058"><ele>611.4000000000001</ele><time>2026-04-25T09:40:36.009Z</time></trkpt><trkpt lat="45.4175137" lon="7.6908591"><ele>614.2</ele><time>2026-04-25T09:40:37.956Z</time></trkpt><trkpt lat="45.4175563" lon="7.6909522"><ele>617.0</ele><time>2026-04-25T09:40:38.962Z</time></trkpt><trkpt lat="45.4176249" lon="7.6910878"><ele>617.0</ele><time>2026-04-25T09:40:40.94Z</time></trkpt><trkpt lat="45.4176803" lon="7.6912234"><ele>617.0</ele><time>2026-04-25T09:40:42.954Z</time></trkpt><trkpt lat="45.4177511" lon="7.6913032"><ele>617.0</ele><time>2026-04-25T09:40:44.948Z</time></trkpt><trkpt lat="45.4178172" lon="7.6913437"><ele>617.0</ele><time>2026-04-25T09:40:46.954Z</time></trkpt><trkpt lat="45.4178728" lon="7.6912509"><ele>617.0</ele><time>2026-04-25T09:41:26.957Z</time></trkpt><trkpt lat="45.4179035" lon="7.6911648"><ele>617.0</ele><time>2026-04-25T09:41:28.943Z</time></trkpt><trkpt lat="45.4179548" lon="7.6910533"><ele>619.2</ele><time>2026-04-25T09:41:31.026Z</time></trkpt><trkpt lat="45.4179937" lon="7.6909633"><ele>621.4000000000001</ele><time>2026-04-25T09:41:31.951Z</time></trkpt><trkpt lat="45.4180289" lon="7.6908525"><ele>623.5999999999999</ele><time>2026-04-25T09:41:32.958Z</time></trkpt><trkpt lat="45.4180642" lon="7.6907236"><ele>625.8</ele><time>2026-04-25T09:41:33.951Z</time></trkpt><trkpt lat="45.4181063" lon="7.6905923"><ele>628.0</ele><time>2026-04-25T09:41:34.95Z</time></trkpt><trkpt lat="45.4181551" lon="7.6904429"><ele>628.0</ele><time>2026-04-25T09:41:35.95Z</time></trkpt><trkpt lat="45.418197" lon="7.6903031"><ele>628.0</ele><time>2026-04-25T09:41:36.95Z</time></trkpt><trkpt lat="45.4182265" lon="7.6902026"><ele>628.0</ele><time>2026-04-25T09:41:38.035Z</time></trkpt><trkpt lat="45.4182516" lon="7.6900986"><ele>628.0</ele><time>2026-04-25T09:41:40.031Z</time></trkpt><trkpt lat="45.4183452" lon="7.6900731"><ele>628.0</ele><time>2026-04-25T09:41:42.954Z</time></trkpt><trkpt lat="45.4184239" lon="7.6901056"><ele>628.0</ele><time>2026-04-25T09:41:44.97Z</time></trkpt><trkpt lat="45.418494" lon="7.6901839"><ele>628.0</ele><time>2026-04-25T09:41:46.953Z</time></trkpt><trkpt lat="45.4185591" lon="7.6902824"><ele>628.0</ele><time>2026-04-25T09:41:48.96Z</time></trkpt><trkpt lat="45.4186317" lon="7.6903438"><ele>628.0</ele><time>2026-04-25T09:41:50.947Z</time></trkpt><trkpt lat="45.4187061" lon="7.6903822"><ele>628.0</ele><time>2026-04-25T09:41:52.952Z</time></trkpt><trkpt lat="45.4187544" lon="7.6904475"><ele>628.0</ele><time>2026-04-25T09:41:54.955Z</time></trkpt><trkpt lat="45.4186905" lon="7.6904776"><ele>628.0</ele><time>2026-04-25T09:42:04.952Z</time></trkpt><trkpt lat="45.4186367" lon="7.6905889"><ele>628.0</ele><time>2026-04-25T09:42:08.956Z</time></trkpt><trkpt lat="45.41864" lon="7.6906926"><ele>628.0</ele><time>2026-04-25T09:42:10.95Z</time></trkpt><trkpt lat="45.4186906" lon="7.6907807"><ele>628.0</ele><time>2026-04-25T09:42:12.957Z</time></trkpt><trkpt lat="45.4187546" lon="7.6908565"><ele>628.0</ele><time>2026-04-25T09:42:14.954Z</time></trkpt><trkpt lat="45.4188257" lon="7.690916"><ele>628.0</ele><time>2026-04-25T09:42:16.952Z</time></trkpt><trkpt lat="45.418884" lon="7.6909586"><ele>628.0</ele><time>2026-04-25T09:42:18.957Z</time></trkpt><trkpt lat="45.4189683" lon="7.6910354"><ele>633.1666666666667</ele><time>2026-04-25T09:42:41.961Z</time></trkpt><trkpt lat="45.4190227" lon="7.6911001"><ele>638.3333333333334</ele><time>2026-04-25T09:42:43.948Z</time></trkpt><trkpt lat="45.419095" lon="7.6911645"><ele>643.5</ele><time>2026-04-25T09:43:00.019Z</time></trkpt><trkpt lat="45.4191882" lon="7.6911608"><ele>648.6666666666666</ele><time>2026-04-25T09:43:02.963Z</time></trkpt><trkpt lat="45.4192583" lon="7.69115"><ele>653.8333333333333</ele><time>2026-04-25T09:43:04.944Z</time></trkpt><trkpt lat="45.4193295" lon="7.6911577"><ele>659.0</ele><time>2026-04-25T09:43:06.954Z</time></trkpt><trkpt lat="45.4194034" lon="7.6911655"><ele>659.0</ele><time>2026-04-25T09:43:09.957Z</time></trkpt><trkpt lat="45.4194792" lon="7.691161"><ele>659.0</ele><time>2026-04-25T09:43:12.955Z</time></trkpt><trkpt lat="45.419536" lon="7.6912083"><ele>659.0</ele><time>2026-04-25T09:43:16.034Z</time></trkpt><trkpt lat="45.4195639" lon="7.6913085"><ele>659.0</ele><time>2026-04-25T09:43:18.966Z</time></trkpt><trkpt lat="45.4195868" lon="7.6914006"><ele>659.0</ele><time>2026-04-25T09:43:21.03Z</time></trkpt><trkpt lat="45.419621" lon="7.6915247"><ele>659.0</ele><time>2026-04-25T09:43:22.966Z</time></trkpt><trkpt lat="45.4196505" lon="7.6916331"><ele>657.1666666666666</ele><time>2026-04-25T09:43:24.955Z</time></trkpt><trkpt lat="45.4196894" lon="7.6917426"><ele>655.3333333333333</ele><time>2026-04-25T09:43:26.956Z</time></trkpt><trkpt lat="45.4197135" lon="7.6918402"><ele>653.5</ele><time>2026-04-25T09:43:29.019Z</time></trkpt><trkpt lat="45.4197353" lon="7.6919256"><ele>651.6666666666666</ele><time>2026-04-25T09:43:30.975Z</time></trkpt><trkpt lat="45.4197648" lon="7.6920161"><ele>649.8333333333334</ele><time>2026-04-25T09:43:32.962Z</time></trkpt><trkpt lat="45.4198071" lon="7.6921362"><ele>648.0</ele><time>2026-04-25T09:43:35.956Z</time></trkpt><trkpt lat="45.4198417" lon="7.6922478"><ele>648.0</ele><time>2026-04-25T09:43:39.039Z</time></trkpt><trkpt lat="45.4198508" lon="7.6923494"><ele>648.0</ele><time>2026-04-25T09:43:41.942Z</time></trkpt><trkpt lat="45.4198626" lon="7.692448"><ele>648.0</ele><time>2026-04-25T09:43:48.945Z</time></trkpt><trkpt lat="45.4198455" lon="7.6925418"><ele>648.0</ele><time>2026-04-25T09:44:33.948Z</time></trkpt><trkpt lat="45.4198828" lon="7.6926351"><ele>648.0</ele><time>2026-04-25T09:44:45.963Z</time></trkpt><trkpt lat="45.4199103" lon="7.6927459"><ele>648.0</ele><time>2026-04-25T09:44:53.956Z</time></trkpt><trkpt lat="45.4199247" lon="7.6928459"><ele>648.0</ele><time>2026-04-25T09:44:55.955Z</time></trkpt><trkpt lat="45.4199309" lon="7.6929711"><ele>648.3333333333334</ele><time>2026-04-25T09:44:57.956Z</time></trkpt><trkpt lat="45.4199323" lon="7.6931051"><ele>648.6666666666666</ele><time>2026-04-25T09:44:59.96Z</time></trkpt><trkpt lat="45.4199206" lon="7.6932084"><ele>649.0</ele><time>2026-04-25T09:45:01.948Z</time></trkpt><trkpt lat="45.4199004" lon="7.6933083"><ele>649.3333333333333</ele><time>2026-04-25T09:45:04.949Z</time></trkpt><trkpt lat="45.4198714" lon="7.6934109"><ele>649.6666666666666</ele><time>2026-04-25T09:45:07.951Z</time></trkpt><trkpt lat="45.419859" lon="7.693511"><ele>650.0</ele><time>2026-04-25T09:45:09.95Z</time></trkpt><trkpt lat="45.4198605" lon="7.6936249"><ele>647.8333333333333</ele><time>2026-04-25T09:45:11.945Z</time></trkpt><trkpt lat="45.4198556" lon="7.6937336"><ele>645.6666666666666</ele><time>2026-04-25T09:45:13.949Z</time></trkpt><trkpt lat="45.4198248" lon="7.6938151"><ele>643.5</ele><time>2026-04-25T09:45:15.965Z</time></trkpt><trkpt lat="45.4198034" lon="7.6939007"><ele>641.3333333333334</ele><time>2026-04-25T09:45:17.949Z</time></trkpt><trkpt lat="45.4197898" lon="7.6940274"><ele>639.1666666666667</ele><time>2026-04-25T09:45:20.953Z</time></trkpt><trkpt lat="45.4197751" lon="7.694142"><ele>637.0</ele><time>2026-04-25T09:45:22.95Z</time></trkpt><trkpt lat="45.419766" lon="7.6942637"><ele>637.0</ele><time>2026-04-25T09:45:24.955Z</time></trkpt><trkpt lat="45.4197233" lon="7.6944035"><ele>637.0</ele><time>2026-04-25T09:45:25.959Z</time></trkpt><trkpt lat="45.4196942" lon="7.6945317"><ele>637.0</ele><time>2026-04-25T09:45:26.965Z</time></trkpt><trkpt lat="45.4196802" lon="7.694623"><ele>637.0</ele><time>2026-04-25T09:45:27.942Z</time></trkpt><trkpt lat="45.4196625" lon="7.6947539"><ele>637.0</ele><time>2026-04-25T09:45:29.956Z</time></trkpt><trkpt lat="45.4196423" lon="7.694842"><ele>637.0</ele><time>2026-04-25T09:45:41.955Z</time></trkpt><trkpt lat="45.4195584" lon="7.6949005"><ele>637.1428571428571</ele><time>2026-04-25T09:49:14.95Z</time></trkpt><trkpt lat="45.4195162" lon="7.6949801"><ele>637.2857142857142</ele><time>2026-04-25T09:49:26.027Z</time></trkpt><trkpt lat="45.4194552" lon="7.6950173"><ele>637.4285714285714</ele><time>2026-04-25T09:49:45.961Z</time></trkpt><trkpt lat="45.4194351" lon="7.695109"><ele>637.5714285714286</ele><time>2026-04-25T09:49:59.969Z</time></trkpt><trkpt lat="45.4194524" lon="7.6952045"><ele>637.7142857142857</ele><time>2026-04-25T09:50:13.945Z</time></trkpt><trkpt lat="45.4195194" lon="7.6952312"><ele>637.8571428571429</ele><time>2026-04-25T09:50:19.948Z</time></trkpt><trkpt lat="45.4195842" lon="7.6952001"><ele>638.0</ele><time>2026-04-25T09:50:22.948Z</time></trkpt><trkpt lat="45.4196638" lon="7.695174"><ele>642.0</ele><time>2026-04-25T09:50:25.97Z</time></trkpt><trkpt lat="45.4197418" lon="7.6953035"><ele>646.0</ele><time>2026-04-25T09:58:04.948Z</time></trkpt><trkpt lat="45.4198193" lon="7.6953055"><ele>650.0</ele><time>2026-04-25T09:58:09.948Z</time></trkpt><trkpt lat="45.4198987" lon="7.6953135"><ele>654.0</ele><time>2026-04-25T09:58:12.946Z</time></trkpt><trkpt lat="45.4199902" lon="7.6952789"><ele>658.0</ele><time>2026-04-25T09:58:16.032Z</time></trkpt><trkpt lat="45.4200782" lon="7.6952698"><ele>658.0</ele><time>2026-04-25T09:58:18.958Z</time></trkpt><trkpt lat="45.4201364" lon="7.6953225"><ele>658.0</ele><time>2026-04-25T09:58:20.951Z</time></trkpt><trkpt lat="45.4201985" lon="7.6953767"><ele>658.0</ele><time>2026-04-25T09:58:23.953Z</time></trkpt><trkpt lat="45.4202843" lon="7.6954567"><ele>658.0</ele><time>2026-04-25T09:58:38.007Z</time></trkpt><trkpt lat="45.4202484" lon="7.6955392"><ele>658.0</ele><time>2026-04-25T09:58:43.938Z</time></trkpt><trkpt lat="45.4201849" lon="7.6955917"><ele>658.0</ele><time>2026-04-25T09:58:47.96Z</time></trkpt><trkpt lat="45.4201061" lon="7.6955997"><ele>658.0</ele><time>2026-04-25T09:58:50.958Z</time></trkpt><trkpt lat="45.4200315" lon="7.6955859"><ele>658.0</ele><time>2026-04-25T09:58:56.958Z</time></trkpt><trkpt lat="45.4201108" lon="7.6956081"><ele>658.0</ele><time>2026-04-25T09:59:03.959Z</time></trkpt><trkpt lat="45.4201753" lon="7.6955731"><ele>658.0</ele><time>2026-04-25T09:59:07.945Z</time></trkpt><trkpt lat="45.4202388" lon="7.695523"><ele>658.0</ele><time>2026-04-25T09:59:21.955Z</time></trkpt><trkpt lat="45.4202958" lon="7.6954799"><ele>658.0</ele><time>2026-04-25T09:59:23.957Z</time></trkpt><trkpt lat="45.4203679" lon="7.6954401"><ele>658.0</ele><time>2026-04-25T09:59:26.958Z</time></trkpt><trkpt lat="45.420443" lon="7.6954945"><ele>654.4</ele><time>2026-04-25T09:59:29.956Z</time></trkpt><trkpt lat="45.420499" lon="7.6955628"><ele>650.8</ele><time>2026-04-25T09:59:31.955Z</time></trkpt><trkpt lat="45.42056" lon="7.6956513"><ele>647.2</ele><time>2026-04-25T09:59:33.957Z</time></trkpt><trkpt lat="45.4206278" lon="7.695753"><ele>643.6</ele><time>2026-04-25T09:59:35.961Z</time></trkpt><trkpt lat="45.4206887" lon="7.6958721"><ele>640.0</ele><time>2026-04-25T09:59:37.954Z</time></trkpt><trkpt lat="45.4207573" lon="7.6960119"><ele>643.3333333333334</ele><time>2026-04-25T09:59:38.957Z</time></trkpt><trkpt lat="45.4208154" lon="7.6961239"><ele>646.6666666666667</ele><time>2026-04-25T09:59:39.96Z</time></trkpt><trkpt lat="45.4208616" lon="7.6962268"><ele>650.0</ele><time>2026-04-25T09:59:40.959Z</time></trkpt><trkpt lat="45.4209044" lon="7.6963129"><ele>653.3333333333334</ele><time>2026-04-25T09:59:41.954Z</time></trkpt><trkpt lat="45.4209465" lon="7.6964082"><ele>656.6666666666666</ele><time>2026-04-25T09:59:42.957Z</time></trkpt><trkpt lat="45.4209775" lon="7.696487"><ele>660.0</ele><time>2026-04-25T09:59:43.96Z</time></trkpt><trkpt lat="45.4210458" lon="7.6965975"><ele>660.0</ele><time>2026-04-25T09:59:45.958Z</time></trkpt><trkpt lat="45.4211061" lon="7.696646"><ele>660.0</ele><time>2026-04-25T09:59:47.954Z</time></trkpt><trkpt lat="45.4211872" lon="7.6966866"><ele>660.0</ele><time>2026-04-25T09:59:49.945Z</time></trkpt><trkpt lat="45.4212732" lon="7.696793"><ele>660.0</ele><time>2026-04-25T09:59:51.953Z</time></trkpt><trkpt lat="45.4213578" lon="7.6968708"><ele>660.0</ele><time>2026-04-25T09:59:53.955Z</time></trkpt><trkpt lat="45.4214186" lon="7.6969718"><ele>657.4</ele><time>2026-04-25T09:59:55.952Z</time></trkpt><trkpt lat="45.4214735" lon="7.6971235"><ele>654.8</ele><time>2026-04-25T09:59:57.961Z</time></trkpt><trkpt lat="45.4215105" lon="7.6972718"><ele>652.2</ele><time>2026-04-25T09:59:59.955Z</time></trkpt><trkpt lat="45.4215441" lon="7.6973943"><ele>649.6</ele><time>2026-04-25T10:00:01.962Z</time></trkpt><trkpt lat="45.4215881" lon="7.6975314"><ele>647.0</ele><time>2026-04-25T10:00:03.962Z</time></trkpt><trkpt lat="45.4216108" lon="7.697624"><ele>647.0</ele><time>2026-04-25T10:00:04.959Z</time></trkpt><trkpt lat="45.4216271" lon="7.697725"><ele>647.0</ele><time>2026-04-25T10:00:05.955Z</time></trkpt><trkpt lat="45.4216509" lon="7.6978343"><ele>647.0</ele><time>2026-04-25T10:00:06.957Z</time></trkpt><trkpt lat="45.4216645" lon="7.6979245"><ele>647.0</ele><time>2026-04-25T10:00:07.96Z</time></trkpt><trkpt lat="45.4216957" lon="7.6981003"><ele>647.0</ele><time>2026-04-25T10:00:09.959Z</time></trkpt><trkpt lat="45.4217161" lon="7.6981898"><ele>647.0</ele><time>2026-04-25T10:00:10.958Z</time></trkpt><trkpt lat="45.4217354" lon="7.6982804"><ele>648.6666666666666</ele><time>2026-04-25T10:00:11.96Z</time></trkpt><trkpt lat="45.4217544" lon="7.6983663"><ele>650.3333333333333</ele><time>2026-04-25T10:00:12.958Z</time></trkpt><trkpt lat="45.4217892" lon="7.6985069"><ele>652.0</ele><time>2026-04-25T10:00:14.963Z</time></trkpt><trkpt lat="45.4217527" lon="7.6985945"><ele>653.6666666666666</ele><time>2026-04-25T10:00:17.967Z</time></trkpt><trkpt lat="45.4216907" lon="7.698614"><ele>655.3333333333334</ele><time>2026-04-25T10:00:19.96Z</time></trkpt><trkpt lat="45.421622" lon="7.6986157"><ele>657.0</ele><time>2026-04-25T10:01:00.96Z</time></trkpt><trkpt lat="45.4215526" lon="7.698558"><ele>657.0</ele><time>2026-04-25T10:01:03.946Z</time></trkpt><trkpt lat="45.4214631" lon="7.6984984"><ele>657.0</ele><time>2026-04-25T10:01:05.961Z</time></trkpt><trkpt lat="45.4213445" lon="7.6984283"><ele>657.0</ele><time>2026-04-25T10:01:07.955Z</time></trkpt><trkpt lat="45.4212818" lon="7.6983879"><ele>657.0</ele><time>2026-04-25T10:01:08.954Z</time></trkpt><trkpt lat="45.4211863" lon="7.6982772"><ele>657.0</ele><time>2026-04-25T10:01:10.958Z</time></trkpt><trkpt lat="45.4211182" lon="7.6981778"><ele>661.0</ele><time>2026-04-25T10:01:12.956Z</time></trkpt><trkpt lat="45.4210532" lon="7.6980778"><ele>665.0</ele><time>2026-04-25T10:01:14.952Z</time></trkpt><trkpt lat="45.4209794" lon="7.6979763"><ele>669.0</ele><time>2026-04-25T10:01:16.962Z</time></trkpt><trkpt lat="45.4209218" lon="7.6978695"><ele>673.0</ele><time>2026-04-25T10:01:18.966Z</time></trkpt><trkpt lat="45.4208585" lon="7.6977769"><ele>677.0</ele><time>2026-04-25T10:01:20.96Z</time></trkpt><trkpt lat="45.4207817" lon="7.6977061"><ele>677.0</ele><time>2026-04-25T10:01:22.958Z</time></trkpt><trkpt lat="45.4206912" lon="7.6976785"><ele>677.0</ele><time>2026-04-25T10:01:24.96Z</time></trkpt><trkpt lat="45.4206187" lon="7.6976425"><ele>677.0</ele><time>2026-04-25T10:01:26.942Z</time></trkpt><trkpt lat="45.4205341" lon="7.6975722"><ele>677.0</ele><time>2026-04-25T10:01:28.956Z</time></trkpt><trkpt lat="45.4204893" lon="7.6974826"><ele>677.0</ele><time>2026-04-25T10:01:30.953Z</time></trkpt><trkpt lat="45.4204383" lon="7.6973682"><ele>677.0</ele><time>2026-04-25T10:01:33.96Z</time></trkpt><trkpt lat="45.4203848" lon="7.6972696"><ele>679.0</ele><time>2026-04-25T10:01:35.956Z</time></trkpt><trkpt lat="45.4203312" lon="7.6971828"><ele>681.0</ele><time>2026-04-25T10:01:37.956Z</time></trkpt><trkpt lat="45.4202635" lon="7.6971034"><ele>683.0</ele><time>2026-04-25T10:01:39.958Z</time></trkpt><trkpt lat="45.4202045" lon="7.697034"><ele>685.0</ele><time>2026-04-25T10:01:41.958Z</time></trkpt><trkpt lat="45.4201488" lon="7.6969516"><ele>687.0</ele><time>2026-04-25T10:01:43.964Z</time></trkpt><trkpt lat="45.420095" lon="7.6968749"><ele>689.0</ele><time>2026-04-25T10:01:45.951Z</time></trkpt><trkpt lat="45.4200407" lon="7.6968086"><ele>689.0</ele><time>2026-04-25T10:01:47.956Z</time></trkpt><trkpt lat="45.4199766" lon="7.696742"><ele>689.0</ele><time>2026-04-25T10:01:49.955Z</time></trkpt><trkpt lat="45.4199191" lon="7.6966847"><ele>689.0</ele><time>2026-04-25T10:01:51.953Z</time></trkpt><trkpt lat="45.4198376" lon="7.6966465"><ele>689.0</ele><time>2026-04-25T10:01:54.961Z</time></trkpt><trkpt lat="45.4197722" lon="7.696656"><ele>689.0</ele><time>2026-04-25T10:01:57.955Z</time></trkpt><trkpt lat="45.4197113" lon="7.6967108"><ele>689.0</ele><time>2026-04-25T10:02:00.96Z</time></trkpt><trkpt lat="45.4196682" lon="7.6967964"><ele>689.0</ele><time>2026-04-25T10:02:04.955Z</time></trkpt><trkpt lat="45.4195806" lon="7.6968533"><ele>689.0</ele><time>2026-04-25T10:02:07.959Z</time></trkpt><trkpt lat="45.4195121" lon="7.6968758"><ele>689.0</ele><time>2026-04-25T10:02:11.952Z</time></trkpt><trkpt lat="45.4194935" lon="7.6967853"><ele>689.0</ele><time>2026-04-25T10:02:30.952Z</time></trkpt><trkpt lat="45.4195634" lon="7.6966942"><ele>689.0</ele><time>2026-04-25T10:03:47.942Z</time></trkpt><trkpt lat="45.4196062" lon="7.6966198"><ele>689.0</ele><time>2026-04-25T10:04:03.956Z</time></trkpt><trkpt lat="45.4196513" lon="7.6965445"><ele>689.0</ele><time>2026-04-25T10:04:10.953Z</time></trkpt><trkpt lat="45.4197336" lon="7.6965373"><ele>689.0</ele><time>2026-04-25T10:04:38.964Z</time></trkpt><trkpt lat="45.4198399" lon="7.6965368"><ele>689.0</ele><time>2026-04-25T10:05:41.966Z</time></trkpt><trkpt lat="45.419912" lon="7.6965589"><ele>689.0</ele><time>2026-04-25T10:05:52.957Z</time></trkpt><trkpt lat="45.419976" lon="7.6966016"><ele>689.0</ele><time>2026-04-25T10:06:03.956Z</time></trkpt><trkpt lat="45.4200414" lon="7.6966279"><ele>689.0</ele><time>2026-04-25T10:06:17.962Z</time></trkpt><trkpt lat="45.4201024" lon="7.6966552"><ele>689.0</ele><time>2026-04-25T10:06:25.96Z</time></trkpt><trkpt lat="45.4201745" lon="7.6967093"><ele>689.0</ele><time>2026-04-25T10:06:34.954Z</time></trkpt><trkpt lat="45.4202299" lon="7.696787"><ele>689.0</ele><time>2026-04-25T10:06:41.961Z</time></trkpt><trkpt lat="45.4202733" lon="7.6968541"><ele>689.0</ele><time>2026-04-25T10:06:45.959Z</time></trkpt><trkpt lat="45.4203239" lon="7.6969119"><ele>689.0</ele><time>2026-04-25T10:06:50.966Z</time></trkpt><trkpt lat="45.4203729" lon="7.6969866"><ele>689.0</ele><time>2026-04-25T10:06:57.961Z</time></trkpt><trkpt lat="45.4204213" lon="7.6970567"><ele>689.0</ele><time>2026-04-25T10:07:04.952Z</time></trkpt><trkpt lat="45.4204651" lon="7.6971413"><ele>689.0</ele><time>2026-04-25T10:07:13.948Z</time></trkpt><trkpt lat="45.4205233" lon="7.6972589"><ele>686.6</ele><time>2026-04-25T10:07:48.984Z</time></trkpt><trkpt lat="45.4205627" lon="7.6973817"><ele>684.2</ele><time>2026-04-25T10:08:15.957Z</time></trkpt><trkpt lat="45.4204983" lon="7.6973114"><ele>681.8000000000001</ele><time>2026-04-25T10:08:18.962Z</time></trkpt><trkpt lat="45.4204326" lon="7.697224"><ele>679.4000000000001</ele><time>2026-04-25T10:08:19.961Z</time></trkpt><trkpt lat="45.420351" lon="7.697121"><ele>677.0</ele><time>2026-04-25T10:08:20.948Z</time></trkpt><trkpt lat="45.4202836" lon="7.697042"><ele>679.0</ele><time>2026-04-25T10:08:21.962Z</time></trkpt><trkpt lat="45.4202138" lon="7.6969514"><ele>681.0</ele><time>2026-04-25T10:08:22.968Z</time></trkpt><trkpt lat="45.4201477" lon="7.6968693"><ele>683.0</ele><time>2026-04-25T10:08:23.958Z</time></trkpt><trkpt lat="45.420075" lon="7.6968079"><ele>685.0</ele><time>2026-04-25T10:08:24.963Z</time></trkpt><trkpt lat="45.4200108" lon="7.6967491"><ele>687.0</ele><time>2026-04-25T10:08:25.949Z</time></trkpt><trkpt lat="45.4199491" lon="7.69672"><ele>689.0</ele><time>2026-04-25T10:08:26.962Z</time></trkpt><trkpt lat="45.4198508" lon="7.6966605"><ele>689.0</ele><time>2026-04-25T10:08:28.959Z</time></trkpt><trkpt lat="45.4197845" lon="7.6966143"><ele>689.0</ele><time>2026-04-25T10:08:30.956Z</time></trkpt><trkpt lat="45.4197174" lon="7.6966251"><ele>689.0</ele><time>2026-04-25T10:09:15.955Z</time></trkpt><trkpt lat="45.4196542" lon="7.696693"><ele>689.0</ele><time>2026-04-25T10:09:18.959Z</time></trkpt><trkpt lat="45.4195896" lon="7.6967283"><ele>689.0</ele><time>2026-04-25T10:09:26.946Z</time></trkpt><trkpt lat="45.4195444" lon="7.6968008"><ele>689.0</ele><time>2026-04-25T10:10:03.953Z</time></trkpt><trkpt lat="45.419476" lon="7.6969301"><ele>693.7142857142857</ele><time>2026-04-25T10:11:10.945Z</time></trkpt><trkpt lat="45.4194077" lon="7.6969464"><ele>698.4285714285714</ele><time>2026-04-25T10:11:14.959Z</time></trkpt><trkpt lat="45.4193408" lon="7.6969587"><ele>703.1428571428571</ele><time>2026-04-25T10:11:16.953Z</time></trkpt><trkpt lat="45.419275" lon="7.6969711"><ele>707.8571428571429</ele><time>2026-04-25T10:11:19.028Z</time></trkpt><trkpt lat="45.4192035" lon="7.6970002"><ele>712.5714285714286</ele><time>2026-04-25T10:11:20.963Z</time></trkpt><trkpt lat="45.4191434" lon="7.6970366"><ele>717.2857142857143</ele><time>2026-04-25T10:11:22.961Z</time></trkpt><trkpt lat="45.4190675" lon="7.6970982"><ele>722.0</ele><time>2026-04-25T10:11:25.969Z</time></trkpt><trkpt lat="45.4190144" lon="7.6971497"><ele>722.0</ele><time>2026-04-25T10:11:29.084Z</time></trkpt><trkpt lat="45.4189341" lon="7.697262"><ele>722.0</ele><time>2026-04-25T10:11:34.955Z</time></trkpt><trkpt lat="45.418906" lon="7.6973527"><ele>722.0</ele><time>2026-04-25T10:11:36.961Z</time></trkpt><trkpt lat="45.4188818" lon="7.6974608"><ele>722.0</ele><time>2026-04-25T10:11:39.03Z</time></trkpt><trkpt lat="45.4188448" lon="7.697596"><ele>722.0</ele><time>2026-04-25T10:11:40.957Z</time></trkpt><trkpt lat="45.4187824" lon="7.6977147"><ele>720.2</ele><time>2026-04-25T10:11:42.964Z</time></trkpt><trkpt lat="45.4187173" lon="7.6977929"><ele>718.4000000000001</ele><time>2026-04-25T10:11:44.955Z</time></trkpt><trkpt lat="45.418643" lon="7.6978439"><ele>716.5999999999999</ele><time>2026-04-25T10:11:46.965Z</time></trkpt><trkpt lat="45.4185424" lon="7.6979591"><ele>714.8</ele><time>2026-04-25T10:11:48.954Z</time></trkpt><trkpt lat="45.4184482" lon="7.6980214"><ele>713.0</ele><time>2026-04-25T10:11:50.959Z</time></trkpt><trkpt lat="45.4183861" lon="7.6980554"><ele>713.0</ele><time>2026-04-25T10:11:51.958Z</time></trkpt><trkpt lat="45.4183203" lon="7.6980738"><ele>713.0</ele><time>2026-04-25T10:11:52.961Z</time></trkpt><trkpt lat="45.4181938" lon="7.6981084"><ele>713.0</ele><time>2026-04-25T10:11:54.953Z</time></trkpt><trkpt lat="45.418076" lon="7.6981541"><ele>713.0</ele><time>2026-04-25T10:11:56.951Z</time></trkpt><trkpt lat="45.4179709" lon="7.6982024"><ele>713.0</ele><time>2026-04-25T10:11:58.958Z</time></trkpt><trkpt lat="45.4178586" lon="7.6982166"><ele>716.1666666666666</ele><time>2026-04-25T10:12:00.955Z</time></trkpt><trkpt lat="45.4177757" lon="7.6982375"><ele>719.3333333333333</ele><time>2026-04-25T10:12:02.961Z</time></trkpt><trkpt lat="45.4176985" lon="7.6982811"><ele>722.5</ele><time>2026-04-25T10:12:08.955Z</time></trkpt><trkpt lat="45.417628" lon="7.6983425"><ele>725.6666666666666</ele><time>2026-04-25T10:12:11.96Z</time></trkpt><trkpt lat="45.4175602" lon="7.6983877"><ele>728.8333333333334</ele><time>2026-04-25T10:12:13.948Z</time></trkpt><trkpt lat="45.4174747" lon="7.6984343"><ele>732.0</ele><time>2026-04-25T10:12:15.96Z</time></trkpt><trkpt lat="45.4173745" lon="7.6984593"><ele>732.0</ele><time>2026-04-25T10:12:17.971Z</time></trkpt><trkpt lat="45.4172643" lon="7.6984875"><ele>732.0</ele><time>2026-04-25T10:12:19.952Z</time></trkpt><trkpt lat="45.4171638" lon="7.6985252"><ele>732.0</ele><time>2026-04-25T10:12:22.034Z</time></trkpt><trkpt lat="45.4170887" lon="7.6985481"><ele>732.0</ele><time>2026-04-25T10:12:23.034Z</time></trkpt><trkpt lat="45.41699" lon="7.6985653"><ele>732.0</ele><time>2026-04-25T10:12:24.954Z</time></trkpt><trkpt lat="45.4168685" lon="7.6985513"><ele>732.0</ele><time>2026-04-25T10:12:26.958Z</time></trkpt><trkpt lat="45.4167568" lon="7.6985201"><ele>732.0</ele><time>2026-04-25T10:12:28.954Z</time></trkpt><trkpt lat="45.4166619" lon="7.6984694"><ele>732.0</ele><time>2026-04-25T10:12:30.971Z</time></trkpt><trkpt lat="45.4165986" lon="7.6984246"><ele>732.0</ele><time>2026-04-25T10:12:32.995Z</time></trkpt><trkpt lat="45.4166023" lon="7.69833"><ele>732.0</ele><time>2026-04-25T10:12:35.95Z</time></trkpt><trkpt lat="45.4166893" lon="7.6982751"><ele>732.0</ele><time>2026-04-25T10:12:38.968Z</time></trkpt><trkpt lat="45.4167449" lon="7.6982112"><ele>732.0</ele><time>2026-04-25T10:12:40.966Z</time></trkpt><trkpt lat="45.4168066" lon="7.6981622"><ele>732.0</ele><time>2026-04-25T10:12:43.035Z</time></trkpt><trkpt lat="45.4168661" lon="7.6980937"><ele>732.0</ele><time>2026-04-25T10:12:44.974Z</time></trkpt><trkpt lat="45.4169258" lon="7.6980138"><ele>732.0</ele><time>2026-04-25T10:12:46.968Z</time></trkpt><trkpt lat="45.4169818" lon="7.6979173"><ele>732.0</ele><time>2026-04-25T10:12:48.967Z</time></trkpt><trkpt lat="45.4170484" lon="7.6978224"><ele>732.0</ele><time>2026-04-25T10:12:50.969Z</time></trkpt><trkpt lat="45.417104" lon="7.6977714"><ele>732.0</ele><time>2026-04-25T10:12:53.971Z</time></trkpt><trkpt lat="45.4170352" lon="7.6977639"><ele>732.0</ele><time>2026-04-25T10:13:00.967Z</time></trkpt><trkpt lat="45.4169572" lon="7.6977311"><ele>732.0</ele><time>2026-04-25T10:13:03.969Z</time></trkpt><trkpt lat="45.416955" lon="7.6976059"><ele>732.0</ele><time>2026-04-25T10:13:07.014Z</time></trkpt><trkpt lat="45.416964" lon="7.6975074"><ele>732.0</ele><time>2026-04-25T10:13:09.047Z</time></trkpt><trkpt lat="45.4170045" lon="7.6974199"><ele>732.0</ele><time>2026-04-25T10:13:10.948Z</time></trkpt><trkpt lat="45.4170459" lon="7.6973402"><ele>732.1428571428571</ele><time>2026-04-25T10:13:12.957Z</time></trkpt><trkpt lat="45.4170904" lon="7.6972655"><ele>732.2857142857143</ele><time>2026-04-25T10:13:16.951Z</time></trkpt><trkpt lat="45.4171291" lon="7.6971766"><ele>732.4285714285713</ele><time>2026-04-25T10:13:27.026Z</time></trkpt><trkpt lat="45.4171945" lon="7.6971889"><ele>732.5714285714286</ele><time>2026-04-25T10:17:17.977Z</time></trkpt><trkpt lat="45.4172" lon="7.6970854"><ele>732.7142857142857</ele><time>2026-04-25T10:30:44.944Z</time></trkpt><trkpt lat="45.4172166" lon="7.6969761"><ele>732.8571428571428</ele><time>2026-04-25T10:30:48.95Z</time></trkpt><trkpt lat="45.4172529" lon="7.6968718"><ele>733.0</ele><time>2026-04-25T10:30:51.96Z</time></trkpt><trkpt lat="45.4172941" lon="7.696803"><ele>735.7142857142857</ele><time>2026-04-25T10:30:53.955Z</time></trkpt><trkpt lat="45.4173392" lon="7.696732"><ele>738.4285714285714</ele><time>2026-04-25T10:30:55.958Z</time></trkpt><trkpt lat="45.4173934" lon="7.6966677"><ele>741.1428571428571</ele><time>2026-04-25T10:30:57.948Z</time></trkpt><trkpt lat="45.4174445" lon="7.6966088"><ele>743.8571428571429</ele><time>2026-04-25T10:30:59.953Z</time></trkpt><trkpt lat="45.4174592" lon="7.6965196"><ele>746.5714285714286</ele><time>2026-04-25T10:31:02.955Z</time></trkpt><trkpt lat="45.4174349" lon="7.6963949"><ele>749.2857142857142</ele><time>2026-04-25T10:31:06.958Z</time></trkpt><trkpt lat="45.4174097" lon="7.6962966"><ele>752.0</ele><time>2026-04-25T10:31:09.951Z</time></trkpt><trkpt lat="45.4173829" lon="7.6962119"><ele>752.0</ele><time>2026-04-25T10:31:12.943Z</time></trkpt><trkpt lat="45.4173516" lon="7.6961298"><ele>752.0</ele><time>2026-04-25T10:31:15.947Z</time></trkpt><trkpt lat="45.4173752" lon="7.6960314"><ele>752.0</ele><time>2026-04-25T10:31:18.952Z</time></trkpt><trkpt lat="45.4174197" lon="7.6959281"><ele>752.0</ele><time>2026-04-25T10:31:21.958Z</time></trkpt><trkpt lat="45.417464" lon="7.6958551"><ele>752.0</ele><time>2026-04-25T10:31:23.953Z</time></trkpt><trkpt lat="45.4175413" lon="7.6957729"><ele>752.0</ele><time>2026-04-25T10:31:26.953Z</time></trkpt><trkpt lat="45.4176101" lon="7.695714"><ele>749.8571428571429</ele><time>2026-04-25T10:31:28.952Z</time></trkpt><trkpt lat="45.4176639" lon="7.6956618"><ele>747.7142857142857</ele><time>2026-04-25T10:31:31.953Z</time></trkpt><trkpt lat="45.417722" lon="7.6956092"><ele>745.5714285714287</ele><time>2026-04-25T10:31:52.959Z</time></trkpt><trkpt lat="45.4176334" lon="7.6956041"><ele>743.4285714285714</ele><time>2026-04-25T10:31:56.94Z</time></trkpt><trkpt lat="45.4175689" lon="7.6955905"><ele>741.2857142857143</ele><time>2026-04-25T10:31:58.954Z</time></trkpt><trkpt lat="45.4175063" lon="7.6955614"><ele>739.1428571428572</ele><time>2026-04-25T10:32:00.956Z</time></trkpt><trkpt lat="45.417442" lon="7.6955359"><ele>737.0</ele><time>2026-04-25T10:32:02.956Z</time></trkpt><trkpt lat="45.4173568" lon="7.69551"><ele>737.0</ele><time>2026-04-25T10:32:05.954Z</time></trkpt><trkpt lat="45.4172791" lon="7.6955075"><ele>737.0</ele><time>2026-04-25T10:32:08.956Z</time></trkpt><trkpt lat="45.4172881" lon="7.6954137"><ele>737.0</ele><time>2026-04-25T10:32:14.948Z</time></trkpt><trkpt lat="45.417362" lon="7.6953596"><ele>737.0</ele><time>2026-04-25T10:32:18.953Z</time></trkpt><trkpt lat="45.4174516" lon="7.6953109"><ele>737.0</ele><time>2026-04-25T10:32:21.956Z</time></trkpt><trkpt lat="45.4175281" lon="7.6952691"><ele>737.0</ele><time>2026-04-25T10:32:24.955Z</time></trkpt><trkpt lat="45.4175935" lon="7.6952181"><ele>733.5714285714287</ele><time>2026-04-25T10:32:27.958Z</time></trkpt><trkpt lat="45.4176587" lon="7.6951565"><ele>730.1428571428571</ele><time>2026-04-25T10:32:31.024Z</time></trkpt><trkpt lat="45.417718" lon="7.6951169"><ele>726.7142857142858</ele><time>2026-04-25T10:32:32.953Z</time></trkpt><trkpt lat="45.4177808" lon="7.6950539"><ele>723.2857142857143</ele><time>2026-04-25T10:32:34.958Z</time></trkpt><trkpt lat="45.4178509" lon="7.6950102"><ele>719.8571428571429</ele><time>2026-04-25T10:32:37.082Z</time></trkpt><trkpt lat="45.4179239" lon="7.6949774"><ele>716.4285714285714</ele><time>2026-04-25T10:32:38.964Z</time></trkpt><trkpt lat="45.417991" lon="7.6949662"><ele>713.0</ele><time>2026-04-25T10:32:40.963Z</time></trkpt><trkpt lat="45.4180582" lon="7.694992"><ele>712.1666666666666</ele><time>2026-04-25T10:32:43.96Z</time></trkpt><trkpt lat="45.4181192" lon="7.6950454"><ele>711.3333333333333</ele><time>2026-04-25T10:32:47.96Z</time></trkpt><trkpt lat="45.4181661" lon="7.6951236"><ele>710.5</ele><time>2026-04-25T10:32:50.987Z</time></trkpt><trkpt lat="45.4182086" lon="7.6952126"><ele>709.6666666666666</ele><time>2026-04-25T10:32:53.96Z</time></trkpt><trkpt lat="45.4182415" lon="7.6953105"><ele>708.8333333333334</ele><time>2026-04-25T10:32:57.956Z</time></trkpt><trkpt lat="45.418258" lon="7.6954107"><ele>708.0</ele><time>2026-04-25T10:33:01.947Z</time></trkpt><trkpt lat="45.4182754" lon="7.6955406"><ele>709.8333333333334</ele><time>2026-04-25T10:33:04.953Z</time></trkpt><trkpt lat="45.4182914" lon="7.6956652"><ele>711.6666666666666</ele><time>2026-04-25T10:33:07.952Z</time></trkpt><trkpt lat="45.4183139" lon="7.695803"><ele>713.5</ele><time>2026-04-25T10:33:10.96Z</time></trkpt><trkpt lat="45.4183295" lon="7.6958972"><ele>715.3333333333333</ele><time>2026-04-25T10:33:12.961Z</time></trkpt><trkpt lat="45.4183438" lon="7.6959926"><ele>717.1666666666666</ele><time>2026-04-25T10:33:14.968Z</time></trkpt><trkpt lat="45.4183556" lon="7.6960948"><ele>719.0</ele><time>2026-04-25T10:33:16.959Z</time></trkpt><trkpt lat="45.4183838" lon="7.6962178"><ele>720.6</ele><time>2026-04-25T10:33:18.967Z</time></trkpt><trkpt lat="45.4184098" lon="7.6963483"><ele>722.2</ele><time>2026-04-25T10:33:20.962Z</time></trkpt><trkpt lat="45.4184388" lon="7.6964665"><ele>723.8000000000001</ele><time>2026-04-25T10:33:22.961Z</time></trkpt><trkpt lat="45.4184718" lon="7.6965963"><ele>725.4000000000001</ele><time>2026-04-25T10:33:24.965Z</time></trkpt><trkpt lat="45.4184978" lon="7.6967291"><ele>727.0</ele><time>2026-04-25T10:33:26.96Z</time></trkpt><trkpt lat="45.4185285" lon="7.6968682"><ele>727.4000000000001</ele><time>2026-04-25T10:33:28.961Z</time></trkpt><trkpt lat="45.4185521" lon="7.697028"><ele>727.8000000000001</ele><time>2026-04-25T10:33:30.955Z</time></trkpt><trkpt lat="45.4185715" lon="7.6971889"><ele>728.2</ele><time>2026-04-25T10:33:31.962Z</time></trkpt><trkpt lat="45.418577" lon="7.6973369"><ele>728.6</ele><time>2026-04-25T10:33:32.961Z</time></trkpt><trkpt lat="45.4185739" lon="7.6974784"><ele>729.0</ele><time>2026-04-25T10:33:33.962Z</time></trkpt><trkpt lat="45.4185587" lon="7.6976071"><ele>729.0</ele><time>2026-04-25T10:33:34.962Z</time></trkpt><trkpt lat="45.4185526" lon="7.6977252"><ele>729.0</ele><time>2026-04-25T10:33:35.973Z</time></trkpt><trkpt lat="45.4185552" lon="7.6978366"><ele>729.0</ele><time>2026-04-25T10:33:36.96Z</time></trkpt><trkpt lat="45.4185562" lon="7.6979378"><ele>729.0</ele><time>2026-04-25T10:33:37.963Z</time></trkpt><trkpt lat="45.4185627" lon="7.6980312"><ele>729.0</ele><time>2026-04-25T10:33:38.97Z</time></trkpt><trkpt lat="45.4185724" lon="7.6981629"><ele>729.0</ele><time>2026-04-25T10:33:40.964Z</time></trkpt><trkpt lat="45.418641" lon="7.6982694"><ele>728.8333333333334</ele><time>2026-04-25T10:33:42.957Z</time></trkpt><trkpt lat="45.4187249" lon="7.6983581"><ele>728.6666666666666</ele><time>2026-04-25T10:33:44.96Z</time></trkpt><trkpt lat="45.4187992" lon="7.698473"><ele>728.5</ele><time>2026-04-25T10:33:46.956Z</time></trkpt><trkpt lat="45.4188573" lon="7.698573"><ele>728.3333333333333</ele><time>2026-04-25T10:33:48.98Z</time></trkpt><trkpt lat="45.4188899" lon="7.6986533"><ele>728.1666666666666</ele><time>2026-04-25T10:33:49.952Z</time></trkpt><trkpt lat="45.4189238" lon="7.6987323"><ele>728.0</ele><time>2026-04-25T10:33:50.963Z</time></trkpt><trkpt lat="45.4189664" lon="7.6988042"><ele>725.4</ele><time>2026-04-25T10:33:51.963Z</time></trkpt><trkpt lat="45.4190418" lon="7.698926"><ele>722.8</ele><time>2026-04-25T10:33:53.949Z</time></trkpt><trkpt lat="45.4191051" lon="7.6990535"><ele>720.2</ele><time>2026-04-25T10:33:55.959Z</time></trkpt><trkpt lat="45.4191734" lon="7.6991763"><ele>717.6</ele><time>2026-04-25T10:33:57.96Z</time></trkpt><trkpt lat="45.4192513" lon="7.6992857"><ele>715.0</ele><time>2026-04-25T10:33:59.961Z</time></trkpt><trkpt lat="45.4193308" lon="7.6993871"><ele>710.6</ele><time>2026-04-25T10:34:01.953Z</time></trkpt><trkpt lat="45.4193911" lon="7.6994692"><ele>706.2</ele><time>2026-04-25T10:34:03.964Z</time></trkpt><trkpt lat="45.4194318" lon="7.6995551"><ele>701.8</ele><time>2026-04-25T10:34:05.965Z</time></trkpt><trkpt lat="45.419465" lon="7.699692"><ele>697.4</ele><time>2026-04-25T10:34:07.948Z</time></trkpt><trkpt lat="45.4194812" lon="7.6998752"><ele>693.0</ele><time>2026-04-25T10:34:09.963Z</time></trkpt><trkpt lat="45.4194765" lon="7.6999824"><ele>693.0</ele><time>2026-04-25T10:34:10.947Z</time></trkpt><trkpt lat="45.4194877" lon="7.7000708"><ele>693.0</ele><time>2026-04-25T10:34:11.954Z</time></trkpt><trkpt lat="45.4195122" lon="7.7001579"><ele>693.0</ele><time>2026-04-25T10:34:12.957Z</time></trkpt><trkpt lat="45.41953" lon="7.7002471"><ele>693.0</ele><time>2026-04-25T10:34:13.955Z</time></trkpt><trkpt lat="45.4195811" lon="7.7004047"><ele>693.0</ele><time>2026-04-25T10:34:15.951Z</time></trkpt><trkpt lat="45.4196505" lon="7.7005391"><ele>693.0</ele><time>2026-04-25T10:34:17.961Z</time></trkpt><trkpt lat="45.4197047" lon="7.7006749"><ele>692.1666666666666</ele><time>2026-04-25T10:34:19.96Z</time></trkpt><trkpt lat="45.4197418" lon="7.7007557"><ele>691.3333333333334</ele><time>2026-04-25T10:34:20.952Z</time></trkpt><trkpt lat="45.4197815" lon="7.7008389"><ele>690.5</ele><time>2026-04-25T10:34:21.961Z</time></trkpt><trkpt lat="45.4198315" lon="7.7009234"><ele>689.6666666666667</ele><time>2026-04-25T10:34:22.959Z</time></trkpt><trkpt lat="45.4198808" lon="7.7010089"><ele>688.8333333333334</ele><time>2026-04-25T10:34:23.949Z</time></trkpt><trkpt lat="45.4199268" lon="7.7010995"><ele>688.0</ele><time>2026-04-25T10:34:24.953Z</time></trkpt><trkpt lat="45.4199681" lon="7.7012076"><ele>688.0</ele><time>2026-04-25T10:34:25.954Z</time></trkpt><trkpt lat="45.4199928" lon="7.7013117"><ele>688.0</ele><time>2026-04-25T10:34:26.964Z</time></trkpt><trkpt lat="45.420009" lon="7.7014217"><ele>688.0</ele><time>2026-04-25T10:34:27.962Z</time></trkpt><trkpt lat="45.4200198" lon="7.7015503"><ele>688.0</ele><time>2026-04-25T10:34:28.954Z</time></trkpt><trkpt lat="45.4200168" lon="7.7016671"><ele>688.0</ele><time>2026-04-25T10:34:29.963Z</time></trkpt><trkpt lat="45.42" lon="7.7017823"><ele>688.0</ele><time>2026-04-25T10:34:30.97Z</time></trkpt><trkpt lat="45.4199876" lon="7.7018915"><ele>685.8333333333334</ele><time>2026-04-25T10:34:31.953Z</time></trkpt><trkpt lat="45.4199795" lon="7.7019923"><ele>683.6666666666667</ele><time>2026-04-25T10:34:32.97Z</time></trkpt><trkpt lat="45.4199541" lon="7.7021735"><ele>681.5</ele><time>2026-04-25T10:34:34.965Z</time></trkpt><trkpt lat="45.4199417" lon="7.7022634"><ele>679.3333333333334</ele><time>2026-04-25T10:34:35.962Z</time></trkpt><trkpt lat="45.4199267" lon="7.7024012"><ele>677.1666666666666</ele><time>2026-04-25T10:34:37.958Z</time></trkpt><trkpt lat="45.4199813" lon="7.7024772"><ele>675.0</ele><time>2026-04-25T10:34:40.959Z</time></trkpt><trkpt lat="45.4200544" lon="7.7024324"><ele>675.0</ele><time>2026-04-25T10:34:42.957Z</time></trkpt><trkpt lat="45.4201354" lon="7.7023908"><ele>675.0</ele><time>2026-04-25T10:34:44.967Z</time></trkpt><trkpt lat="45.4201735" lon="7.7023095"><ele>675.0</ele><time>2026-04-25T10:34:46.956Z</time></trkpt><trkpt lat="45.420202" lon="7.7022023"><ele>675.0</ele><time>2026-04-25T10:34:48.967Z</time></trkpt><trkpt lat="45.4202379" lon="7.7020904"><ele>675.0</ele><time>2026-04-25T10:34:50.969Z</time></trkpt><trkpt lat="45.4202655" lon="7.701958"><ele>675.0</ele><time>2026-04-25T10:34:52.946Z</time></trkpt><trkpt lat="45.4203087" lon="7.7018283"><ele>673.0</ele><time>2026-04-25T10:34:54.959Z</time></trkpt><trkpt lat="45.4203473" lon="7.7017513"><ele>671.0</ele><time>2026-04-25T10:34:55.944Z</time></trkpt><trkpt lat="45.4204025" lon="7.7015872"><ele>669.0</ele><time>2026-04-25T10:34:57.951Z</time></trkpt><trkpt lat="45.4204657" lon="7.701446"><ele>667.0</ele><time>2026-04-25T10:34:59.96Z</time></trkpt><trkpt lat="45.420535" lon="7.701332"><ele>665.0</ele><time>2026-04-25T10:35:01.962Z</time></trkpt><trkpt lat="45.4206104" lon="7.7012383"><ele>665.0</ele><time>2026-04-25T10:35:03.957Z</time></trkpt><trkpt lat="45.4206848" lon="7.7011743"><ele>665.0</ele><time>2026-04-25T10:35:05.955Z</time></trkpt><trkpt lat="45.4207708" lon="7.7011456"><ele>665.0</ele><time>2026-04-25T10:35:07.951Z</time></trkpt><trkpt lat="45.4208692" lon="7.701148"><ele>665.0</ele><time>2026-04-25T10:35:09.964Z</time></trkpt><trkpt lat="45.4209339" lon="7.7011401"><ele>665.0</ele><time>2026-04-25T10:35:10.958Z</time></trkpt><trkpt lat="45.4210063" lon="7.7011423"><ele>665.0</ele><time>2026-04-25T10:35:11.958Z</time></trkpt><trkpt lat="45.4210791" lon="7.7011435"><ele>665.0</ele><time>2026-04-25T10:35:12.959Z</time></trkpt><trkpt lat="45.4211567" lon="7.7011317"><ele>665.0</ele><time>2026-04-25T10:35:13.956Z</time></trkpt><trkpt lat="45.4212368" lon="7.701097"><ele>665.0</ele><time>2026-04-25T10:35:14.954Z</time></trkpt><trkpt lat="45.4213042" lon="7.7010449"><ele>665.0</ele><time>2026-04-25T10:35:15.946Z</time></trkpt><trkpt lat="45.4213656" lon="7.701003"><ele>665.0</ele><time>2026-04-25T10:35:16.957Z</time></trkpt><trkpt lat="45.4214281" lon="7.7009414"><ele>665.0</ele><time>2026-04-25T10:35:17.96Z</time></trkpt><trkpt lat="45.4214701" lon="7.70086"><ele>665.0</ele><time>2026-04-25T10:35:18.962Z</time></trkpt><trkpt lat="45.4215083" lon="7.7007756"><ele>665.0</ele><time>2026-04-25T10:35:19.945Z</time></trkpt><trkpt lat="45.4215385" lon="7.7006825"><ele>665.0</ele><time>2026-04-25T10:35:20.954Z</time></trkpt><trkpt lat="45.4215742" lon="7.7006052"><ele>665.0</ele><time>2026-04-25T10:35:21.957Z</time></trkpt><trkpt lat="45.4216118" lon="7.70053"><ele>665.0</ele><time>2026-04-25T10:35:22.959Z</time></trkpt><trkpt lat="45.4217211" lon="7.700459"><ele>665.0</ele><time>2026-04-25T10:35:24.945Z</time></trkpt><trkpt lat="45.421838" lon="7.7004075"><ele>665.0</ele><time>2026-04-25T10:35:26.965Z</time></trkpt><trkpt lat="45.4218991" lon="7.7003833"><ele>665.0</ele><time>2026-04-25T10:35:27.963Z</time></trkpt><trkpt lat="45.4219632" lon="7.7003379"><ele>665.0</ele><time>2026-04-25T10:35:28.963Z</time></trkpt><trkpt lat="45.4220201" lon="7.7002767"><ele>665.0</ele><time>2026-04-25T10:35:29.962Z</time></trkpt><trkpt lat="45.422089" lon="7.7001955"><ele>665.0</ele><time>2026-04-25T10:35:30.969Z</time></trkpt><trkpt lat="45.422156" lon="7.7001229"><ele>665.0</ele><time>2026-04-25T10:35:31.964Z</time></trkpt><trkpt lat="45.4222114" lon="7.7000504"><ele>664.1666666666666</ele><time>2026-04-25T10:35:32.949Z</time></trkpt><trkpt lat="45.4223228" lon="7.6999958"><ele>663.3333333333333</ele><time>2026-04-25T10:35:34.963Z</time></trkpt><trkpt lat="45.4223867" lon="7.7000142"><ele>662.5</ele><time>2026-04-25T10:35:35.959Z</time></trkpt><trkpt lat="45.4224548" lon="7.7000555"><ele>661.6666666666666</ele><time>2026-04-25T10:35:36.958Z</time></trkpt><trkpt lat="45.4225148" lon="7.7000985"><ele>660.8333333333334</ele><time>2026-04-25T10:35:37.964Z</time></trkpt><trkpt lat="45.422589" lon="7.7001348"><ele>660.0</ele><time>2026-04-25T10:35:38.96Z</time></trkpt><trkpt lat="45.4226647" lon="7.7001822"><ele>660.0</ele><time>2026-04-25T10:35:39.956Z</time></trkpt><trkpt lat="45.4227428" lon="7.7002274"><ele>660.0</ele><time>2026-04-25T10:35:40.966Z</time></trkpt><trkpt lat="45.4228191" lon="7.7002731"><ele>660.0</ele><time>2026-04-25T10:35:41.946Z</time></trkpt><trkpt lat="45.4228958" lon="7.7003259"><ele>660.0</ele><time>2026-04-25T10:35:42.952Z</time></trkpt><trkpt lat="45.4229657" lon="7.700376"><ele>660.0</ele><time>2026-04-25T10:35:43.963Z</time></trkpt><trkpt lat="45.4230392" lon="7.7004215"><ele>660.0</ele><time>2026-04-25T10:35:44.955Z</time></trkpt><trkpt lat="45.4230996" lon="7.7004526"><ele>661.6</ele><time>2026-04-25T10:35:45.957Z</time></trkpt><trkpt lat="45.4232021" lon="7.7004849"><ele>663.2</ele><time>2026-04-25T10:35:47.961Z</time></trkpt><trkpt lat="45.4233012" lon="7.7004169"><ele>664.8</ele><time>2026-04-25T10:35:49.956Z</time></trkpt><trkpt lat="45.4233556" lon="7.7003335"><ele>666.4</ele><time>2026-04-25T10:35:50.956Z</time></trkpt><trkpt lat="45.4234106" lon="7.7002515"><ele>668.0</ele><time>2026-04-25T10:35:51.947Z</time></trkpt><trkpt lat="45.4234648" lon="7.7001755"><ele>668.0</ele><time>2026-04-25T10:35:52.955Z</time></trkpt><trkpt lat="45.4235152" lon="7.700103"><ele>668.0</ele><time>2026-04-25T10:35:53.961Z</time></trkpt><trkpt lat="45.4236094" lon="7.6999941"><ele>668.0</ele><time>2026-04-25T10:35:55.953Z</time></trkpt><trkpt lat="45.4237016" lon="7.6999344"><ele>668.0</ele><time>2026-04-25T10:35:57.964Z</time></trkpt><trkpt lat="45.4238057" lon="7.699927"><ele>668.0</ele><time>2026-04-25T10:35:59.957Z</time></trkpt><trkpt lat="45.423931" lon="7.699976"><ele>668.0</ele><time>2026-04-25T10:36:01.953Z</time></trkpt><trkpt lat="45.4240105" lon="7.7000268"><ele>668.0</ele><time>2026-04-25T10:36:02.95Z</time></trkpt><trkpt lat="45.424093" lon="7.7000736"><ele>668.0</ele><time>2026-04-25T10:36:03.949Z</time></trkpt><trkpt lat="45.4241862" lon="7.7001141"><ele>668.0</ele><time>2026-04-25T10:36:04.958Z</time></trkpt><trkpt lat="45.4242771" lon="7.7001557"><ele>668.0</ele><time>2026-04-25T10:36:05.958Z</time></trkpt><trkpt lat="45.4243661" lon="7.7001826"><ele>668.0</ele><time>2026-04-25T10:36:06.947Z</time></trkpt><trkpt lat="45.4244578" lon="7.7002056"><ele>668.0</ele><time>2026-04-25T10:36:07.956Z</time></trkpt><trkpt lat="45.4245497" lon="7.7002178"><ele>668.0</ele><time>2026-04-25T10:36:08.957Z</time></trkpt><trkpt lat="45.4246465" lon="7.7002206"><ele>668.0</ele><time>2026-04-25T10:36:09.956Z</time></trkpt><trkpt lat="45.4247419" lon="7.7002132"><ele>668.0</ele><time>2026-04-25T10:36:10.963Z</time></trkpt><trkpt lat="45.4248306" lon="7.7002033"><ele>667.6666666666666</ele><time>2026-04-25T10:36:11.958Z</time></trkpt><trkpt lat="45.4249136" lon="7.7001995"><ele>667.3333333333333</ele><time>2026-04-25T10:36:12.961Z</time></trkpt><trkpt lat="45.4249969" lon="7.700204"><ele>667.0</ele><time>2026-04-25T10:36:13.962Z</time></trkpt><trkpt lat="45.4250794" lon="7.7002148"><ele>666.6666666666666</ele><time>2026-04-25T10:36:14.96Z</time></trkpt><trkpt lat="45.425159" lon="7.7002306"><ele>666.3333333333334</ele><time>2026-04-25T10:36:15.962Z</time></trkpt><trkpt lat="45.4252237" lon="7.7002542"><ele>666.0</ele><time>2026-04-25T10:36:16.959Z</time></trkpt><trkpt lat="45.4252877" lon="7.7002861"><ele>665.1999999999999</ele><time>2026-04-25T10:36:17.955Z</time></trkpt><trkpt lat="45.4253841" lon="7.7004311"><ele>664.4</ele><time>2026-04-25T10:36:19.96Z</time></trkpt><trkpt lat="45.4254227" lon="7.7005395"><ele>663.6</ele><time>2026-04-25T10:36:20.956Z</time></trkpt><trkpt lat="45.4254563" lon="7.7006654"><ele>662.8</ele><time>2026-04-25T10:36:21.959Z</time></trkpt><trkpt lat="45.4254817" lon="7.7007979"><ele>662.0</ele><time>2026-04-25T10:36:22.959Z</time></trkpt><trkpt lat="45.4255159" lon="7.7009275"><ele>662.0</ele><time>2026-04-25T10:36:23.957Z</time></trkpt><trkpt lat="45.4255496" lon="7.7010423"><ele>662.0</ele><time>2026-04-25T10:36:24.96Z</time></trkpt><trkpt lat="45.4255911" lon="7.7011391"><ele>662.0</ele><time>2026-04-25T10:36:25.959Z</time></trkpt><trkpt lat="45.4256352" lon="7.7012344"><ele>662.0</ele><time>2026-04-25T10:36:26.961Z</time></trkpt><trkpt lat="45.4256865" lon="7.7013094"><ele>662.0</ele><time>2026-04-25T10:36:27.951Z</time></trkpt><trkpt lat="45.4257509" lon="7.7013812"><ele>662.0</ele><time>2026-04-25T10:36:28.954Z</time></trkpt><trkpt lat="45.425822" lon="7.7014281"><ele>661.5</ele><time>2026-04-25T10:36:29.962Z</time></trkpt><trkpt lat="45.4258929" lon="7.7014636"><ele>661.0</ele><time>2026-04-25T10:36:30.955Z</time></trkpt><trkpt lat="45.4259726" lon="7.7014867"><ele>660.5</ele><time>2026-04-25T10:36:31.958Z</time></trkpt><trkpt lat="45.4260547" lon="7.7015288"><ele>660.0</ele><time>2026-04-25T10:36:32.961Z</time></trkpt><trkpt lat="45.4261408" lon="7.7015924"><ele>659.5</ele><time>2026-04-25T10:36:33.96Z</time></trkpt><trkpt lat="45.4262317" lon="7.7016593"><ele>659.0</ele><time>2026-04-25T10:36:34.961Z</time></trkpt><trkpt lat="45.4263263" lon="7.7017277"><ele>659.0</ele><time>2026-04-25T10:36:35.958Z</time></trkpt><trkpt lat="45.4264146" lon="7.7017794"><ele>659.0</ele><time>2026-04-25T10:36:36.96Z</time></trkpt><trkpt lat="45.4265038" lon="7.7018209"><ele>659.0</ele><time>2026-04-25T10:36:37.96Z</time></trkpt><trkpt lat="45.4265882" lon="7.7018707"><ele>659.0</ele><time>2026-04-25T10:36:38.957Z</time></trkpt><trkpt lat="45.4266742" lon="7.701923"><ele>659.0</ele><time>2026-04-25T10:36:39.958Z</time></trkpt><trkpt lat="45.426746" lon="7.7019768"><ele>662.6</ele><time>2026-04-25T10:36:40.96Z</time></trkpt><trkpt lat="45.4268225" lon="7.7020416"><ele>666.2</ele><time>2026-04-25T10:36:41.955Z</time></trkpt><trkpt lat="45.4268906" lon="7.7021212"><ele>669.8000000000001</ele><time>2026-04-25T10:36:42.971Z</time></trkpt><trkpt lat="45.4269555" lon="7.7022321"><ele>673.4000000000001</ele><time>2026-04-25T10:36:43.966Z</time></trkpt><trkpt lat="45.4270212" lon="7.7023612"><ele>677.0</ele><time>2026-04-25T10:36:44.961Z</time></trkpt><trkpt lat="45.4270833" lon="7.7024916"><ele>677.0</ele><time>2026-04-25T10:36:45.959Z</time></trkpt><trkpt lat="45.4271388" lon="7.7026205"><ele>677.0</ele><time>2026-04-25T10:36:46.969Z</time></trkpt><trkpt lat="45.4271909" lon="7.7027285"><ele>677.0</ele><time>2026-04-25T10:36:47.968Z</time></trkpt><trkpt lat="45.4272425" lon="7.7028544"><ele>677.0</ele><time>2026-04-25T10:36:48.962Z</time></trkpt><trkpt lat="45.4272984" lon="7.7029763"><ele>677.0</ele><time>2026-04-25T10:36:49.957Z</time></trkpt><trkpt lat="45.4273454" lon="7.7030889"><ele>674.1666666666666</ele><time>2026-04-25T10:36:50.968Z</time></trkpt><trkpt lat="45.4273892" lon="7.7031902"><ele>671.3333333333333</ele><time>2026-04-25T10:36:51.949Z</time></trkpt><trkpt lat="45.4274302" lon="7.7032921"><ele>668.5</ele><time>2026-04-25T10:36:52.95Z</time></trkpt><trkpt lat="45.4274651" lon="7.7033884"><ele>665.6666666666666</ele><time>2026-04-25T10:36:53.964Z</time></trkpt><trkpt lat="45.427504" lon="7.7034671"><ele>662.8333333333334</ele><time>2026-04-25T10:36:54.96Z</time></trkpt><trkpt lat="45.4275857" lon="7.7035688"><ele>660.0</ele><time>2026-04-25T10:36:56.96Z</time></trkpt><trkpt lat="45.4276756" lon="7.7035843"><ele>660.0</ele><time>2026-04-25T10:36:58.962Z</time></trkpt><trkpt lat="45.4277486" lon="7.7035528"><ele>660.0</ele><time>2026-04-25T10:37:00.968Z</time></trkpt><trkpt lat="45.4278174" lon="7.7035021"><ele>660.0</ele><time>2026-04-25T10:37:03.964Z</time></trkpt><trkpt lat="45.4278115" lon="7.7034125"><ele>660.0</ele><time>2026-04-25T10:37:06.965Z</time></trkpt><trkpt lat="45.4277836" lon="7.7033102"><ele>660.0</ele><time>2026-04-25T10:37:08.95Z</time></trkpt><trkpt lat="45.427758" lon="7.7032033"><ele>660.0</ele><time>2026-04-25T10:37:10.953Z</time></trkpt><trkpt lat="45.4277255" lon="7.7030875"><ele>660.0</ele><time>2026-04-25T10:37:12.97Z</time></trkpt><trkpt lat="45.4276722" lon="7.7029561"><ele>660.0</ele><time>2026-04-25T10:37:14.957Z</time></trkpt><trkpt lat="45.4276223" lon="7.702799"><ele>660.0</ele><time>2026-04-25T10:37:16.956Z</time></trkpt><trkpt lat="45.4275628" lon="7.7026508"><ele>660.0</ele><time>2026-04-25T10:37:18.952Z</time></trkpt><trkpt lat="45.4275201" lon="7.702572"><ele>660.0</ele><time>2026-04-25T10:37:19.96Z</time></trkpt><trkpt lat="45.4274692" lon="7.7024886"><ele>658.0</ele><time>2026-04-25T10:37:20.958Z</time></trkpt><trkpt lat="45.4274185" lon="7.7023872"><ele>656.0</ele><time>2026-04-25T10:37:21.951Z</time></trkpt><trkpt lat="45.4273741" lon="7.7022786"><ele>654.0</ele><time>2026-04-25T10:37:22.969Z</time></trkpt><trkpt lat="45.427334" lon="7.702179"><ele>652.0</ele><time>2026-04-25T10:37:23.957Z</time></trkpt><trkpt lat="45.4273033" lon="7.702091"><ele>650.0</ele><time>2026-04-25T10:37:24.957Z</time></trkpt><trkpt lat="45.4272784" lon="7.7020071"><ele>648.0</ele><time>2026-04-25T10:37:25.956Z</time></trkpt><trkpt lat="45.427243" lon="7.7019207"><ele>649.5714285714286</ele><time>2026-04-25T10:37:26.959Z</time></trkpt><trkpt lat="45.4272095" lon="7.7018346"><ele>651.1428571428571</ele><time>2026-04-25T10:37:27.956Z</time></trkpt><trkpt lat="45.4271616" lon="7.7017655"><ele>652.7142857142858</ele><time>2026-04-25T10:37:28.955Z</time></trkpt><trkpt lat="45.4271101" lon="7.7016992"><ele>654.2857142857142</ele><time>2026-04-25T10:37:29.958Z</time></trkpt><trkpt lat="45.4270666" lon="7.7016326"><ele>655.8571428571428</ele><time>2026-04-25T10:37:30.953Z</time></trkpt><trkpt lat="45.4270262" lon="7.7015602"><ele>657.4285714285714</ele><time>2026-04-25T10:37:31.952Z</time></trkpt><trkpt lat="45.4269876" lon="7.7014873"><ele>659.0</ele><time>2026-04-25T10:37:32.956Z</time></trkpt><trkpt lat="45.4269493" lon="7.7014064"><ele>659.0</ele><time>2026-04-25T10:37:33.961Z</time></trkpt><trkpt lat="45.4269087" lon="7.7013304"><ele>659.0</ele><time>2026-04-25T10:37:34.956Z</time></trkpt><trkpt lat="45.4268734" lon="7.7012556"><ele>659.0</ele><time>2026-04-25T10:37:35.957Z</time></trkpt><trkpt lat="45.426794" lon="7.7011532"><ele>659.0</ele><time>2026-04-25T10:37:37.955Z</time></trkpt><trkpt lat="45.4267374" lon="7.7010753"><ele>659.0</ele><time>2026-04-25T10:37:39.959Z</time></trkpt><trkpt lat="45.4266938" lon="7.7010037"><ele>659.0</ele><time>2026-04-25T10:37:41.956Z</time></trkpt><trkpt lat="45.4266417" lon="7.70094"><ele>656.1666666666666</ele><time>2026-04-25T10:37:43.959Z</time></trkpt><trkpt lat="45.4265943" lon="7.7008795"><ele>653.3333333333333</ele><time>2026-04-25T10:37:45.963Z</time></trkpt><trkpt lat="45.4265483" lon="7.7007864"><ele>650.5</ele><time>2026-04-25T10:37:48.963Z</time></trkpt><trkpt lat="45.4265618" lon="7.7006859"><ele>647.6666666666666</ele><time>2026-04-25T10:37:52.961Z</time></trkpt><trkpt lat="45.4266263" lon="7.7006011"><ele>644.8333333333334</ele><time>2026-04-25T10:37:56.961Z</time></trkpt><trkpt lat="45.4266953" lon="7.7005457"><ele>642.0</ele><time>2026-04-25T10:37:59.962Z</time></trkpt><trkpt lat="45.4267679" lon="7.7004828"><ele>642.0</ele><time>2026-04-25T10:38:02.967Z</time></trkpt><trkpt lat="45.4268449" lon="7.7004088"><ele>642.0</ele><time>2026-04-25T10:38:05.956Z</time></trkpt><trkpt lat="45.4268819" lon="7.7002855"><ele>642.0</ele><time>2026-04-25T10:38:08.961Z</time></trkpt><trkpt lat="45.4268781" lon="7.7001861"><ele>642.0</ele><time>2026-04-25T10:38:10.959Z</time></trkpt><trkpt lat="45.4268525" lon="7.7001011"><ele>642.0</ele><time>2026-04-25T10:38:12.968Z</time></trkpt><trkpt lat="45.4268222" lon="7.70001"><ele>642.0</ele><time>2026-04-25T10:38:14.964Z</time></trkpt><trkpt lat="45.4267918" lon="7.6998825"><ele>640.6</ele><time>2026-04-25T10:38:17.959Z</time></trkpt><trkpt lat="45.4267738" lon="7.699773"><ele>639.2</ele><time>2026-04-25T10:38:19.964Z</time></trkpt><trkpt lat="45.4267529" lon="7.6996324"><ele>637.8</ele><time>2026-04-25T10:38:21.963Z</time></trkpt><trkpt lat="45.4267307" lon="7.699507"><ele>636.4</ele><time>2026-04-25T10:38:23.971Z</time></trkpt><trkpt lat="45.4266902" lon="7.699406"><ele>635.0</ele><time>2026-04-25T10:38:25.963Z</time></trkpt><trkpt lat="45.4266359" lon="7.6992588"><ele>633.1666666666666</ele><time>2026-04-25T10:38:27.968Z</time></trkpt><trkpt lat="45.4265871" lon="7.6991124"><ele>631.3333333333333</ele><time>2026-04-25T10:38:29.956Z</time></trkpt><trkpt lat="45.4265522" lon="7.6990161"><ele>629.5</ele><time>2026-04-25T10:38:31.956Z</time></trkpt><trkpt lat="45.4265194" lon="7.6989206"><ele>627.6666666666666</ele><time>2026-04-25T10:38:33.961Z</time></trkpt><trkpt lat="45.426482" lon="7.6988237"><ele>625.8333333333334</ele><time>2026-04-25T10:38:35.967Z</time></trkpt><trkpt lat="45.4264198" lon="7.698727"><ele>624.0</ele><time>2026-04-25T10:38:37.962Z</time></trkpt><trkpt lat="45.4263569" lon="7.6986299"><ele>623.4</ele><time>2026-04-25T10:38:39.963Z</time></trkpt><trkpt lat="45.4262582" lon="7.698532"><ele>622.8</ele><time>2026-04-25T10:38:41.958Z</time></trkpt><trkpt lat="45.4262033" lon="7.698477"><ele>622.2</ele><time>2026-04-25T10:38:42.966Z</time></trkpt><trkpt lat="45.4261003" lon="7.6983908"><ele>621.6</ele><time>2026-04-25T10:38:44.96Z</time></trkpt><trkpt lat="45.425994" lon="7.6983108"><ele>621.0</ele><time>2026-04-25T10:38:46.959Z</time></trkpt><trkpt lat="45.4258934" lon="7.698241"><ele>621.0</ele><time>2026-04-25T10:38:48.954Z</time></trkpt><trkpt lat="45.4257974" lon="7.6981749"><ele>621.0</ele><time>2026-04-25T10:38:50.952Z</time></trkpt><trkpt lat="45.4256983" lon="7.6981343"><ele>621.0</ele><time>2026-04-25T10:38:52.947Z</time></trkpt><trkpt lat="45.4256016" lon="7.6981221"><ele>621.0</ele><time>2026-04-25T10:38:54.954Z</time></trkpt><trkpt lat="45.4255095" lon="7.6981449"><ele>621.0</ele><time>2026-04-25T10:38:56.953Z</time></trkpt><trkpt lat="45.4254173" lon="7.6981883"><ele>621.8333333333334</ele><time>2026-04-25T10:38:58.962Z</time></trkpt><trkpt lat="45.4253434" lon="7.6982761"><ele>622.6666666666666</ele><time>2026-04-25T10:39:00.962Z</time></trkpt><trkpt lat="45.4252788" lon="7.6983591"><ele>623.5</ele><time>2026-04-25T10:39:02.956Z</time></trkpt><trkpt lat="45.4252157" lon="7.6984109"><ele>624.3333333333333</ele><time>2026-04-25T10:39:04.959Z</time></trkpt><trkpt lat="45.4251451" lon="7.6983867"><ele>625.1666666666666</ele><time>2026-04-25T10:39:07.956Z</time></trkpt><trkpt lat="45.4250953" lon="7.6982594"><ele>626.0</ele><time>2026-04-25T10:39:10.96Z</time></trkpt><trkpt lat="45.4250723" lon="7.698135"><ele>626.0</ele><time>2026-04-25T10:39:12.958Z</time></trkpt><trkpt lat="45.425043" lon="7.6980095"><ele>626.0</ele><time>2026-04-25T10:39:14.961Z</time></trkpt><trkpt lat="45.4250071" lon="7.6978887"><ele>626.0</ele><time>2026-04-25T10:39:16.951Z</time></trkpt><trkpt lat="45.4249729" lon="7.6977727"><ele>626.0</ele><time>2026-04-25T10:39:18.964Z</time></trkpt><trkpt lat="45.424949" lon="7.6976517"><ele>626.0</ele><time>2026-04-25T10:39:20.957Z</time></trkpt><trkpt lat="45.4248967" lon="7.6975601"><ele>626.0</ele><time>2026-04-25T10:39:22.963Z</time></trkpt><trkpt lat="45.4248453" lon="7.6974766"><ele>626.4285714285714</ele><time>2026-04-25T10:39:24.958Z</time></trkpt><trkpt lat="45.424777" lon="7.6974147"><ele>626.8571428571429</ele><time>2026-04-25T10:39:26.953Z</time></trkpt><trkpt lat="45.424711" lon="7.6973741"><ele>627.2857142857142</ele><time>2026-04-25T10:39:28.961Z</time></trkpt><trkpt lat="45.4246373" lon="7.6973433"><ele>627.7142857142858</ele><time>2026-04-25T10:39:30.957Z</time></trkpt><trkpt lat="45.4245778" lon="7.6972985"><ele>628.1428571428572</ele><time>2026-04-25T10:39:32.953Z</time></trkpt><trkpt lat="45.4245553" lon="7.6972074"><ele>628.5714285714286</ele><time>2026-04-25T10:39:35.955Z</time></trkpt><trkpt lat="45.4245281" lon="7.6971221"><ele>629.0</ele><time>2026-04-25T10:39:45.955Z</time></trkpt><trkpt lat="45.4244941" lon="7.6970336"><ele>626.3333333333333</ele><time>2026-04-25T10:39:48.962Z</time></trkpt><trkpt lat="45.4244565" lon="7.6969179"><ele>623.6666666666666</ele><time>2026-04-25T10:39:51.958Z</time></trkpt><trkpt lat="45.4244146" lon="7.696842"><ele>621.0</ele><time>2026-04-25T10:39:53.955Z</time></trkpt><trkpt lat="45.4243651" lon="7.6967702"><ele>618.3333333333334</ele><time>2026-04-25T10:39:55.957Z</time></trkpt><trkpt lat="45.4243089" lon="7.6966828"><ele>615.6666666666667</ele><time>2026-04-25T10:39:57.956Z</time></trkpt><trkpt lat="45.424253" lon="7.6966141"><ele>613.0</ele><time>2026-04-25T10:39:59.957Z</time></trkpt><trkpt lat="45.4242017" lon="7.6965082"><ele>613.0</ele><time>2026-04-25T10:40:02.957Z</time></trkpt><trkpt lat="45.4241562" lon="7.6964429"><ele>613.0</ele><time>2026-04-25T10:40:04.951Z</time></trkpt><trkpt lat="45.4241017" lon="7.6963478"><ele>613.0</ele><time>2026-04-25T10:40:07.955Z</time></trkpt><trkpt lat="45.4240509" lon="7.6962349"><ele>613.0</ele><time>2026-04-25T10:40:10.962Z</time></trkpt><trkpt lat="45.4240083" lon="7.6961135"><ele>613.0</ele><time>2026-04-25T10:40:13.966Z</time></trkpt><trkpt lat="45.423979" lon="7.6960209"><ele>613.0</ele><time>2026-04-25T10:40:15.967Z</time></trkpt><trkpt lat="45.4239484" lon="7.6959291"><ele>611.6666666666667</ele><time>2026-04-25T10:40:17.963Z</time></trkpt><trkpt lat="45.4239222" lon="7.6958243"><ele>610.3333333333334</ele><time>2026-04-25T10:40:19.958Z</time></trkpt><trkpt lat="45.4238876" lon="7.6957317"><ele>609.0</ele><time>2026-04-25T10:40:21.963Z</time></trkpt><trkpt lat="45.4238415" lon="7.6956462"><ele>607.6666666666666</ele><time>2026-04-25T10:40:23.961Z</time></trkpt><trkpt lat="45.4237916" lon="7.6955706"><ele>606.3333333333333</ele><time>2026-04-25T10:40:26.959Z</time></trkpt><trkpt lat="45.4237395" lon="7.6954581"><ele>605.0</ele><time>2026-04-25T10:40:32.951Z</time></trkpt><trkpt lat="45.4237389" lon="7.6953623"><ele>605.0</ele><time>2026-04-25T10:40:36.961Z</time></trkpt><trkpt lat="45.4237169" lon="7.6952611"><ele>605.0</ele><time>2026-04-25T10:40:58.957Z</time></trkpt><trkpt lat="45.4236938" lon="7.6951578"><ele>605.0</ele><time>2026-04-25T10:41:02.956Z</time></trkpt><trkpt lat="45.4236435" lon="7.6950691"><ele>605.0</ele><time>2026-04-25T10:41:05.959Z</time></trkpt><trkpt lat="45.4235977" lon="7.6949956"><ele>605.0</ele><time>2026-04-25T10:41:08.962Z</time></trkpt><trkpt lat="45.4235529" lon="7.6949133"><ele>605.0</ele><time>2026-04-25T10:41:11.957Z</time></trkpt><trkpt lat="45.4235321" lon="7.6948224"><ele>605.0</ele><time>2026-04-25T10:41:14.962Z</time></trkpt><trkpt lat="45.423506" lon="7.6947224"><ele>602.0</ele><time>2026-04-25T10:41:18.957Z</time></trkpt><trkpt lat="45.4234854" lon="7.6945969"><ele>599.0</ele><time>2026-04-25T10:41:24.961Z</time></trkpt><trkpt lat="45.4234751" lon="7.6944895"><ele>596.0</ele><time>2026-04-25T10:41:28.967Z</time></trkpt><trkpt lat="45.4234403" lon="7.694386"><ele>593.0</ele><time>2026-04-25T10:41:32.961Z</time></trkpt><trkpt lat="45.4234224" lon="7.6942937"><ele>590.0</ele><time>2026-04-25T10:42:08.968Z</time></trkpt><trkpt lat="45.4233835" lon="7.6941948"><ele>587.0</ele><time>2026-04-25T10:42:11.959Z</time></trkpt><trkpt lat="45.4233518" lon="7.6940792"><ele>587.8000000000001</ele><time>2026-04-25T10:42:13.967Z</time></trkpt><trkpt lat="45.4233297" lon="7.6939678"><ele>588.6</ele><time>2026-04-25T10:42:14.966Z</time></trkpt><trkpt lat="45.4232862" lon="7.6938572"><ele>589.4000000000001</ele><time>2026-04-25T10:42:16.964Z</time></trkpt><trkpt lat="45.4232274" lon="7.693758"><ele>590.2</ele><time>2026-04-25T10:42:18.965Z</time></trkpt><trkpt lat="45.423173" lon="7.6936519"><ele>591.0</ele><time>2026-04-25T10:42:20.963Z</time></trkpt><trkpt lat="45.4231228" lon="7.6935273"><ele>591.0</ele><time>2026-04-25T10:42:22.963Z</time></trkpt><trkpt lat="45.42308" lon="7.6933991"><ele>591.0</ele><time>2026-04-25T10:42:24.964Z</time></trkpt><trkpt lat="45.4230391" lon="7.6932827"><ele>591.0</ele><time>2026-04-25T10:42:26.96Z</time></trkpt><trkpt lat="45.4229894" lon="7.6931841"><ele>591.0</ele><time>2026-04-25T10:42:28.946Z</time></trkpt><trkpt lat="45.4229253" lon="7.6931227"><ele>591.0</ele><time>2026-04-25T10:42:30.963Z</time></trkpt><trkpt lat="45.4228661" lon="7.6930606"><ele>591.0</ele><time>2026-04-25T10:42:32.961Z</time></trkpt><trkpt lat="45.4227922" lon="7.6930054"><ele>591.0</ele><time>2026-04-25T10:42:34.958Z</time></trkpt><trkpt lat="45.4227017" lon="7.692907"><ele>591.0</ele><time>2026-04-25T10:42:36.955Z</time></trkpt><trkpt lat="45.4226111" lon="7.692829"><ele>591.0</ele><time>2026-04-25T10:42:38.954Z</time></trkpt><trkpt lat="45.4225374" lon="7.6927635"><ele>591.0</ele><time>2026-04-25T10:42:40.957Z</time></trkpt><trkpt lat="45.4224814" lon="7.6926879"><ele>591.0</ele><time>2026-04-25T10:42:42.96Z</time></trkpt><trkpt lat="45.422429" lon="7.6926097"><ele>591.0</ele><time>2026-04-25T10:42:44.962Z</time></trkpt><trkpt lat="45.4223648" lon="7.6925379"><ele>591.0</ele><time>2026-04-25T10:42:46.953Z</time></trkpt><trkpt lat="45.4223004" lon="7.6924654"><ele>591.0</ele><time>2026-04-25T10:42:48.959Z</time></trkpt><trkpt lat="45.4222517" lon="7.6924051"><ele>591.0</ele><time>2026-04-25T10:42:50.963Z</time></trkpt><trkpt lat="45.4222084" lon="7.6923194"><ele>591.0</ele><time>2026-04-25T10:42:52.961Z</time></trkpt><trkpt lat="45.4221642" lon="7.6922097"><ele>591.0</ele><time>2026-04-25T10:42:54.964Z</time></trkpt><trkpt lat="45.4221183" lon="7.692099"><ele>589.0</ele><time>2026-04-25T10:42:56.965Z</time></trkpt><trkpt lat="45.4220673" lon="7.6919741"><ele>587.0</ele><time>2026-04-25T10:42:58.958Z</time></trkpt><trkpt lat="45.4220337" lon="7.6918043"><ele>585.0</ele><time>2026-04-25T10:43:00.971Z</time></trkpt><trkpt lat="45.4220309" lon="7.6917101"><ele>583.0</ele><time>2026-04-25T10:43:01.966Z</time></trkpt><trkpt lat="45.4220275" lon="7.6915722"><ele>581.0</ele><time>2026-04-25T10:43:03.964Z</time></trkpt><trkpt lat="45.4219949" lon="7.6914422"><ele>580.8333333333333</ele><time>2026-04-25T10:43:05.972Z</time></trkpt><trkpt lat="45.4219571" lon="7.6913519"><ele>580.6666666666666</ele><time>2026-04-25T10:43:07.963Z</time></trkpt><trkpt lat="45.4218822" lon="7.6912877"><ele>580.5</ele><time>2026-04-25T10:43:09.966Z</time></trkpt><trkpt lat="45.4218202" lon="7.6911975"><ele>580.3333333333334</ele><time>2026-04-25T10:43:11.961Z</time></trkpt><trkpt lat="45.4217688" lon="7.6910859"><ele>580.1666666666667</ele><time>2026-04-25T10:43:13.961Z</time></trkpt><trkpt lat="45.4217049" lon="7.6909892"><ele>580.0</ele><time>2026-04-25T10:43:15.962Z</time></trkpt><trkpt lat="45.421645" lon="7.6909168"><ele>580.6</ele><time>2026-04-25T10:43:17.952Z</time></trkpt><trkpt lat="45.4215603" lon="7.6907978"><ele>581.2</ele><time>2026-04-25T10:43:19.965Z</time></trkpt><trkpt lat="45.4214445" lon="7.6907148"><ele>581.8</ele><time>2026-04-25T10:43:21.962Z</time></trkpt><trkpt lat="45.4213846" lon="7.6906595"><ele>582.4</ele><time>2026-04-25T10:43:22.966Z</time></trkpt><trkpt lat="45.4213268" lon="7.690606"><ele>583.0</ele><time>2026-04-25T10:43:23.961Z</time></trkpt><trkpt lat="45.4212316" lon="7.6905034"><ele>580.1999999999999</ele><time>2026-04-25T10:43:25.959Z</time></trkpt><trkpt lat="45.4211726" lon="7.6904047"><ele>577.4</ele><time>2026-04-25T10:43:27.961Z</time></trkpt><trkpt lat="45.4211196" lon="7.6902992"><ele>574.5999999999999</ele><time>2026-04-25T10:43:29.962Z</time></trkpt><trkpt lat="45.4211385" lon="7.6901565"><ele>571.8</ele><time>2026-04-25T10:43:32.962Z</time></trkpt><trkpt lat="45.4212064" lon="7.6900519"><ele>569.0</ele><time>2026-04-25T10:43:34.96Z</time></trkpt><trkpt lat="45.4212426" lon="7.6899704"><ele>567.8333333333333</ele><time>2026-04-25T10:43:35.954Z</time></trkpt><trkpt lat="45.4212804" lon="7.6898892"><ele>566.6666666666666</ele><time>2026-04-25T10:43:36.963Z</time></trkpt><trkpt lat="45.4213182" lon="7.6898162"><ele>565.5</ele><time>2026-04-25T10:43:37.961Z</time></trkpt><trkpt lat="45.421374" lon="7.6897093"><ele>564.3333333333334</ele><time>2026-04-25T10:43:39.96Z</time></trkpt><trkpt lat="45.4213178" lon="7.6896547"><ele>563.1666666666667</ele><time>2026-04-25T10:43:44.956Z</time></trkpt><trkpt lat="45.4212294" lon="7.6896775"><ele>562.0</ele><time>2026-04-25T10:43:46.959Z</time></trkpt><trkpt lat="45.4211169" lon="7.6896924"><ele>562.0</ele><time>2026-04-25T10:43:48.958Z</time></trkpt><trkpt lat="45.4210037" lon="7.6897205"><ele>562.0</ele><time>2026-04-25T10:43:50.962Z</time></trkpt><trkpt lat="45.4208985" lon="7.6897541"><ele>562.0</ele><time>2026-04-25T10:43:52.956Z</time></trkpt><trkpt lat="45.4207849" lon="7.6897149"><ele>562.0</ele><time>2026-04-25T10:43:54.957Z</time></trkpt><trkpt lat="45.4207217" lon="7.6896849"><ele>562.0</ele><time>2026-04-25T10:43:55.959Z</time></trkpt><trkpt lat="45.4206246" lon="7.6896258"><ele>562.0</ele><time>2026-04-25T10:43:57.961Z</time></trkpt><trkpt lat="45.4205337" lon="7.6895426"><ele>562.0</ele><time>2026-04-25T10:43:59.961Z</time></trkpt><trkpt lat="45.4204554" lon="7.6894575"><ele>562.0</ele><time>2026-04-25T10:44:01.956Z</time></trkpt><trkpt lat="45.4203644" lon="7.6893956"><ele>562.0</ele><time>2026-04-25T10:44:03.962Z</time></trkpt><trkpt lat="45.4202941" lon="7.6893721"><ele>562.0</ele><time>2026-04-25T10:44:05.962Z</time></trkpt><trkpt lat="45.4202311" lon="7.6893412"><ele>562.0</ele><time>2026-04-25T10:44:07.959Z</time></trkpt><trkpt lat="45.4201579" lon="7.6893022"><ele>562.8333333333334</ele><time>2026-04-25T10:44:09.961Z</time></trkpt><trkpt lat="45.4200576" lon="7.6892427"><ele>563.6666666666667</ele><time>2026-04-25T10:44:11.961Z</time></trkpt><trkpt lat="45.4199672" lon="7.6891759"><ele>564.5</ele><time>2026-04-25T10:44:14.027Z</time></trkpt><trkpt lat="45.4198999" lon="7.6891619"><ele>565.3333333333334</ele><time>2026-04-25T10:44:15.958Z</time></trkpt><trkpt lat="45.4198167" lon="7.6891604"><ele>566.1666666666666</ele><time>2026-04-25T10:44:17.958Z</time></trkpt><trkpt lat="45.419731" lon="7.6891614"><ele>567.0</ele><time>2026-04-25T10:44:21.05Z</time></trkpt><trkpt lat="45.4196732" lon="7.6891149"><ele>567.1666666666666</ele><time>2026-04-25T10:44:24.957Z</time></trkpt><trkpt lat="45.4196293" lon="7.6890232"><ele>567.3333333333334</ele><time>2026-04-25T10:44:28.938Z</time></trkpt><trkpt lat="45.4195942" lon="7.6889294"><ele>567.5</ele><time>2026-04-25T10:44:30.953Z</time></trkpt><trkpt lat="45.4195559" lon="7.688834"><ele>567.6666666666667</ele><time>2026-04-25T10:44:31.952Z</time></trkpt><trkpt lat="45.41952" lon="7.6887371"><ele>567.8333333333334</ele><time>2026-04-25T10:44:32.954Z</time></trkpt><trkpt lat="45.4194835" lon="7.6885884"><ele>568.0</ele><time>2026-04-25T10:44:33.99Z</time></trkpt><trkpt lat="45.4194527" lon="7.6884216"><ele>565.1999999999999</ele><time>2026-04-25T10:44:35.043Z</time></trkpt><trkpt lat="45.4194162" lon="7.6882761"><ele>562.4</ele><time>2026-04-25T10:44:35.949Z</time></trkpt><trkpt lat="45.4193632" lon="7.6881684"><ele>559.5999999999999</ele><time>2026-04-25T10:44:36.961Z</time></trkpt><trkpt lat="45.4193025" lon="7.6880599"><ele>556.8</ele><time>2026-04-25T10:44:37.958Z</time></trkpt><trkpt lat="45.4192482" lon="7.6879377"><ele>554.0</ele><time>2026-04-25T10:44:38.957Z</time></trkpt><trkpt lat="45.4191938" lon="7.6878226"><ele>555.0</ele><time>2026-04-25T10:44:39.949Z</time></trkpt><trkpt lat="45.419144" lon="7.6876986"><ele>556.0</ele><time>2026-04-25T10:44:40.955Z</time></trkpt><trkpt lat="45.4191052" lon="7.6875933"><ele>557.0</ele><time>2026-04-25T10:44:42.032Z</time></trkpt><trkpt lat="45.4190756" lon="7.6875063"><ele>558.0</ele><time>2026-04-25T10:44:42.959Z</time></trkpt><trkpt lat="45.4190115" lon="7.6873835"><ele>559.0</ele><time>2026-04-25T10:44:45.029Z</time></trkpt><trkpt lat="45.418946" lon="7.6872536"><ele>559.0</ele><time>2026-04-25T10:44:47.03Z</time></trkpt><trkpt lat="45.4188833" lon="7.6871224"><ele>559.0</ele><time>2026-04-25T10:44:48.966Z</time></trkpt><trkpt lat="45.418826" lon="7.6869928"><ele>559.0</ele><time>2026-04-25T10:44:51.031Z</time></trkpt><trkpt lat="45.4187874" lon="7.6868791"><ele>559.0</ele><time>2026-04-25T10:44:52.955Z</time></trkpt><trkpt lat="45.4187133" lon="7.6868055"><ele>559.0</ele><time>2026-04-25T10:44:54.955Z</time></trkpt><trkpt lat="45.4186637" lon="7.6867362"><ele>557.8333333333334</ele><time>2026-04-25T10:44:56.959Z</time></trkpt><trkpt lat="45.4186027" lon="7.6866388"><ele>556.6666666666667</ele><time>2026-04-25T10:44:59.955Z</time></trkpt><trkpt lat="45.4185508" lon="7.6865633"><ele>555.5</ele><time>2026-04-25T10:45:01.957Z</time></trkpt><trkpt lat="45.4184888" lon="7.6865119"><ele>554.3333333333334</ele><time>2026-04-25T10:45:04.028Z</time></trkpt><trkpt lat="45.4184309" lon="7.6864594"><ele>553.1666666666666</ele><time>2026-04-25T10:45:06.035Z</time></trkpt><trkpt lat="45.4183778" lon="7.6864053"><ele>552.0</ele><time>2026-04-25T10:45:07.958Z</time></trkpt><trkpt lat="45.4183014" lon="7.6863533"><ele>552.0</ele><time>2026-04-25T10:45:10.962Z</time></trkpt><trkpt lat="45.4182433" lon="7.6863122"><ele>552.0</ele><time>2026-04-25T10:45:12.962Z</time></trkpt><trkpt lat="45.4181693" lon="7.6863393"><ele>552.0</ele><time>2026-04-25T10:45:16.035Z</time></trkpt><trkpt lat="45.418099" lon="7.6864097"><ele>552.0</ele><time>2026-04-25T10:45:18.969Z</time></trkpt><trkpt lat="45.4180327" lon="7.6864464"><ele>552.0</ele><time>2026-04-25T10:45:20.96Z</time></trkpt><trkpt lat="45.4179677" lon="7.6865013"><ele>552.0</ele><time>2026-04-25T10:45:22.956Z</time></trkpt><trkpt lat="45.4178968" lon="7.6865673"><ele>550.5</ele><time>2026-04-25T10:45:26.02Z</time></trkpt><trkpt lat="45.4178219" lon="7.6865735"><ele>549.0</ele><time>2026-04-25T10:45:28.961Z</time></trkpt><trkpt lat="45.4177727" lon="7.6866463"><ele>547.5</ele><time>2026-04-25T10:45:31.959Z</time></trkpt><trkpt lat="45.4177415" lon="7.6867494"><ele>546.0</ele><time>2026-04-25T10:45:36.013Z</time></trkpt><trkpt lat="45.4176971" lon="7.6868561"><ele>544.5</ele><time>2026-04-25T10:45:38.963Z</time></trkpt><trkpt lat="45.4176295" lon="7.6869599"><ele>543.0</ele><time>2026-04-25T10:45:40.954Z</time></trkpt><trkpt lat="45.4175452" lon="7.6870936"><ele>543.0</ele><time>2026-04-25T10:45:42.959Z</time></trkpt><trkpt lat="45.4174894" lon="7.6871545"><ele>543.0</ele><time>2026-04-25T10:45:43.954Z</time></trkpt><trkpt lat="45.4174225" lon="7.6872133"><ele>543.0</ele><time>2026-04-25T10:45:44.997Z</time></trkpt><trkpt lat="45.4173461" lon="7.6872685"><ele>543.0</ele><time>2026-04-25T10:45:45.963Z</time></trkpt><trkpt lat="45.4172615" lon="7.6873194"><ele>543.0</ele><time>2026-04-25T10:45:47.031Z</time></trkpt><trkpt lat="45.417177" lon="7.6873706"><ele>543.0</ele><time>2026-04-25T10:45:47.948Z</time></trkpt><trkpt lat="45.4170817" lon="7.6873995"><ele>542.0</ele><time>2026-04-25T10:45:48.958Z</time></trkpt><trkpt lat="45.4169833" lon="7.6874097"><ele>541.0</ele><time>2026-04-25T10:45:49.958Z</time></trkpt><trkpt lat="45.4168884" lon="7.6874271"><ele>540.0</ele><time>2026-04-25T10:45:50.956Z</time></trkpt><trkpt lat="45.4167937" lon="7.687442"><ele>539.0</ele><time>2026-04-25T10:45:51.955Z</time></trkpt><trkpt lat="45.4166964" lon="7.6874616"><ele>538.0</ele><time>2026-04-25T10:45:52.96Z</time></trkpt><trkpt lat="45.416597" lon="7.6874781"><ele>538.0</ele><time>2026-04-25T10:45:53.952Z</time></trkpt><trkpt lat="45.4165018" lon="7.687488"><ele>538.0</ele><time>2026-04-25T10:45:55.044Z</time></trkpt><trkpt lat="45.4164093" lon="7.6874907"><ele>538.0</ele><time>2026-04-25T10:45:55.959Z</time></trkpt><trkpt lat="45.4163201" lon="7.6874917"><ele>538.0</ele><time>2026-04-25T10:45:57.028Z</time></trkpt><trkpt lat="45.416229" lon="7.6874761"><ele>538.0</ele><time>2026-04-25T10:45:57.956Z</time></trkpt><trkpt lat="45.4161347" lon="7.6874565"><ele>539.5</ele><time>2026-04-25T10:45:58.963Z</time></trkpt><trkpt lat="45.4160444" lon="7.6874405"><ele>541.0</ele><time>2026-04-25T10:46:00.008Z</time></trkpt><trkpt lat="45.4159605" lon="7.6874309"><ele>542.5</ele><time>2026-04-25T10:46:01.018Z</time></trkpt><trkpt lat="45.4158823" lon="7.6874313"><ele>544.0</ele><time>2026-04-25T10:46:02.018Z</time></trkpt><trkpt lat="45.4158004" lon="7.6874399"><ele>545.5</ele><time>2026-04-25T10:46:02.952Z</time></trkpt><trkpt lat="45.41571" lon="7.6874535"><ele>547.0</ele><time>2026-04-25T10:46:03.958Z</time></trkpt><trkpt lat="45.4156187" lon="7.6874601"><ele>547.0</ele><time>2026-04-25T10:46:04.974Z</time></trkpt><trkpt lat="45.4155266" lon="7.6874563"><ele>547.0</ele><time>2026-04-25T10:46:06.053Z</time></trkpt><trkpt lat="45.4153351" lon="7.6874396"><ele>547.0</ele><time>2026-04-25T10:46:07.951Z</time></trkpt><trkpt lat="45.4152427" lon="7.6874343"><ele>547.0</ele><time>2026-04-25T10:46:08.959Z</time></trkpt><trkpt lat="45.4151463" lon="7.6874342"><ele>549.3333333333334</ele><time>2026-04-25T10:46:10.049Z</time></trkpt><trkpt lat="45.4150606" lon="7.6874306"><ele>551.6666666666667</ele><time>2026-04-25T10:46:10.975Z</time></trkpt><trkpt lat="45.4149818" lon="7.6874331"><ele>554.0</ele><time>2026-04-25T10:46:12.03Z</time></trkpt><trkpt lat="45.414905" lon="7.6874177"><ele>556.3333333333334</ele><time>2026-04-25T10:46:12.957Z</time></trkpt><trkpt lat="45.4148423" lon="7.6874088"><ele>558.6666666666666</ele><time>2026-04-25T10:46:13.961Z</time></trkpt><trkpt lat="45.414737" lon="7.6874047"><ele>561.0</ele><time>2026-04-25T10:46:15.953Z</time></trkpt><trkpt lat="45.4146697" lon="7.6874257"><ele>563.2</ele><time>2026-04-25T10:46:17.951Z</time></trkpt><trkpt lat="45.414617" lon="7.6874761"><ele>565.4000000000001</ele><time>2026-04-25T10:46:19.956Z</time></trkpt><trkpt lat="45.4145852" lon="7.68762"><ele>567.6</ele><time>2026-04-25T10:46:22.041Z</time></trkpt><trkpt lat="45.4145408" lon="7.6877706"><ele>569.8000000000001</ele><time>2026-04-25T10:46:23.963Z</time></trkpt><trkpt lat="45.4144832" lon="7.6878918"><ele>572.0</ele><time>2026-04-25T10:46:25.949Z</time></trkpt><trkpt lat="45.4144375" lon="7.6879754"><ele>572.0</ele><time>2026-04-25T10:46:28.972Z</time></trkpt><trkpt lat="45.4143901" lon="7.688064"><ele>572.0</ele><time>2026-04-25T10:46:33.963Z</time></trkpt><trkpt lat="45.4143386" lon="7.6881423"><ele>572.0</ele><time>2026-04-25T10:46:35.951Z</time></trkpt><trkpt lat="45.414291" lon="7.6882164"><ele>572.0</ele><time>2026-04-25T10:46:37.947Z</time></trkpt><trkpt lat="45.4142435" lon="7.6883135"><ele>572.0</ele><time>2026-04-25T10:46:39.96Z</time></trkpt><trkpt lat="45.4141995" lon="7.6884354"><ele>572.0</ele><time>2026-04-25T10:46:41.944Z</time></trkpt><trkpt lat="45.4141644" lon="7.6885517"><ele>574.3333333333333</ele><time>2026-04-25T10:46:43.972Z</time></trkpt><trkpt lat="45.4141352" lon="7.6886726"><ele>576.6666666666666</ele><time>2026-04-25T10:46:45.956Z</time></trkpt><trkpt lat="45.4140966" lon="7.6887832"><ele>579.0</ele><time>2026-04-25T10:46:47.951Z</time></trkpt><trkpt lat="45.4140307" lon="7.6888947"><ele>581.3333333333334</ele><time>2026-04-25T10:46:49.952Z</time></trkpt><trkpt lat="45.4139774" lon="7.688969"><ele>583.6666666666667</ele><time>2026-04-25T10:46:51.949Z</time></trkpt><trkpt lat="45.4139276" lon="7.6890387"><ele>586.0</ele><time>2026-04-25T10:46:53.959Z</time></trkpt><trkpt lat="45.413864" lon="7.6891386"><ele>586.0</ele><time>2026-04-25T10:46:56.956Z</time></trkpt><trkpt lat="45.4138283" lon="7.6892355"><ele>586.0</ele><time>2026-04-25T10:46:58.961Z</time></trkpt><trkpt lat="45.413775" lon="7.6893203"><ele>586.0</ele><time>2026-04-25T10:47:00.942Z</time></trkpt><trkpt lat="45.4137228" lon="7.6893988"><ele>586.0</ele><time>2026-04-25T10:47:03.958Z</time></trkpt><trkpt lat="45.4136424" lon="7.6894314"><ele>586.0</ele><time>2026-04-25T10:47:05.947Z</time></trkpt><trkpt lat="45.4135939" lon="7.689522"><ele>586.0</ele><time>2026-04-25T10:48:42.955Z</time></trkpt><trkpt lat="45.4135763" lon="7.6896195"><ele>581.5</ele><time>2026-04-25T10:48:44.953Z</time></trkpt><trkpt lat="45.4135454" lon="7.6897539"><ele>577.0</ele><time>2026-04-25T10:48:47.955Z</time></trkpt><trkpt lat="45.4135225" lon="7.6898536"><ele>572.5</ele><time>2026-04-25T10:48:49.965Z</time></trkpt><trkpt lat="45.4135092" lon="7.6899455"><ele>568.0</ele><time>2026-04-25T10:48:51.962Z</time></trkpt><trkpt lat="45.4134737" lon="7.6900444"><ele>563.5</ele><time>2026-04-25T10:48:54.967Z</time></trkpt><trkpt lat="45.4134321" lon="7.6901258"><ele>559.0</ele><time>2026-04-25T10:48:58.949Z</time></trkpt><trkpt lat="45.4134012" lon="7.6902208"><ele>557.8</ele><time>2026-04-25T10:49:06.961Z</time></trkpt><trkpt lat="45.4134346" lon="7.6903395"><ele>556.5999999999999</ele><time>2026-04-25T10:49:08.972Z</time></trkpt><trkpt lat="45.4134687" lon="7.6904843"><ele>555.4</ele><time>2026-04-25T10:49:10.962Z</time></trkpt><trkpt lat="45.4135277" lon="7.690593"><ele>554.1999999999999</ele><time>2026-04-25T10:49:12.962Z</time></trkpt><trkpt lat="45.413595" lon="7.6906754"><ele>553.0</ele><time>2026-04-25T10:49:15.034Z</time></trkpt><trkpt lat="45.4136771" lon="7.6907562"><ele>553.0</ele><time>2026-04-25T10:49:16.951Z</time></trkpt><trkpt lat="45.4137498" lon="7.6908365"><ele>553.0</ele><time>2026-04-25T10:49:18.948Z</time></trkpt><trkpt lat="45.4137926" lon="7.6909082"><ele>553.0</ele><time>2026-04-25T10:49:20.957Z</time></trkpt><trkpt lat="45.4138094" lon="7.6910217"><ele>553.0</ele><time>2026-04-25T10:49:23.956Z</time></trkpt><trkpt lat="45.4138129" lon="7.6911162"><ele>553.0</ele><time>2026-04-25T10:49:25.957Z</time></trkpt><trkpt lat="45.4137916" lon="7.6912528"><ele>553.0</ele><time>2026-04-25T10:49:27.955Z</time></trkpt><trkpt lat="45.4137468" lon="7.6913582"><ele>552.1999999999999</ele><time>2026-04-25T10:49:29.96Z</time></trkpt><trkpt lat="45.4136799" lon="7.6914638"><ele>551.4</ele><time>2026-04-25T10:49:31.954Z</time></trkpt><trkpt lat="45.413638" lon="7.6915324"><ele>550.5999999999999</ele><time>2026-04-25T10:49:32.972Z</time></trkpt><trkpt lat="45.4135726" lon="7.6916662"><ele>549.8</ele><time>2026-04-25T10:49:35.034Z</time></trkpt><trkpt lat="45.4135416" lon="7.6917946"><ele>549.0</ele><time>2026-04-25T10:49:36.969Z</time></trkpt><trkpt lat="45.4135478" lon="7.6919137"><ele>548.1428571428571</ele><time>2026-04-25T10:49:38.965Z</time></trkpt><trkpt lat="45.4135795" lon="7.692018"><ele>547.2857142857143</ele><time>2026-04-25T10:49:40.968Z</time></trkpt><trkpt lat="45.4136232" lon="7.6920988"><ele>546.4285714285714</ele><time>2026-04-25T10:49:42.963Z</time></trkpt><trkpt lat="45.4136657" lon="7.6921854"><ele>545.5714285714286</ele><time>2026-04-25T10:49:44.977Z</time></trkpt><trkpt lat="45.4137123" lon="7.6922645"><ele>544.7142857142857</ele><time>2026-04-25T10:49:46.955Z</time></trkpt><trkpt lat="45.4137643" lon="7.6923403"><ele>543.8571428571429</ele><time>2026-04-25T10:49:48.95Z</time></trkpt><trkpt lat="45.4138054" lon="7.6924241"><ele>543.0</ele><time>2026-04-25T10:49:50.957Z</time></trkpt><trkpt lat="45.413801" lon="7.6925243"><ele>543.0</ele><time>2026-04-25T10:49:54.035Z</time></trkpt><trkpt lat="45.41374" lon="7.6926285"><ele>543.0</ele><time>2026-04-25T10:49:56.957Z</time></trkpt><trkpt lat="45.4137095" lon="7.6927102"><ele>543.0</ele><time>2026-04-25T10:49:58.941Z</time></trkpt><trkpt lat="45.413688" lon="7.6928183"><ele>543.0</ele><time>2026-04-25T10:50:00.954Z</time></trkpt><trkpt lat="45.4135886" lon="7.6929308"><ele>543.0</ele><time>2026-04-25T10:50:03.965Z</time></trkpt><trkpt lat="45.4135006" lon="7.6930096"><ele>544.8</ele><time>2026-04-25T10:50:05.949Z</time></trkpt><trkpt lat="45.4134141" lon="7.6930932"><ele>546.5999999999999</ele><time>2026-04-25T10:50:07.94Z</time></trkpt><trkpt lat="45.4133496" lon="7.6931924"><ele>548.4000000000001</ele><time>2026-04-25T10:50:09.942Z</time></trkpt><trkpt lat="45.4132493" lon="7.6932852"><ele>550.2</ele><time>2026-04-25T10:50:11.95Z</time></trkpt><trkpt lat="45.4131962" lon="7.6933527"><ele>552.0</ele><time>2026-04-25T10:50:12.952Z</time></trkpt><trkpt lat="45.413124" lon="7.6934414"><ele>552.0</ele><time>2026-04-25T10:50:14.997Z</time></trkpt><trkpt lat="45.4130851" lon="7.6935291"><ele>552.0</ele><time>2026-04-25T10:50:17.043Z</time></trkpt><trkpt lat="45.4130568" lon="7.6936778"><ele>552.0</ele><time>2026-04-25T10:50:18.963Z</time></trkpt><trkpt lat="45.4130395" lon="7.693824"><ele>552.0</ele><time>2026-04-25T10:50:20.956Z</time></trkpt><trkpt lat="45.413031" lon="7.693914"><ele>552.0</ele><time>2026-04-25T10:50:21.961Z</time></trkpt><trkpt lat="45.413012" lon="7.6940563"><ele>553.1666666666666</ele><time>2026-04-25T10:50:23.96Z</time></trkpt><trkpt lat="45.4129965" lon="7.6941899"><ele>554.3333333333334</ele><time>2026-04-25T10:50:25.96Z</time></trkpt><trkpt lat="45.4130078" lon="7.6943065"><ele>555.5</ele><time>2026-04-25T10:50:27.954Z</time></trkpt><trkpt lat="45.4130432" lon="7.6944357"><ele>556.6666666666667</ele><time>2026-04-25T10:50:29.959Z</time></trkpt><trkpt lat="45.413064" lon="7.6945705"><ele>557.8333333333334</ele><time>2026-04-25T10:50:31.958Z</time></trkpt><trkpt lat="45.4130042" lon="7.6946221"><ele>559.0</ele><time>2026-04-25T10:50:34.96Z</time></trkpt><trkpt lat="45.4128898" lon="7.6945719"><ele>559.0</ele><time>2026-04-25T10:50:36.946Z</time></trkpt><trkpt lat="45.4128207" lon="7.6945301"><ele>559.0</ele><time>2026-04-25T10:50:37.985Z</time></trkpt><trkpt lat="45.4127497" lon="7.6944773"><ele>559.0</ele><time>2026-04-25T10:50:38.955Z</time></trkpt><trkpt lat="45.4126898" lon="7.6944269"><ele>559.0</ele><time>2026-04-25T10:50:39.959Z</time></trkpt><trkpt lat="45.4126131" lon="7.6943528"><ele>559.0</ele><time>2026-04-25T10:50:41.959Z</time></trkpt><trkpt lat="45.4124955" lon="7.6943683"><ele>559.0</ele><time>2026-04-25T10:50:43.957Z</time></trkpt><trkpt lat="45.4123877" lon="7.6943953"><ele>559.0</ele><time>2026-04-25T10:50:45.956Z</time></trkpt><trkpt lat="45.4123057" lon="7.6944853"><ele>559.0</ele><time>2026-04-25T10:50:47.955Z</time></trkpt><trkpt lat="45.412224" lon="7.6945956"><ele>559.0</ele><time>2026-04-25T10:50:49.961Z</time></trkpt><trkpt lat="45.4121534" lon="7.6947185"><ele>559.0</ele><time>2026-04-25T10:50:51.954Z</time></trkpt><trkpt lat="45.4121199" lon="7.6948813"><ele>559.0</ele><time>2026-04-25T10:50:53.957Z</time></trkpt><trkpt lat="45.4121106" lon="7.6949892"><ele>557.3333333333334</ele><time>2026-04-25T10:50:54.956Z</time></trkpt><trkpt lat="45.4120938" lon="7.6950977"><ele>555.6666666666667</ele><time>2026-04-25T10:50:55.945Z</time></trkpt><trkpt lat="45.4120688" lon="7.6952001"><ele>554.0</ele><time>2026-04-25T10:50:56.956Z</time></trkpt><trkpt lat="45.4120517" lon="7.6952971"><ele>552.3333333333334</ele><time>2026-04-25T10:50:57.959Z</time></trkpt><trkpt lat="45.4120391" lon="7.6953887"><ele>550.6666666666666</ele><time>2026-04-25T10:50:58.962Z</time></trkpt><trkpt lat="45.4119902" lon="7.6955474"><ele>549.0</ele><time>2026-04-25T10:51:00.961Z</time></trkpt><trkpt lat="45.4119355" lon="7.6956137"><ele>549.0</ele><time>2026-04-25T10:51:01.952Z</time></trkpt><trkpt lat="45.411868" lon="7.6956737"><ele>549.0</ele><time>2026-04-25T10:51:02.956Z</time></trkpt><trkpt lat="45.4118019" lon="7.6957247"><ele>549.0</ele><time>2026-04-25T10:51:03.958Z</time></trkpt><trkpt lat="45.4117353" lon="7.6957729"><ele>549.0</ele><time>2026-04-25T10:51:04.966Z</time></trkpt><trkpt lat="45.4116651" lon="7.695799"><ele>549.0</ele><time>2026-04-25T10:51:05.961Z</time></trkpt><trkpt lat="45.4115825" lon="7.6958035"><ele>549.0</ele><time>2026-04-25T10:51:06.956Z</time></trkpt><trkpt lat="45.411504" lon="7.695793"><ele>549.0</ele><time>2026-04-25T10:51:07.96Z</time></trkpt><trkpt lat="45.4114081" lon="7.69577"><ele>549.0</ele><time>2026-04-25T10:51:08.957Z</time></trkpt><trkpt lat="45.4113167" lon="7.6957388"><ele>549.0</ele><time>2026-04-25T10:51:09.958Z</time></trkpt><trkpt lat="45.4112385" lon="7.6957051"><ele>549.0</ele><time>2026-04-25T10:51:10.959Z</time></trkpt><trkpt lat="45.4111742" lon="7.6956494"><ele>549.0</ele><time>2026-04-25T10:51:11.959Z</time></trkpt><trkpt lat="45.4111194" lon="7.6955933"><ele>549.0</ele><time>2026-04-25T10:51:12.963Z</time></trkpt><trkpt lat="45.4110653" lon="7.6955328"><ele>547.0</ele><time>2026-04-25T10:51:13.961Z</time></trkpt><trkpt lat="45.4110189" lon="7.6954646"><ele>545.0</ele><time>2026-04-25T10:51:14.962Z</time></trkpt><trkpt lat="45.4109633" lon="7.6953935"><ele>543.0</ele><time>2026-04-25T10:51:16.955Z</time></trkpt><trkpt lat="45.4109007" lon="7.6954198"><ele>541.0</ele><time>2026-04-25T10:52:26.962Z</time></trkpt><trkpt lat="45.4108455" lon="7.6954865"><ele>539.0</ele><time>2026-04-25T10:52:27.96Z</time></trkpt><trkpt lat="45.410778" lon="7.6955526"><ele>537.0</ele><time>2026-04-25T10:52:28.967Z</time></trkpt><trkpt lat="45.4107208" lon="7.6955948"><ele>535.0</ele><time>2026-04-25T10:52:29.959Z</time></trkpt><trkpt lat="45.4106561" lon="7.6956462"><ele>535.0</ele><time>2026-04-25T10:52:30.95Z</time></trkpt><trkpt lat="45.4105988" lon="7.6956978"><ele>535.0</ele><time>2026-04-25T10:52:31.96Z</time></trkpt><trkpt lat="45.4105338" lon="7.6957591"><ele>535.0</ele><time>2026-04-25T10:52:32.956Z</time></trkpt><trkpt lat="45.4104794" lon="7.695805"><ele>535.0</ele><time>2026-04-25T10:52:33.961Z</time></trkpt><trkpt lat="45.4104286" lon="7.6958615"><ele>535.0</ele><time>2026-04-25T10:52:34.963Z</time></trkpt><trkpt lat="45.410376" lon="7.6959225"><ele>535.0</ele><time>2026-04-25T10:52:35.958Z</time></trkpt><trkpt lat="45.4103174" lon="7.6959877"><ele>535.0</ele><time>2026-04-25T10:52:36.969Z</time></trkpt><trkpt lat="45.4102523" lon="7.6960265"><ele>534.1666666666667</ele><time>2026-04-25T10:52:37.957Z</time></trkpt><trkpt lat="45.4101815" lon="7.6960591"><ele>533.3333333333334</ele><time>2026-04-25T10:52:38.956Z</time></trkpt><trkpt lat="45.410108" lon="7.6960829"><ele>532.5</ele><time>2026-04-25T10:52:39.955Z</time></trkpt><trkpt lat="45.4100404" lon="7.6961168"><ele>531.6666666666666</ele><time>2026-04-25T10:52:40.952Z</time></trkpt><trkpt lat="45.4099719" lon="7.6961399"><ele>530.8333333333333</ele><time>2026-04-25T10:52:41.966Z</time></trkpt><trkpt lat="45.4099079" lon="7.6961655"><ele>530.0</ele><time>2026-04-25T10:52:42.954Z</time></trkpt><trkpt lat="45.4097981" lon="7.6961988"><ele>530.0</ele><time>2026-04-25T10:52:44.965Z</time></trkpt><trkpt lat="45.4096989" lon="7.6961976"><ele>530.0</ele><time>2026-04-25T10:52:46.966Z</time></trkpt><trkpt lat="45.4095983" lon="7.696223"><ele>530.0</ele><time>2026-04-25T10:52:48.963Z</time></trkpt><trkpt lat="45.4094964" lon="7.6963052"><ele>530.0</ele><time>2026-04-25T10:52:50.959Z</time></trkpt><trkpt lat="45.4094156" lon="7.6964158"><ele>530.0</ele><time>2026-04-25T10:52:52.962Z</time></trkpt><trkpt lat="45.4093457" lon="7.6964991"><ele>528.6666666666666</ele><time>2026-04-25T10:52:54.951Z</time></trkpt><trkpt lat="45.4092991" lon="7.6965688"><ele>527.3333333333333</ele><time>2026-04-25T10:52:56.955Z</time></trkpt><trkpt lat="45.4092847" lon="7.6966839"><ele>526.0</ele><time>2026-04-25T10:52:59.96Z</time></trkpt><trkpt lat="45.4092545" lon="7.6968107"><ele>524.6666666666666</ele><time>2026-04-25T10:53:02.96Z</time></trkpt><trkpt lat="45.4091947" lon="7.6969088"><ele>523.3333333333334</ele><time>2026-04-25T10:53:04.954Z</time></trkpt><trkpt lat="45.4091118" lon="7.6969837"><ele>522.0</ele><time>2026-04-25T10:53:06.957Z</time></trkpt><trkpt lat="45.409063" lon="7.6970796"><ele>522.0</ele><time>2026-04-25T10:53:08.952Z</time></trkpt><trkpt lat="45.4090455" lon="7.6972074"><ele>522.0</ele><time>2026-04-25T10:53:11.967Z</time></trkpt><trkpt lat="45.4089748" lon="7.6972743"><ele>522.0</ele><time>2026-04-25T10:53:13.955Z</time></trkpt><trkpt lat="45.4089062" lon="7.6972841"><ele>522.0</ele><time>2026-04-25T10:53:14.961Z</time></trkpt><trkpt lat="45.4087659" lon="7.6971581"><ele>522.0</ele><time>2026-04-25T10:53:17.952Z</time></trkpt><trkpt lat="45.4086892" lon="7.6970974"><ele>511.0</ele><time>2026-04-25T10:53:19.953Z</time></trkpt><trkpt lat="45.4086361" lon="7.6970377"><ele>511.0</ele><time>2026-04-25T10:53:21.966Z</time></trkpt><trkpt lat="45.4085844" lon="7.6969806"><ele>511.0</ele><time>2026-04-25T10:53:25.958Z</time></trkpt><trkpt lat="45.4086281" lon="7.696915"><ele>515.0</ele><time>2026-04-25T10:53:27.959Z</time></trkpt><trkpt lat="45.4086698" lon="7.696845"><ele>515.0</ele><time>2026-04-25T10:53:32.961Z</time></trkpt><trkpt lat="45.4085978" lon="7.6968242"><ele>515.0</ele><time>2026-04-25T10:54:40.967Z</time></trkpt><trkpt lat="45.408508" lon="7.6967683"><ele>515.0</ele><time>2026-04-25T10:54:54.965Z</time></trkpt></trkseg><trkseg><trkpt lat="45.4084404" lon="7.6968382"><ele>515.0</ele><time>2026-04-25T12:12:42.968Z</time></trkpt><trkpt lat="45.4084848" lon="7.6969046"><ele>515.0</ele><time>2026-04-25T12:12:48.957Z</time></trkpt><trkpt lat="45.4085512" lon="7.6968972"><ele>515.0</ele><time>2026-04-25T12:12:53.969Z</time></trkpt><trkpt lat="45.4086208" lon="7.6968819"><ele>515.0</ele><time>2026-04-25T12:13:10.967Z</time></trkpt><trkpt lat="45.4085965" lon="7.6969668"><ele>515.0</ele><time>2026-04-25T12:16:40.949Z</time></trkpt><trkpt lat="45.4085295" lon="7.6970818"><ele>515.0</ele><time>2026-04-25T12:16:42.957Z</time></trkpt><trkpt lat="45.4084056" lon="7.6971781"><ele>514.2</ele><time>2026-04-25T12:16:44.95Z</time></trkpt><trkpt lat="45.4083182" lon="7.6972282"><ele>513.4</ele><time>2026-04-25T12:16:45.952Z</time></trkpt><trkpt lat="45.4082268" lon="7.6972806"><ele>512.6</ele><time>2026-04-25T12:16:46.956Z</time></trkpt><trkpt lat="45.4081354" lon="7.6973326"><ele>511.8</ele><time>2026-04-25T12:16:47.963Z</time></trkpt><trkpt lat="45.4080429" lon="7.6973833"><ele>511.0</ele><time>2026-04-25T12:16:49.017Z</time></trkpt><trkpt lat="45.4079494" lon="7.6974281"><ele>510.0</ele><time>2026-04-25T12:16:49.946Z</time></trkpt><trkpt lat="45.4078562" lon="7.6974544"><ele>509.0</ele><time>2026-04-25T12:16:50.95Z</time></trkpt><trkpt lat="45.4077612" lon="7.697488"><ele>508.0</ele><time>2026-04-25T12:16:51.996Z</time></trkpt><trkpt lat="45.4076662" lon="7.697517"><ele>507.0</ele><time>2026-04-25T12:16:52.96Z</time></trkpt><trkpt lat="45.4075754" lon="7.6975473"><ele>506.0</ele><time>2026-04-25T12:16:53.953Z</time></trkpt><trkpt lat="45.407489" lon="7.6975875"><ele>505.99999999999994</ele><time>2026-04-25T12:16:54.957Z</time></trkpt><trkpt lat="45.4074027" lon="7.6976301"><ele>506.0</ele><time>2026-04-25T12:16:55.946Z</time></trkpt><trkpt lat="45.4073228" lon="7.6976705"><ele>506.0</ele><time>2026-04-25T12:16:56.968Z</time></trkpt><trkpt lat="45.4072451" lon="7.6976982"><ele>506.0</ele><time>2026-04-25T12:16:57.952Z</time></trkpt><trkpt lat="45.4071712" lon="7.6977111"><ele>505.99999999999994</ele><time>2026-04-25T12:16:59.032Z</time></trkpt><trkpt lat="45.4071052" lon="7.6976913"><ele>506.0</ele><time>2026-04-25T12:16:59.952Z</time></trkpt><trkpt lat="45.4070349" lon="7.6976659"><ele>503.99999999999994</ele><time>2026-04-25T12:17:00.956Z</time></trkpt><trkpt lat="45.4069679" lon="7.697668"><ele>502.0</ele><time>2026-04-25T12:17:01.951Z</time></trkpt><trkpt lat="45.4069088" lon="7.6977079"><ele>500.0</ele><time>2026-04-25T12:17:02.954Z</time></trkpt><trkpt lat="45.4068353" lon="7.6978483"><ele>498.0</ele><time>2026-04-25T12:17:04.956Z</time></trkpt><trkpt lat="45.4068231" lon="7.6979503"><ele>495.99999999999994</ele><time>2026-04-25T12:17:05.955Z</time></trkpt><trkpt lat="45.4068164" lon="7.6980489"><ele>494.0</ele><time>2026-04-25T12:17:06.968Z</time></trkpt><trkpt lat="45.4068157" lon="7.6981399"><ele>494.0</ele><time>2026-04-25T12:17:08.016Z</time></trkpt><trkpt lat="45.4068094" lon="7.6982899"><ele>494.0</ele><time>2026-04-25T12:17:09.953Z</time></trkpt><trkpt lat="45.4067704" lon="7.6984013"><ele>494.0</ele><time>2026-04-25T12:17:11.955Z</time></trkpt><trkpt lat="45.4066806" lon="7.6985156"><ele>494.0</ele><time>2026-04-25T12:17:13.95Z</time></trkpt><trkpt lat="45.406603" lon="7.698573"><ele>494.0</ele><time>2026-04-25T12:17:14.955Z</time></trkpt><trkpt lat="45.4065217" lon="7.6986449"><ele>492.79999999999995</ele><time>2026-04-25T12:17:15.955Z</time></trkpt><trkpt lat="45.4064377" lon="7.6987139"><ele>491.59999999999997</ele><time>2026-04-25T12:17:17.038Z</time></trkpt><trkpt lat="45.4063525" lon="7.6987818"><ele>490.4</ele><time>2026-04-25T12:17:17.967Z</time></trkpt><trkpt lat="45.4062521" lon="7.6988597"><ele>489.2</ele><time>2026-04-25T12:17:18.992Z</time></trkpt><trkpt lat="45.406168" lon="7.6989508"><ele>488.0</ele><time>2026-04-25T12:17:19.963Z</time></trkpt><trkpt lat="45.4060811" lon="7.6990472"><ele>487.0</ele><time>2026-04-25T12:17:20.958Z</time></trkpt><trkpt lat="45.4059869" lon="7.6991438"><ele>486.0</ele><time>2026-04-25T12:17:21.97Z</time></trkpt><trkpt lat="45.4058893" lon="7.6992486"><ele>485.0</ele><time>2026-04-25T12:17:22.949Z</time></trkpt><trkpt lat="45.4057874" lon="7.6993531"><ele>484.0</ele><time>2026-04-25T12:17:23.956Z</time></trkpt><trkpt lat="45.4056858" lon="7.6994566"><ele>483.75</ele><time>2026-04-25T12:17:24.965Z</time></trkpt><trkpt lat="45.4055892" lon="7.6995576"><ele>483.5</ele><time>2026-04-25T12:17:25.963Z</time></trkpt><trkpt lat="45.4055065" lon="7.6996589"><ele>483.25</ele><time>2026-04-25T12:17:26.962Z</time></trkpt><trkpt lat="45.4054235" lon="7.6997644"><ele>483.0</ele><time>2026-04-25T12:17:27.96Z</time></trkpt><trkpt lat="45.4053366" lon="7.6998772"><ele>483.0</ele><time>2026-04-25T12:17:28.965Z</time></trkpt><trkpt lat="45.4052375" lon="7.699996"><ele>483.0</ele><time>2026-04-25T12:17:29.941Z</time></trkpt><trkpt lat="45.4051321" lon="7.7001137"><ele>483.0</ele><time>2026-04-25T12:17:30.959Z</time></trkpt><trkpt lat="45.4050324" lon="7.7002332"><ele>483.0</ele><time>2026-04-25T12:17:31.958Z</time></trkpt><trkpt lat="45.4049345" lon="7.7003441"><ele>481.25</ele><time>2026-04-25T12:17:33.029Z</time></trkpt><trkpt lat="45.4048343" lon="7.7004435"><ele>479.5</ele><time>2026-04-25T12:17:34.025Z</time></trkpt><trkpt lat="45.4047386" lon="7.700544"><ele>477.75</ele><time>2026-04-25T12:17:34.962Z</time></trkpt><trkpt lat="45.404644" lon="7.7006303"><ele>476.0</ele><time>2026-04-25T12:17:35.954Z</time></trkpt><trkpt lat="45.404551" lon="7.700716"><ele>476.0</ele><time>2026-04-25T12:17:36.977Z</time></trkpt><trkpt lat="45.4044556" lon="7.7007961"><ele>476.0</ele><time>2026-04-25T12:17:38.043Z</time></trkpt><trkpt lat="45.4043666" lon="7.7008776"><ele>476.0</ele><time>2026-04-25T12:17:39.014Z</time></trkpt><trkpt lat="45.4042759" lon="7.7009673"><ele>476.0</ele><time>2026-04-25T12:17:39.958Z</time></trkpt><trkpt lat="45.4041859" lon="7.7010563"><ele>476.0</ele><time>2026-04-25T12:17:40.961Z</time></trkpt><trkpt lat="45.4040986" lon="7.7011567"><ele>475.8</ele><time>2026-04-25T12:17:41.978Z</time></trkpt><trkpt lat="45.4040202" lon="7.7012548"><ele>475.6</ele><time>2026-04-25T12:17:43.02Z</time></trkpt><trkpt lat="45.4039416" lon="7.7013591"><ele>475.4</ele><time>2026-04-25T12:17:44.033Z</time></trkpt><trkpt lat="45.4038707" lon="7.7014682"><ele>475.2</ele><time>2026-04-25T12:17:44.955Z</time></trkpt><trkpt lat="45.4037974" lon="7.7015704"><ele>475.0</ele><time>2026-04-25T12:17:45.96Z</time></trkpt><trkpt lat="45.4037193" lon="7.7016666"><ele>475.0</ele><time>2026-04-25T12:17:46.977Z</time></trkpt><trkpt lat="45.4036362" lon="7.7017655"><ele>475.0</ele><time>2026-04-25T12:17:48.03Z</time></trkpt><trkpt lat="45.4035576" lon="7.7018603"><ele>475.0</ele><time>2026-04-25T12:17:49.032Z</time></trkpt><trkpt lat="45.4034746" lon="7.7019713"><ele>475.0</ele><time>2026-04-25T12:17:49.967Z</time></trkpt><trkpt lat="45.4034045" lon="7.7020727"><ele>475.0</ele><time>2026-04-25T12:17:50.968Z</time></trkpt><trkpt lat="45.4033384" lon="7.702174"><ele>475.4</ele><time>2026-04-25T12:17:51.977Z</time></trkpt><trkpt lat="45.4032746" lon="7.7022659"><ele>475.8</ele><time>2026-04-25T12:17:53.076Z</time></trkpt><trkpt lat="45.4032001" lon="7.7023475"><ele>476.20000000000005</ele><time>2026-04-25T12:17:54.031Z</time></trkpt><trkpt lat="45.4030996" lon="7.7024211"><ele>476.6</ele><time>2026-04-25T12:17:54.968Z</time></trkpt><trkpt lat="45.4029968" lon="7.7025006"><ele>477.0</ele><time>2026-04-25T12:17:55.973Z</time></trkpt><trkpt lat="45.4028796" lon="7.7025783"><ele>476.25</ele><time>2026-04-25T12:17:56.989Z</time></trkpt><trkpt lat="45.402763" lon="7.7026568"><ele>475.5</ele><time>2026-04-25T12:17:58.016Z</time></trkpt><trkpt lat="45.4026486" lon="7.7027275"><ele>474.75</ele><time>2026-04-25T12:17:59.043Z</time></trkpt><trkpt lat="45.4025406" lon="7.7028002"><ele>474.0</ele><time>2026-04-25T12:17:59.964Z</time></trkpt><trkpt lat="45.4024382" lon="7.7028756"><ele>474.0</ele><time>2026-04-25T12:18:00.966Z</time></trkpt><trkpt lat="45.4023331" lon="7.7029485"><ele>474.0</ele><time>2026-04-25T12:18:01.964Z</time></trkpt><trkpt lat="45.4022272" lon="7.7030237"><ele>474.0</ele><time>2026-04-25T12:18:02.963Z</time></trkpt><trkpt lat="45.4021192" lon="7.703102"><ele>474.0</ele><time>2026-04-25T12:18:03.96Z</time></trkpt><trkpt lat="45.4020152" lon="7.7031818"><ele>472.6</ele><time>2026-04-25T12:18:04.96Z</time></trkpt><trkpt lat="45.4019144" lon="7.7032506"><ele>471.2</ele><time>2026-04-25T12:18:06.026Z</time></trkpt><trkpt lat="45.401818" lon="7.7033203"><ele>469.80000000000007</ele><time>2026-04-25T12:18:07.03Z</time></trkpt><trkpt lat="45.4017257" lon="7.703377"><ele>468.40000000000003</ele><time>2026-04-25T12:18:08.031Z</time></trkpt><trkpt lat="45.4016336" lon="7.7034231"><ele>467.0</ele><time>2026-04-25T12:18:08.967Z</time></trkpt><trkpt lat="45.4015441" lon="7.7034358"><ele>467.0</ele><time>2026-04-25T12:18:09.963Z</time></trkpt><trkpt lat="45.401452" lon="7.7034159"><ele>467.00000000000006</ele><time>2026-04-25T12:18:10.963Z</time></trkpt><trkpt lat="45.4013641" lon="7.7033644"><ele>467.00000000000006</ele><time>2026-04-25T12:18:11.965Z</time></trkpt><trkpt lat="45.4012785" lon="7.7032917"><ele>467.0</ele><time>2026-04-25T12:18:12.962Z</time></trkpt><trkpt lat="45.4011971" lon="7.7032176"><ele>467.0</ele><time>2026-04-25T12:18:14.029Z</time></trkpt><trkpt lat="45.4011156" lon="7.7031453"><ele>466.40000000000003</ele><time>2026-04-25T12:18:14.962Z</time></trkpt><trkpt lat="45.4010356" lon="7.7031003"><ele>465.80000000000007</ele><time>2026-04-25T12:18:15.96Z</time></trkpt><trkpt lat="45.400946" lon="7.7030898"><ele>465.2</ele><time>2026-04-25T12:18:16.965Z</time></trkpt><trkpt lat="45.400853" lon="7.7031028"><ele>464.6</ele><time>2026-04-25T12:18:17.96Z</time></trkpt><trkpt lat="45.4007468" lon="7.7031282"><ele>464.0</ele><time>2026-04-25T12:18:18.964Z</time></trkpt><trkpt lat="45.400644" lon="7.7031487"><ele>464.0</ele><time>2026-04-25T12:18:19.962Z</time></trkpt><trkpt lat="45.4005425" lon="7.7031725"><ele>464.0</ele><time>2026-04-25T12:18:20.965Z</time></trkpt><trkpt lat="45.4004492" lon="7.7031973"><ele>464.0</ele><time>2026-04-25T12:18:21.997Z</time></trkpt><trkpt lat="45.4003594" lon="7.7032478"><ele>464.0</ele><time>2026-04-25T12:18:22.973Z</time></trkpt><trkpt lat="45.4002651" lon="7.7033164"><ele>464.0</ele><time>2026-04-25T12:18:23.961Z</time></trkpt><trkpt lat="45.400172" lon="7.7033972"><ele>462.0</ele><time>2026-04-25T12:18:24.957Z</time></trkpt><trkpt lat="45.4000837" lon="7.7034813"><ele>460.0</ele><time>2026-04-25T12:18:25.963Z</time></trkpt><trkpt lat="45.4000032" lon="7.703572"><ele>458.0</ele><time>2026-04-25T12:18:26.964Z</time></trkpt><trkpt lat="45.3999247" lon="7.7036718"><ele>456.0</ele><time>2026-04-25T12:18:27.957Z</time></trkpt><trkpt lat="45.3998485" lon="7.7037725"><ele>454.0</ele><time>2026-04-25T12:18:28.959Z</time></trkpt><trkpt lat="45.39977" lon="7.7038783"><ele>454.0</ele><time>2026-04-25T12:18:29.957Z</time></trkpt><trkpt lat="45.39969" lon="7.7039924"><ele>454.0</ele><time>2026-04-25T12:18:30.961Z</time></trkpt><trkpt lat="45.3996219" lon="7.7041072"><ele>454.0</ele><time>2026-04-25T12:18:31.969Z</time></trkpt><trkpt lat="45.3995556" lon="7.704217"><ele>454.0</ele><time>2026-04-25T12:18:32.963Z</time></trkpt><trkpt lat="45.3994935" lon="7.7043218"><ele>454.0</ele><time>2026-04-25T12:18:33.96Z</time></trkpt><trkpt lat="45.3994365" lon="7.7044286"><ele>451.0</ele><time>2026-04-25T12:18:34.964Z</time></trkpt><trkpt lat="45.3993748" lon="7.7045263"><ele>448.0</ele><time>2026-04-25T12:18:35.954Z</time></trkpt><trkpt lat="45.3993145" lon="7.7046225"><ele>445.0</ele><time>2026-04-25T12:18:36.959Z</time></trkpt><trkpt lat="45.399253" lon="7.7047179"><ele>442.0</ele><time>2026-04-25T12:18:37.963Z</time></trkpt><trkpt lat="45.399193" lon="7.7048176"><ele>439.0</ele><time>2026-04-25T12:18:38.957Z</time></trkpt><trkpt lat="45.399136" lon="7.7049266"><ele>439.00000000000006</ele><time>2026-04-25T12:18:39.96Z</time></trkpt><trkpt lat="45.399084" lon="7.7050312"><ele>439.0</ele><time>2026-04-25T12:18:40.96Z</time></trkpt><trkpt lat="45.3990428" lon="7.7051397"><ele>439.0</ele><time>2026-04-25T12:18:41.956Z</time></trkpt><trkpt lat="45.3990149" lon="7.7052479"><ele>439.0</ele><time>2026-04-25T12:18:42.956Z</time></trkpt><trkpt lat="45.3989908" lon="7.7053512"><ele>439.00000000000006</ele><time>2026-04-25T12:18:43.959Z</time></trkpt><trkpt lat="45.3989699" lon="7.7054403"><ele>439.0</ele><time>2026-04-25T12:18:44.97Z</time></trkpt><trkpt lat="45.3989141" lon="7.7055755"><ele>439.33333333333337</ele><time>2026-04-25T12:18:46.962Z</time></trkpt><trkpt lat="45.3988704" lon="7.7056521"><ele>439.6666666666667</ele><time>2026-04-25T12:18:48.962Z</time></trkpt><trkpt lat="45.3989238" lon="7.7057622"><ele>440.0</ele><time>2026-04-25T12:18:51.962Z</time></trkpt><trkpt lat="45.3990336" lon="7.7058309"><ele>440.33333333333337</ele><time>2026-04-25T12:18:53.96Z</time></trkpt><trkpt lat="45.3990922" lon="7.7058852"><ele>440.6666666666667</ele><time>2026-04-25T12:18:54.947Z</time></trkpt><trkpt lat="45.3991508" lon="7.7059329"><ele>441.0</ele><time>2026-04-25T12:18:55.96Z</time></trkpt><trkpt lat="45.3992108" lon="7.7059669"><ele>441.0</ele><time>2026-04-25T12:18:56.96Z</time></trkpt><trkpt lat="45.3993366" lon="7.7060163"><ele>441.0</ele><time>2026-04-25T12:18:58.962Z</time></trkpt><trkpt lat="45.3994049" lon="7.7060386"><ele>441.0</ele><time>2026-04-25T12:18:59.953Z</time></trkpt><trkpt lat="45.3994683" lon="7.7060644"><ele>441.0</ele><time>2026-04-25T12:19:00.96Z</time></trkpt><trkpt lat="45.3995297" lon="7.7061044"><ele>441.0</ele><time>2026-04-25T12:19:01.955Z</time></trkpt><trkpt lat="45.3995862" lon="7.7061455"><ele>441.0</ele><time>2026-04-25T12:19:02.964Z</time></trkpt><trkpt lat="45.3996874" lon="7.7062302"><ele>439.6666666666667</ele><time>2026-04-25T12:19:04.961Z</time></trkpt><trkpt lat="45.3997776" lon="7.7062774"><ele>438.33333333333337</ele><time>2026-04-25T12:19:06.963Z</time></trkpt><trkpt lat="45.3998667" lon="7.7062596"><ele>437.0</ele><time>2026-04-25T12:19:08.948Z</time></trkpt><trkpt lat="45.3999432" lon="7.7062126"><ele>435.6666666666667</ele><time>2026-04-25T12:19:10.966Z</time></trkpt><trkpt lat="45.3999928" lon="7.7062686"><ele>434.33333333333337</ele><time>2026-04-25T12:19:13.956Z</time></trkpt><trkpt lat="45.4000043" lon="7.706361"><ele>433.0</ele><time>2026-04-25T12:19:15.958Z</time></trkpt><trkpt lat="45.4000762" lon="7.7063309"><ele>433.00000000000006</ele><time>2026-04-25T12:19:18.964Z</time></trkpt><trkpt lat="45.4001129" lon="7.7062426"><ele>433.0</ele><time>2026-04-25T12:19:19.952Z</time></trkpt><trkpt lat="45.4001644" lon="7.7061635"><ele>433.0</ele><time>2026-04-25T12:19:21.955Z</time></trkpt><trkpt lat="45.4002722" lon="7.7062101"><ele>433.0</ele><time>2026-04-25T12:19:24.965Z</time></trkpt><trkpt lat="45.4003438" lon="7.7062792"><ele>433.00000000000006</ele><time>2026-04-25T12:19:25.96Z</time></trkpt><trkpt lat="45.4004124" lon="7.7063607"><ele>433.0</ele><time>2026-04-25T12:19:26.957Z</time></trkpt><trkpt lat="45.4004663" lon="7.7064559"><ele>431.59999999999997</ele><time>2026-04-25T12:19:27.96Z</time></trkpt><trkpt lat="45.4005284" lon="7.7065219"><ele>430.19999999999993</ele><time>2026-04-25T12:19:28.956Z</time></trkpt><trkpt lat="45.4006246" lon="7.7065556"><ele>428.8</ele><time>2026-04-25T12:19:30.964Z</time></trkpt><trkpt lat="45.4007176" lon="7.7064738"><ele>427.4</ele><time>2026-04-25T12:19:32.963Z</time></trkpt><trkpt lat="45.4008012" lon="7.7063716"><ele>426.0</ele><time>2026-04-25T12:19:34.96Z</time></trkpt><trkpt lat="45.4008615" lon="7.70634"><ele>426.0</ele><time>2026-04-25T12:19:36.966Z</time></trkpt><trkpt lat="45.400956" lon="7.7063868"><ele>426.0</ele><time>2026-04-25T12:19:39.962Z</time></trkpt><trkpt lat="45.4009992" lon="7.7064815"><ele>426.0</ele><time>2026-04-25T12:19:40.959Z</time></trkpt><trkpt lat="45.4010055" lon="7.7065943"><ele>426.0</ele><time>2026-04-25T12:19:43.968Z</time></trkpt><trkpt lat="45.4009162" lon="7.706713"><ele>426.0</ele><time>2026-04-25T12:19:45.958Z</time></trkpt><trkpt lat="45.4008601" lon="7.706776"><ele>426.0</ele><time>2026-04-25T12:19:46.952Z</time></trkpt><trkpt lat="45.4008054" lon="7.7068264"><ele>426.0</ele><time>2026-04-25T12:19:47.962Z</time></trkpt><trkpt lat="45.4007291" lon="7.7069045"><ele>426.0</ele><time>2026-04-25T12:19:49.962Z</time></trkpt><trkpt lat="45.4006848" lon="7.7070785"><ele>426.0</ele><time>2026-04-25T12:19:51.95Z</time></trkpt><trkpt lat="45.4006595" lon="7.707214"><ele>426.0</ele><time>2026-04-25T12:19:52.961Z</time></trkpt><trkpt lat="45.4006415" lon="7.7073246"><ele>426.20000000000005</ele><time>2026-04-25T12:19:53.961Z</time></trkpt><trkpt lat="45.4006029" lon="7.7074071"><ele>426.40000000000003</ele><time>2026-04-25T12:19:54.969Z</time></trkpt><trkpt lat="45.4005319" lon="7.707532"><ele>426.6</ele><time>2026-04-25T12:19:56.957Z</time></trkpt><trkpt lat="45.4004663" lon="7.7076232"><ele>426.8</ele><time>2026-04-25T12:19:58.953Z</time></trkpt><trkpt lat="45.4004203" lon="7.7077382"><ele>427.0</ele><time>2026-04-25T12:20:00.964Z</time></trkpt><trkpt lat="45.4003871" lon="7.7078858"><ele>426.20000000000005</ele><time>2026-04-25T12:20:02.957Z</time></trkpt><trkpt lat="45.4003787" lon="7.7079935"><ele>425.40000000000003</ele><time>2026-04-25T12:20:03.954Z</time></trkpt><trkpt lat="45.4003704" lon="7.7080989"><ele>424.6</ele><time>2026-04-25T12:20:04.964Z</time></trkpt><trkpt lat="45.4003727" lon="7.7081989"><ele>423.79999999999995</ele><time>2026-04-25T12:20:05.955Z</time></trkpt><trkpt lat="45.400395" lon="7.7083582"><ele>423.0</ele><time>2026-04-25T12:20:07.959Z</time></trkpt><trkpt lat="45.4004733" lon="7.7084986"><ele>422.4</ele><time>2026-04-25T12:20:09.96Z</time></trkpt><trkpt lat="45.4005589" lon="7.7086125"><ele>421.79999999999995</ele><time>2026-04-25T12:20:11.96Z</time></trkpt><trkpt lat="45.4005982" lon="7.708697"><ele>421.2</ele><time>2026-04-25T12:20:13.956Z</time></trkpt><trkpt lat="45.4005482" lon="7.7087621"><ele>420.6</ele><time>2026-04-25T12:20:15.954Z</time></trkpt><trkpt lat="45.4004689" lon="7.708855"><ele>420.0</ele><time>2026-04-25T12:20:17.943Z</time></trkpt><trkpt lat="45.4003933" lon="7.7089573"><ele>420.0</ele><time>2026-04-25T12:20:19.953Z</time></trkpt><trkpt lat="45.4003953" lon="7.7090636"><ele>420.0</ele><time>2026-04-25T12:20:20.952Z</time></trkpt><trkpt lat="45.4004186" lon="7.7091924"><ele>420.0</ele><time>2026-04-25T12:20:21.948Z</time></trkpt><trkpt lat="45.400444" lon="7.7093167"><ele>420.0</ele><time>2026-04-25T12:20:22.943Z</time></trkpt><trkpt lat="45.4004709" lon="7.7094369"><ele>420.0</ele><time>2026-04-25T12:20:23.946Z</time></trkpt><trkpt lat="45.4005056" lon="7.7095393"><ele>420.0</ele><time>2026-04-25T12:20:24.959Z</time></trkpt><trkpt lat="45.4005355" lon="7.7096204"><ele>417.8</ele><time>2026-04-25T12:20:25.965Z</time></trkpt><trkpt lat="45.4005769" lon="7.7097439"><ele>415.6</ele><time>2026-04-25T12:20:27.962Z</time></trkpt><trkpt lat="45.4006252" lon="7.7098326"><ele>413.4</ele><time>2026-04-25T12:20:29.956Z</time></trkpt><trkpt lat="45.4007754" lon="7.7098563"><ele>411.2</ele><time>2026-04-25T12:20:31.956Z</time></trkpt><trkpt lat="45.4008734" lon="7.7098658"><ele>409.0</ele><time>2026-04-25T12:20:32.949Z</time></trkpt><trkpt lat="45.4009562" lon="7.7098764"><ele>409.00000000000006</ele><time>2026-04-25T12:20:33.959Z</time></trkpt><trkpt lat="45.4010203" lon="7.7098821"><ele>409.0</ele><time>2026-04-25T12:20:34.957Z</time></trkpt><trkpt lat="45.401127" lon="7.7098641"><ele>409.0</ele><time>2026-04-25T12:20:36.954Z</time></trkpt><trkpt lat="45.4012026" lon="7.7098356"><ele>409.0</ele><time>2026-04-25T12:20:39.959Z</time></trkpt><trkpt lat="45.4012777" lon="7.7098698"><ele>409.00000000000006</ele><time>2026-04-25T12:20:43.949Z</time></trkpt><trkpt lat="45.4013439" lon="7.7099153"><ele>409.0</ele><time>2026-04-25T12:20:45.961Z</time></trkpt><trkpt lat="45.4014432" lon="7.7099712"><ele>410.00000000000006</ele><time>2026-04-25T12:20:47.959Z</time></trkpt><trkpt lat="45.4015129" lon="7.7100013"><ele>411.0</ele><time>2026-04-25T12:20:49.955Z</time></trkpt><trkpt lat="45.4015549" lon="7.7101008"><ele>412.0</ele><time>2026-04-25T12:20:52.958Z</time></trkpt><trkpt lat="45.4015403" lon="7.7101895"><ele>413.0</ele><time>2026-04-25T12:20:54.958Z</time></trkpt><trkpt lat="45.4014748" lon="7.7103285"><ele>414.00000000000006</ele><time>2026-04-25T12:20:56.952Z</time></trkpt><trkpt lat="45.4014106" lon="7.7104019"><ele>415.0</ele><time>2026-04-25T12:20:58.955Z</time></trkpt><trkpt lat="45.4013361" lon="7.7104566"><ele>414.0</ele><time>2026-04-25T12:21:00.96Z</time></trkpt><trkpt lat="45.4012542" lon="7.7105231"><ele>413.0</ele><time>2026-04-25T12:21:02.953Z</time></trkpt><trkpt lat="45.4011622" lon="7.7106343"><ele>412.0</ele><time>2026-04-25T12:21:04.958Z</time></trkpt><trkpt lat="45.4010723" lon="7.7107799"><ele>411.0</ele><time>2026-04-25T12:21:06.959Z</time></trkpt><trkpt lat="45.4010091" lon="7.7108643"><ele>410.0</ele><time>2026-04-25T12:21:07.959Z</time></trkpt><trkpt lat="45.4009659" lon="7.7109555"><ele>409.99999999999994</ele><time>2026-04-25T12:21:08.958Z</time></trkpt><trkpt lat="45.4009184" lon="7.7110405"><ele>410.0</ele><time>2026-04-25T12:21:09.961Z</time></trkpt><trkpt lat="45.4008671" lon="7.7111159"><ele>410.0</ele><time>2026-04-25T12:21:10.957Z</time></trkpt><trkpt lat="45.4008142" lon="7.7112016"><ele>410.0</ele><time>2026-04-25T12:21:11.961Z</time></trkpt><trkpt lat="45.4007746" lon="7.7112954"><ele>409.99999999999994</ele><time>2026-04-25T12:21:12.958Z</time></trkpt><trkpt lat="45.4007243" lon="7.7113883"><ele>410.0</ele><time>2026-04-25T12:21:13.965Z</time></trkpt><trkpt lat="45.4006702" lon="7.7114787"><ele>411.49999999999994</ele><time>2026-04-25T12:21:14.956Z</time></trkpt><trkpt lat="45.4006178" lon="7.711559"><ele>413.0</ele><time>2026-04-25T12:21:15.962Z</time></trkpt><trkpt lat="45.4005605" lon="7.71163"><ele>414.5</ele><time>2026-04-25T12:21:16.964Z</time></trkpt><trkpt lat="45.4005129" lon="7.7116891"><ele>416.0</ele><time>2026-04-25T12:21:17.953Z</time></trkpt><trkpt lat="45.4004438" lon="7.7118248"><ele>417.49999999999994</ele><time>2026-04-25T12:21:19.955Z</time></trkpt><trkpt lat="45.4004033" lon="7.7119623"><ele>419.0</ele><time>2026-04-25T12:21:21.952Z</time></trkpt><trkpt lat="45.4003412" lon="7.7120909"><ele>415.2</ele><time>2026-04-25T12:21:23.958Z</time></trkpt><trkpt lat="45.4002787" lon="7.7121092"><ele>411.4</ele><time>2026-04-25T12:21:25.952Z</time></trkpt><trkpt lat="45.4001817" lon="7.7120934"><ele>407.6</ele><time>2026-04-25T12:21:27.953Z</time></trkpt><trkpt lat="45.4000658" lon="7.7121086"><ele>403.8</ele><time>2026-04-25T12:21:29.965Z</time></trkpt><trkpt lat="45.399951" lon="7.7120809"><ele>400.0</ele><time>2026-04-25T12:21:31.954Z</time></trkpt><trkpt lat="45.3998393" lon="7.7120105"><ele>400.00000000000006</ele><time>2026-04-25T12:21:33.964Z</time></trkpt><trkpt lat="45.3997741" lon="7.7119697"><ele>400.0</ele><time>2026-04-25T12:21:34.95Z</time></trkpt><trkpt lat="45.3997139" lon="7.7119211"><ele>400.0</ele><time>2026-04-25T12:21:35.956Z</time></trkpt><trkpt lat="45.3996561" lon="7.7118751"><ele>400.0</ele><time>2026-04-25T12:21:36.95Z</time></trkpt><trkpt lat="45.3995951" lon="7.7118188"><ele>400.0</ele><time>2026-04-25T12:21:37.963Z</time></trkpt><trkpt lat="45.3995395" lon="7.7117699"><ele>400.00000000000006</ele><time>2026-04-25T12:21:38.963Z</time></trkpt><trkpt lat="45.3994806" lon="7.7117175"><ele>400.0</ele><time>2026-04-25T12:21:39.956Z</time></trkpt><trkpt lat="45.3994257" lon="7.71166"><ele>401.00000000000006</ele><time>2026-04-25T12:21:40.963Z</time></trkpt><trkpt lat="45.3993544" lon="7.711561"><ele>402.0</ele><time>2026-04-25T12:21:42.958Z</time></trkpt><trkpt lat="45.3992953" lon="7.711602"><ele>403.0</ele><time>2026-04-25T12:21:47.958Z</time></trkpt><trkpt lat="45.3992928" lon="7.7117139"><ele>404.0</ele><time>2026-04-25T12:21:49.959Z</time></trkpt><trkpt lat="45.3993059" lon="7.7118078"><ele>405.00000000000006</ele><time>2026-04-25T12:21:50.953Z</time></trkpt><trkpt lat="45.3993398" lon="7.7119226"><ele>406.0</ele><time>2026-04-25T12:21:52.958Z</time></trkpt><trkpt lat="45.3993142" lon="7.71206"><ele>403.20000000000005</ele><time>2026-04-25T12:21:54.961Z</time></trkpt><trkpt lat="45.3992951" lon="7.7121677"><ele>400.40000000000003</ele><time>2026-04-25T12:21:55.958Z</time></trkpt><trkpt lat="45.3992719" lon="7.712294"><ele>397.6</ele><time>2026-04-25T12:21:56.963Z</time></trkpt><trkpt lat="45.3992317" lon="7.71238"><ele>394.8</ele><time>2026-04-25T12:21:57.952Z</time></trkpt><trkpt lat="45.3991622" lon="7.712524"><ele>392.0</ele><time>2026-04-25T12:21:59.961Z</time></trkpt><trkpt lat="45.3990734" lon="7.7126515"><ele>392.0</ele><time>2026-04-25T12:22:01.953Z</time></trkpt><trkpt lat="45.3990192" lon="7.7127233"><ele>392.0</ele><time>2026-04-25T12:22:02.957Z</time></trkpt><trkpt lat="45.3989223" lon="7.7128409"><ele>392.0</ele><time>2026-04-25T12:22:04.957Z</time></trkpt><trkpt lat="45.3988506" lon="7.7129602"><ele>392.0</ele><time>2026-04-25T12:22:06.958Z</time></trkpt><trkpt lat="45.3987875" lon="7.7130674"><ele>392.0</ele><time>2026-04-25T12:22:08.959Z</time></trkpt><trkpt lat="45.3987452" lon="7.7131796"><ele>392.40000000000003</ele><time>2026-04-25T12:22:10.96Z</time></trkpt><trkpt lat="45.3987109" lon="7.713323"><ele>392.8</ele><time>2026-04-25T12:22:12.957Z</time></trkpt><trkpt lat="45.3986561" lon="7.7134471"><ele>393.2</ele><time>2026-04-25T12:22:14.96Z</time></trkpt><trkpt lat="45.3985944" lon="7.7135679"><ele>393.6</ele><time>2026-04-25T12:22:17.018Z</time></trkpt><trkpt lat="45.3985555" lon="7.7136657"><ele>394.0</ele><time>2026-04-25T12:22:19.032Z</time></trkpt><trkpt lat="45.3985634" lon="7.7137618"><ele>394.0</ele><time>2026-04-25T12:22:20.948Z</time></trkpt><trkpt lat="45.398572" lon="7.7138722"><ele>394.0</ele><time>2026-04-25T12:22:22.945Z</time></trkpt><trkpt lat="45.3985768" lon="7.713988"><ele>394.0</ele><time>2026-04-25T12:22:24.958Z</time></trkpt><trkpt lat="45.3985646" lon="7.7141691"><ele>394.0</ele><time>2026-04-25T12:22:26.955Z</time></trkpt><trkpt lat="45.3985305" lon="7.7143035"><ele>394.0</ele><time>2026-04-25T12:22:27.953Z</time></trkpt><trkpt lat="45.3985046" lon="7.7144462"><ele>392.6</ele><time>2026-04-25T12:22:28.947Z</time></trkpt><trkpt lat="45.3984645" lon="7.7145879"><ele>391.2</ele><time>2026-04-25T12:22:29.95Z</time></trkpt><trkpt lat="45.3984165" lon="7.7147204"><ele>389.8</ele><time>2026-04-25T12:22:30.956Z</time></trkpt><trkpt lat="45.398376" lon="7.7148458"><ele>388.40000000000003</ele><time>2026-04-25T12:22:31.938Z</time></trkpt><trkpt lat="45.3983371" lon="7.7149566"><ele>387.0</ele><time>2026-04-25T12:22:33.016Z</time></trkpt><trkpt lat="45.3982987" lon="7.7150444"><ele>387.0</ele><time>2026-04-25T12:22:34.004Z</time></trkpt><trkpt lat="45.3982555" lon="7.7151824"><ele>387.0</ele><time>2026-04-25T12:22:35.954Z</time></trkpt><trkpt lat="45.3982066" lon="7.7152967"><ele>387.0</ele><time>2026-04-25T12:22:37.948Z</time></trkpt><trkpt lat="45.3981061" lon="7.7153853"><ele>387.0</ele><time>2026-04-25T12:22:39.948Z</time></trkpt><trkpt lat="45.3980114" lon="7.7154736"><ele>387.0</ele><time>2026-04-25T12:22:42.022Z</time></trkpt><trkpt lat="45.3979238" lon="7.7156075"><ele>386.8333333333333</ele><time>2026-04-25T12:22:44.015Z</time></trkpt><trkpt lat="45.3978778" lon="7.715684"><ele>386.66666666666663</ele><time>2026-04-25T12:22:44.95Z</time></trkpt><trkpt lat="45.3978289" lon="7.7157766"><ele>386.5</ele><time>2026-04-25T12:22:45.947Z</time></trkpt><trkpt lat="45.3977861" lon="7.7158594"><ele>386.3333333333333</ele><time>2026-04-25T12:22:46.947Z</time></trkpt><trkpt lat="45.3977421" lon="7.7159538"><ele>386.16666666666663</ele><time>2026-04-25T12:22:48.032Z</time></trkpt><trkpt lat="45.3977014" lon="7.7160574"><ele>386.0</ele><time>2026-04-25T12:22:49.033Z</time></trkpt><trkpt lat="45.3976584" lon="7.71615"><ele>385.8333333333333</ele><time>2026-04-25T12:22:49.944Z</time></trkpt><trkpt lat="45.3976214" lon="7.7162322"><ele>385.66666666666663</ele><time>2026-04-25T12:22:50.951Z</time></trkpt><trkpt lat="45.3975427" lon="7.7163772"><ele>385.5</ele><time>2026-04-25T12:22:53.039Z</time></trkpt><trkpt lat="45.3975027" lon="7.7164495"><ele>385.33333333333337</ele><time>2026-04-25T12:22:54.032Z</time></trkpt><trkpt lat="45.3974714" lon="7.7165277"><ele>385.1666666666667</ele><time>2026-04-25T12:22:54.949Z</time></trkpt><trkpt lat="45.3974097" lon="7.7166671"><ele>385.0</ele><time>2026-04-25T12:22:57.028Z</time></trkpt><trkpt lat="45.3973569" lon="7.7168173"><ele>385.6</ele><time>2026-04-25T12:22:58.964Z</time></trkpt><trkpt lat="45.3973353" lon="7.7169759"><ele>386.2</ele><time>2026-04-25T12:23:00.969Z</time></trkpt><trkpt lat="45.3973318" lon="7.717071"><ele>386.79999999999995</ele><time>2026-04-25T12:23:02.019Z</time></trkpt><trkpt lat="45.3973387" lon="7.7172514"><ele>387.4</ele><time>2026-04-25T12:23:04.045Z</time></trkpt><trkpt lat="45.3973446" lon="7.717407"><ele>388.0</ele><time>2026-04-25T12:23:05.957Z</time></trkpt><trkpt lat="45.3973266" lon="7.7175442"><ele>388.0</ele><time>2026-04-25T12:23:07.953Z</time></trkpt><trkpt lat="45.397285" lon="7.7176644"><ele>388.0</ele><time>2026-04-25T12:23:09.963Z</time></trkpt><trkpt lat="45.397242" lon="7.7178212"><ele>388.0</ele><time>2026-04-25T12:23:12.029Z</time></trkpt><trkpt lat="45.397204" lon="7.7179619"><ele>388.0</ele><time>2026-04-25T12:23:13.961Z</time></trkpt><trkpt lat="45.3971785" lon="7.7181134"><ele>388.0</ele><time>2026-04-25T12:23:15.967Z</time></trkpt><trkpt lat="45.3971536" lon="7.7182376"><ele>387.59999999999997</ele><time>2026-04-25T12:23:17.954Z</time></trkpt><trkpt lat="45.3971485" lon="7.7184186"><ele>387.2</ele><time>2026-04-25T12:23:19.964Z</time></trkpt><trkpt lat="45.3971852" lon="7.7185332"><ele>386.8</ele><time>2026-04-25T12:23:20.958Z</time></trkpt><trkpt lat="45.3972301" lon="7.7186623"><ele>386.4</ele><time>2026-04-25T12:23:21.971Z</time></trkpt><trkpt lat="45.3972693" lon="7.7187825"><ele>386.0</ele><time>2026-04-25T12:23:22.96Z</time></trkpt><trkpt lat="45.3973059" lon="7.7188821"><ele>386.0</ele><time>2026-04-25T12:23:23.96Z</time></trkpt><trkpt lat="45.3973364" lon="7.7189826"><ele>386.0</ele><time>2026-04-25T12:23:24.958Z</time></trkpt><trkpt lat="45.3973623" lon="7.7191421"><ele>386.0</ele><time>2026-04-25T12:23:26.959Z</time></trkpt><trkpt lat="45.397369" lon="7.7192707"><ele>386.0</ele><time>2026-04-25T12:23:29.025Z</time></trkpt><trkpt lat="45.3973501" lon="7.7193974"><ele>386.0</ele><time>2026-04-25T12:23:30.947Z</time></trkpt><trkpt lat="45.397335" lon="7.7195441"><ele>386.0</ele><time>2026-04-25T12:23:33.031Z</time></trkpt><trkpt lat="45.3973176" lon="7.7197009"><ele>386.0</ele><time>2026-04-25T12:23:34.961Z</time></trkpt><trkpt lat="45.3972972" lon="7.7197964"><ele>386.0</ele><time>2026-04-25T12:23:35.954Z</time></trkpt><trkpt lat="45.3972583" lon="7.7199411"><ele>386.0</ele><time>2026-04-25T12:23:37.955Z</time></trkpt><trkpt lat="45.3972338" lon="7.7200727"><ele>386.0</ele><time>2026-04-25T12:23:39.954Z</time></trkpt><trkpt lat="45.3972143" lon="7.7201915"><ele>386.6</ele><time>2026-04-25T12:23:42.02Z</time></trkpt><trkpt lat="45.397187" lon="7.7202978"><ele>387.20000000000005</ele><time>2026-04-25T12:23:43.959Z</time></trkpt><trkpt lat="45.3971583" lon="7.7204299"><ele>387.79999999999995</ele><time>2026-04-25T12:23:45.953Z</time></trkpt><trkpt lat="45.397116" lon="7.7205525"><ele>388.4</ele><time>2026-04-25T12:23:48.036Z</time></trkpt><trkpt lat="45.397072" lon="7.7206718"><ele>389.0</ele><time>2026-04-25T12:23:49.943Z</time></trkpt><trkpt lat="45.3970181" lon="7.7208029"><ele>385.2</ele><time>2026-04-25T12:23:51.958Z</time></trkpt><trkpt lat="45.3969979" lon="7.7209251"><ele>381.4</ele><time>2026-04-25T12:23:53.962Z</time></trkpt><trkpt lat="45.3969859" lon="7.7210909"><ele>377.6</ele><time>2026-04-25T12:23:55.956Z</time></trkpt><trkpt lat="45.3969508" lon="7.7212562"><ele>373.8</ele><time>2026-04-25T12:23:57.963Z</time></trkpt><trkpt lat="45.3969147" lon="7.7213401"><ele>370.0</ele><time>2026-04-25T12:23:58.938Z</time></trkpt><trkpt lat="45.3968829" lon="7.7214317"><ele>369.57142857142856</ele><time>2026-04-25T12:23:59.966Z</time></trkpt><trkpt lat="45.3968517" lon="7.7215202"><ele>369.1428571428571</ele><time>2026-04-25T12:24:00.974Z</time></trkpt><trkpt lat="45.3968203" lon="7.7216087"><ele>368.71428571428567</ele><time>2026-04-25T12:24:01.95Z</time></trkpt><trkpt lat="45.3967907" lon="7.7217068"><ele>368.2857142857143</ele><time>2026-04-25T12:24:02.957Z</time></trkpt><trkpt lat="45.3967535" lon="7.721792"><ele>367.8571428571429</ele><time>2026-04-25T12:24:03.956Z</time></trkpt><trkpt lat="45.3967085" lon="7.7218664"><ele>367.4285714285714</ele><time>2026-04-25T12:24:04.959Z</time></trkpt><trkpt lat="45.3966563" lon="7.7219292"><ele>367.0</ele><time>2026-04-25T12:24:05.958Z</time></trkpt><trkpt lat="45.3965921" lon="7.7219758"><ele>365.0</ele><time>2026-04-25T12:24:06.954Z</time></trkpt><trkpt lat="45.3965231" lon="7.7220073"><ele>363.0</ele><time>2026-04-25T12:24:07.957Z</time></trkpt><trkpt lat="45.3964431" lon="7.7220481"><ele>361.0</ele><time>2026-04-25T12:24:09.034Z</time></trkpt><trkpt lat="45.3963731" lon="7.7220942"><ele>359.0</ele><time>2026-04-25T12:24:09.962Z</time></trkpt><trkpt lat="45.3963069" lon="7.7221271"><ele>357.0</ele><time>2026-04-25T12:24:10.956Z</time></trkpt><trkpt lat="45.3962403" lon="7.7221625"><ele>355.0</ele><time>2026-04-25T12:24:11.989Z</time></trkpt><trkpt lat="45.3961228" lon="7.722244"><ele>354.2</ele><time>2026-04-25T12:24:13.953Z</time></trkpt><trkpt lat="45.396017" lon="7.7223415"><ele>353.4</ele><time>2026-04-25T12:24:15.952Z</time></trkpt><trkpt lat="45.3959118" lon="7.7224038"><ele>352.6</ele><time>2026-04-25T12:24:17.953Z</time></trkpt><trkpt lat="45.3958273" lon="7.7224284"><ele>351.8</ele><time>2026-04-25T12:24:19.958Z</time></trkpt><trkpt lat="45.3957479" lon="7.7224804"><ele>351.0</ele><time>2026-04-25T12:24:21.959Z</time></trkpt><trkpt lat="45.3956959" lon="7.7225557"><ele>351.0</ele><time>2026-04-25T12:24:22.956Z</time></trkpt><trkpt lat="45.3956264" lon="7.7226549"><ele>351.0</ele><time>2026-04-25T12:24:24.036Z</time></trkpt><trkpt lat="45.3955568" lon="7.7227529"><ele>351.0</ele><time>2026-04-25T12:24:24.96Z</time></trkpt><trkpt lat="45.3954957" lon="7.7228436"><ele>351.0</ele><time>2026-04-25T12:24:25.967Z</time></trkpt><trkpt lat="45.3954265" lon="7.7229362"><ele>351.0</ele><time>2026-04-25T12:24:26.957Z</time></trkpt><trkpt lat="45.3953529" lon="7.7230231"><ele>349.6</ele><time>2026-04-25T12:24:27.958Z</time></trkpt><trkpt lat="45.3952804" lon="7.7231118"><ele>348.20000000000005</ele><time>2026-04-25T12:24:28.965Z</time></trkpt><trkpt lat="45.3952092" lon="7.7232049"><ele>346.79999999999995</ele><time>2026-04-25T12:24:29.966Z</time></trkpt><trkpt lat="45.3951386" lon="7.7232963"><ele>345.4</ele><time>2026-04-25T12:24:30.96Z</time></trkpt><trkpt lat="45.3950682" lon="7.7233766"><ele>344.0</ele><time>2026-04-25T12:24:31.988Z</time></trkpt><trkpt lat="45.3950011" lon="7.7234602"><ele>344.0</ele><time>2026-04-25T12:24:32.969Z</time></trkpt><trkpt lat="45.39494" lon="7.7235282"><ele>344.0</ele><time>2026-04-25T12:24:33.96Z</time></trkpt><trkpt lat="45.3948838" lon="7.7235839"><ele>344.0</ele><time>2026-04-25T12:24:34.964Z</time></trkpt><trkpt lat="45.3947848" lon="7.7236493"><ele>344.0</ele><time>2026-04-25T12:24:36.959Z</time></trkpt><trkpt lat="45.3946906" lon="7.7236018"><ele>344.0</ele><time>2026-04-25T12:24:38.96Z</time></trkpt><trkpt lat="45.3946296" lon="7.7235392"><ele>344.0</ele><time>2026-04-25T12:24:39.953Z</time></trkpt><trkpt lat="45.3945588" lon="7.7234594"><ele>344.0</ele><time>2026-04-25T12:24:40.97Z</time></trkpt><trkpt lat="45.3944791" lon="7.7234009"><ele>344.0</ele><time>2026-04-25T12:24:41.964Z</time></trkpt><trkpt lat="45.3944123" lon="7.7233639"><ele>344.0</ele><time>2026-04-25T12:24:42.96Z</time></trkpt><trkpt lat="45.3943146" lon="7.7233559"><ele>344.0</ele><time>2026-04-25T12:24:44.955Z</time></trkpt><trkpt lat="45.3942614" lon="7.7234338"><ele>344.0</ele><time>2026-04-25T12:24:46.957Z</time></trkpt><trkpt lat="45.3942395" lon="7.7235267"><ele>344.0</ele><time>2026-04-25T12:24:49.03Z</time></trkpt><trkpt lat="45.3942945" lon="7.7236395"><ele>344.0</ele><time>2026-04-25T12:24:51.979Z</time></trkpt><trkpt lat="45.3943635" lon="7.7236633"><ele>344.0</ele><time>2026-04-25T12:24:52.947Z</time></trkpt><trkpt lat="45.3944363" lon="7.7236927"><ele>344.0</ele><time>2026-04-25T12:24:53.951Z</time></trkpt><trkpt lat="45.3945213" lon="7.7237757"><ele>344.0</ele><time>2026-04-25T12:24:54.951Z</time></trkpt><trkpt lat="45.3946161" lon="7.7238963"><ele>344.0</ele><time>2026-04-25T12:24:55.954Z</time></trkpt><trkpt lat="45.3947035" lon="7.724026"><ele>344.25</ele><time>2026-04-25T12:24:56.982Z</time></trkpt><trkpt lat="45.3947892" lon="7.7241567"><ele>344.5</ele><time>2026-04-25T12:24:57.95Z</time></trkpt><trkpt lat="45.3948815" lon="7.7242876"><ele>344.75</ele><time>2026-04-25T12:24:58.991Z</time></trkpt><trkpt lat="45.3949724" lon="7.7243953"><ele>345.0</ele><time>2026-04-25T12:24:59.953Z</time></trkpt><trkpt lat="45.3950762" lon="7.7244819"><ele>345.5</ele><time>2026-04-25T12:25:00.953Z</time></trkpt><trkpt lat="45.3951831" lon="7.7245467"><ele>346.0</ele><time>2026-04-25T12:25:01.95Z</time></trkpt><trkpt lat="45.3953028" lon="7.7246022"><ele>346.5</ele><time>2026-04-25T12:25:03.016Z</time></trkpt><trkpt lat="45.3954251" lon="7.724643"><ele>347.0</ele><time>2026-04-25T12:25:04.033Z</time></trkpt><trkpt lat="45.395548" lon="7.7246757"><ele>347.0</ele><time>2026-04-25T12:25:04.969Z</time></trkpt><trkpt lat="45.3956827" lon="7.7247185"><ele>347.0</ele><time>2026-04-25T12:25:05.962Z</time></trkpt><trkpt lat="45.3958164" lon="7.7247536"><ele>347.0</ele><time>2026-04-25T12:25:06.977Z</time></trkpt><trkpt lat="45.395961" lon="7.7247896"><ele>347.0</ele><time>2026-04-25T12:25:07.968Z</time></trkpt><trkpt lat="45.3961038" lon="7.7248322"><ele>347.0</ele><time>2026-04-25T12:25:09.028Z</time></trkpt><trkpt lat="45.3962393" lon="7.7248703"><ele>347.0</ele><time>2026-04-25T12:25:09.952Z</time></trkpt><trkpt lat="45.396375" lon="7.7249066"><ele>347.0</ele><time>2026-04-25T12:25:10.958Z</time></trkpt><trkpt lat="45.3965144" lon="7.7249433"><ele>347.0</ele><time>2026-04-25T12:25:11.965Z</time></trkpt><trkpt lat="45.3966535" lon="7.7249825"><ele>347.25</ele><time>2026-04-25T12:25:12.948Z</time></trkpt><trkpt lat="45.3967941" lon="7.7250156"><ele>347.5</ele><time>2026-04-25T12:25:14.033Z</time></trkpt><trkpt lat="45.3969363" lon="7.7250473"><ele>347.75</ele><time>2026-04-25T12:25:14.958Z</time></trkpt><trkpt lat="45.3970804" lon="7.7250721"><ele>348.0</ele><time>2026-04-25T12:25:15.953Z</time></trkpt><trkpt lat="45.3972243" lon="7.7250917"><ele>348.0</ele><time>2026-04-25T12:25:16.968Z</time></trkpt><trkpt lat="45.3973726" lon="7.7251068"><ele>348.0</ele><time>2026-04-25T12:25:17.951Z</time></trkpt><trkpt lat="45.3975198" lon="7.7251167"><ele>348.0</ele><time>2026-04-25T12:25:19.025Z</time></trkpt><trkpt lat="45.3976625" lon="7.725124"><ele>348.0</ele><time>2026-04-25T12:25:19.964Z</time></trkpt><trkpt lat="45.3977974" lon="7.7251267"><ele>348.0</ele><time>2026-04-25T12:25:20.966Z</time></trkpt><trkpt lat="45.3979351" lon="7.725133"><ele>348.0</ele><time>2026-04-25T12:25:21.994Z</time></trkpt><trkpt lat="45.3980791" lon="7.7251361"><ele>348.0</ele><time>2026-04-25T12:25:23.03Z</time></trkpt><trkpt lat="45.3982265" lon="7.7251417"><ele>348.0</ele><time>2026-04-25T12:25:24.023Z</time></trkpt><trkpt lat="45.3983665" lon="7.7251498"><ele>348.5</ele><time>2026-04-25T12:25:24.952Z</time></trkpt><trkpt lat="45.3985033" lon="7.7251536"><ele>349.0</ele><time>2026-04-25T12:25:25.966Z</time></trkpt><trkpt lat="45.3986424" lon="7.7251626"><ele>349.5</ele><time>2026-04-25T12:25:26.958Z</time></trkpt><trkpt lat="45.3987824" lon="7.7251734"><ele>350.0</ele><time>2026-04-25T12:25:27.958Z</time></trkpt><trkpt lat="45.3989183" lon="7.7251793"><ele>350.5</ele><time>2026-04-25T12:25:28.959Z</time></trkpt><trkpt lat="45.3990533" lon="7.7251874"><ele>351.0</ele><time>2026-04-25T12:25:29.96Z</time></trkpt><trkpt lat="45.3991925" lon="7.7251961"><ele>351.5</ele><time>2026-04-25T12:25:30.958Z</time></trkpt><trkpt lat="45.3993327" lon="7.7252122"><ele>352.0</ele><time>2026-04-25T12:25:31.958Z</time></trkpt><trkpt lat="45.3994751" lon="7.7252224"><ele>352.25</ele><time>2026-04-25T12:25:32.952Z</time></trkpt><trkpt lat="45.3996143" lon="7.7252298"><ele>352.5</ele><time>2026-04-25T12:25:33.948Z</time></trkpt><trkpt lat="45.3997555" lon="7.7252411"><ele>352.75</ele><time>2026-04-25T12:25:34.952Z</time></trkpt><trkpt lat="45.3998999" lon="7.7252505"><ele>353.0</ele><time>2026-04-25T12:25:35.947Z</time></trkpt><trkpt lat="45.400042" lon="7.7252626"><ele>353.0</ele><time>2026-04-25T12:25:36.953Z</time></trkpt><trkpt lat="45.400183" lon="7.7252747"><ele>353.0</ele><time>2026-04-25T12:25:37.954Z</time></trkpt><trkpt lat="45.4003254" lon="7.7252857"><ele>353.0</ele><time>2026-04-25T12:25:39.028Z</time></trkpt><trkpt lat="45.4004658" lon="7.7253034"><ele>353.0</ele><time>2026-04-25T12:25:39.948Z</time></trkpt><trkpt lat="45.4006043" lon="7.7253122"><ele>353.0</ele><time>2026-04-25T12:25:40.958Z</time></trkpt><trkpt lat="45.4007424" lon="7.7253229"><ele>353.0</ele><time>2026-04-25T12:25:41.949Z</time></trkpt><trkpt lat="45.4008852" lon="7.7253358"><ele>353.0</ele><time>2026-04-25T12:25:42.952Z</time></trkpt><trkpt lat="45.4010234" lon="7.7253521"><ele>353.0</ele><time>2026-04-25T12:25:43.953Z</time></trkpt><trkpt lat="45.4011618" lon="7.7253675"><ele>353.0</ele><time>2026-04-25T12:25:44.951Z</time></trkpt><trkpt lat="45.4013015" lon="7.7253796"><ele>353.0</ele><time>2026-04-25T12:25:45.95Z</time></trkpt><trkpt lat="45.4014443" lon="7.7253875"><ele>353.0</ele><time>2026-04-25T12:25:47.031Z</time></trkpt><trkpt lat="45.4015837" lon="7.7254027"><ele>353.0</ele><time>2026-04-25T12:25:48.039Z</time></trkpt><trkpt lat="45.4017225" lon="7.7254149"><ele>353.5</ele><time>2026-04-25T12:25:48.958Z</time></trkpt><trkpt lat="45.4018617" lon="7.7254271"><ele>354.0</ele><time>2026-04-25T12:25:49.977Z</time></trkpt><trkpt lat="45.4020004" lon="7.7254372"><ele>354.5</ele><time>2026-04-25T12:25:51.024Z</time></trkpt><trkpt lat="45.4021402" lon="7.7254497"><ele>355.0</ele><time>2026-04-25T12:25:52.028Z</time></trkpt><trkpt lat="45.4022774" lon="7.7254598"><ele>355.25</ele><time>2026-04-25T12:25:53.027Z</time></trkpt><trkpt lat="45.402412" lon="7.7254708"><ele>355.5</ele><time>2026-04-25T12:25:53.961Z</time></trkpt><trkpt lat="45.4025435" lon="7.7254816"><ele>355.75</ele><time>2026-04-25T12:25:54.958Z</time></trkpt><trkpt lat="45.4026739" lon="7.7254922"><ele>356.0</ele><time>2026-04-25T12:25:55.967Z</time></trkpt><trkpt lat="45.4028012" lon="7.7255028"><ele>356.0</ele><time>2026-04-25T12:25:57.055Z</time></trkpt><trkpt lat="45.4029287" lon="7.7255136"><ele>356.0</ele><time>2026-04-25T12:25:58.028Z</time></trkpt><trkpt lat="45.4030583" lon="7.7255235"><ele>356.0</ele><time>2026-04-25T12:25:58.95Z</time></trkpt><trkpt lat="45.4031854" lon="7.7255318"><ele>356.0</ele><time>2026-04-25T12:25:59.965Z</time></trkpt><trkpt lat="45.4033041" lon="7.7255403"><ele>356.6</ele><time>2026-04-25T12:26:00.963Z</time></trkpt><trkpt lat="45.4034141" lon="7.7255486"><ele>357.20000000000005</ele><time>2026-04-25T12:26:01.985Z</time></trkpt><trkpt lat="45.4035166" lon="7.7255579"><ele>357.79999999999995</ele><time>2026-04-25T12:26:03.019Z</time></trkpt><trkpt lat="45.4036047" lon="7.7255771"><ele>358.4</ele><time>2026-04-25T12:26:04.027Z</time></trkpt><trkpt lat="45.4036806" lon="7.7256193"><ele>359.0</ele><time>2026-04-25T12:26:04.955Z</time></trkpt><trkpt lat="45.4037425" lon="7.7256859"><ele>359.0</ele><time>2026-04-25T12:26:05.964Z</time></trkpt><trkpt lat="45.4037723" lon="7.7257649"><ele>359.0</ele><time>2026-04-25T12:26:06.964Z</time></trkpt><trkpt lat="45.4037757" lon="7.7259458"><ele>359.0</ele><time>2026-04-25T12:26:09.019Z</time></trkpt><trkpt lat="45.4037549" lon="7.7260642"><ele>359.0</ele><time>2026-04-25T12:26:09.962Z</time></trkpt><trkpt lat="45.4037276" lon="7.7261948"><ele>359.0</ele><time>2026-04-25T12:26:10.966Z</time></trkpt><trkpt lat="45.4037024" lon="7.7263355"><ele>359.0</ele><time>2026-04-25T12:26:11.973Z</time></trkpt><trkpt lat="45.4036764" lon="7.7264848"><ele>359.0</ele><time>2026-04-25T12:26:13.032Z</time></trkpt><trkpt lat="45.4036485" lon="7.7266305"><ele>359.0</ele><time>2026-04-25T12:26:14.053Z</time></trkpt><trkpt lat="45.4036247" lon="7.7267807"><ele>359.0</ele><time>2026-04-25T12:26:14.96Z</time></trkpt><trkpt lat="45.4036023" lon="7.7269358"><ele>359.0</ele><time>2026-04-25T12:26:15.951Z</time></trkpt><trkpt lat="45.403582" lon="7.7270844"><ele>359.2</ele><time>2026-04-25T12:26:16.949Z</time></trkpt><trkpt lat="45.4035663" lon="7.7272345"><ele>359.4</ele><time>2026-04-25T12:26:17.956Z</time></trkpt><trkpt lat="45.4035448" lon="7.7273804"><ele>359.6</ele><time>2026-04-25T12:26:18.956Z</time></trkpt><trkpt lat="45.4035205" lon="7.7275282"><ele>359.8</ele><time>2026-04-25T12:26:19.957Z</time></trkpt><trkpt lat="45.4035035" lon="7.7276769"><ele>360.0</ele><time>2026-04-25T12:26:21.02Z</time></trkpt><trkpt lat="45.4034832" lon="7.727827"><ele>360.6</ele><time>2026-04-25T12:26:22.016Z</time></trkpt><trkpt lat="45.4034658" lon="7.7279792"><ele>361.2</ele><time>2026-04-25T12:26:22.956Z</time></trkpt><trkpt lat="45.4034461" lon="7.7281281"><ele>361.79999999999995</ele><time>2026-04-25T12:26:23.955Z</time></trkpt><trkpt lat="45.4034292" lon="7.7282765"><ele>362.4</ele><time>2026-04-25T12:26:24.963Z</time></trkpt><trkpt lat="45.4034164" lon="7.7284215"><ele>363.0</ele><time>2026-04-25T12:26:25.958Z</time></trkpt><trkpt lat="45.403405" lon="7.7285661"><ele>363.4</ele><time>2026-04-25T12:26:26.958Z</time></trkpt><trkpt lat="45.4033911" lon="7.7287188"><ele>363.79999999999995</ele><time>2026-04-25T12:26:27.948Z</time></trkpt><trkpt lat="45.4033764" lon="7.7288752"><ele>364.2</ele><time>2026-04-25T12:26:28.949Z</time></trkpt><trkpt lat="45.403362" lon="7.7290328"><ele>364.6</ele><time>2026-04-25T12:26:29.949Z</time></trkpt><trkpt lat="45.4033521" lon="7.7291951"><ele>365.0</ele><time>2026-04-25T12:26:30.957Z</time></trkpt><trkpt lat="45.403344" lon="7.7293566"><ele>365.0</ele><time>2026-04-25T12:26:31.952Z</time></trkpt><trkpt lat="45.4033386" lon="7.7295115"><ele>365.0</ele><time>2026-04-25T12:26:32.959Z</time></trkpt><trkpt lat="45.4033466" lon="7.7296621"><ele>365.0</ele><time>2026-04-25T12:26:33.958Z</time></trkpt><trkpt lat="45.4033676" lon="7.7298131"><ele>365.0</ele><time>2026-04-25T12:26:34.953Z</time></trkpt><trkpt lat="45.4034014" lon="7.7299648"><ele>365.0</ele><time>2026-04-25T12:26:35.953Z</time></trkpt><trkpt lat="45.4034419" lon="7.7301162"><ele>365.0</ele><time>2026-04-25T12:26:37.03Z</time></trkpt><trkpt lat="45.4034834" lon="7.7302562"><ele>365.0</ele><time>2026-04-25T12:26:37.953Z</time></trkpt><trkpt lat="45.4035268" lon="7.7304089"><ele>365.0</ele><time>2026-04-25T12:26:39.029Z</time></trkpt><trkpt lat="45.4035752" lon="7.7305409"><ele>365.0</ele><time>2026-04-25T12:26:39.965Z</time></trkpt><trkpt lat="45.4036367" lon="7.7306663"><ele>365.0</ele><time>2026-04-25T12:26:40.97Z</time></trkpt><trkpt lat="45.4037137" lon="7.730772"><ele>365.0</ele><time>2026-04-25T12:26:42.018Z</time></trkpt><trkpt lat="45.4038026" lon="7.7308528"><ele>365.0</ele><time>2026-04-25T12:26:43.043Z</time></trkpt><trkpt lat="45.4039064" lon="7.730915"><ele>365.0</ele><time>2026-04-25T12:26:43.949Z</time></trkpt><trkpt lat="45.4040118" lon="7.7309613"><ele>365.0</ele><time>2026-04-25T12:26:44.964Z</time></trkpt><trkpt lat="45.4041195" lon="7.7310012"><ele>365.0</ele><time>2026-04-25T12:26:45.944Z</time></trkpt><trkpt lat="45.4042196" lon="7.7310465"><ele>365.8</ele><time>2026-04-25T12:26:46.967Z</time></trkpt><trkpt lat="45.4043172" lon="7.7310906"><ele>366.6</ele><time>2026-04-25T12:26:48.019Z</time></trkpt><trkpt lat="45.4044169" lon="7.7311389"><ele>367.4</ele><time>2026-04-25T12:26:48.957Z</time></trkpt><trkpt lat="45.4045002" lon="7.7311921"><ele>368.2</ele><time>2026-04-25T12:26:49.947Z</time></trkpt><trkpt lat="45.4045656" lon="7.7312578"><ele>369.0</ele><time>2026-04-25T12:26:51.028Z</time></trkpt><trkpt lat="45.4046332" lon="7.7313241"><ele>371.4</ele><time>2026-04-25T12:26:52.04Z</time></trkpt><trkpt lat="45.404711" lon="7.7314091"><ele>373.79999999999995</ele><time>2026-04-25T12:26:53.029Z</time></trkpt><trkpt lat="45.4047992" lon="7.7315024"><ele>376.20000000000005</ele><time>2026-04-25T12:26:54.016Z</time></trkpt><trkpt lat="45.4048973" lon="7.7316003"><ele>378.6</ele><time>2026-04-25T12:26:54.972Z</time></trkpt><trkpt lat="45.4049879" lon="7.7317123"><ele>381.0</ele><time>2026-04-25T12:26:56.032Z</time></trkpt><trkpt lat="45.4050856" lon="7.7318356"><ele>380.25</ele><time>2026-04-25T12:26:57.011Z</time></trkpt><trkpt lat="45.4051838" lon="7.7319616"><ele>379.5</ele><time>2026-04-25T12:26:58.031Z</time></trkpt><trkpt lat="45.4052691" lon="7.7320767"><ele>378.75</ele><time>2026-04-25T12:26:58.981Z</time></trkpt><trkpt lat="45.405362" lon="7.7321873"><ele>378.0</ele><time>2026-04-25T12:26:59.945Z</time></trkpt><trkpt lat="45.4054537" lon="7.7322831"><ele>380.59999999999997</ele><time>2026-04-25T12:27:00.943Z</time></trkpt><trkpt lat="45.4055514" lon="7.7323726"><ele>383.2</ele><time>2026-04-25T12:27:01.953Z</time></trkpt><trkpt lat="45.4056532" lon="7.7324415"><ele>385.8</ele><time>2026-04-25T12:27:02.999Z</time></trkpt><trkpt lat="45.4057463" lon="7.7324952"><ele>388.4</ele><time>2026-04-25T12:27:03.955Z</time></trkpt><trkpt lat="45.4058334" lon="7.7325427"><ele>391.0</ele><time>2026-04-25T12:27:04.948Z</time></trkpt><trkpt lat="45.4059152" lon="7.7325793"><ele>390.99999999999994</ele><time>2026-04-25T12:27:05.939Z</time></trkpt><trkpt lat="45.4059994" lon="7.7326125"><ele>391.0</ele><time>2026-04-25T12:27:06.938Z</time></trkpt><trkpt lat="45.4060793" lon="7.7326361"><ele>391.0</ele><time>2026-04-25T12:27:07.949Z</time></trkpt><trkpt lat="45.4061548" lon="7.7326441"><ele>391.0</ele><time>2026-04-25T12:27:08.952Z</time></trkpt><trkpt lat="45.4062227" lon="7.7326409"><ele>391.0</ele><time>2026-04-25T12:27:09.955Z</time></trkpt><trkpt lat="45.4062906" lon="7.7326347"><ele>390.99999999999994</ele><time>2026-04-25T12:27:10.947Z</time></trkpt><trkpt lat="45.4063572" lon="7.7326274"><ele>391.0</ele><time>2026-04-25T12:27:11.945Z</time></trkpt><trkpt lat="45.4064249" lon="7.7326125"><ele>392.6666666666667</ele><time>2026-04-25T12:27:12.947Z</time></trkpt><trkpt lat="45.4064965" lon="7.732593"><ele>394.33333333333337</ele><time>2026-04-25T12:27:13.955Z</time></trkpt><trkpt lat="45.4065631" lon="7.7325693"><ele>396.0</ele><time>2026-04-25T12:27:14.946Z</time></trkpt><trkpt lat="45.4066303" lon="7.7325417"><ele>397.66666666666663</ele><time>2026-04-25T12:27:15.949Z</time></trkpt><trkpt lat="45.406697" lon="7.7325269"><ele>399.3333333333333</ele><time>2026-04-25T12:27:16.946Z</time></trkpt><trkpt lat="45.4068262" lon="7.7325289"><ele>401.0</ele><time>2026-04-25T12:27:19.036Z</time></trkpt><trkpt lat="45.4068973" lon="7.7325239"><ele>401.0</ele><time>2026-04-25T12:27:19.972Z</time></trkpt><trkpt lat="45.4069576" lon="7.7324941"><ele>401.0</ele><time>2026-04-25T12:27:20.966Z</time></trkpt><trkpt lat="45.4070162" lon="7.7324418"><ele>401.0</ele><time>2026-04-25T12:27:21.955Z</time></trkpt><trkpt lat="45.4070602" lon="7.732363"><ele>401.0</ele><time>2026-04-25T12:27:22.958Z</time></trkpt><trkpt lat="45.4070945" lon="7.7322727"><ele>401.0</ele><time>2026-04-25T12:27:23.972Z</time></trkpt><trkpt lat="45.4071268" lon="7.7321849"><ele>401.0</ele><time>2026-04-25T12:27:24.966Z</time></trkpt><trkpt lat="45.4071583" lon="7.7320993"><ele>401.0</ele><time>2026-04-25T12:27:25.96Z</time></trkpt><trkpt lat="45.4072271" lon="7.7319483"><ele>401.99999999999994</ele><time>2026-04-25T12:27:28.031Z</time></trkpt><trkpt lat="45.4073237" lon="7.7318582"><ele>403.0</ele><time>2026-04-25T12:27:29.955Z</time></trkpt><trkpt lat="45.4073899" lon="7.73183"><ele>404.0</ele><time>2026-04-25T12:27:30.95Z</time></trkpt><trkpt lat="45.4074568" lon="7.7318031"><ele>405.0</ele><time>2026-04-25T12:27:31.976Z</time></trkpt><trkpt lat="45.4075342" lon="7.7317878"><ele>405.99999999999994</ele><time>2026-04-25T12:27:33.043Z</time></trkpt><trkpt lat="45.4075943" lon="7.7317441"><ele>407.0</ele><time>2026-04-25T12:27:34.033Z</time></trkpt><trkpt lat="45.4076481" lon="7.7316795"><ele>406.99999999999994</ele><time>2026-04-25T12:27:34.965Z</time></trkpt><trkpt lat="45.4076927" lon="7.7316001"><ele>407.0</ele><time>2026-04-25T12:27:35.953Z</time></trkpt><trkpt lat="45.4077342" lon="7.7315052"><ele>407.0</ele><time>2026-04-25T12:27:36.988Z</time></trkpt><trkpt lat="45.4077747" lon="7.7314014"><ele>407.0</ele><time>2026-04-25T12:27:38.032Z</time></trkpt><trkpt lat="45.4078188" lon="7.7312852"><ele>406.99999999999994</ele><time>2026-04-25T12:27:38.952Z</time></trkpt><trkpt lat="45.4078688" lon="7.7311699"><ele>407.0</ele><time>2026-04-25T12:27:39.956Z</time></trkpt><trkpt lat="45.4079283" lon="7.7310527"><ele>407.40000000000003</ele><time>2026-04-25T12:27:40.942Z</time></trkpt><trkpt lat="45.4079927" lon="7.7309384"><ele>407.8</ele><time>2026-04-25T12:27:41.991Z</time></trkpt><trkpt lat="45.4080692" lon="7.7308378"><ele>408.2</ele><time>2026-04-25T12:27:43.033Z</time></trkpt><trkpt lat="45.4081616" lon="7.7307374"><ele>408.6</ele><time>2026-04-25T12:27:44.011Z</time></trkpt><trkpt lat="45.408254" lon="7.7306569"><ele>409.0</ele><time>2026-04-25T12:27:44.94Z</time></trkpt><trkpt lat="45.408355" lon="7.7305863"><ele>409.0</ele><time>2026-04-25T12:27:45.944Z</time></trkpt><trkpt lat="45.4084688" lon="7.730539"><ele>409.0</ele><time>2026-04-25T12:27:46.952Z</time></trkpt><trkpt lat="45.4085799" lon="7.7305052"><ele>409.0</ele><time>2026-04-25T12:27:48.008Z</time></trkpt><trkpt lat="45.408696" lon="7.7304836"><ele>409.0</ele><time>2026-04-25T12:27:49.032Z</time></trkpt><trkpt lat="45.4088211" lon="7.7304792"><ele>409.0</ele><time>2026-04-25T12:27:49.934Z</time></trkpt><trkpt lat="45.408951" lon="7.7304713"><ele>409.0</ele><time>2026-04-25T12:27:50.942Z</time></trkpt><trkpt lat="45.4090803" lon="7.7304584"><ele>409.0</ele><time>2026-04-25T12:27:51.948Z</time></trkpt><trkpt lat="45.4092169" lon="7.7304469"><ele>409.0</ele><time>2026-04-25T12:27:52.955Z</time></trkpt><trkpt lat="45.4093594" lon="7.7304298"><ele>409.0</ele><time>2026-04-25T12:27:54.018Z</time></trkpt><trkpt lat="45.4094984" lon="7.7304232"><ele>409.0</ele><time>2026-04-25T12:27:54.957Z</time></trkpt><trkpt lat="45.4096439" lon="7.7304112"><ele>409.0</ele><time>2026-04-25T12:27:55.952Z</time></trkpt><trkpt lat="45.4097898" lon="7.7303958"><ele>409.0</ele><time>2026-04-25T12:27:56.952Z</time></trkpt><trkpt lat="45.4099307" lon="7.7303805"><ele>409.5</ele><time>2026-04-25T12:27:57.953Z</time></trkpt><trkpt lat="45.4100723" lon="7.7303587"><ele>410.0</ele><time>2026-04-25T12:27:58.95Z</time></trkpt><trkpt lat="45.4102143" lon="7.7303366"><ele>410.5</ele><time>2026-04-25T12:27:59.951Z</time></trkpt><trkpt lat="45.4103576" lon="7.7302988"><ele>411.0</ele><time>2026-04-25T12:28:00.961Z</time></trkpt><trkpt lat="45.4105006" lon="7.7302566"><ele>411.5</ele><time>2026-04-25T12:28:01.97Z</time></trkpt><trkpt lat="45.4106353" lon="7.7302198"><ele>412.0</ele><time>2026-04-25T12:28:02.98Z</time></trkpt><trkpt lat="45.4107772" lon="7.7301912"><ele>412.5</ele><time>2026-04-25T12:28:03.952Z</time></trkpt><trkpt lat="45.4109215" lon="7.7301594"><ele>413.0</ele><time>2026-04-25T12:28:04.955Z</time></trkpt><trkpt lat="45.4110645" lon="7.7301318"><ele>413.0</ele><time>2026-04-25T12:28:05.951Z</time></trkpt><trkpt lat="45.4112134" lon="7.7301098"><ele>413.0</ele><time>2026-04-25T12:28:06.948Z</time></trkpt><trkpt lat="45.4113593" lon="7.7300843"><ele>413.0</ele><time>2026-04-25T12:28:07.936Z</time></trkpt><trkpt lat="45.4115089" lon="7.7300619"><ele>413.0</ele><time>2026-04-25T12:28:09.044Z</time></trkpt><trkpt lat="45.4116597" lon="7.7300441"><ele>414.0</ele><time>2026-04-25T12:28:09.955Z</time></trkpt><trkpt lat="45.4118038" lon="7.7300255"><ele>415.0</ele><time>2026-04-25T12:28:11.032Z</time></trkpt><trkpt lat="45.411947" lon="7.7300057"><ele>416.0</ele><time>2026-04-25T12:28:11.956Z</time></trkpt><trkpt lat="45.4120939" lon="7.7299914"><ele>417.0</ele><time>2026-04-25T12:28:12.963Z</time></trkpt><trkpt lat="45.4122385" lon="7.7299722"><ele>418.5</ele><time>2026-04-25T12:28:13.961Z</time></trkpt><trkpt lat="45.4123819" lon="7.7299495"><ele>420.0</ele><time>2026-04-25T12:28:14.955Z</time></trkpt><trkpt lat="45.4125237" lon="7.7299257"><ele>421.5</ele><time>2026-04-25T12:28:15.952Z</time></trkpt><trkpt lat="45.4126661" lon="7.7299007"><ele>423.0</ele><time>2026-04-25T12:28:17.035Z</time></trkpt><trkpt lat="45.4128097" lon="7.7298748"><ele>423.0</ele><time>2026-04-25T12:28:18.027Z</time></trkpt><trkpt lat="45.4129585" lon="7.7298503"><ele>423.0</ele><time>2026-04-25T12:28:19.021Z</time></trkpt><trkpt lat="45.4131039" lon="7.7298292"><ele>423.0</ele><time>2026-04-25T12:28:19.963Z</time></trkpt><trkpt lat="45.4132549" lon="7.7298086"><ele>423.0</ele><time>2026-04-25T12:28:20.953Z</time></trkpt><trkpt lat="45.4134079" lon="7.7297791"><ele>425.25</ele><time>2026-04-25T12:28:21.962Z</time></trkpt><trkpt lat="45.4135542" lon="7.7297535"><ele>427.5</ele><time>2026-04-25T12:28:22.959Z</time></trkpt><trkpt lat="45.4136978" lon="7.7297128"><ele>429.75</ele><time>2026-04-25T12:28:23.961Z</time></trkpt><trkpt lat="45.4138406" lon="7.7296598"><ele>432.0</ele><time>2026-04-25T12:28:24.988Z</time></trkpt><trkpt lat="45.4139852" lon="7.7295987"><ele>432.0</ele><time>2026-04-25T12:28:25.973Z</time></trkpt><trkpt lat="45.4141281" lon="7.7295248"><ele>432.0</ele><time>2026-04-25T12:28:26.958Z</time></trkpt><trkpt lat="45.4142635" lon="7.7294464"><ele>432.0</ele><time>2026-04-25T12:28:27.987Z</time></trkpt><trkpt lat="45.414395" lon="7.729363"><ele>432.0</ele><time>2026-04-25T12:28:28.957Z</time></trkpt><trkpt lat="45.4145277" lon="7.7292715"><ele>430.5</ele><time>2026-04-25T12:28:29.961Z</time></trkpt><trkpt lat="45.4146604" lon="7.7291764"><ele>429.0</ele><time>2026-04-25T12:28:30.96Z</time></trkpt><trkpt lat="45.414793" lon="7.7290732"><ele>427.5</ele><time>2026-04-25T12:28:32.057Z</time></trkpt><trkpt lat="45.4149208" lon="7.7289638"><ele>426.0</ele><time>2026-04-25T12:28:33.034Z</time></trkpt><trkpt lat="45.4150521" lon="7.7288596"><ele>426.0</ele><time>2026-04-25T12:28:34.032Z</time></trkpt><trkpt lat="45.415186" lon="7.7287552"><ele>426.0</ele><time>2026-04-25T12:28:34.956Z</time></trkpt><trkpt lat="45.4153189" lon="7.7286517"><ele>426.0</ele><time>2026-04-25T12:28:35.963Z</time></trkpt><trkpt lat="45.4154537" lon="7.7285482"><ele>426.0</ele><time>2026-04-25T12:28:36.973Z</time></trkpt><trkpt lat="45.4155913" lon="7.7284583"><ele>426.0</ele><time>2026-04-25T12:28:38.033Z</time></trkpt><trkpt lat="45.4157259" lon="7.7283798"><ele>426.0</ele><time>2026-04-25T12:28:39.031Z</time></trkpt><trkpt lat="45.4158662" lon="7.7283131"><ele>426.0</ele><time>2026-04-25T12:28:39.969Z</time></trkpt><trkpt lat="45.4160048" lon="7.7282477"><ele>426.0</ele><time>2026-04-25T12:28:40.967Z</time></trkpt><trkpt lat="45.4161493" lon="7.7282012"><ele>426.0</ele><time>2026-04-25T12:28:42.011Z</time></trkpt><trkpt lat="45.416293" lon="7.7281572"><ele>426.0</ele><time>2026-04-25T12:28:43.031Z</time></trkpt><trkpt lat="45.4164339" lon="7.7281122"><ele>426.0</ele><time>2026-04-25T12:28:44.033Z</time></trkpt><trkpt lat="45.4165694" lon="7.7280668"><ele>426.5</ele><time>2026-04-25T12:28:44.952Z</time></trkpt><trkpt lat="45.4167083" lon="7.7280271"><ele>427.0</ele><time>2026-04-25T12:28:45.961Z</time></trkpt><trkpt lat="45.4168475" lon="7.7279869"><ele>427.5</ele><time>2026-04-25T12:28:46.955Z</time></trkpt><trkpt lat="45.4169821" lon="7.7279488"><ele>428.0</ele><time>2026-04-25T12:28:47.958Z</time></trkpt><trkpt lat="45.4171224" lon="7.7279141"><ele>428.75</ele><time>2026-04-25T12:28:48.957Z</time></trkpt><trkpt lat="45.4172643" lon="7.7278787"><ele>429.5</ele><time>2026-04-25T12:28:49.952Z</time></trkpt><trkpt lat="45.4174049" lon="7.7278478"><ele>430.25</ele><time>2026-04-25T12:28:50.964Z</time></trkpt><trkpt lat="45.4175459" lon="7.727809"><ele>431.0</ele><time>2026-04-25T12:28:51.969Z</time></trkpt><trkpt lat="45.417683" lon="7.7277739"><ele>431.0</ele><time>2026-04-25T12:28:52.956Z</time></trkpt><trkpt lat="45.4178202" lon="7.7277394"><ele>431.0</ele><time>2026-04-25T12:28:53.956Z</time></trkpt><trkpt lat="45.4179567" lon="7.7277028"><ele>431.0</ele><time>2026-04-25T12:28:54.957Z</time></trkpt><trkpt lat="45.4180874" lon="7.7276694"><ele>431.0</ele><time>2026-04-25T12:28:55.956Z</time></trkpt><trkpt lat="45.4182115" lon="7.7276385"><ele>431.20000000000005</ele><time>2026-04-25T12:28:56.944Z</time></trkpt><trkpt lat="45.418324" lon="7.7276085"><ele>431.40000000000003</ele><time>2026-04-25T12:28:57.951Z</time></trkpt><trkpt lat="45.4184296" lon="7.7275826"><ele>431.6</ele><time>2026-04-25T12:28:59.031Z</time></trkpt><trkpt lat="45.418535" lon="7.7275467"><ele>431.8</ele><time>2026-04-25T12:28:59.954Z</time></trkpt><trkpt lat="45.4186467" lon="7.727517"><ele>432.0</ele><time>2026-04-25T12:29:00.956Z</time></trkpt><trkpt lat="45.4187643" lon="7.7274811"><ele>434.0</ele><time>2026-04-25T12:29:01.966Z</time></trkpt><trkpt lat="45.4188912" lon="7.7274422"><ele>436.0</ele><time>2026-04-25T12:29:02.956Z</time></trkpt><trkpt lat="45.4190246" lon="7.7273869"><ele>438.0</ele><time>2026-04-25T12:29:03.951Z</time></trkpt><trkpt lat="45.4191639" lon="7.7273137"><ele>440.0</ele><time>2026-04-25T12:29:04.95Z</time></trkpt><trkpt lat="45.4193048" lon="7.7272255"><ele>440.0</ele><time>2026-04-25T12:29:05.949Z</time></trkpt><trkpt lat="45.4194451" lon="7.7271327"><ele>440.0</ele><time>2026-04-25T12:29:07.028Z</time></trkpt><trkpt lat="45.4195823" lon="7.7270369"><ele>440.0</ele><time>2026-04-25T12:29:08.034Z</time></trkpt><trkpt lat="45.4197155" lon="7.7269523"><ele>442.4</ele><time>2026-04-25T12:29:09.046Z</time></trkpt><trkpt lat="45.4198289" lon="7.7268699"><ele>444.8</ele><time>2026-04-25T12:29:09.951Z</time></trkpt><trkpt lat="45.4199262" lon="7.7268048"><ele>447.20000000000005</ele><time>2026-04-25T12:29:11.044Z</time></trkpt><trkpt lat="45.4200116" lon="7.7267439"><ele>449.6</ele><time>2026-04-25T12:29:12.034Z</time></trkpt><trkpt lat="45.4200847" lon="7.7266854"><ele>452.0</ele><time>2026-04-25T12:29:13.035Z</time></trkpt><trkpt lat="45.4201497" lon="7.7266211"><ele>451.99999999999994</ele><time>2026-04-25T12:29:14.029Z</time></trkpt><trkpt lat="45.4202052" lon="7.7265493"><ele>452.0</ele><time>2026-04-25T12:29:14.949Z</time></trkpt><trkpt lat="45.4202542" lon="7.7264792"><ele>452.0</ele><time>2026-04-25T12:29:15.947Z</time></trkpt><trkpt lat="45.4203204" lon="7.7263585"><ele>452.0</ele><time>2026-04-25T12:29:18.026Z</time></trkpt><trkpt lat="45.4203977" lon="7.7263398"><ele>451.99999999999994</ele><time>2026-04-25T12:29:20.951Z</time></trkpt><trkpt lat="45.42048" lon="7.7263276"><ele>452.0</ele><time>2026-04-25T12:29:23.043Z</time></trkpt><trkpt lat="45.4205692" lon="7.7262494"><ele>452.3333333333333</ele><time>2026-04-25T12:29:24.956Z</time></trkpt><trkpt lat="45.4205581" lon="7.7263457"><ele>452.66666666666663</ele><time>2026-04-25T12:29:39.955Z</time></trkpt><trkpt lat="45.42051" lon="7.7264111"><ele>453.0</ele><time>2026-04-25T12:29:43.031Z</time></trkpt><trkpt lat="45.4205415" lon="7.7263274"><ele>453.33333333333337</ele><time>2026-04-25T12:29:55.955Z</time></trkpt><trkpt lat="45.4206107" lon="7.7261689"><ele>453.6666666666667</ele><time>2026-04-25T12:29:57.997Z</time></trkpt><trkpt lat="45.4206492" lon="7.7260664"><ele>454.0</ele><time>2026-04-25T12:29:58.991Z</time></trkpt><trkpt lat="45.4206967" lon="7.7260032"><ele>456.00000000000006</ele><time>2026-04-25T12:29:59.951Z</time></trkpt><trkpt lat="45.4207989" lon="7.7259171"><ele>458.0</ele><time>2026-04-25T12:30:01.961Z</time></trkpt><trkpt lat="45.4208681" lon="7.725895"><ele>460.0</ele><time>2026-04-25T12:30:02.953Z</time></trkpt><trkpt lat="45.4209526" lon="7.7258711"><ele>462.0</ele><time>2026-04-25T12:30:04.95Z</time></trkpt><trkpt lat="45.4210222" lon="7.7258897"><ele>464.00000000000006</ele><time>2026-04-25T12:30:50.951Z</time></trkpt><trkpt lat="45.4210746" lon="7.7259831"><ele>466.0</ele><time>2026-04-25T12:31:46.955Z</time></trkpt><trkpt lat="45.4210091" lon="7.7259529"><ele>466.00000000000006</ele><time>2026-04-25T12:34:34.942Z</time></trkpt><trkpt lat="45.420927" lon="7.7259192"><ele>466.0</ele><time>2026-04-25T12:34:37.949Z</time></trkpt><trkpt lat="45.420858" lon="7.7259284"><ele>466.0</ele><time>2026-04-25T12:34:39.96Z</time></trkpt><trkpt lat="45.4207773" lon="7.7259504"><ele>466.0</ele><time>2026-04-25T12:34:41.953Z</time></trkpt><trkpt lat="45.4207137" lon="7.7260195"><ele>466.00000000000006</ele><time>2026-04-25T12:34:43.944Z</time></trkpt><trkpt lat="45.4206656" lon="7.7261107"><ele>466.0</ele><time>2026-04-25T12:34:47.027Z</time></trkpt><trkpt lat="45.4206284" lon="7.7261871"><ele>464.00000000000006</ele><time>2026-04-25T12:34:48.97Z</time></trkpt><trkpt lat="45.4205713" lon="7.7263235"><ele>462.0</ele><time>2026-04-25T12:34:50.969Z</time></trkpt><trkpt lat="45.4205204" lon="7.7263966"><ele>460.0</ele><time>2026-04-25T12:34:52.97Z</time></trkpt><trkpt lat="45.4204479" lon="7.7264094"><ele>458.0</ele><time>2026-04-25T12:34:55.976Z</time></trkpt><trkpt lat="45.4203858" lon="7.7263872"><ele>456.00000000000006</ele><time>2026-04-25T12:34:57.972Z</time></trkpt><trkpt lat="45.4203057" lon="7.7263838"><ele>454.0</ele><time>2026-04-25T12:35:00.969Z</time></trkpt><trkpt lat="45.420241" lon="7.7264754"><ele>453.6</ele><time>2026-04-25T12:35:02.97Z</time></trkpt><trkpt lat="45.4201404" lon="7.7266048"><ele>453.2</ele><time>2026-04-25T12:35:04.971Z</time></trkpt><trkpt lat="45.4200706" lon="7.7266796"><ele>452.80000000000007</ele><time>2026-04-25T12:35:05.972Z</time></trkpt><trkpt lat="45.4199851" lon="7.7267557"><ele>452.40000000000003</ele><time>2026-04-25T12:35:06.957Z</time></trkpt><trkpt lat="45.4198912" lon="7.7268242"><ele>452.0</ele><time>2026-04-25T12:35:07.965Z</time></trkpt><trkpt lat="45.4198041" lon="7.7268849"><ele>450.66666666666663</ele><time>2026-04-25T12:35:08.968Z</time></trkpt><trkpt lat="45.4197236" lon="7.7269423"><ele>449.3333333333333</ele><time>2026-04-25T12:35:09.964Z</time></trkpt><trkpt lat="45.4196413" lon="7.7269969"><ele>448.0</ele><time>2026-04-25T12:35:11.035Z</time></trkpt><trkpt lat="45.419563" lon="7.7270511"><ele>446.66666666666663</ele><time>2026-04-25T12:35:12.018Z</time></trkpt><trkpt lat="45.4194892" lon="7.7271077"><ele>445.3333333333333</ele><time>2026-04-25T12:35:13.028Z</time></trkpt><trkpt lat="45.419425" lon="7.7271553"><ele>444.0</ele><time>2026-04-25T12:35:13.944Z</time></trkpt><trkpt lat="45.4193595" lon="7.7272014"><ele>443.3333333333333</ele><time>2026-04-25T12:35:14.944Z</time></trkpt><trkpt lat="45.4192972" lon="7.7272495"><ele>442.66666666666663</ele><time>2026-04-25T12:35:15.943Z</time></trkpt><trkpt lat="45.4192432" lon="7.7273115"><ele>442.0</ele><time>2026-04-25T12:35:17.943Z</time></trkpt><trkpt lat="45.4193068" lon="7.7273376"><ele>441.3333333333333</ele><time>2026-04-25T12:35:21.007Z</time></trkpt><trkpt lat="45.4194223" lon="7.7272876"><ele>440.66666666666663</ele><time>2026-04-25T12:35:22.946Z</time></trkpt><trkpt lat="45.4195056" lon="7.7272531"><ele>440.0</ele><time>2026-04-25T12:35:23.945Z</time></trkpt><trkpt lat="45.4196202" lon="7.7272529"><ele>441.3333333333333</ele><time>2026-04-25T12:35:24.95Z</time></trkpt><trkpt lat="45.4197712" lon="7.7272614"><ele>442.66666666666663</ele><time>2026-04-25T12:35:25.946Z</time></trkpt><trkpt lat="45.4199291" lon="7.7272777"><ele>444.0</ele><time>2026-04-25T12:35:26.948Z</time></trkpt><trkpt lat="45.4200826" lon="7.7272817"><ele>444.0</ele><time>2026-04-25T12:35:27.947Z</time></trkpt><trkpt lat="45.4202153" lon="7.7272731"><ele>444.0</ele><time>2026-04-25T12:35:28.934Z</time></trkpt><trkpt lat="45.4203414" lon="7.7272777"><ele>444.0</ele><time>2026-04-25T12:35:29.942Z</time></trkpt><trkpt lat="45.4204672" lon="7.7272883"><ele>444.0</ele><time>2026-04-25T12:35:30.947Z</time></trkpt><trkpt lat="45.4205857" lon="7.7272883"><ele>447.0</ele><time>2026-04-25T12:35:31.939Z</time></trkpt><trkpt lat="45.4206966" lon="7.7272632"><ele>450.0</ele><time>2026-04-25T12:35:32.942Z</time></trkpt><trkpt lat="45.4208081" lon="7.7272162"><ele>453.0</ele><time>2026-04-25T12:35:33.944Z</time></trkpt><trkpt lat="45.4208961" lon="7.7271628"><ele>456.0</ele><time>2026-04-25T12:35:34.942Z</time></trkpt><trkpt lat="45.4209849" lon="7.7271306"><ele>459.0</ele><time>2026-04-25T12:35:35.976Z</time></trkpt><trkpt lat="45.4210519" lon="7.727115"><ele>459.0</ele><time>2026-04-25T12:35:36.945Z</time></trkpt><trkpt lat="45.4211222" lon="7.7271019"><ele>459.0</ele><time>2026-04-25T12:35:37.949Z</time></trkpt><trkpt lat="45.4212483" lon="7.7271426"><ele>459.0</ele><time>2026-04-25T12:35:39.942Z</time></trkpt><trkpt lat="45.4213212" lon="7.7272017"><ele>459.0</ele><time>2026-04-25T12:35:40.936Z</time></trkpt><trkpt lat="45.4214036" lon="7.7272167"><ele>459.0</ele><time>2026-04-25T12:35:41.955Z</time></trkpt><trkpt lat="45.4214926" lon="7.7271901"><ele>458.6</ele><time>2026-04-25T12:35:42.947Z</time></trkpt><trkpt lat="45.4215938" lon="7.7271629"><ele>458.2</ele><time>2026-04-25T12:35:43.946Z</time></trkpt><trkpt lat="45.4216929" lon="7.7271141"><ele>457.80000000000007</ele><time>2026-04-25T12:35:44.941Z</time></trkpt><trkpt lat="45.4217829" lon="7.727057"><ele>457.40000000000003</ele><time>2026-04-25T12:35:45.944Z</time></trkpt><trkpt lat="45.4218656" lon="7.7269911"><ele>457.0</ele><time>2026-04-25T12:35:47.033Z</time></trkpt><trkpt lat="45.4219345" lon="7.7268914"><ele>457.0</ele><time>2026-04-25T12:35:48.027Z</time></trkpt><trkpt lat="45.4219668" lon="7.7267607"><ele>457.00000000000006</ele><time>2026-04-25T12:35:49.027Z</time></trkpt><trkpt lat="45.421988" lon="7.7266154"><ele>457.00000000000006</ele><time>2026-04-25T12:35:49.951Z</time></trkpt><trkpt lat="45.4219983" lon="7.7264579"><ele>457.0</ele><time>2026-04-25T12:35:50.949Z</time></trkpt><trkpt lat="45.4220083" lon="7.7262886"><ele>457.0</ele><time>2026-04-25T12:35:51.961Z</time></trkpt><trkpt lat="45.4220189" lon="7.7261229"><ele>457.5</ele><time>2026-04-25T12:35:52.975Z</time></trkpt><trkpt lat="45.4220355" lon="7.7259485"><ele>458.0</ele><time>2026-04-25T12:35:53.96Z</time></trkpt><trkpt lat="45.4220641" lon="7.7257772"><ele>458.5</ele><time>2026-04-25T12:35:54.946Z</time></trkpt><trkpt lat="45.4221003" lon="7.7256023"><ele>459.0</ele><time>2026-04-25T12:35:56.015Z</time></trkpt><trkpt lat="45.4221379" lon="7.7254351"><ele>459.75</ele><time>2026-04-25T12:35:57.028Z</time></trkpt><trkpt lat="45.4221608" lon="7.725267"><ele>460.5</ele><time>2026-04-25T12:35:58.011Z</time></trkpt><trkpt lat="45.4221891" lon="7.7251198"><ele>461.25</ele><time>2026-04-25T12:35:59.06Z</time></trkpt><trkpt lat="45.4222965" lon="7.7248952"><ele>462.0</ele><time>2026-04-25T12:36:00.951Z</time></trkpt><trkpt lat="45.4223726" lon="7.7247998"><ele>462.0</ele><time>2026-04-25T12:36:01.95Z</time></trkpt><trkpt lat="45.4224481" lon="7.7247037"><ele>462.00000000000006</ele><time>2026-04-25T12:36:03.032Z</time></trkpt><trkpt lat="45.4225198" lon="7.7246047"><ele>462.00000000000006</ele><time>2026-04-25T12:36:04.024Z</time></trkpt><trkpt lat="45.4225886" lon="7.7245276"><ele>462.0</ele><time>2026-04-25T12:36:04.951Z</time></trkpt><trkpt lat="45.4226476" lon="7.7244777"><ele>462.0</ele><time>2026-04-25T12:36:05.956Z</time></trkpt><trkpt lat="45.4227765" lon="7.7244744"><ele>462.0</ele><time>2026-04-25T12:36:08.027Z</time></trkpt><trkpt lat="45.4228472" lon="7.7245243"><ele>462.0</ele><time>2026-04-25T12:36:09.025Z</time></trkpt><trkpt lat="45.4229254" lon="7.7245662"><ele>462.0</ele><time>2026-04-25T12:36:10.001Z</time></trkpt><trkpt lat="45.4229962" lon="7.7245876"><ele>462.0</ele><time>2026-04-25T12:36:11.026Z</time></trkpt><trkpt lat="45.4230676" lon="7.7245426"><ele>462.0</ele><time>2026-04-25T12:36:11.965Z</time></trkpt><trkpt lat="45.4231637" lon="7.7244534"><ele>462.0</ele><time>2026-04-25T12:36:12.959Z</time></trkpt><trkpt lat="45.4232781" lon="7.7243264"><ele>464.0</ele><time>2026-04-25T12:36:13.964Z</time></trkpt><trkpt lat="45.4234025" lon="7.7241809"><ele>466.0</ele><time>2026-04-25T12:36:14.95Z</time></trkpt><trkpt lat="45.4235291" lon="7.7240245"><ele>468.0</ele><time>2026-04-25T12:36:15.956Z</time></trkpt><trkpt lat="45.423641" lon="7.7238959"><ele>468.0</ele><time>2026-04-25T12:36:16.957Z</time></trkpt><trkpt lat="45.4237294" lon="7.72378"><ele>467.99999999999994</ele><time>2026-04-25T12:36:18.03Z</time></trkpt><trkpt lat="45.4238189" lon="7.7236888"><ele>467.99999999999994</ele><time>2026-04-25T12:36:18.958Z</time></trkpt><trkpt lat="45.4238947" lon="7.7236277"><ele>468.0</ele><time>2026-04-25T12:36:19.961Z</time></trkpt><trkpt lat="45.423979" lon="7.7235791"><ele>468.0</ele><time>2026-04-25T12:36:20.96Z</time></trkpt><trkpt lat="45.4240537" lon="7.7235427"><ele>469.8333333333333</ele><time>2026-04-25T12:36:21.966Z</time></trkpt><trkpt lat="45.4241074" lon="7.7234914"><ele>471.66666666666663</ele><time>2026-04-25T12:36:22.956Z</time></trkpt><trkpt lat="45.4241426" lon="7.7233755"><ele>473.5</ele><time>2026-04-25T12:36:24.96Z</time></trkpt><trkpt lat="45.4240691" lon="7.7233124"><ele>475.3333333333333</ele><time>2026-04-25T12:36:26.954Z</time></trkpt><trkpt lat="45.4239952" lon="7.7233362"><ele>477.16666666666663</ele><time>2026-04-25T12:36:27.951Z</time></trkpt><trkpt lat="45.423918" lon="7.7233779"><ele>479.0</ele><time>2026-04-25T12:36:28.956Z</time></trkpt><trkpt lat="45.4238433" lon="7.72339"><ele>479.6</ele><time>2026-04-25T12:36:29.949Z</time></trkpt><trkpt lat="45.4237679" lon="7.7233603"><ele>480.2</ele><time>2026-04-25T12:36:30.95Z</time></trkpt><trkpt lat="45.4236936" lon="7.7232899"><ele>480.80000000000007</ele><time>2026-04-25T12:36:31.965Z</time></trkpt><trkpt lat="45.4236133" lon="7.7232499"><ele>481.40000000000003</ele><time>2026-04-25T12:36:32.944Z</time></trkpt><trkpt lat="45.4235238" lon="7.7232401"><ele>482.0</ele><time>2026-04-25T12:36:33.948Z</time></trkpt><trkpt lat="45.4234172" lon="7.7232621"><ele>482.0</ele><time>2026-04-25T12:36:34.931Z</time></trkpt><trkpt lat="45.4233086" lon="7.7232913"><ele>482.00000000000006</ele><time>2026-04-25T12:36:35.942Z</time></trkpt><trkpt lat="45.4231995" lon="7.7233046"><ele>482.00000000000006</ele><time>2026-04-25T12:36:36.952Z</time></trkpt><trkpt lat="45.423089" lon="7.7233133"><ele>482.0</ele><time>2026-04-25T12:36:37.95Z</time></trkpt><trkpt lat="45.4229846" lon="7.7232852"><ele>482.0</ele><time>2026-04-25T12:36:39.033Z</time></trkpt><trkpt lat="45.4229018" lon="7.7232301"><ele>481.99999999999994</ele><time>2026-04-25T12:36:39.961Z</time></trkpt><trkpt lat="45.4228392" lon="7.7231685"><ele>482.0</ele><time>2026-04-25T12:36:40.97Z</time></trkpt><trkpt lat="45.4228113" lon="7.7230342"><ele>482.0</ele><time>2026-04-25T12:36:43.024Z</time></trkpt><trkpt lat="45.4228949" lon="7.7229289"><ele>482.0</ele><time>2026-04-25T12:36:44.962Z</time></trkpt><trkpt lat="45.422967" lon="7.7229185"><ele>481.99999999999994</ele><time>2026-04-25T12:36:45.957Z</time></trkpt><trkpt lat="45.4230467" lon="7.7229475"><ele>482.0</ele><time>2026-04-25T12:36:46.953Z</time></trkpt><trkpt lat="45.423139" lon="7.7229818"><ele>482.0</ele><time>2026-04-25T12:36:48.031Z</time></trkpt><trkpt lat="45.4232428" lon="7.7229934"><ele>482.00000000000006</ele><time>2026-04-25T12:36:49.013Z</time></trkpt><trkpt lat="45.4233522" lon="7.7229651"><ele>482.00000000000006</ele><time>2026-04-25T12:36:49.961Z</time></trkpt><trkpt lat="45.4234574" lon="7.722917"><ele>482.0</ele><time>2026-04-25T12:36:50.95Z</time></trkpt><trkpt lat="45.4235629" lon="7.7228567"><ele>482.0</ele><time>2026-04-25T12:36:51.974Z</time></trkpt><trkpt lat="45.423657" lon="7.7227609"><ele>484.0</ele><time>2026-04-25T12:36:52.948Z</time></trkpt><trkpt lat="45.4237436" lon="7.722643"><ele>486.0</ele><time>2026-04-25T12:36:53.948Z</time></trkpt><trkpt lat="45.4238363" lon="7.7225005"><ele>488.0</ele><time>2026-04-25T12:36:54.948Z</time></trkpt><trkpt lat="45.4239238" lon="7.7223547"><ele>490.0</ele><time>2026-04-25T12:36:55.952Z</time></trkpt><trkpt lat="45.4240124" lon="7.7222097"><ele>490.5</ele><time>2026-04-25T12:36:57.019Z</time></trkpt><trkpt lat="45.4241023" lon="7.7220708"><ele>491.0</ele><time>2026-04-25T12:36:58.025Z</time></trkpt><trkpt lat="45.4241971" lon="7.7219312"><ele>491.5</ele><time>2026-04-25T12:36:59.019Z</time></trkpt><trkpt lat="45.4242911" lon="7.7218002"><ele>492.0</ele><time>2026-04-25T12:36:59.943Z</time></trkpt><trkpt lat="45.4243815" lon="7.7216669"><ele>493.0</ele><time>2026-04-25T12:37:01.015Z</time></trkpt><trkpt lat="45.4244668" lon="7.7215422"><ele>494.00000000000006</ele><time>2026-04-25T12:37:02.021Z</time></trkpt><trkpt lat="45.4245444" lon="7.7214374"><ele>495.00000000000006</ele><time>2026-04-25T12:37:03.015Z</time></trkpt><trkpt lat="45.4246195" lon="7.7213607"><ele>496.0</ele><time>2026-04-25T12:37:04.014Z</time></trkpt><trkpt lat="45.4246986" lon="7.7213196"><ele>497.0</ele><time>2026-04-25T12:37:04.95Z</time></trkpt><trkpt lat="45.4247834" lon="7.7213"><ele>498.8</ele><time>2026-04-25T12:37:06.012Z</time></trkpt><trkpt lat="45.4248676" lon="7.7212973"><ele>500.6</ele><time>2026-04-25T12:37:07.027Z</time></trkpt><trkpt lat="45.424966" lon="7.721309"><ele>502.40000000000003</ele><time>2026-04-25T12:37:07.947Z</time></trkpt><trkpt lat="45.4250651" lon="7.7213035"><ele>504.20000000000005</ele><time>2026-04-25T12:37:08.991Z</time></trkpt><trkpt lat="45.4251597" lon="7.7212421"><ele>506.0</ele><time>2026-04-25T12:37:09.955Z</time></trkpt><trkpt lat="45.4252472" lon="7.7211538"><ele>505.75</ele><time>2026-04-25T12:37:11.048Z</time></trkpt><trkpt lat="45.4253333" lon="7.7210481"><ele>505.5</ele><time>2026-04-25T12:37:12.028Z</time></trkpt><trkpt lat="45.4254323" lon="7.7209463"><ele>505.25</ele><time>2026-04-25T12:37:12.943Z</time></trkpt><trkpt lat="45.4255344" lon="7.7208447"><ele>505.0</ele><time>2026-04-25T12:37:13.951Z</time></trkpt><trkpt lat="45.4256461" lon="7.720735"><ele>509.0</ele><time>2026-04-25T12:37:14.95Z</time></trkpt><trkpt lat="45.4257589" lon="7.7206371"><ele>513.0</ele><time>2026-04-25T12:37:15.956Z</time></trkpt><trkpt lat="45.4258706" lon="7.7205428"><ele>517.0</ele><time>2026-04-25T12:37:16.953Z</time></trkpt><trkpt lat="45.4259759" lon="7.7204441"><ele>521.0</ele><time>2026-04-25T12:37:17.947Z</time></trkpt><trkpt lat="45.4260826" lon="7.7203367"><ele>518.5</ele><time>2026-04-25T12:37:18.95Z</time></trkpt><trkpt lat="45.4261882" lon="7.7202188"><ele>516.0</ele><time>2026-04-25T12:37:19.966Z</time></trkpt><trkpt lat="45.4262917" lon="7.7200957"><ele>513.5</ele><time>2026-04-25T12:37:21.011Z</time></trkpt><trkpt lat="45.4263927" lon="7.7199845"><ele>511.0</ele><time>2026-04-25T12:37:21.954Z</time></trkpt><trkpt lat="45.4264979" lon="7.7198811"><ele>516.5</ele><time>2026-04-25T12:37:22.948Z</time></trkpt><trkpt lat="45.4265988" lon="7.7197956"><ele>522.0</ele><time>2026-04-25T12:37:23.944Z</time></trkpt><trkpt lat="45.426708" lon="7.7197287"><ele>527.5</ele><time>2026-04-25T12:37:24.949Z</time></trkpt><trkpt lat="45.4268196" lon="7.7196765"><ele>533.0</ele><time>2026-04-25T12:37:25.948Z</time></trkpt><trkpt lat="45.4269371" lon="7.7196345"><ele>533.0</ele><time>2026-04-25T12:37:26.955Z</time></trkpt><trkpt lat="45.4270586" lon="7.7196015"><ele>533.0</ele><time>2026-04-25T12:37:28.014Z</time></trkpt><trkpt lat="45.4271805" lon="7.7195674"><ele>533.0</ele><time>2026-04-25T12:37:29.028Z</time></trkpt><trkpt lat="45.4273021" lon="7.7195402"><ele>533.0</ele><time>2026-04-25T12:37:29.971Z</time></trkpt><trkpt lat="45.4274221" lon="7.719522"><ele>536.0</ele><time>2026-04-25T12:37:30.963Z</time></trkpt><trkpt lat="45.4275307" lon="7.7195107"><ele>539.0</ele><time>2026-04-25T12:37:31.976Z</time></trkpt><trkpt lat="45.4276405" lon="7.7194892"><ele>542.0</ele><time>2026-04-25T12:37:32.959Z</time></trkpt><trkpt lat="45.4277491" lon="7.7194674"><ele>545.0</ele><time>2026-04-25T12:37:33.959Z</time></trkpt><trkpt lat="45.4278524" lon="7.7194498"><ele>548.0</ele><time>2026-04-25T12:37:34.959Z</time></trkpt><trkpt lat="45.4279476" lon="7.7194286"><ele>549.0</ele><time>2026-04-25T12:37:35.952Z</time></trkpt><trkpt lat="45.4280352" lon="7.7194174"><ele>550.0</ele><time>2026-04-25T12:37:37.026Z</time></trkpt><trkpt lat="45.4281169" lon="7.7194141"><ele>551.0</ele><time>2026-04-25T12:37:38.028Z</time></trkpt><trkpt lat="45.4281826" lon="7.7194213"><ele>552.0</ele><time>2026-04-25T12:37:38.983Z</time></trkpt><trkpt lat="45.4282939" lon="7.7194965"><ele>553.0</ele><time>2026-04-25T12:37:40.95Z</time></trkpt><trkpt lat="45.428377" lon="7.7196319"><ele>553.0</ele><time>2026-04-25T12:37:42.948Z</time></trkpt><trkpt lat="45.4284368" lon="7.7197631"><ele>553.0</ele><time>2026-04-25T12:37:44.953Z</time></trkpt><trkpt lat="45.4284791" lon="7.7198756"><ele>553.0</ele><time>2026-04-25T12:37:47.065Z</time></trkpt><trkpt lat="45.4285194" lon="7.7199533"><ele>553.0</ele><time>2026-04-25T12:37:48.956Z</time></trkpt><trkpt lat="45.4285761" lon="7.7200085"><ele>553.0</ele><time>2026-04-25T12:37:51.007Z</time></trkpt><trkpt lat="45.4286463" lon="7.7200334"><ele>553.0</ele><time>2026-04-25T12:37:52.949Z</time></trkpt><trkpt lat="45.4287209" lon="7.7200595"><ele>555.0</ele><time>2026-04-25T12:37:54.956Z</time></trkpt><trkpt lat="45.4288308" lon="7.7200476"><ele>557.0</ele><time>2026-04-25T12:37:56.948Z</time></trkpt><trkpt lat="45.4289392" lon="7.7200189"><ele>559.0</ele><time>2026-04-25T12:37:58.956Z</time></trkpt><trkpt lat="45.4290661" lon="7.7200182"><ele>561.0</ele><time>2026-04-25T12:38:01.031Z</time></trkpt><trkpt lat="45.4291794" lon="7.7200596"><ele>561.0</ele><time>2026-04-25T12:38:02.953Z</time></trkpt><trkpt lat="45.4292385" lon="7.7201124"><ele>561.0</ele><time>2026-04-25T12:38:03.949Z</time></trkpt><trkpt lat="45.429284" lon="7.7201814"><ele>561.0</ele><time>2026-04-25T12:38:04.951Z</time></trkpt><trkpt lat="45.4293724" lon="7.7202999"><ele>561.0</ele><time>2026-04-25T12:38:06.955Z</time></trkpt><trkpt lat="45.4294278" lon="7.7203615"><ele>561.0</ele><time>2026-04-25T12:38:08.012Z</time></trkpt><trkpt lat="45.4295246" lon="7.7204614"><ele>561.0</ele><time>2026-04-25T12:38:09.951Z</time></trkpt><trkpt lat="45.4296148" lon="7.720532"><ele>561.8</ele><time>2026-04-25T12:38:11.948Z</time></trkpt><trkpt lat="45.4297019" lon="7.7206066"><ele>562.6</ele><time>2026-04-25T12:38:13.952Z</time></trkpt><trkpt lat="45.4297677" lon="7.7206628"><ele>563.4</ele><time>2026-04-25T12:38:17.038Z</time></trkpt><trkpt lat="45.4298646" lon="7.7205847"><ele>564.2</ele><time>2026-04-25T12:38:19.956Z</time></trkpt><trkpt lat="45.4299718" lon="7.7205062"><ele>565.0</ele><time>2026-04-25T12:38:21.961Z</time></trkpt><trkpt lat="45.4300298" lon="7.7204605"><ele>564.9999999999999</ele><time>2026-04-25T12:38:23.032Z</time></trkpt><trkpt lat="45.4301002" lon="7.7204279"><ele>565.0</ele><time>2026-04-25T12:38:24.027Z</time></trkpt><trkpt lat="45.4301716" lon="7.7203963"><ele>565.0</ele><time>2026-04-25T12:38:24.965Z</time></trkpt><trkpt lat="45.4302415" lon="7.7203835"><ele>565.0</ele><time>2026-04-25T12:38:25.965Z</time></trkpt><trkpt lat="45.4303094" lon="7.7203734"><ele>565.0</ele><time>2026-04-25T12:38:26.971Z</time></trkpt><trkpt lat="45.4303778" lon="7.7203654"><ele>564.9999999999999</ele><time>2026-04-25T12:38:27.973Z</time></trkpt><trkpt lat="45.430445" lon="7.7203501"><ele>565.0</ele><time>2026-04-25T12:38:28.969Z</time></trkpt><trkpt lat="45.4305195" lon="7.7203337"><ele>565.8571428571428</ele><time>2026-04-25T12:38:29.967Z</time></trkpt><trkpt lat="45.4305906" lon="7.7203217"><ele>566.7142857142857</ele><time>2026-04-25T12:38:31.071Z</time></trkpt><trkpt lat="45.4306657" lon="7.7203074"><ele>567.5714285714286</ele><time>2026-04-25T12:38:32.026Z</time></trkpt><trkpt lat="45.4307395" lon="7.7202981"><ele>568.4285714285713</ele><time>2026-04-25T12:38:33.017Z</time></trkpt><trkpt lat="45.4308121" lon="7.7202968"><ele>569.2857142857142</ele><time>2026-04-25T12:38:33.979Z</time></trkpt><trkpt lat="45.4308842" lon="7.7202913"><ele>570.1428571428571</ele><time>2026-04-25T12:38:34.942Z</time></trkpt><trkpt lat="45.4309612" lon="7.7202711"><ele>571.0</ele><time>2026-04-25T12:38:36.033Z</time></trkpt><trkpt lat="45.4310343" lon="7.7202609"><ele>571.0</ele><time>2026-04-25T12:38:37.033Z</time></trkpt><trkpt lat="45.4311075" lon="7.7202484"><ele>571.0</ele><time>2026-04-25T12:38:38.027Z</time></trkpt><trkpt lat="45.431177" lon="7.7202521"><ele>571.0</ele><time>2026-04-25T12:38:39.021Z</time></trkpt><trkpt lat="45.4312376" lon="7.7202769"><ele>571.0</ele><time>2026-04-25T12:38:39.952Z</time></trkpt><trkpt lat="45.4313014" lon="7.7203062"><ele>571.0</ele><time>2026-04-25T12:38:40.959Z</time></trkpt><trkpt lat="45.4314086" lon="7.7203493"><ele>571.0</ele><time>2026-04-25T12:38:43.038Z</time></trkpt><trkpt lat="45.4314974" lon="7.720318"><ele>576.0</ele><time>2026-04-25T12:38:44.962Z</time></trkpt><trkpt lat="45.4315466" lon="7.7202274"><ele>581.0</ele><time>2026-04-25T12:38:46.956Z</time></trkpt><trkpt lat="45.4315934" lon="7.7201587"><ele>586.0</ele><time>2026-04-25T12:38:48.961Z</time></trkpt><trkpt lat="45.4316678" lon="7.7200668"><ele>591.0</ele><time>2026-04-25T12:39:12.954Z</time></trkpt><trkpt lat="45.4317667" lon="7.71997"><ele>596.0</ele><time>2026-04-25T12:39:14.956Z</time></trkpt><trkpt lat="45.4318271" lon="7.7198517"><ele>596.0</ele><time>2026-04-25T12:39:16.966Z</time></trkpt><trkpt lat="45.4318709" lon="7.7197595"><ele>596.0</ele><time>2026-04-25T12:39:18.956Z</time></trkpt><trkpt lat="45.4319614" lon="7.7196261"><ele>596.0</ele><time>2026-04-25T12:39:20.959Z</time></trkpt><trkpt lat="45.4320324" lon="7.7195527"><ele>596.0</ele><time>2026-04-25T12:39:21.963Z</time></trkpt><trkpt lat="45.4321043" lon="7.7194868"><ele>596.0</ele><time>2026-04-25T12:39:23.017Z</time></trkpt><trkpt lat="45.4321868" lon="7.7194118"><ele>596.5714285714286</ele><time>2026-04-25T12:39:24.018Z</time></trkpt><trkpt lat="45.4322558" lon="7.7193478"><ele>597.1428571428571</ele><time>2026-04-25T12:39:24.953Z</time></trkpt><trkpt lat="45.4323299" lon="7.7193065"><ele>597.7142857142857</ele><time>2026-04-25T12:39:25.949Z</time></trkpt><trkpt lat="45.4324067" lon="7.7192899"><ele>598.2857142857142</ele><time>2026-04-25T12:39:26.998Z</time></trkpt><trkpt lat="45.432472" lon="7.7192755"><ele>598.8571428571429</ele><time>2026-04-25T12:39:27.953Z</time></trkpt><trkpt lat="45.4325482" lon="7.7192805"><ele>599.4285714285713</ele><time>2026-04-25T12:39:28.953Z</time></trkpt><trkpt lat="45.4326122" lon="7.7192975"><ele>600.0</ele><time>2026-04-25T12:39:29.953Z</time></trkpt><trkpt lat="45.4326795" lon="7.7193326"><ele>600.0</ele><time>2026-04-25T12:39:30.956Z</time></trkpt><trkpt lat="45.4327402" lon="7.7193952"><ele>600.0</ele><time>2026-04-25T12:39:32.028Z</time></trkpt><trkpt lat="45.4327925" lon="7.7194842"><ele>600.0</ele><time>2026-04-25T12:39:33.032Z</time></trkpt><trkpt lat="45.4328386" lon="7.7195715"><ele>600.0</ele><time>2026-04-25T12:39:34.021Z</time></trkpt><trkpt lat="45.4328857" lon="7.7196582"><ele>600.0</ele><time>2026-04-25T12:39:34.949Z</time></trkpt><trkpt lat="45.4329287" lon="7.7197389"><ele>600.0</ele><time>2026-04-25T12:39:36.033Z</time></trkpt><trkpt lat="45.4330432" lon="7.7197972"><ele>601.8333333333334</ele><time>2026-04-25T12:39:38.03Z</time></trkpt><trkpt lat="45.433125" lon="7.7197701"><ele>603.6666666666666</ele><time>2026-04-25T12:39:39.032Z</time></trkpt><trkpt lat="45.4331887" lon="7.7197403"><ele>605.5</ele><time>2026-04-25T12:39:39.957Z</time></trkpt><trkpt lat="45.4332516" lon="7.7197151"><ele>607.3333333333333</ele><time>2026-04-25T12:39:40.954Z</time></trkpt><trkpt lat="45.4333628" lon="7.7197348"><ele>609.1666666666666</ele><time>2026-04-25T12:39:43.03Z</time></trkpt><trkpt lat="45.4334224" lon="7.7197736"><ele>611.0</ele><time>2026-04-25T12:39:44.032Z</time></trkpt><trkpt lat="45.4334846" lon="7.7198411"><ele>611.0</ele><time>2026-04-25T12:39:44.953Z</time></trkpt><trkpt lat="45.4335455" lon="7.7199257"><ele>611.0</ele><time>2026-04-25T12:39:45.961Z</time></trkpt><trkpt lat="45.4335983" lon="7.7199998"><ele>611.0</ele><time>2026-04-25T12:39:46.99Z</time></trkpt><trkpt lat="45.433669" lon="7.720131"><ele>611.0</ele><time>2026-04-25T12:39:49.029Z</time></trkpt><trkpt lat="45.4336921" lon="7.7202229"><ele>611.0</ele><time>2026-04-25T12:39:49.956Z</time></trkpt><trkpt lat="45.4337198" lon="7.720331"><ele>611.0</ele><time>2026-04-25T12:39:50.957Z</time></trkpt><trkpt lat="45.4337403" lon="7.7204548"><ele>610.4</ele><time>2026-04-25T12:39:51.982Z</time></trkpt><trkpt lat="45.4337505" lon="7.7205809"><ele>609.8</ele><time>2026-04-25T12:39:53.026Z</time></trkpt><trkpt lat="45.4337547" lon="7.7206957"><ele>609.1999999999999</ele><time>2026-04-25T12:39:54.031Z</time></trkpt><trkpt lat="45.4337834" lon="7.7208316"><ele>608.6</ele><time>2026-04-25T12:39:55.947Z</time></trkpt><trkpt lat="45.4338581" lon="7.7209606"><ele>608.0</ele><time>2026-04-25T12:39:58.038Z</time></trkpt><trkpt lat="45.4339128" lon="7.7210404"><ele>612.5</ele><time>2026-04-25T12:39:58.96Z</time></trkpt><trkpt lat="45.4339567" lon="7.7211269"><ele>617.0</ele><time>2026-04-25T12:39:59.964Z</time></trkpt><trkpt lat="45.4340078" lon="7.7212241"><ele>621.5</ele><time>2026-04-25T12:40:00.953Z</time></trkpt><trkpt lat="45.4340649" lon="7.7212963"><ele>626.0</ele><time>2026-04-25T12:40:01.956Z</time></trkpt><trkpt lat="45.4341209" lon="7.7213669"><ele>630.5</ele><time>2026-04-25T12:40:02.963Z</time></trkpt><trkpt lat="45.4341798" lon="7.7214408"><ele>635.0</ele><time>2026-04-25T12:40:04.044Z</time></trkpt><trkpt lat="45.4342375" lon="7.7215152"><ele>635.0</ele><time>2026-04-25T12:40:04.945Z</time></trkpt><trkpt lat="45.4343" lon="7.7215928"><ele>635.0</ele><time>2026-04-25T12:40:05.956Z</time></trkpt><trkpt lat="45.4343692" lon="7.7216814"><ele>635.0</ele><time>2026-04-25T12:40:06.998Z</time></trkpt><trkpt lat="45.43444" lon="7.7217529"><ele>635.0</ele><time>2026-04-25T12:40:07.951Z</time></trkpt><trkpt lat="45.4345132" lon="7.7218171"><ele>635.0</ele><time>2026-04-25T12:40:08.949Z</time></trkpt><trkpt lat="45.4345846" lon="7.7218687"><ele>635.0</ele><time>2026-04-25T12:40:09.953Z</time></trkpt><trkpt lat="45.4346583" lon="7.7219233"><ele>636.4</ele><time>2026-04-25T12:40:10.949Z</time></trkpt><trkpt lat="45.4347428" lon="7.7219929"><ele>637.8</ele><time>2026-04-25T12:40:11.944Z</time></trkpt><trkpt lat="45.4348132" lon="7.7220857"><ele>639.2</ele><time>2026-04-25T12:40:13.036Z</time></trkpt><trkpt lat="45.4348709" lon="7.7222"><ele>640.6</ele><time>2026-04-25T12:40:14.033Z</time></trkpt><trkpt lat="45.434925" lon="7.7223054"><ele>642.0</ele><time>2026-04-25T12:40:14.95Z</time></trkpt><trkpt lat="45.4349854" lon="7.7223976"><ele>642.0</ele><time>2026-04-25T12:40:15.954Z</time></trkpt><trkpt lat="45.4350973" lon="7.7224677"><ele>642.0</ele><time>2026-04-25T12:40:17.949Z</time></trkpt><trkpt lat="45.4352086" lon="7.7225067"><ele>642.0</ele><time>2026-04-25T12:40:19.955Z</time></trkpt><trkpt lat="45.4353323" lon="7.7225247"><ele>642.0</ele><time>2026-04-25T12:40:21.955Z</time></trkpt><trkpt lat="45.4354" lon="7.7225597"><ele>642.0</ele><time>2026-04-25T12:40:22.959Z</time></trkpt><trkpt lat="45.4354615" lon="7.7226067"><ele>642.3333333333334</ele><time>2026-04-25T12:40:23.954Z</time></trkpt><trkpt lat="45.4355172" lon="7.7226709"><ele>642.6666666666666</ele><time>2026-04-25T12:40:24.95Z</time></trkpt><trkpt lat="45.4355638" lon="7.7227451"><ele>643.0</ele><time>2026-04-25T12:40:25.948Z</time></trkpt><trkpt lat="45.4356125" lon="7.7228123"><ele>643.3333333333333</ele><time>2026-04-25T12:40:26.961Z</time></trkpt><trkpt lat="45.4356552" lon="7.7228801"><ele>643.6666666666666</ele><time>2026-04-25T12:40:27.956Z</time></trkpt><trkpt lat="45.4357282" lon="7.7230019"><ele>644.0</ele><time>2026-04-25T12:40:29.958Z</time></trkpt><trkpt lat="45.4357736" lon="7.7230908"><ele>644.0</ele><time>2026-04-25T12:40:31.944Z</time></trkpt><trkpt lat="45.4358221" lon="7.7229901"><ele>644.0</ele><time>2026-04-25T12:40:53.955Z</time></trkpt><trkpt lat="45.4358595" lon="7.7228794"><ele>644.0</ele><time>2026-04-25T12:40:55.957Z</time></trkpt><trkpt lat="45.4358991" lon="7.7227561"><ele>644.0</ele><time>2026-04-25T12:40:57.955Z</time></trkpt><trkpt lat="45.4359588" lon="7.7226112"><ele>644.0</ele><time>2026-04-25T12:40:59.965Z</time></trkpt><trkpt lat="45.4360172" lon="7.7224826"><ele>644.0</ele><time>2026-04-25T12:41:01.958Z</time></trkpt><trkpt lat="45.4360946" lon="7.722388"><ele>644.0</ele><time>2026-04-25T12:41:03.956Z</time></trkpt><trkpt lat="45.4361629" lon="7.7222789"><ele>644.0</ele><time>2026-04-25T12:41:05.958Z</time></trkpt><trkpt lat="45.4362484" lon="7.722204"><ele>644.0</ele><time>2026-04-25T12:41:07.959Z</time></trkpt><trkpt lat="45.4363325" lon="7.7221794"><ele>644.0</ele><time>2026-04-25T12:41:09.959Z</time></trkpt><trkpt lat="45.4364134" lon="7.7222135"><ele>646.8333333333333</ele><time>2026-04-25T12:41:12.955Z</time></trkpt><trkpt lat="45.4364685" lon="7.7223028"><ele>649.6666666666666</ele><time>2026-04-25T12:41:14.951Z</time></trkpt><trkpt lat="45.4365333" lon="7.7223969"><ele>652.5</ele><time>2026-04-25T12:41:16.942Z</time></trkpt><trkpt lat="45.4365972" lon="7.7224417"><ele>655.3333333333334</ele><time>2026-04-25T12:41:18.953Z</time></trkpt><trkpt lat="45.4367063" lon="7.7224076"><ele>658.1666666666667</ele><time>2026-04-25T12:41:20.946Z</time></trkpt><trkpt lat="45.4367689" lon="7.7223904"><ele>661.0</ele><time>2026-04-25T12:41:22.954Z</time></trkpt><trkpt lat="45.4368541" lon="7.7223619"><ele>661.0</ele><time>2026-04-25T12:41:25.967Z</time></trkpt><trkpt lat="45.4369111" lon="7.7222891"><ele>661.0</ele><time>2026-04-25T12:41:28.957Z</time></trkpt><trkpt lat="45.436963" lon="7.722216"><ele>661.0</ele><time>2026-04-25T12:41:30.96Z</time></trkpt><trkpt lat="45.4370352" lon="7.7221445"><ele>661.0</ele><time>2026-04-25T12:41:32.963Z</time></trkpt><trkpt lat="45.4370904" lon="7.7220959"><ele>661.0</ele><time>2026-04-25T12:41:35.959Z</time></trkpt><trkpt lat="45.4371476" lon="7.7220053"><ele>661.0</ele><time>2026-04-25T12:41:40.956Z</time></trkpt><trkpt lat="45.4372079" lon="7.7219562"><ele>663.6666666666667</ele><time>2026-04-25T12:41:42.954Z</time></trkpt><trkpt lat="45.4372712" lon="7.721926"><ele>666.3333333333334</ele><time>2026-04-25T12:41:44.956Z</time></trkpt><trkpt lat="45.4373622" lon="7.7219047"><ele>669.0</ele><time>2026-04-25T12:41:47.961Z</time></trkpt><trkpt lat="45.4374498" lon="7.7219486"><ele>671.6666666666666</ele><time>2026-04-25T12:41:49.959Z</time></trkpt><trkpt lat="45.4375228" lon="7.7219861"><ele>674.3333333333333</ele><time>2026-04-25T12:41:51.964Z</time></trkpt><trkpt lat="45.4376355" lon="7.7220449"><ele>677.0</ele><time>2026-04-25T12:41:53.966Z</time></trkpt><trkpt lat="45.4377336" lon="7.7221236"><ele>677.0</ele><time>2026-04-25T12:41:55.959Z</time></trkpt><trkpt lat="45.4378213" lon="7.7221694"><ele>677.0</ele><time>2026-04-25T12:41:57.961Z</time></trkpt><trkpt lat="45.4378889" lon="7.7221488"><ele>677.0</ele><time>2026-04-25T12:41:59.955Z</time></trkpt><trkpt lat="45.43796" lon="7.7221383"><ele>677.0</ele><time>2026-04-25T12:42:01.947Z</time></trkpt><trkpt lat="45.4380514" lon="7.7221499"><ele>677.0</ele><time>2026-04-25T12:42:03.967Z</time></trkpt><trkpt lat="45.4381196" lon="7.7221605"><ele>677.0</ele><time>2026-04-25T12:42:04.954Z</time></trkpt><trkpt lat="45.4382245" lon="7.7221473"><ele>679.0</ele><time>2026-04-25T12:42:06.947Z</time></trkpt><trkpt lat="45.4382953" lon="7.7221779"><ele>681.0</ele><time>2026-04-25T12:42:08.963Z</time></trkpt><trkpt lat="45.4383714" lon="7.7222205"><ele>683.0</ele><time>2026-04-25T12:42:10.962Z</time></trkpt><trkpt lat="45.4384268" lon="7.7222779"><ele>685.0</ele><time>2026-04-25T12:42:12.969Z</time></trkpt><trkpt lat="45.4384699" lon="7.7223559"><ele>687.0</ele><time>2026-04-25T12:42:14.956Z</time></trkpt><trkpt lat="45.4385004" lon="7.722445"><ele>689.0</ele><time>2026-04-25T12:42:16.949Z</time></trkpt><trkpt lat="45.43858" lon="7.722505"><ele>689.0</ele><time>2026-04-25T12:42:18.959Z</time></trkpt><trkpt lat="45.4386532" lon="7.7225371"><ele>689.0</ele><time>2026-04-25T12:42:20.956Z</time></trkpt><trkpt lat="45.4387306" lon="7.7225425"><ele>689.0</ele><time>2026-04-25T12:42:22.958Z</time></trkpt><trkpt lat="45.4387998" lon="7.7225236"><ele>689.0</ele><time>2026-04-25T12:42:24.96Z</time></trkpt><trkpt lat="45.4388712" lon="7.7224756"><ele>689.0</ele><time>2026-04-25T12:42:26.956Z</time></trkpt><trkpt lat="45.4389341" lon="7.7224237"><ele>689.0</ele><time>2026-04-25T12:42:28.963Z</time></trkpt><trkpt lat="45.4389897" lon="7.7223782"><ele>689.0</ele><time>2026-04-25T12:42:30.96Z</time></trkpt><trkpt lat="45.4390666" lon="7.7223335"><ele>691.3333333333333</ele><time>2026-04-25T12:42:33.959Z</time></trkpt><trkpt lat="45.4391303" lon="7.7223712"><ele>693.6666666666666</ele><time>2026-04-25T12:42:38.955Z</time></trkpt><trkpt lat="45.4391822" lon="7.7224387"><ele>696.0</ele><time>2026-04-25T12:42:52.954Z</time></trkpt><trkpt lat="45.4392633" lon="7.7224467"><ele>698.3333333333334</ele><time>2026-04-25T12:43:26.966Z</time></trkpt><trkpt lat="45.4393563" lon="7.7224593"><ele>700.6666666666667</ele><time>2026-04-25T12:43:28.965Z</time></trkpt><trkpt lat="45.4394508" lon="7.7224577"><ele>703.0</ele><time>2026-04-25T12:43:30.959Z</time></trkpt><trkpt lat="45.4395353" lon="7.7224714"><ele>703.0</ele><time>2026-04-25T12:43:32.957Z</time></trkpt><trkpt lat="45.4395959" lon="7.7225139"><ele>703.0</ele><time>2026-04-25T12:43:35.964Z</time></trkpt><trkpt lat="45.4396643" lon="7.7225831"><ele>703.0</ele><time>2026-04-25T12:43:38.95Z</time></trkpt><trkpt lat="45.4397133" lon="7.7226434"><ele>703.0</ele><time>2026-04-25T12:43:41.958Z</time></trkpt><trkpt lat="45.4397659" lon="7.7227063"><ele>703.0</ele><time>2026-04-25T12:43:43.96Z</time></trkpt><trkpt lat="45.4398179" lon="7.7227817"><ele>703.0</ele><time>2026-04-25T12:43:45.954Z</time></trkpt><trkpt lat="45.4398749" lon="7.7228291"><ele>703.0</ele><time>2026-04-25T12:43:48.964Z</time></trkpt><trkpt lat="45.4399555" lon="7.7227863"><ele>706.0</ele><time>2026-04-25T12:43:52.035Z</time></trkpt><trkpt lat="45.4400306" lon="7.7226906"><ele>709.0</ele><time>2026-04-25T12:43:54.038Z</time></trkpt><trkpt lat="45.440102" lon="7.7226133"><ele>712.0</ele><time>2026-04-25T12:43:54.953Z</time></trkpt><trkpt lat="45.4401524" lon="7.7225411"><ele>715.0</ele><time>2026-04-25T12:43:55.958Z</time></trkpt><trkpt lat="45.4402052" lon="7.7224652"><ele>718.0</ele><time>2026-04-25T12:43:56.962Z</time></trkpt><trkpt lat="45.4402751" lon="7.7223327"><ele>718.0</ele><time>2026-04-25T12:43:58.954Z</time></trkpt><trkpt lat="45.440319" lon="7.7222031"><ele>718.0</ele><time>2026-04-25T12:44:01.043Z</time></trkpt><trkpt lat="45.4403606" lon="7.7220575"><ele>718.0</ele><time>2026-04-25T12:44:03.027Z</time></trkpt><trkpt lat="45.440374" lon="7.7219334"><ele>718.0</ele><time>2026-04-25T12:44:04.951Z</time></trkpt><trkpt lat="45.4403596" lon="7.7218447"><ele>718.0</ele><time>2026-04-25T12:44:06.953Z</time></trkpt><trkpt lat="45.4403259" lon="7.7217653"><ele>718.0</ele><time>2026-04-25T12:44:08.948Z</time></trkpt><trkpt lat="45.4402901" lon="7.7216645"><ele>719.4285714285714</ele><time>2026-04-25T12:44:13.017Z</time></trkpt><trkpt lat="45.4402329" lon="7.7216016"><ele>720.8571428571429</ele><time>2026-04-25T12:44:17.954Z</time></trkpt><trkpt lat="45.4402554" lon="7.7215063"><ele>722.2857142857142</ele><time>2026-04-25T12:44:21.954Z</time></trkpt><trkpt lat="45.4403247" lon="7.72153"><ele>723.7142857142858</ele><time>2026-04-25T12:44:24.948Z</time></trkpt><trkpt lat="45.4403858" lon="7.7215607"><ele>725.1428571428571</ele><time>2026-04-25T12:44:30.954Z</time></trkpt><trkpt lat="45.4404467" lon="7.7215377"><ele>726.5714285714286</ele><time>2026-04-25T12:44:33.948Z</time></trkpt><trkpt lat="45.4405041" lon="7.7216278"><ele>728.0</ele><time>2026-04-25T12:44:44.972Z</time></trkpt><trkpt lat="45.4404598" lon="7.7217154"><ele>728.0</ele><time>2026-04-25T12:44:51.041Z</time></trkpt><trkpt lat="45.440399" lon="7.7216809"><ele>728.0</ele><time>2026-04-25T12:44:53.949Z</time></trkpt><trkpt lat="45.4403372" lon="7.7216441"><ele>728.0</ele><time>2026-04-25T12:44:55.951Z</time></trkpt><trkpt lat="45.4402618" lon="7.7216205"><ele>728.0</ele><time>2026-04-25T12:44:58.035Z</time></trkpt><trkpt lat="45.4401715" lon="7.7215898"><ele>728.0</ele><time>2026-04-25T12:44:59.955Z</time></trkpt><trkpt lat="45.4400697" lon="7.7215512"><ele>728.0</ele><time>2026-04-25T12:45:01.955Z</time></trkpt><trkpt lat="45.4400196" lon="7.7214794"><ele>728.0</ele><time>2026-04-25T12:45:03.957Z</time></trkpt><trkpt lat="45.4400016" lon="7.721369"><ele>728.0</ele><time>2026-04-25T12:45:06.041Z</time></trkpt><trkpt lat="45.4400066" lon="7.7212483"><ele>728.0</ele><time>2026-04-25T12:45:08.031Z</time></trkpt><trkpt lat="45.4399739" lon="7.7211551"><ele>728.0</ele><time>2026-04-25T12:45:09.955Z</time></trkpt><trkpt lat="45.4399234" lon="7.7210629"><ele>728.0</ele><time>2026-04-25T12:45:11.948Z</time></trkpt><trkpt lat="45.4398838" lon="7.7209272"><ele>728.0</ele><time>2026-04-25T12:45:13.95Z</time></trkpt><trkpt lat="45.4398687" lon="7.7208378"><ele>730.5999999999999</ele><time>2026-04-25T12:45:14.949Z</time></trkpt><trkpt lat="45.4398443" lon="7.7206674"><ele>733.1999999999999</ele><time>2026-04-25T12:45:16.946Z</time></trkpt><trkpt lat="45.4398222" lon="7.7205329"><ele>735.8</ele><time>2026-04-25T12:45:19.029Z</time></trkpt><trkpt lat="45.4398193" lon="7.7203444"><ele>738.4</ele><time>2026-04-25T12:45:20.963Z</time></trkpt><trkpt lat="45.4398294" lon="7.7202273"><ele>741.0</ele><time>2026-04-25T12:45:21.959Z</time></trkpt><trkpt lat="45.439845" lon="7.7201267"><ele>741.5999999999999</ele><time>2026-04-25T12:45:22.958Z</time></trkpt><trkpt lat="45.4398657" lon="7.7200087"><ele>742.2</ele><time>2026-04-25T12:45:23.954Z</time></trkpt><trkpt lat="45.4398968" lon="7.7198828"><ele>742.8</ele><time>2026-04-25T12:45:24.956Z</time></trkpt><trkpt lat="45.4399356" lon="7.7197539"><ele>743.4000000000001</ele><time>2026-04-25T12:45:26.019Z</time></trkpt><trkpt lat="45.4399772" lon="7.7196314"><ele>744.0</ele><time>2026-04-25T12:45:27.01Z</time></trkpt><trkpt lat="45.4400208" lon="7.7195122"><ele>744.0</ele><time>2026-04-25T12:45:27.952Z</time></trkpt><trkpt lat="45.4400578" lon="7.7194076"><ele>744.0</ele><time>2026-04-25T12:45:29.013Z</time></trkpt><trkpt lat="45.4401034" lon="7.7193115"><ele>744.0</ele><time>2026-04-25T12:45:29.96Z</time></trkpt><trkpt lat="45.4401496" lon="7.7192277"><ele>744.0</ele><time>2026-04-25T12:45:30.95Z</time></trkpt><trkpt lat="45.4401952" lon="7.7191377"><ele>744.0</ele><time>2026-04-25T12:45:32.945Z</time></trkpt><trkpt lat="45.440164" lon="7.7189935"><ele>744.0</ele><time>2026-04-25T12:45:37.952Z</time></trkpt><trkpt lat="45.4401198" lon="7.7188564"><ele>743.8000000000001</ele><time>2026-04-25T12:45:39.952Z</time></trkpt><trkpt lat="45.4401038" lon="7.7187271"><ele>743.6</ele><time>2026-04-25T12:45:41.958Z</time></trkpt><trkpt lat="45.4401122" lon="7.718595"><ele>743.4</ele><time>2026-04-25T12:45:43.949Z</time></trkpt><trkpt lat="45.4402186" lon="7.7184903"><ele>743.2</ele><time>2026-04-25T12:45:45.95Z</time></trkpt><trkpt lat="45.4402852" lon="7.718448"><ele>743.0</ele><time>2026-04-25T12:45:47.035Z</time></trkpt><trkpt lat="45.4403692" lon="7.7183751"><ele>751.25</ele><time>2026-04-25T12:45:47.959Z</time></trkpt><trkpt lat="45.4404677" lon="7.7182739"><ele>759.5</ele><time>2026-04-25T12:45:48.959Z</time></trkpt><trkpt lat="45.4405688" lon="7.7181729"><ele>767.75</ele><time>2026-04-25T12:45:49.955Z</time></trkpt><trkpt lat="45.440661" lon="7.7180735"><ele>776.0</ele><time>2026-04-25T12:45:50.957Z</time></trkpt><trkpt lat="45.4407315" lon="7.7179825"><ele>776.0000000000001</ele><time>2026-04-25T12:45:51.954Z</time></trkpt><trkpt lat="45.4408045" lon="7.7179034"><ele>776.0</ele><time>2026-04-25T12:45:53.039Z</time></trkpt><trkpt lat="45.4408701" lon="7.7178424"><ele>776.0</ele><time>2026-04-25T12:45:54.031Z</time></trkpt><trkpt lat="45.4409419" lon="7.7177774"><ele>776.0</ele><time>2026-04-25T12:45:54.938Z</time></trkpt><trkpt lat="45.4410231" lon="7.7177236"><ele>776.0000000000001</ele><time>2026-04-25T12:45:55.953Z</time></trkpt><trkpt lat="45.4411005" lon="7.7176961"><ele>776.0</ele><time>2026-04-25T12:45:56.984Z</time></trkpt><trkpt lat="45.4411834" lon="7.7176637"><ele>777.0</ele><time>2026-04-25T12:45:58.022Z</time></trkpt><trkpt lat="45.4412745" lon="7.7176254"><ele>778.0</ele><time>2026-04-25T12:45:59.011Z</time></trkpt><trkpt lat="45.4413622" lon="7.7175888"><ele>779.0</ele><time>2026-04-25T12:45:59.947Z</time></trkpt><trkpt lat="45.4414447" lon="7.7175669"><ele>780.0</ele><time>2026-04-25T12:46:00.962Z</time></trkpt><trkpt lat="45.4415369" lon="7.7175671"><ele>781.0</ele><time>2026-04-25T12:46:01.961Z</time></trkpt><trkpt lat="45.4416358" lon="7.7175803"><ele>781.0</ele><time>2026-04-25T12:46:02.982Z</time></trkpt><trkpt lat="45.441734" lon="7.7176132"><ele>781.0</ele><time>2026-04-25T12:46:03.947Z</time></trkpt><trkpt lat="45.4418449" lon="7.7176464"><ele>781.0</ele><time>2026-04-25T12:46:04.948Z</time></trkpt><trkpt lat="45.4419472" lon="7.7176876"><ele>781.0</ele><time>2026-04-25T12:46:05.95Z</time></trkpt><trkpt lat="45.442033" lon="7.7177319"><ele>781.0</ele><time>2026-04-25T12:46:07.04Z</time></trkpt><trkpt lat="45.4421047" lon="7.7177793"><ele>787.75</ele><time>2026-04-25T12:46:07.967Z</time></trkpt><trkpt lat="45.4421697" lon="7.7178103"><ele>794.5</ele><time>2026-04-25T12:46:09.006Z</time></trkpt><trkpt lat="45.4422631" lon="7.7178013"><ele>801.25</ele><time>2026-04-25T12:46:10.948Z</time></trkpt><trkpt lat="45.4423735" lon="7.717704"><ele>808.0</ele><time>2026-04-25T12:46:13.002Z</time></trkpt><trkpt lat="45.4425127" lon="7.7175864"><ele>807.9999999999999</ele><time>2026-04-25T12:46:15.949Z</time></trkpt><trkpt lat="45.4425772" lon="7.7175449"><ele>808.0</ele><time>2026-04-25T12:46:17.94Z</time></trkpt><trkpt lat="45.442653" lon="7.7175539"><ele>808.0</ele><time>2026-04-25T12:46:20.945Z</time></trkpt><trkpt lat="45.4426638" lon="7.7176727"><ele>808.0</ele><time>2026-04-25T12:46:23.95Z</time></trkpt><trkpt lat="45.4426276" lon="7.717749"><ele>807.9999999999999</ele><time>2026-04-25T12:46:24.951Z</time></trkpt><trkpt lat="45.4425851" lon="7.7178777"><ele>808.0</ele><time>2026-04-25T12:46:25.96Z</time></trkpt><trkpt lat="45.4425488" lon="7.7180176"><ele>810.0</ele><time>2026-04-25T12:46:26.951Z</time></trkpt><trkpt lat="45.442502" lon="7.7181556"><ele>812.0</ele><time>2026-04-25T12:46:27.939Z</time></trkpt><trkpt lat="45.4424566" lon="7.7182725"><ele>814.0</ele><time>2026-04-25T12:46:28.953Z</time></trkpt><trkpt lat="45.4423912" lon="7.7183553"><ele>816.0</ele><time>2026-04-25T12:46:29.95Z</time></trkpt><trkpt lat="45.4423332" lon="7.7184313"><ele>818.0</ele><time>2026-04-25T12:46:30.955Z</time></trkpt><trkpt lat="45.4422648" lon="7.7184976"><ele>819.8333333333334</ele><time>2026-04-25T12:46:31.95Z</time></trkpt><trkpt lat="45.4421791" lon="7.7185728"><ele>821.6666666666667</ele><time>2026-04-25T12:46:32.958Z</time></trkpt><trkpt lat="45.4421248" lon="7.7186396"><ele>823.5</ele><time>2026-04-25T12:46:33.955Z</time></trkpt><trkpt lat="45.4420806" lon="7.7187495"><ele>825.3333333333333</ele><time>2026-04-25T12:46:35.951Z</time></trkpt><trkpt lat="45.4420943" lon="7.7188733"><ele>827.1666666666666</ele><time>2026-04-25T12:46:37.937Z</time></trkpt><trkpt lat="45.4421676" lon="7.7189573"><ele>829.0</ele><time>2026-04-25T12:46:39.956Z</time></trkpt><trkpt lat="45.4422459" lon="7.7190249"><ele>829.0</ele><time>2026-04-25T12:46:41.949Z</time></trkpt><trkpt lat="45.4423033" lon="7.7191192"><ele>829.0</ele><time>2026-04-25T12:46:43.947Z</time></trkpt><trkpt lat="45.442309" lon="7.7192665"><ele>829.0</ele><time>2026-04-25T12:46:45.945Z</time></trkpt><trkpt lat="45.4423095" lon="7.7193756"><ele>829.0</ele><time>2026-04-25T12:46:46.948Z</time></trkpt><trkpt lat="45.442313" lon="7.7195083"><ele>829.0</ele><time>2026-04-25T12:46:48.034Z</time></trkpt><trkpt lat="45.4423077" lon="7.7196461"><ele>827.4000000000001</ele><time>2026-04-25T12:46:49.029Z</time></trkpt><trkpt lat="45.4423091" lon="7.7197803"><ele>825.8</ele><time>2026-04-25T12:46:49.962Z</time></trkpt><trkpt lat="45.4423251" lon="7.7199057"><ele>824.2</ele><time>2026-04-25T12:46:50.977Z</time></trkpt><trkpt lat="45.4423601" lon="7.7200044"><ele>822.5999999999999</ele><time>2026-04-25T12:46:51.969Z</time></trkpt><trkpt lat="45.442465" lon="7.7201179"><ele>821.0</ele><time>2026-04-25T12:46:53.968Z</time></trkpt><trkpt lat="45.4425347" lon="7.7201564"><ele>821.0</ele><time>2026-04-25T12:46:54.97Z</time></trkpt><trkpt lat="45.4426373" lon="7.720175"><ele>821.0</ele><time>2026-04-25T12:46:56.03Z</time></trkpt><trkpt lat="45.4427605" lon="7.720201"><ele>821.0</ele><time>2026-04-25T12:46:56.965Z</time></trkpt><trkpt lat="45.4428775" lon="7.7202263"><ele>821.0</ele><time>2026-04-25T12:46:58.036Z</time></trkpt><trkpt lat="45.4429968" lon="7.7202615"><ele>820.5</ele><time>2026-04-25T12:46:59.008Z</time></trkpt><trkpt lat="45.4431151" lon="7.720317"><ele>820.0</ele><time>2026-04-25T12:46:59.965Z</time></trkpt><trkpt lat="45.4432128" lon="7.7204107"><ele>819.5</ele><time>2026-04-25T12:47:00.961Z</time></trkpt><trkpt lat="45.4433113" lon="7.7205359"><ele>819.0</ele><time>2026-04-25T12:47:01.968Z</time></trkpt><trkpt lat="45.4434077" lon="7.7206552"><ele>819.0</ele><time>2026-04-25T12:47:02.972Z</time></trkpt><trkpt lat="45.4434978" lon="7.7207601"><ele>819.0</ele><time>2026-04-25T12:47:03.986Z</time></trkpt><trkpt lat="45.4435829" lon="7.7208535"><ele>819.0</ele><time>2026-04-25T12:47:04.974Z</time></trkpt><trkpt lat="45.4436733" lon="7.7209389"><ele>819.0</ele><time>2026-04-25T12:47:05.966Z</time></trkpt><trkpt lat="45.4437374" lon="7.7210641"><ele>819.0</ele><time>2026-04-25T12:47:07.036Z</time></trkpt><trkpt lat="45.4437707" lon="7.7212076"><ele>819.3333333333334</ele><time>2026-04-25T12:47:08.027Z</time></trkpt><trkpt lat="45.4437846" lon="7.7213439"><ele>819.6666666666667</ele><time>2026-04-25T12:47:09.03Z</time></trkpt><trkpt lat="45.4438057" lon="7.7214714"><ele>820.0</ele><time>2026-04-25T12:47:09.972Z</time></trkpt><trkpt lat="45.4438294" lon="7.7215846"><ele>820.3333333333334</ele><time>2026-04-25T12:47:10.975Z</time></trkpt><trkpt lat="45.443879" lon="7.7216695"><ele>820.6666666666667</ele><time>2026-04-25T12:47:12.081Z</time></trkpt><trkpt lat="45.4439387" lon="7.7217084"><ele>821.0</ele><time>2026-04-25T12:47:13.032Z</time></trkpt><trkpt lat="45.4440117" lon="7.7217134"><ele>821.0</ele><time>2026-04-25T12:47:14.036Z</time></trkpt><trkpt lat="45.4441032" lon="7.7217"><ele>821.0</ele><time>2026-04-25T12:47:14.969Z</time></trkpt><trkpt lat="45.4441912" lon="7.7216509"><ele>821.0</ele><time>2026-04-25T12:47:15.965Z</time></trkpt><trkpt lat="45.4442701" lon="7.7215879"><ele>821.0</ele><time>2026-04-25T12:47:16.992Z</time></trkpt><trkpt lat="45.4443487" lon="7.7215142"><ele>821.0</ele><time>2026-04-25T12:47:18.025Z</time></trkpt><trkpt lat="45.4444236" lon="7.7214266"><ele>821.0</ele><time>2026-04-25T12:47:19.036Z</time></trkpt><trkpt lat="45.4444963" lon="7.7213116"><ele>821.0</ele><time>2026-04-25T12:47:19.973Z</time></trkpt><trkpt lat="45.4445588" lon="7.7212062"><ele>821.0</ele><time>2026-04-25T12:47:20.956Z</time></trkpt><trkpt lat="45.4446217" lon="7.7211002"><ele>821.0</ele><time>2026-04-25T12:47:21.976Z</time></trkpt><trkpt lat="45.4446872" lon="7.7209962"><ele>821.0</ele><time>2026-04-25T12:47:22.972Z</time></trkpt><trkpt lat="45.4447529" lon="7.7208889"><ele>818.5999999999999</ele><time>2026-04-25T12:47:24.039Z</time></trkpt><trkpt lat="45.4448171" lon="7.7207815"><ele>816.2</ele><time>2026-04-25T12:47:24.949Z</time></trkpt><trkpt lat="45.4448859" lon="7.7206566"><ele>813.8</ele><time>2026-04-25T12:47:25.957Z</time></trkpt><trkpt lat="45.444954" lon="7.7205335"><ele>811.4000000000001</ele><time>2026-04-25T12:47:26.974Z</time></trkpt><trkpt lat="45.4450176" lon="7.7204232"><ele>809.0</ele><time>2026-04-25T12:47:27.965Z</time></trkpt><trkpt lat="45.4450643" lon="7.720325"><ele>809.0000000000001</ele><time>2026-04-25T12:47:28.98Z</time></trkpt><trkpt lat="45.4451145" lon="7.7202502"><ele>809.0</ele><time>2026-04-25T12:47:29.955Z</time></trkpt><trkpt lat="45.4452177" lon="7.720206"><ele>809.0</ele><time>2026-04-25T12:47:31.951Z</time></trkpt><trkpt lat="45.4453184" lon="7.7202476"><ele>809.0</ele><time>2026-04-25T12:47:33.953Z</time></trkpt><trkpt lat="45.4453865" lon="7.7202771"><ele>809.0000000000001</ele><time>2026-04-25T12:47:34.948Z</time></trkpt><trkpt lat="45.4454605" lon="7.7202924"><ele>809.0</ele><time>2026-04-25T12:47:35.952Z</time></trkpt><trkpt lat="45.4455313" lon="7.7202918"><ele>808.1428571428571</ele><time>2026-04-25T12:47:37.034Z</time></trkpt><trkpt lat="45.4455969" lon="7.7202893"><ele>807.2857142857143</ele><time>2026-04-25T12:47:38.028Z</time></trkpt><trkpt lat="45.4456603" lon="7.7202685"><ele>806.4285714285713</ele><time>2026-04-25T12:47:39.032Z</time></trkpt><trkpt lat="45.4457447" lon="7.7202308"><ele>805.5714285714286</ele><time>2026-04-25T12:47:40.961Z</time></trkpt><trkpt lat="45.4457713" lon="7.7201413"><ele>804.7142857142857</ele><time>2026-04-25T12:47:42.953Z</time></trkpt><trkpt lat="45.445769" lon="7.7200098"><ele>803.8571428571428</ele><time>2026-04-25T12:47:45.957Z</time></trkpt><trkpt lat="45.4457562" lon="7.7199157"><ele>803.0</ele><time>2026-04-25T12:47:47.957Z</time></trkpt><trkpt lat="45.4457315" lon="7.7197902"><ele>803.0</ele><time>2026-04-25T12:47:49.967Z</time></trkpt><trkpt lat="45.4456764" lon="7.7196869"><ele>803.0</ele><time>2026-04-25T12:47:51.954Z</time></trkpt><trkpt lat="45.4456168" lon="7.7195798"><ele>803.0</ele><time>2026-04-25T12:47:53.948Z</time></trkpt><trkpt lat="45.4455686" lon="7.7194639"><ele>803.0</ele><time>2026-04-25T12:47:55.948Z</time></trkpt><trkpt lat="45.4455556" lon="7.7193316"><ele>803.0</ele><time>2026-04-25T12:47:58.031Z</time></trkpt><trkpt lat="45.4456067" lon="7.7191835"><ele>804.2</ele><time>2026-04-25T12:47:59.963Z</time></trkpt><trkpt lat="45.4456523" lon="7.7191191"><ele>805.4</ele><time>2026-04-25T12:48:00.964Z</time></trkpt><trkpt lat="45.4457228" lon="7.7189922"><ele>806.6</ele><time>2026-04-25T12:48:02.964Z</time></trkpt><trkpt lat="45.4457864" lon="7.718854"><ele>807.8000000000001</ele><time>2026-04-25T12:48:04.983Z</time></trkpt><trkpt lat="45.4458533" lon="7.718708"><ele>809.0</ele><time>2026-04-25T12:48:06.951Z</time></trkpt><trkpt lat="45.4459034" lon="7.7185442"><ele>810.6</ele><time>2026-04-25T12:48:08.967Z</time></trkpt><trkpt lat="45.4459437" lon="7.7183705"><ele>812.2</ele><time>2026-04-25T12:48:10.963Z</time></trkpt><trkpt lat="45.4459705" lon="7.7182009"><ele>813.8000000000001</ele><time>2026-04-25T12:48:12.964Z</time></trkpt><trkpt lat="45.4459944" lon="7.7181096"><ele>815.4000000000001</ele><time>2026-04-25T12:48:14.032Z</time></trkpt><trkpt lat="45.4460207" lon="7.7180186"><ele>817.0</ele><time>2026-04-25T12:48:14.956Z</time></trkpt><trkpt lat="45.4460532" lon="7.7178554"><ele>820.4000000000001</ele><time>2026-04-25T12:48:16.953Z</time></trkpt><trkpt lat="45.4461068" lon="7.7176909"><ele>823.8000000000001</ele><time>2026-04-25T12:48:19.024Z</time></trkpt><trkpt lat="45.446134" lon="7.7176005"><ele>827.2</ele><time>2026-04-25T12:48:19.954Z</time></trkpt><trkpt lat="45.4461807" lon="7.7174432"><ele>830.6</ele><time>2026-04-25T12:48:21.976Z</time></trkpt><trkpt lat="45.4462346" lon="7.7173076"><ele>834.0</ele><time>2026-04-25T12:48:23.96Z</time></trkpt><trkpt lat="45.4462734" lon="7.7172089"><ele>832.6</ele><time>2026-04-25T12:48:25.964Z</time></trkpt><trkpt lat="45.4463196" lon="7.7170804"><ele>831.2</ele><time>2026-04-25T12:48:27.952Z</time></trkpt><trkpt lat="45.4463519" lon="7.7169496"><ele>829.8000000000001</ele><time>2026-04-25T12:48:29.947Z</time></trkpt><trkpt lat="45.4463779" lon="7.7168054"><ele>828.4000000000001</ele><time>2026-04-25T12:48:31.952Z</time></trkpt><trkpt lat="45.4464129" lon="7.7166509"><ele>827.0</ele><time>2026-04-25T12:48:33.956Z</time></trkpt><trkpt lat="45.4464372" lon="7.7165042"><ele>827.0</ele><time>2026-04-25T12:48:36.03Z</time></trkpt><trkpt lat="45.4464899" lon="7.716368"><ele>827.0</ele><time>2026-04-25T12:48:37.946Z</time></trkpt><trkpt lat="45.4465483" lon="7.7162534"><ele>827.0</ele><time>2026-04-25T12:48:39.944Z</time></trkpt><trkpt lat="45.4466054" lon="7.7161504"><ele>827.0</ele><time>2026-04-25T12:48:42.036Z</time></trkpt><trkpt lat="45.4466385" lon="7.7160509"><ele>827.0</ele><time>2026-04-25T12:48:46.949Z</time></trkpt><trkpt lat="45.446587" lon="7.715949"><ele>829.2</ele><time>2026-04-25T12:48:49.959Z</time></trkpt><trkpt lat="45.4465342" lon="7.7158202"><ele>831.4000000000001</ele><time>2026-04-25T12:48:51.991Z</time></trkpt><trkpt lat="45.4464834" lon="7.7156899"><ele>833.5999999999999</ele><time>2026-04-25T12:48:53.946Z</time></trkpt><trkpt lat="45.4464212" lon="7.7156075"><ele>835.8</ele><time>2026-04-25T12:48:55.951Z</time></trkpt><trkpt lat="45.4463239" lon="7.7155474"><ele>838.0</ele><time>2026-04-25T12:48:57.952Z</time></trkpt><trkpt lat="45.4462644" lon="7.715514"><ele>842.3333333333333</ele><time>2026-04-25T12:48:58.949Z</time></trkpt><trkpt lat="45.4462036" lon="7.715472"><ele>846.6666666666666</ele><time>2026-04-25T12:48:59.956Z</time></trkpt><trkpt lat="45.4461411" lon="7.7154216"><ele>851.0</ele><time>2026-04-25T12:49:00.955Z</time></trkpt><trkpt lat="45.4460894" lon="7.715369"><ele>855.3333333333333</ele><time>2026-04-25T12:49:01.959Z</time></trkpt><trkpt lat="45.4460346" lon="7.7152355"><ele>859.6666666666666</ele><time>2026-04-25T12:49:03.951Z</time></trkpt><trkpt lat="45.4460116" lon="7.715071"><ele>864.0</ele><time>2026-04-25T12:49:06.034Z</time></trkpt><trkpt lat="45.4459836" lon="7.7149255"><ele>866.1666666666666</ele><time>2026-04-25T12:49:08.026Z</time></trkpt><trkpt lat="45.4459584" lon="7.7147808"><ele>868.3333333333333</ele><time>2026-04-25T12:49:09.951Z</time></trkpt><trkpt lat="45.4458898" lon="7.7146953"><ele>870.5</ele><time>2026-04-25T12:49:12.028Z</time></trkpt><trkpt lat="45.4458324" lon="7.7146531"><ele>872.6666666666666</ele><time>2026-04-25T12:49:13.958Z</time></trkpt><trkpt lat="45.4457636" lon="7.7146315"><ele>874.8333333333333</ele><time>2026-04-25T12:49:15.95Z</time></trkpt><trkpt lat="45.4456887" lon="7.7146246"><ele>877.0</ele><time>2026-04-25T12:49:18.016Z</time></trkpt><trkpt lat="45.4456104" lon="7.7146024"><ele>877.0000000000001</ele><time>2026-04-25T12:49:19.957Z</time></trkpt><trkpt lat="45.4455462" lon="7.7145528"><ele>877.0</ele><time>2026-04-25T12:49:23.962Z</time></trkpt><trkpt lat="45.4454968" lon="7.7144966"><ele>877.0</ele><time>2026-04-25T12:49:32.025Z</time></trkpt><trkpt lat="45.4455557" lon="7.7144469"><ele>877.0</ele><time>2026-04-25T12:50:00.955Z</time></trkpt><trkpt lat="45.4456271" lon="7.7144687"><ele>877.0</ele><time>2026-04-25T12:50:04.965Z</time></trkpt><trkpt lat="45.4456863" lon="7.7145005"><ele>877.0000000000001</ele><time>2026-04-25T12:50:07.968Z</time></trkpt><trkpt lat="45.4457584" lon="7.7145122"><ele>877.0</ele><time>2026-04-25T12:51:05.956Z</time></trkpt><trkpt lat="45.4458218" lon="7.7145265"><ele>877.0000000000001</ele><time>2026-04-25T12:51:09.956Z</time></trkpt><trkpt lat="45.4458843" lon="7.714552"><ele>877.0</ele><time>2026-04-25T12:51:12.959Z</time></trkpt><trkpt lat="45.4459524" lon="7.7145723"><ele>877.0</ele><time>2026-04-25T12:51:17.029Z</time></trkpt><trkpt lat="45.446005" lon="7.7146448"><ele>877.0</ele><time>2026-04-25T12:51:20.955Z</time></trkpt><trkpt lat="45.4460447" lon="7.7147335"><ele>877.0</ele><time>2026-04-25T12:51:22.967Z</time></trkpt><trkpt lat="45.4460756" lon="7.714834"><ele>877.0000000000001</ele><time>2026-04-25T12:51:24.956Z</time></trkpt><trkpt lat="45.4461096" lon="7.7149317"><ele>877.0</ele><time>2026-04-25T12:51:26.959Z</time></trkpt><trkpt lat="45.4461366" lon="7.715027"><ele>876.9999999999999</ele><time>2026-04-25T12:51:30.952Z</time></trkpt><trkpt lat="45.4461114" lon="7.7151151"><ele>877.0</ele><time>2026-04-25T12:51:38.951Z</time></trkpt><trkpt lat="45.4460552" lon="7.7150291"><ele>877.0</ele><time>2026-04-25T12:53:45.956Z</time></trkpt><trkpt lat="45.4460069" lon="7.7148851"><ele>877.0</ele><time>2026-04-25T12:53:47.958Z</time></trkpt><trkpt lat="45.4459468" lon="7.7147635"><ele>876.9999999999999</ele><time>2026-04-25T12:53:49.953Z</time></trkpt><trkpt lat="45.4459007" lon="7.7146956"><ele>877.0</ele><time>2026-04-25T12:53:51.952Z</time></trkpt><trkpt lat="45.445835" lon="7.7146582"><ele>876.9999999999999</ele><time>2026-04-25T12:53:54.944Z</time></trkpt><trkpt lat="45.4459096" lon="7.714608"><ele>877.0</ele><time>2026-04-25T12:54:16.957Z</time></trkpt><trkpt lat="45.4459771" lon="7.7146496"><ele>877.0</ele><time>2026-04-25T12:54:18.955Z</time></trkpt><trkpt lat="45.4460366" lon="7.7147132"><ele>877.0</ele><time>2026-04-25T12:54:20.956Z</time></trkpt><trkpt lat="45.4460755" lon="7.7148198"><ele>876.9999999999999</ele><time>2026-04-25T12:54:22.954Z</time></trkpt><trkpt lat="45.4461112" lon="7.7149233"><ele>877.0</ele><time>2026-04-25T12:54:24.94Z</time></trkpt><trkpt lat="45.4461256" lon="7.7150158"><ele>876.9999999999999</ele><time>2026-04-25T12:54:28.96Z</time></trkpt><trkpt lat="45.4460942" lon="7.7151016"><ele>877.0</ele><time>2026-04-25T12:55:00.952Z</time></trkpt><trkpt lat="45.4460243" lon="7.7150089"><ele>877.0</ele><time>2026-04-25T12:55:06.954Z</time></trkpt><trkpt lat="45.4459812" lon="7.7149132"><ele>877.0</ele><time>2026-04-25T12:55:08.955Z</time></trkpt><trkpt lat="45.4459271" lon="7.7148122"><ele>876.9999999999999</ele><time>2026-04-25T12:55:10.935Z</time></trkpt><trkpt lat="45.4458566" lon="7.714729"><ele>877.0</ele><time>2026-04-25T12:55:14.027Z</time></trkpt><trkpt lat="45.4457655" lon="7.7147038"><ele>876.9999999999999</ele><time>2026-04-25T12:55:16.955Z</time></trkpt><trkpt lat="45.4456875" lon="7.7146746"><ele>877.0</ele><time>2026-04-25T12:55:18.96Z</time></trkpt><trkpt lat="45.4456116" lon="7.7146645"><ele>877.0</ele><time>2026-04-25T12:55:20.958Z</time></trkpt><trkpt lat="45.445529" lon="7.7146209"><ele>877.0</ele><time>2026-04-25T12:55:22.955Z</time></trkpt><trkpt lat="45.4454568" lon="7.7145575"><ele>876.9999999999999</ele><time>2026-04-25T12:55:24.958Z</time></trkpt><trkpt lat="45.4453797" lon="7.7145499"><ele>877.0</ele><time>2026-04-25T12:55:27.039Z</time></trkpt><trkpt lat="45.4453157" lon="7.7145525"><ele>885.0</ele><time>2026-04-25T12:55:28.966Z</time></trkpt><trkpt lat="45.4452367" lon="7.7145402"><ele>893.0</ele><time>2026-04-25T12:55:30.962Z</time></trkpt><trkpt lat="45.4451716" lon="7.7145136"><ele>901.0</ele><time>2026-04-25T12:55:31.964Z</time></trkpt><trkpt lat="45.445054" lon="7.7144965"><ele>909.0</ele><time>2026-04-25T12:55:34.074Z</time></trkpt><trkpt lat="45.4449414" lon="7.7144998"><ele>917.0</ele><time>2026-04-25T12:55:35.963Z</time></trkpt><trkpt lat="45.4448509" lon="7.7144665"><ele>917.0000000000001</ele><time>2026-04-25T12:55:37.968Z</time></trkpt><trkpt lat="45.4447529" lon="7.7144184"><ele>917.0</ele><time>2026-04-25T12:55:39.962Z</time></trkpt><trkpt lat="45.4446669" lon="7.7143879"><ele>917.0</ele><time>2026-04-25T12:55:41.963Z</time></trkpt><trkpt lat="45.4446033" lon="7.7143515"><ele>917.0</ele><time>2026-04-25T12:55:45.964Z</time></trkpt><trkpt lat="45.4445229" lon="7.7143971"><ele>917.0000000000001</ele><time>2026-04-25T12:55:49.975Z</time></trkpt><trkpt lat="45.4444422" lon="7.7143572"><ele>917.0</ele><time>2026-04-25T12:55:52.964Z</time></trkpt><trkpt lat="45.4444093" lon="7.7142806"><ele>917.2</ele><time>2026-04-25T12:55:53.967Z</time></trkpt><trkpt lat="45.4443879" lon="7.7141844"><ele>917.4000000000001</ele><time>2026-04-25T12:55:54.964Z</time></trkpt><trkpt lat="45.4443528" lon="7.7140481"><ele>917.5999999999999</ele><time>2026-04-25T12:55:56.968Z</time></trkpt><trkpt lat="45.444326" lon="7.7138641"><ele>917.8</ele><time>2026-04-25T12:55:58.955Z</time></trkpt><trkpt lat="45.4443087" lon="7.7137427"><ele>918.0</ele><time>2026-04-25T12:55:59.965Z</time></trkpt><trkpt lat="45.4442977" lon="7.7136496"><ele>919.5999999999999</ele><time>2026-04-25T12:56:00.963Z</time></trkpt><trkpt lat="45.4442888" lon="7.7135158"><ele>921.1999999999999</ele><time>2026-04-25T12:56:02.974Z</time></trkpt><trkpt lat="45.44431" lon="7.7133304"><ele>922.8</ele><time>2026-04-25T12:56:04.971Z</time></trkpt><trkpt lat="45.4443214" lon="7.7131805"><ele>924.4</ele><time>2026-04-25T12:56:06.969Z</time></trkpt><trkpt lat="45.4443338" lon="7.7130297"><ele>926.0</ele><time>2026-04-25T12:56:08.973Z</time></trkpt><trkpt lat="45.4443518" lon="7.712925"><ele>926.0</ele><time>2026-04-25T12:56:09.967Z</time></trkpt><trkpt lat="45.4443713" lon="7.7128313"><ele>925.9999999999999</ele><time>2026-04-25T12:56:10.963Z</time></trkpt><trkpt lat="45.4443956" lon="7.7127288"><ele>926.0</ele><time>2026-04-25T12:56:11.968Z</time></trkpt><trkpt lat="45.4444141" lon="7.7126135"><ele>926.0</ele><time>2026-04-25T12:56:12.964Z</time></trkpt><trkpt lat="45.4444101" lon="7.7125043"><ele>925.9999999999999</ele><time>2026-04-25T12:56:13.962Z</time></trkpt><trkpt lat="45.444398" lon="7.7124112"><ele>926.0</ele><time>2026-04-25T12:56:14.973Z</time></trkpt><trkpt lat="45.4443951" lon="7.7123055"><ele>926.0</ele><time>2026-04-25T12:56:15.963Z</time></trkpt><trkpt lat="45.4443974" lon="7.7121891"><ele>926.8</ele><time>2026-04-25T12:56:16.968Z</time></trkpt><trkpt lat="45.4443965" lon="7.7120918"><ele>927.5999999999999</ele><time>2026-04-25T12:56:17.969Z</time></trkpt><trkpt lat="45.444396" lon="7.7119566"><ele>928.4</ele><time>2026-04-25T12:56:19.974Z</time></trkpt><trkpt lat="45.4443638" lon="7.7117632"><ele>929.2</ele><time>2026-04-25T12:56:21.967Z</time></trkpt><trkpt lat="45.4443476" lon="7.7116532"><ele>930.0</ele><time>2026-04-25T12:56:22.969Z</time></trkpt><trkpt lat="45.4443309" lon="7.7115552"><ele>930.2</ele><time>2026-04-25T12:56:23.966Z</time></trkpt><trkpt lat="45.4443065" lon="7.7113902"><ele>930.4</ele><time>2026-04-25T12:56:25.963Z</time></trkpt><trkpt lat="45.4442792" lon="7.7113029"><ele>930.5999999999999</ele><time>2026-04-25T12:56:26.962Z</time></trkpt><trkpt lat="45.444219" lon="7.7111694"><ele>930.8</ele><time>2026-04-25T12:56:28.961Z</time></trkpt><trkpt lat="45.4441448" lon="7.7110519"><ele>931.0</ele><time>2026-04-25T12:56:30.968Z</time></trkpt><trkpt lat="45.4440612" lon="7.7109562"><ele>931.0</ele><time>2026-04-25T12:56:32.974Z</time></trkpt><trkpt lat="45.4439922" lon="7.7108617"><ele>930.9999999999999</ele><time>2026-04-25T12:56:34.97Z</time></trkpt><trkpt lat="45.4439613" lon="7.7107775"><ele>930.9999999999999</ele><time>2026-04-25T12:56:36.966Z</time></trkpt><trkpt lat="45.4439683" lon="7.7106423"><ele>931.0</ele><time>2026-04-25T12:56:38.973Z</time></trkpt><trkpt lat="45.4439851" lon="7.710481"><ele>931.0</ele><time>2026-04-25T12:56:40.964Z</time></trkpt><trkpt lat="45.4440146" lon="7.7103568"><ele>931.0</ele><time>2026-04-25T12:56:42.973Z</time></trkpt><trkpt lat="45.4440402" lon="7.7102438"><ele>930.9999999999999</ele><time>2026-04-25T12:56:44.972Z</time></trkpt><trkpt lat="45.444094" lon="7.7101609"><ele>930.9999999999999</ele><time>2026-04-25T12:56:46.976Z</time></trkpt><trkpt lat="45.444171" lon="7.7100761"><ele>931.0</ele><time>2026-04-25T12:56:49.972Z</time></trkpt><trkpt lat="45.4442541" lon="7.7100009"><ele>931.0</ele><time>2026-04-25T12:56:51.965Z</time></trkpt><trkpt lat="45.4443404" lon="7.7099397"><ele>931.0</ele><time>2026-04-25T12:56:53.971Z</time></trkpt><trkpt lat="45.444424" lon="7.7098778"><ele>930.9999999999999</ele><time>2026-04-25T12:56:55.973Z</time></trkpt><trkpt lat="45.4444999" lon="7.7097982"><ele>930.9999999999999</ele><time>2026-04-25T12:56:57.976Z</time></trkpt><trkpt lat="45.4445621" lon="7.7097236"><ele>931.0</ele><time>2026-04-25T12:56:59.966Z</time></trkpt><trkpt lat="45.4446276" lon="7.7096344"><ele>931.0</ele><time>2026-04-25T12:57:01.97Z</time></trkpt><trkpt lat="45.4447008" lon="7.709546"><ele>929.6666666666666</ele><time>2026-04-25T12:57:03.956Z</time></trkpt><trkpt lat="45.4447628" lon="7.70945"><ele>928.3333333333333</ele><time>2026-04-25T12:57:05.975Z</time></trkpt><trkpt lat="45.4448285" lon="7.7093476"><ele>927.0</ele><time>2026-04-25T12:57:07.96Z</time></trkpt><trkpt lat="45.4448795" lon="7.7092559"><ele>925.6666666666667</ele><time>2026-04-25T12:57:09.966Z</time></trkpt><trkpt lat="45.4449276" lon="7.709174"><ele>924.3333333333334</ele><time>2026-04-25T12:57:11.966Z</time></trkpt><trkpt lat="45.4449828" lon="7.7091072"><ele>923.0</ele><time>2026-04-25T12:57:13.966Z</time></trkpt><trkpt lat="45.4450556" lon="7.7090534"><ele>923.0000000000001</ele><time>2026-04-25T12:57:16.976Z</time></trkpt><trkpt lat="45.4451247" lon="7.7090428"><ele>923.0</ele><time>2026-04-25T12:57:21.977Z</time></trkpt><trkpt lat="45.4452133" lon="7.7090332"><ele>923.0</ele><time>2026-04-25T12:57:24.967Z</time></trkpt><trkpt lat="45.4452824" lon="7.7090753"><ele>923.0</ele><time>2026-04-25T12:57:28.967Z</time></trkpt><trkpt lat="45.4453337" lon="7.7091494"><ele>923.0000000000001</ele><time>2026-04-25T12:57:32.963Z</time></trkpt><trkpt lat="45.4452478" lon="7.7091906"><ele>923.0</ele><time>2026-04-25T12:57:36.965Z</time></trkpt><trkpt lat="45.4451564" lon="7.7092119"><ele>923.0</ele><time>2026-04-25T12:57:38.966Z</time></trkpt><trkpt lat="45.445067" lon="7.7092331"><ele>923.0</ele><time>2026-04-25T12:57:40.966Z</time></trkpt><trkpt lat="45.4449817" lon="7.7092937"><ele>923.0</ele><time>2026-04-25T12:57:42.967Z</time></trkpt><trkpt lat="45.4449074" lon="7.7094018"><ele>923.0</ele><time>2026-04-25T12:57:44.971Z</time></trkpt><trkpt lat="45.4448306" lon="7.7095023"><ele>923.0</ele><time>2026-04-25T12:57:46.967Z</time></trkpt><trkpt lat="45.4447592" lon="7.7095988"><ele>922.0000000000001</ele><time>2026-04-25T12:57:48.963Z</time></trkpt><trkpt lat="45.4446846" lon="7.7097102"><ele>921.0</ele><time>2026-04-25T12:57:50.966Z</time></trkpt><trkpt lat="45.4446132" lon="7.7097755"><ele>920.0</ele><time>2026-04-25T12:57:52.961Z</time></trkpt><trkpt lat="45.4445359" lon="7.7097779"><ele>919.0</ele><time>2026-04-25T13:01:22.958Z</time></trkpt><trkpt lat="45.4444915" lon="7.7098422"><ele>918.0000000000001</ele><time>2026-04-25T13:02:23.958Z</time></trkpt><trkpt lat="45.444415" lon="7.7099246"><ele>917.0</ele><time>2026-04-25T13:02:25.96Z</time></trkpt><trkpt lat="45.4443645" lon="7.7099822"><ele>919.0</ele><time>2026-04-25T13:02:26.954Z</time></trkpt><trkpt lat="45.4442997" lon="7.7100376"><ele>921.0</ele><time>2026-04-25T13:02:27.962Z</time></trkpt><trkpt lat="45.4442428" lon="7.7100784"><ele>923.0</ele><time>2026-04-25T13:02:28.962Z</time></trkpt><trkpt lat="45.4441785" lon="7.7100989"><ele>925.0</ele><time>2026-04-25T13:02:30.958Z</time></trkpt><trkpt lat="45.4441764" lon="7.7099872"><ele>927.0</ele><time>2026-04-25T13:02:34.957Z</time></trkpt><trkpt lat="45.4442142" lon="7.7099128"><ele>929.0</ele><time>2026-04-25T13:02:35.959Z</time></trkpt><trkpt lat="45.4442731" lon="7.7098274"><ele>931.0</ele><time>2026-04-25T13:02:36.94Z</time></trkpt><trkpt lat="45.4443124" lon="7.709738"><ele>931.0</ele><time>2026-04-25T13:02:37.957Z</time></trkpt><trkpt lat="45.4443484" lon="7.709648"><ele>931.0</ele><time>2026-04-25T13:02:38.952Z</time></trkpt><trkpt lat="45.4443756" lon="7.7095575"><ele>931.0</ele><time>2026-04-25T13:02:39.955Z</time></trkpt><trkpt lat="45.4443961" lon="7.709456"><ele>931.0</ele><time>2026-04-25T13:02:40.959Z</time></trkpt><trkpt lat="45.4444176" lon="7.7093513"><ele>931.0</ele><time>2026-04-25T13:02:41.961Z</time></trkpt><trkpt lat="45.44444" lon="7.7092472"><ele>931.0</ele><time>2026-04-25T13:02:42.958Z</time></trkpt><trkpt lat="45.4444647" lon="7.7091482"><ele>931.0</ele><time>2026-04-25T13:02:43.958Z</time></trkpt><trkpt lat="45.4444887" lon="7.709047"><ele>930.9999999999999</ele><time>2026-04-25T13:02:44.951Z</time></trkpt><trkpt lat="45.4445014" lon="7.7089367"><ele>931.0</ele><time>2026-04-25T13:02:45.953Z</time></trkpt><trkpt lat="45.4445194" lon="7.7088249"><ele>931.0</ele><time>2026-04-25T13:02:46.959Z</time></trkpt><trkpt lat="45.4445528" lon="7.7087268"><ele>931.0</ele><time>2026-04-25T13:02:47.952Z</time></trkpt><trkpt lat="45.4445903" lon="7.7086283"><ele>930.9999999999999</ele><time>2026-04-25T13:02:48.952Z</time></trkpt><trkpt lat="45.4446257" lon="7.7085348"><ele>931.0</ele><time>2026-04-25T13:02:49.962Z</time></trkpt><trkpt lat="45.4446579" lon="7.7084378"><ele>931.0</ele><time>2026-04-25T13:02:50.959Z</time></trkpt><trkpt lat="45.4446873" lon="7.7083528"><ele>931.0</ele><time>2026-04-25T13:02:51.953Z</time></trkpt><trkpt lat="45.4447208" lon="7.7082537"><ele>931.0</ele><time>2026-04-25T13:02:52.954Z</time></trkpt><trkpt lat="45.4447437" lon="7.7081557"><ele>931.0</ele><time>2026-04-25T13:02:53.948Z</time></trkpt><trkpt lat="45.4447852" lon="7.7080596"><ele>931.0</ele><time>2026-04-25T13:02:54.959Z</time></trkpt><trkpt lat="45.4448258" lon="7.7079757"><ele>931.0</ele><time>2026-04-25T13:02:55.952Z</time></trkpt><trkpt lat="45.4448661" lon="7.7078937"><ele>931.0</ele><time>2026-04-25T13:02:56.955Z</time></trkpt><trkpt lat="45.4449065" lon="7.7078158"><ele>932.75</ele><time>2026-04-25T13:02:57.949Z</time></trkpt><trkpt lat="45.4449633" lon="7.707649"><ele>934.5</ele><time>2026-04-25T13:02:59.951Z</time></trkpt><trkpt lat="45.4449928" lon="7.7075543"><ele>936.25</ele><time>2026-04-25T13:03:00.955Z</time></trkpt><trkpt lat="45.4450544" lon="7.7074016"><ele>938.0</ele><time>2026-04-25T13:03:02.957Z</time></trkpt><trkpt lat="45.4451386" lon="7.7072674"><ele>938.0000000000001</ele><time>2026-04-25T13:03:04.959Z</time></trkpt><trkpt lat="45.4452372" lon="7.7071526"><ele>938.0</ele><time>2026-04-25T13:03:06.955Z</time></trkpt><trkpt lat="45.4452936" lon="7.7071034"><ele>938.0</ele><time>2026-04-25T13:03:07.955Z</time></trkpt><trkpt lat="45.4453518" lon="7.7070621"><ele>938.0</ele><time>2026-04-25T13:03:08.959Z</time></trkpt><trkpt lat="45.4454173" lon="7.7070361"><ele>938.0000000000001</ele><time>2026-04-25T13:03:09.959Z</time></trkpt><trkpt lat="45.4455311" lon="7.7070002"><ele>938.0</ele><time>2026-04-25T13:03:11.954Z</time></trkpt><trkpt lat="45.4456408" lon="7.7069781"><ele>936.8333333333334</ele><time>2026-04-25T13:03:13.954Z</time></trkpt><trkpt lat="45.4457484" lon="7.7069387"><ele>935.6666666666667</ele><time>2026-04-25T13:03:15.954Z</time></trkpt><trkpt lat="45.4458449" lon="7.7068518"><ele>934.5</ele><time>2026-04-25T13:03:17.958Z</time></trkpt><trkpt lat="45.445901" lon="7.7067834"><ele>933.3333333333333</ele><time>2026-04-25T13:03:18.955Z</time></trkpt><trkpt lat="45.4459351" lon="7.7067034"><ele>932.1666666666666</ele><time>2026-04-25T13:03:19.959Z</time></trkpt><trkpt lat="45.4459777" lon="7.7066013"><ele>931.0</ele><time>2026-04-25T13:03:20.957Z</time></trkpt><trkpt lat="45.4460258" lon="7.7065011"><ele>933.8333333333333</ele><time>2026-04-25T13:03:21.953Z</time></trkpt><trkpt lat="45.4460773" lon="7.7063932"><ele>936.6666666666666</ele><time>2026-04-25T13:03:22.963Z</time></trkpt><trkpt lat="45.4461242" lon="7.7062864"><ele>939.5</ele><time>2026-04-25T13:03:23.954Z</time></trkpt><trkpt lat="45.4461689" lon="7.7061891"><ele>942.3333333333333</ele><time>2026-04-25T13:03:24.957Z</time></trkpt><trkpt lat="45.4462137" lon="7.7060915"><ele>945.1666666666666</ele><time>2026-04-25T13:03:25.957Z</time></trkpt><trkpt lat="45.4462557" lon="7.705984"><ele>948.0</ele><time>2026-04-25T13:03:26.953Z</time></trkpt><trkpt lat="45.4462935" lon="7.7058864"><ele>947.5</ele><time>2026-04-25T13:03:27.959Z</time></trkpt><trkpt lat="45.4463282" lon="7.7057854"><ele>947.0</ele><time>2026-04-25T13:03:28.962Z</time></trkpt><trkpt lat="45.4463679" lon="7.7056925"><ele>946.5</ele><time>2026-04-25T13:03:29.954Z</time></trkpt><trkpt lat="45.4464049" lon="7.7056084"><ele>946.0</ele><time>2026-04-25T13:03:30.959Z</time></trkpt><trkpt lat="45.4464566" lon="7.7055154"><ele>945.5</ele><time>2026-04-25T13:03:31.953Z</time></trkpt><trkpt lat="45.4464899" lon="7.7054356"><ele>945.0</ele><time>2026-04-25T13:03:32.953Z</time></trkpt><trkpt lat="45.4465666" lon="7.7052969"><ele>947.1428571428571</ele><time>2026-04-25T13:03:34.957Z</time></trkpt><trkpt lat="45.4466571" lon="7.7051942"><ele>949.2857142857142</ele><time>2026-04-25T13:03:36.959Z</time></trkpt><trkpt lat="45.4467183" lon="7.7051698"><ele>951.4285714285714</ele><time>2026-04-25T13:03:37.961Z</time></trkpt><trkpt lat="45.4467832" lon="7.705153"><ele>953.5714285714286</ele><time>2026-04-25T13:03:38.959Z</time></trkpt><trkpt lat="45.446853" lon="7.7051435"><ele>955.7142857142857</ele><time>2026-04-25T13:03:39.962Z</time></trkpt><trkpt lat="45.4469186" lon="7.7051353"><ele>957.8571428571429</ele><time>2026-04-25T13:03:40.961Z</time></trkpt><trkpt lat="45.4469824" lon="7.705128"><ele>960.0</ele><time>2026-04-25T13:03:42.029Z</time></trkpt><trkpt lat="45.4470772" lon="7.7050931"><ele>957.25</ele><time>2026-04-25T13:03:44.02Z</time></trkpt><trkpt lat="45.4471719" lon="7.7050015"><ele>954.5</ele><time>2026-04-25T13:03:45.952Z</time></trkpt><trkpt lat="45.4472552" lon="7.7048821"><ele>951.75</ele><time>2026-04-25T13:03:47.961Z</time></trkpt><trkpt lat="45.4473139" lon="7.7047437"><ele>949.0</ele><time>2026-04-25T13:03:49.959Z</time></trkpt><trkpt lat="45.4473813" lon="7.7045964"><ele>948.9999999999999</ele><time>2026-04-25T13:03:51.953Z</time></trkpt><trkpt lat="45.4474223" lon="7.7045228"><ele>949.0</ele><time>2026-04-25T13:03:52.962Z</time></trkpt><trkpt lat="45.4475251" lon="7.704416"><ele>949.0</ele><time>2026-04-25T13:03:54.956Z</time></trkpt><trkpt lat="45.447596" lon="7.7043674"><ele>949.0</ele><time>2026-04-25T13:03:55.967Z</time></trkpt><trkpt lat="45.4476736" lon="7.7043457"><ele>948.9999999999999</ele><time>2026-04-25T13:03:57.06Z</time></trkpt><trkpt lat="45.447753" lon="7.7043214"><ele>949.0</ele><time>2026-04-25T13:03:58.005Z</time></trkpt><trkpt lat="45.4478184" lon="7.7043298"><ele>949.6666666666666</ele><time>2026-04-25T13:03:58.963Z</time></trkpt><trkpt lat="45.4479053" lon="7.704369"><ele>950.3333333333333</ele><time>2026-04-25T13:04:00.953Z</time></trkpt><trkpt lat="45.4479849" lon="7.7042998"><ele>951.0</ele><time>2026-04-25T13:04:02.96Z</time></trkpt><trkpt lat="45.4480362" lon="7.704241"><ele>951.6666666666667</ele><time>2026-04-25T13:04:03.963Z</time></trkpt><trkpt lat="45.4480827" lon="7.7041646"><ele>952.3333333333334</ele><time>2026-04-25T13:04:04.951Z</time></trkpt><trkpt lat="45.4481223" lon="7.7040932"><ele>953.0</ele><time>2026-04-25T13:04:05.951Z</time></trkpt><trkpt lat="45.4481596" lon="7.7040102"><ele>953.0</ele><time>2026-04-25T13:04:06.964Z</time></trkpt><trkpt lat="45.4482385" lon="7.7038873"><ele>953.0</ele><time>2026-04-25T13:04:09.016Z</time></trkpt><trkpt lat="45.4482938" lon="7.7037971"><ele>953.0</ele><time>2026-04-25T13:04:10.958Z</time></trkpt><trkpt lat="45.4483633" lon="7.7037547"><ele>953.0</ele><time>2026-04-25T13:04:12.951Z</time></trkpt><trkpt lat="45.4484613" lon="7.703781"><ele>953.0</ele><time>2026-04-25T13:04:16.033Z</time></trkpt><trkpt lat="45.4485214" lon="7.7038951"><ele>953.0</ele><time>2026-04-25T13:04:17.952Z</time></trkpt><trkpt lat="45.4485646" lon="7.7039857"><ele>953.0</ele><time>2026-04-25T13:04:18.95Z</time></trkpt><trkpt lat="45.4486077" lon="7.7040679"><ele>953.0</ele><time>2026-04-25T13:04:19.953Z</time></trkpt><trkpt lat="45.4486407" lon="7.7041535"><ele>953.0</ele><time>2026-04-25T13:04:20.952Z</time></trkpt><trkpt lat="45.4486778" lon="7.7042353"><ele>953.0</ele><time>2026-04-25T13:04:21.962Z</time></trkpt><trkpt lat="45.4487236" lon="7.7043247"><ele>953.0</ele><time>2026-04-25T13:04:22.957Z</time></trkpt><trkpt lat="45.4487634" lon="7.7044027"><ele>953.0</ele><time>2026-04-25T13:04:24.017Z</time></trkpt><trkpt lat="45.448811" lon="7.7044791"><ele>953.8333333333334</ele><time>2026-04-25T13:04:24.955Z</time></trkpt><trkpt lat="45.4488563" lon="7.7045561"><ele>954.6666666666667</ele><time>2026-04-25T13:04:25.945Z</time></trkpt><trkpt lat="45.4489042" lon="7.7046244"><ele>955.5</ele><time>2026-04-25T13:04:26.951Z</time></trkpt><trkpt lat="45.4489474" lon="7.7046904"><ele>956.3333333333333</ele><time>2026-04-25T13:04:27.953Z</time></trkpt><trkpt lat="45.4490067" lon="7.7047975"><ele>957.1666666666666</ele><time>2026-04-25T13:04:29.96Z</time></trkpt><trkpt lat="45.4490834" lon="7.7048955"><ele>958.0</ele><time>2026-04-25T13:04:31.958Z</time></trkpt><trkpt lat="45.4491927" lon="7.7049684"><ele>958.0</ele><time>2026-04-25T13:04:33.954Z</time></trkpt><trkpt lat="45.4492852" lon="7.7050264"><ele>958.0</ele><time>2026-04-25T13:04:35.954Z</time></trkpt><trkpt lat="45.4493551" lon="7.7051354"><ele>958.0</ele><time>2026-04-25T13:04:37.951Z</time></trkpt><trkpt lat="45.449422" lon="7.705227"><ele>958.0</ele><time>2026-04-25T13:04:39.955Z</time></trkpt><trkpt lat="45.449506" lon="7.7053367"><ele>958.0</ele><time>2026-04-25T13:04:42.03Z</time></trkpt><trkpt lat="45.4495774" lon="7.7054036"><ele>957.3333333333333</ele><time>2026-04-25T13:04:43.952Z</time></trkpt><trkpt lat="45.4496632" lon="7.7054258"><ele>956.6666666666666</ele><time>2026-04-25T13:04:45.944Z</time></trkpt><trkpt lat="45.4497546" lon="7.7054352"><ele>956.0</ele><time>2026-04-25T13:04:48.035Z</time></trkpt><trkpt lat="45.4498462" lon="7.7054442"><ele>955.3333333333333</ele><time>2026-04-25T13:04:49.941Z</time></trkpt><trkpt lat="45.4499244" lon="7.7054853"><ele>954.6666666666666</ele><time>2026-04-25T13:04:52.949Z</time></trkpt><trkpt lat="45.4499606" lon="7.7056029"><ele>954.0</ele><time>2026-04-25T13:04:55.953Z</time></trkpt><trkpt lat="45.4499968" lon="7.7057332"><ele>954.0</ele><time>2026-04-25T13:04:58.956Z</time></trkpt><trkpt lat="45.4500403" lon="7.7058531"><ele>954.0</ele><time>2026-04-25T13:05:00.958Z</time></trkpt><trkpt lat="45.4500635" lon="7.7059697"><ele>954.0</ele><time>2026-04-25T13:05:01.958Z</time></trkpt><trkpt lat="45.4500825" lon="7.7060681"><ele>954.0</ele><time>2026-04-25T13:05:02.956Z</time></trkpt><trkpt lat="45.4501043" lon="7.706163"><ele>954.0</ele><time>2026-04-25T13:05:03.962Z</time></trkpt><trkpt lat="45.4501423" lon="7.706238"><ele>954.0</ele><time>2026-04-25T13:05:04.956Z</time></trkpt><trkpt lat="45.4502054" lon="7.7063617"><ele>954.8333333333334</ele><time>2026-04-25T13:05:06.95Z</time></trkpt><trkpt lat="45.4502537" lon="7.7064211"><ele>955.6666666666667</ele><time>2026-04-25T13:05:08.955Z</time></trkpt><trkpt lat="45.4503444" lon="7.7064154"><ele>956.5</ele><time>2026-04-25T13:05:12.939Z</time></trkpt><trkpt lat="45.4504157" lon="7.7063691"><ele>957.3333333333334</ele><time>2026-04-25T13:05:14.958Z</time></trkpt><trkpt lat="45.4505022" lon="7.7062993"><ele>958.1666666666667</ele><time>2026-04-25T13:05:16.954Z</time></trkpt><trkpt lat="45.4505674" lon="7.7062305"><ele>959.0</ele><time>2026-04-25T13:05:18.957Z</time></trkpt><trkpt lat="45.4506174" lon="7.7061218"><ele>961.6</ele><time>2026-04-25T13:05:20.951Z</time></trkpt><trkpt lat="45.4506603" lon="7.7060168"><ele>964.2</ele><time>2026-04-25T13:05:22.958Z</time></trkpt><trkpt lat="45.4507344" lon="7.7059184"><ele>966.8000000000001</ele><time>2026-04-25T13:05:24.961Z</time></trkpt><trkpt lat="45.4508044" lon="7.7058136"><ele>969.4000000000001</ele><time>2026-04-25T13:05:26.958Z</time></trkpt><trkpt lat="45.4508627" lon="7.7056995"><ele>972.0</ele><time>2026-04-25T13:05:28.951Z</time></trkpt><trkpt lat="45.4509228" lon="7.7055939"><ele>972.0</ele><time>2026-04-25T13:05:30.955Z</time></trkpt><trkpt lat="45.4509905" lon="7.7054926"><ele>972.0</ele><time>2026-04-25T13:05:32.961Z</time></trkpt><trkpt lat="45.4510676" lon="7.7053869"><ele>972.0</ele><time>2026-04-25T13:05:34.945Z</time></trkpt><trkpt lat="45.4511445" lon="7.7052835"><ele>972.0</ele><time>2026-04-25T13:05:37.019Z</time></trkpt><trkpt lat="45.4512528" lon="7.7051784"><ele>972.0</ele><time>2026-04-25T13:05:39.053Z</time></trkpt><trkpt lat="45.4513156" lon="7.7051281"><ele>976.3333333333334</ele><time>2026-04-25T13:05:39.95Z</time></trkpt><trkpt lat="45.4513838" lon="7.7050704"><ele>980.6666666666667</ele><time>2026-04-25T13:05:40.943Z</time></trkpt><trkpt lat="45.4514482" lon="7.7050064"><ele>985.0</ele><time>2026-04-25T13:05:41.951Z</time></trkpt><trkpt lat="45.451512" lon="7.7049466"><ele>989.3333333333334</ele><time>2026-04-25T13:05:43.003Z</time></trkpt><trkpt lat="45.4515686" lon="7.7048903"><ele>993.6666666666667</ele><time>2026-04-25T13:05:44.018Z</time></trkpt><trkpt lat="45.4516194" lon="7.7048369"><ele>998.0</ele><time>2026-04-25T13:05:44.953Z</time></trkpt><trkpt lat="45.451693" lon="7.7047336"><ele>998.0</ele><time>2026-04-25T13:05:46.946Z</time></trkpt><trkpt lat="45.4517765" lon="7.7046403"><ele>998.0</ele><time>2026-04-25T13:05:49.029Z</time></trkpt><trkpt lat="45.4518724" lon="7.7045384"><ele>998.0</ele><time>2026-04-25T13:05:50.953Z</time></trkpt><trkpt lat="45.451953" lon="7.7044296"><ele>998.0</ele><time>2026-04-25T13:05:53.032Z</time></trkpt><trkpt lat="45.4520205" lon="7.7043334"><ele>998.0</ele><time>2026-04-25T13:05:54.951Z</time></trkpt><trkpt lat="45.4520979" lon="7.704212"><ele>999.5999999999999</ele><time>2026-04-25T13:05:56.954Z</time></trkpt><trkpt lat="45.4521443" lon="7.7041431"><ele>1001.1999999999999</ele><time>2026-04-25T13:05:58.027Z</time></trkpt><trkpt lat="45.4521845" lon="7.7040737"><ele>1002.8</ele><time>2026-04-25T13:05:59.028Z</time></trkpt><trkpt lat="45.4522401" lon="7.7039319"><ele>1004.4</ele><time>2026-04-25T13:06:00.968Z</time></trkpt><trkpt lat="45.4523006" lon="7.7038087"><ele>1006.0</ele><time>2026-04-25T13:06:02.969Z</time></trkpt><trkpt lat="45.4523677" lon="7.7036747"><ele>1007.0</ele><time>2026-04-25T13:06:04.969Z</time></trkpt><trkpt lat="45.4524368" lon="7.7035718"><ele>1007.9999999999999</ele><time>2026-04-25T13:06:06.965Z</time></trkpt><trkpt lat="45.4524894" lon="7.7035103"><ele>1008.9999999999999</ele><time>2026-04-25T13:06:08.96Z</time></trkpt><trkpt lat="45.4525569" lon="7.7034439"><ele>1010.0</ele><time>2026-04-25T13:06:11.981Z</time></trkpt><trkpt lat="45.4526523" lon="7.7034176"><ele>1011.0</ele><time>2026-04-25T13:06:14.964Z</time></trkpt><trkpt lat="45.4527133" lon="7.703295"><ele>1011.0</ele><time>2026-04-25T13:06:17.971Z</time></trkpt><trkpt lat="45.4527679" lon="7.7031235"><ele>1011.0</ele><time>2026-04-25T13:06:19.961Z</time></trkpt><trkpt lat="45.4528011" lon="7.7030291"><ele>1011.0</ele><time>2026-04-25T13:06:20.963Z</time></trkpt><trkpt lat="45.4528449" lon="7.7029418"><ele>1011.0</ele><time>2026-04-25T13:06:21.973Z</time></trkpt><trkpt lat="45.4528951" lon="7.7028606"><ele>1011.0</ele><time>2026-04-25T13:06:22.969Z</time></trkpt><trkpt lat="45.4529514" lon="7.7027876"><ele>1011.0</ele><time>2026-04-25T13:06:23.976Z</time></trkpt><trkpt lat="45.4530027" lon="7.7027255"><ele>1014.5999999999999</ele><time>2026-04-25T13:06:24.963Z</time></trkpt><trkpt lat="45.4530334" lon="7.7026246"><ele>1018.1999999999999</ele><time>2026-04-25T13:06:26.963Z</time></trkpt><trkpt lat="45.453" lon="7.7024671"><ele>1021.8000000000001</ele><time>2026-04-25T13:06:28.965Z</time></trkpt><trkpt lat="45.4529737" lon="7.7023842"><ele>1025.4</ele><time>2026-04-25T13:06:30.008Z</time></trkpt><trkpt lat="45.4529719" lon="7.7022107"><ele>1029.0</ele><time>2026-04-25T13:06:31.973Z</time></trkpt><trkpt lat="45.4529962" lon="7.7020602"><ele>1029.0</ele><time>2026-04-25T13:06:33.978Z</time></trkpt><trkpt lat="45.4529827" lon="7.7019405"><ele>1029.0</ele><time>2026-04-25T13:06:35.974Z</time></trkpt><trkpt lat="45.4528965" lon="7.7018323"><ele>1029.0</ele><time>2026-04-25T13:06:37.967Z</time></trkpt><trkpt lat="45.4528433" lon="7.7017826"><ele>1029.0</ele><time>2026-04-25T13:06:38.969Z</time></trkpt><trkpt lat="45.4527844" lon="7.7017323"><ele>1029.0</ele><time>2026-04-25T13:06:39.968Z</time></trkpt><trkpt lat="45.4527217" lon="7.7016795"><ele>1029.0</ele><time>2026-04-25T13:06:40.957Z</time></trkpt><trkpt lat="45.4526549" lon="7.701612"><ele>1030.8333333333333</ele><time>2026-04-25T13:06:41.962Z</time></trkpt><trkpt lat="45.4525874" lon="7.7015362"><ele>1032.6666666666667</ele><time>2026-04-25T13:06:42.965Z</time></trkpt><trkpt lat="45.4525241" lon="7.7014492"><ele>1034.5</ele><time>2026-04-25T13:06:43.964Z</time></trkpt><trkpt lat="45.4524617" lon="7.7013748"><ele>1036.3333333333335</ele><time>2026-04-25T13:06:44.967Z</time></trkpt><trkpt lat="45.4524012" lon="7.70132"><ele>1038.1666666666667</ele><time>2026-04-25T13:06:45.973Z</time></trkpt><trkpt lat="45.4523359" lon="7.7012666"><ele>1040.0</ele><time>2026-04-25T13:06:46.968Z</time></trkpt><trkpt lat="45.4522679" lon="7.7012197"><ele>1040.0</ele><time>2026-04-25T13:06:47.967Z</time></trkpt><trkpt lat="45.4521966" lon="7.7011691"><ele>1040.0</ele><time>2026-04-25T13:06:48.973Z</time></trkpt><trkpt lat="45.4521273" lon="7.7011201"><ele>1040.0</ele><time>2026-04-25T13:06:49.969Z</time></trkpt><trkpt lat="45.4520613" lon="7.7010716"><ele>1040.0</ele><time>2026-04-25T13:06:50.973Z</time></trkpt><trkpt lat="45.4519984" lon="7.7010314"><ele>1040.0</ele><time>2026-04-25T13:06:51.972Z</time></trkpt><trkpt lat="45.4519352" lon="7.7010003"><ele>1040.0</ele><time>2026-04-25T13:06:52.973Z</time></trkpt><trkpt lat="45.4518319" lon="7.7009355"><ele>1039.0</ele><time>2026-04-25T13:06:54.974Z</time></trkpt><trkpt lat="45.4517329" lon="7.70083"><ele>1038.0</ele><time>2026-04-25T13:06:56.974Z</time></trkpt><trkpt lat="45.4516563" lon="7.7007249"><ele>1037.0</ele><time>2026-04-25T13:06:58.968Z</time></trkpt><trkpt lat="45.4516125" lon="7.700585"><ele>1036.0</ele><time>2026-04-25T13:07:00.976Z</time></trkpt><trkpt lat="45.4515985" lon="7.7004919"><ele>1035.0</ele><time>2026-04-25T13:07:01.971Z</time></trkpt><trkpt lat="45.451555" lon="7.7003332"><ele>1035.6</ele><time>2026-04-25T13:07:03.961Z</time></trkpt><trkpt lat="45.4514842" lon="7.7002003"><ele>1036.2</ele><time>2026-04-25T13:07:05.966Z</time></trkpt><trkpt lat="45.451416" lon="7.70004"><ele>1036.8</ele><time>2026-04-25T13:07:07.965Z</time></trkpt><trkpt lat="45.4513686" lon="7.6999618"><ele>1037.4</ele><time>2026-04-25T13:07:08.971Z</time></trkpt><trkpt lat="45.4513221" lon="7.6998924"><ele>1038.0</ele><time>2026-04-25T13:07:09.964Z</time></trkpt><trkpt lat="45.4512665" lon="7.6998328"><ele>1038.0</ele><time>2026-04-25T13:07:10.97Z</time></trkpt><trkpt lat="45.4512064" lon="7.6997977"><ele>1038.0</ele><time>2026-04-25T13:07:11.975Z</time></trkpt><trkpt lat="45.451145" lon="7.6997701"><ele>1038.0</ele><time>2026-04-25T13:07:12.965Z</time></trkpt><trkpt lat="45.451075" lon="7.6997485"><ele>1038.0</ele><time>2026-04-25T13:07:13.968Z</time></trkpt><trkpt lat="45.4510015" lon="7.6997333"><ele>1038.0</ele><time>2026-04-25T13:07:14.961Z</time></trkpt><trkpt lat="45.45094" lon="7.6997129"><ele>1038.0</ele><time>2026-04-25T13:07:15.963Z</time></trkpt><trkpt lat="45.4508665" lon="7.6996572"><ele>1038.0</ele><time>2026-04-25T13:07:17.965Z</time></trkpt><trkpt lat="45.4507943" lon="7.6996435"><ele>1038.0</ele><time>2026-04-25T13:07:21.033Z</time></trkpt><trkpt lat="45.4507277" lon="7.6997138"><ele>1038.0</ele><time>2026-04-25T13:07:22.955Z</time></trkpt><trkpt lat="45.450666" lon="7.69976"><ele>1038.0</ele><time>2026-04-25T13:07:23.942Z</time></trkpt><trkpt lat="45.4505939" lon="7.6997769"><ele>1038.0</ele><time>2026-04-25T13:07:24.95Z</time></trkpt><trkpt lat="45.4505122" lon="7.6997891"><ele>1038.0</ele><time>2026-04-25T13:07:25.954Z</time></trkpt><trkpt lat="45.4504301" lon="7.6997936"><ele>1038.0</ele><time>2026-04-25T13:07:26.957Z</time></trkpt><trkpt lat="45.4503527" lon="7.6997938"><ele>1038.5</ele><time>2026-04-25T13:07:28.037Z</time></trkpt><trkpt lat="45.4502658" lon="7.6997804"><ele>1039.0</ele><time>2026-04-25T13:07:29.023Z</time></trkpt><trkpt lat="45.4501876" lon="7.6997829"><ele>1039.5</ele><time>2026-04-25T13:07:29.951Z</time></trkpt><trkpt lat="45.4501138" lon="7.6997932"><ele>1040.0</ele><time>2026-04-25T13:07:30.95Z</time></trkpt><trkpt lat="45.4500465" lon="7.6997999"><ele>1040.5</ele><time>2026-04-25T13:07:31.965Z</time></trkpt><trkpt lat="45.4499303" lon="7.6998027"><ele>1041.0</ele><time>2026-04-25T13:07:33.953Z</time></trkpt><trkpt lat="45.4498253" lon="7.6997634"><ele>1041.0</ele><time>2026-04-25T13:07:35.95Z</time></trkpt><trkpt lat="45.4497343" lon="7.6997184"><ele>1041.0</ele><time>2026-04-25T13:07:37.952Z</time></trkpt><trkpt lat="45.4496933" lon="7.699637"><ele>1041.0</ele><time>2026-04-25T13:07:39.957Z</time></trkpt><trkpt lat="45.4496715" lon="7.699529"><ele>1041.0</ele><time>2026-04-25T13:07:41.945Z</time></trkpt><trkpt lat="45.4496523" lon="7.699443"><ele>1041.0</ele><time>2026-04-25T13:07:42.955Z</time></trkpt><trkpt lat="45.449635" lon="7.6993562"><ele>1041.0</ele><time>2026-04-25T13:07:43.955Z</time></trkpt><trkpt lat="45.4496212" lon="7.6992561"><ele>1041.0</ele><time>2026-04-25T13:07:44.95Z</time></trkpt><trkpt lat="45.449622" lon="7.6991406"><ele>1039.857142857143</ele><time>2026-04-25T13:07:45.96Z</time></trkpt><trkpt lat="45.4496194" lon="7.6990334"><ele>1038.7142857142858</ele><time>2026-04-25T13:07:46.958Z</time></trkpt><trkpt lat="45.4496197" lon="7.6989317"><ele>1037.5714285714287</ele><time>2026-04-25T13:07:47.954Z</time></trkpt><trkpt lat="45.4496324" lon="7.698841"><ele>1036.4285714285716</ele><time>2026-04-25T13:07:48.953Z</time></trkpt><trkpt lat="45.4496545" lon="7.6987561"><ele>1035.2857142857142</ele><time>2026-04-25T13:07:49.955Z</time></trkpt><trkpt lat="45.4496726" lon="7.698663"><ele>1034.1428571428573</ele><time>2026-04-25T13:07:50.953Z</time></trkpt><trkpt lat="45.4497" lon="7.6985735"><ele>1033.0</ele><time>2026-04-25T13:07:51.959Z</time></trkpt><trkpt lat="45.4497264" lon="7.6984839"><ele>1038.4</ele><time>2026-04-25T13:07:52.956Z</time></trkpt><trkpt lat="45.4497527" lon="7.6983906"><ele>1043.8</ele><time>2026-04-25T13:07:54.011Z</time></trkpt><trkpt lat="45.4497973" lon="7.6982482"><ele>1049.2</ele><time>2026-04-25T13:07:55.962Z</time></trkpt><trkpt lat="45.4498558" lon="7.6981299"><ele>1054.6</ele><time>2026-04-25T13:07:57.955Z</time></trkpt><trkpt lat="45.4499412" lon="7.6980284"><ele>1060.0</ele><time>2026-04-25T13:07:59.947Z</time></trkpt><trkpt lat="45.4499761" lon="7.6979372"><ele>1060.0</ele><time>2026-04-25T13:08:01.948Z</time></trkpt><trkpt lat="45.4499887" lon="7.6978343"><ele>1060.0</ele><time>2026-04-25T13:08:03.952Z</time></trkpt><trkpt lat="45.4499751" lon="7.6977444"><ele>1060.0</ele><time>2026-04-25T13:08:05.951Z</time></trkpt><trkpt lat="45.4499463" lon="7.6976302"><ele>1060.0</ele><time>2026-04-25T13:08:08.017Z</time></trkpt><trkpt lat="45.4499357" lon="7.6975111"><ele>1060.0</ele><time>2026-04-25T13:08:09.951Z</time></trkpt><trkpt lat="45.4499348" lon="7.6973868"><ele>1060.0</ele><time>2026-04-25T13:08:11.954Z</time></trkpt><trkpt lat="45.4499116" lon="7.6972339"><ele>1060.5714285714284</ele><time>2026-04-25T13:08:13.956Z</time></trkpt><trkpt lat="45.4499022" lon="7.6971262"><ele>1061.142857142857</ele><time>2026-04-25T13:08:14.974Z</time></trkpt><trkpt lat="45.4498863" lon="7.6970275"><ele>1061.7142857142858</ele><time>2026-04-25T13:08:15.949Z</time></trkpt><trkpt lat="45.449871" lon="7.6969362"><ele>1062.2857142857142</ele><time>2026-04-25T13:08:17.016Z</time></trkpt><trkpt lat="45.4498637" lon="7.6968403"><ele>1062.857142857143</ele><time>2026-04-25T13:08:17.953Z</time></trkpt><trkpt lat="45.4498584" lon="7.6967409"><ele>1063.4285714285713</ele><time>2026-04-25T13:08:18.949Z</time></trkpt><trkpt lat="45.4498489" lon="7.6966453"><ele>1064.0</ele><time>2026-04-25T13:08:19.95Z</time></trkpt><trkpt lat="45.449847" lon="7.6965465"><ele>1064.5</ele><time>2026-04-25T13:08:20.955Z</time></trkpt><trkpt lat="45.449849" lon="7.6964512"><ele>1065.0</ele><time>2026-04-25T13:08:21.951Z</time></trkpt><trkpt lat="45.4498619" lon="7.6963486"><ele>1065.5</ele><time>2026-04-25T13:08:22.952Z</time></trkpt><trkpt lat="45.4498938" lon="7.6961887"><ele>1066.0</ele><time>2026-04-25T13:08:24.951Z</time></trkpt><trkpt lat="45.4499319" lon="7.6961082"><ele>1066.5</ele><time>2026-04-25T13:08:25.944Z</time></trkpt><trkpt lat="45.449983" lon="7.6960218"><ele>1067.0</ele><time>2026-04-25T13:08:26.955Z</time></trkpt><trkpt lat="45.4500387" lon="7.6959358"><ele>1068.0</ele><time>2026-04-25T13:08:27.941Z</time></trkpt><trkpt lat="45.4501066" lon="7.6958529"><ele>1069.0</ele><time>2026-04-25T13:08:29.022Z</time></trkpt><trkpt lat="45.4501744" lon="7.6957757"><ele>1070.0</ele><time>2026-04-25T13:08:29.962Z</time></trkpt><trkpt lat="45.4502361" lon="7.6957116"><ele>1071.0</ele><time>2026-04-25T13:08:30.945Z</time></trkpt><trkpt lat="45.4502933" lon="7.6956502"><ele>1072.0</ele><time>2026-04-25T13:08:31.954Z</time></trkpt><trkpt lat="45.4503486" lon="7.6956032"><ele>1073.0</ele><time>2026-04-25T13:08:32.954Z</time></trkpt><trkpt lat="45.4504631" lon="7.6955276"><ele>1073.0</ele><time>2026-04-25T13:08:34.953Z</time></trkpt><trkpt lat="45.4505267" lon="7.6955007"><ele>1073.0</ele><time>2026-04-25T13:08:35.946Z</time></trkpt><trkpt lat="45.4506375" lon="7.6954326"><ele>1073.0</ele><time>2026-04-25T13:08:37.948Z</time></trkpt><trkpt lat="45.4507463" lon="7.6953344"><ele>1073.0</ele><time>2026-04-25T13:08:39.949Z</time></trkpt><trkpt lat="45.4508163" lon="7.6952854"><ele>1073.0</ele><time>2026-04-25T13:08:40.953Z</time></trkpt><trkpt lat="45.4508983" lon="7.6952541"><ele>1072.0</ele><time>2026-04-25T13:08:41.952Z</time></trkpt><trkpt lat="45.4509807" lon="7.6952213"><ele>1071.0</ele><time>2026-04-25T13:08:42.951Z</time></trkpt><trkpt lat="45.451081" lon="7.695191"><ele>1070.0</ele><time>2026-04-25T13:08:43.958Z</time></trkpt><trkpt lat="45.4512082" lon="7.695167"><ele>1069.0</ele><time>2026-04-25T13:08:44.954Z</time></trkpt><trkpt lat="45.4513503" lon="7.6951322"><ele>1069.0</ele><time>2026-04-25T13:08:46.019Z</time></trkpt><trkpt lat="45.4515035" lon="7.695079"><ele>1069.0</ele><time>2026-04-25T13:08:46.952Z</time></trkpt><trkpt lat="45.4516498" lon="7.6950038"><ele>1069.0</ele><time>2026-04-25T13:08:48.029Z</time></trkpt><trkpt lat="45.4518119" lon="7.6949308"><ele>1069.0</ele><time>2026-04-25T13:08:48.965Z</time></trkpt><trkpt lat="45.4519716" lon="7.6948723"><ele>1069.0</ele><time>2026-04-25T13:08:49.955Z</time></trkpt><trkpt lat="45.4521103" lon="7.6948316"><ele>1069.0</ele><time>2026-04-25T13:08:50.96Z</time></trkpt><trkpt lat="45.4522422" lon="7.6947962"><ele>1069.0</ele><time>2026-04-25T13:08:51.963Z</time></trkpt><trkpt lat="45.4523628" lon="7.6947516"><ele>1072.25</ele><time>2026-04-25T13:08:52.956Z</time></trkpt><trkpt lat="45.4524751" lon="7.6947"><ele>1075.5</ele><time>2026-04-25T13:08:53.967Z</time></trkpt><trkpt lat="45.4525861" lon="7.6946304"><ele>1078.75</ele><time>2026-04-25T13:08:54.963Z</time></trkpt><trkpt lat="45.4526927" lon="7.6945508"><ele>1082.0</ele><time>2026-04-25T13:08:55.962Z</time></trkpt><trkpt lat="45.4527892" lon="7.6944379"><ele>1087.0</ele><time>2026-04-25T13:08:57.078Z</time></trkpt><trkpt lat="45.4529367" lon="7.6941596"><ele>1092.0</ele><time>2026-04-25T13:08:58.965Z</time></trkpt><trkpt lat="45.4529913" lon="7.694024"><ele>1097.0</ele><time>2026-04-25T13:08:59.97Z</time></trkpt><trkpt lat="45.4530551" lon="7.6938911"><ele>1097.0</ele><time>2026-04-25T13:09:00.968Z</time></trkpt><trkpt lat="45.4531389" lon="7.6937658"><ele>1097.0</ele><time>2026-04-25T13:09:01.976Z</time></trkpt><trkpt lat="45.4532248" lon="7.6936514"><ele>1097.0</ele><time>2026-04-25T13:09:03.033Z</time></trkpt><trkpt lat="45.4533016" lon="7.6935626"><ele>1097.0</ele><time>2026-04-25T13:09:04.032Z</time></trkpt><trkpt lat="45.4533696" lon="7.6934954"><ele>1097.0</ele><time>2026-04-25T13:09:04.981Z</time></trkpt><trkpt lat="45.4534351" lon="7.6934559"><ele>1093.2</ele><time>2026-04-25T13:09:06.027Z</time></trkpt><trkpt lat="45.4535126" lon="7.6934603"><ele>1089.4</ele><time>2026-04-25T13:09:07.008Z</time></trkpt><trkpt lat="45.4535864" lon="7.6934837"><ele>1085.6</ele><time>2026-04-25T13:09:08.027Z</time></trkpt><trkpt lat="45.4537229" lon="7.6933738"><ele>1081.8</ele><time>2026-04-25T13:09:11.03Z</time></trkpt><trkpt lat="45.4537394" lon="7.6932763"><ele>1078.0</ele><time>2026-04-25T13:09:12.03Z</time></trkpt><trkpt lat="45.4537521" lon="7.6931595"><ele>1078.0</ele><time>2026-04-25T13:09:13.031Z</time></trkpt><trkpt lat="45.4537665" lon="7.6930242"><ele>1078.0</ele><time>2026-04-25T13:09:13.952Z</time></trkpt><trkpt lat="45.453775" lon="7.6929008"><ele>1078.0</ele><time>2026-04-25T13:09:14.949Z</time></trkpt><trkpt lat="45.4537932" lon="7.6928031"><ele>1078.0</ele><time>2026-04-25T13:09:15.955Z</time></trkpt><trkpt lat="45.4538205" lon="7.692716"><ele>1078.0</ele><time>2026-04-25T13:09:16.945Z</time></trkpt><trkpt lat="45.4538732" lon="7.6926436"><ele>1078.0</ele><time>2026-04-25T13:09:18.032Z</time></trkpt><trkpt lat="45.4539489" lon="7.6925682"><ele>1082.75</ele><time>2026-04-25T13:09:19.028Z</time></trkpt><trkpt lat="45.454048" lon="7.6924848"><ele>1087.5</ele><time>2026-04-25T13:09:19.959Z</time></trkpt><trkpt lat="45.4541414" lon="7.6923766"><ele>1092.25</ele><time>2026-04-25T13:09:20.969Z</time></trkpt><trkpt lat="45.4542183" lon="7.692261"><ele>1097.0</ele><time>2026-04-25T13:09:21.982Z</time></trkpt><trkpt lat="45.4542879" lon="7.6921254"><ele>1097.0</ele><time>2026-04-25T13:09:22.98Z</time></trkpt><trkpt lat="45.4543242" lon="7.6919808"><ele>1097.0</ele><time>2026-04-25T13:09:23.971Z</time></trkpt><trkpt lat="45.4543592" lon="7.6918233"><ele>1097.0</ele><time>2026-04-25T13:09:24.966Z</time></trkpt><trkpt lat="45.4544067" lon="7.6916793"><ele>1097.0</ele><time>2026-04-25T13:09:25.965Z</time></trkpt><trkpt lat="45.4544799" lon="7.6915374"><ele>1095.8</ele><time>2026-04-25T13:09:26.978Z</time></trkpt><trkpt lat="45.4545564" lon="7.6914069"><ele>1094.6</ele><time>2026-04-25T13:09:27.968Z</time></trkpt><trkpt lat="45.4546123" lon="7.6912895"><ele>1093.3999999999999</ele><time>2026-04-25T13:09:28.967Z</time></trkpt><trkpt lat="45.4546523" lon="7.6911633"><ele>1092.2</ele><time>2026-04-25T13:09:29.969Z</time></trkpt><trkpt lat="45.4546701" lon="7.6910211"><ele>1091.0</ele><time>2026-04-25T13:09:30.968Z</time></trkpt><trkpt lat="45.4546615" lon="7.6908651"><ele>1097.0</ele><time>2026-04-25T13:09:31.964Z</time></trkpt><trkpt lat="45.4546716" lon="7.6907292"><ele>1103.0</ele><time>2026-04-25T13:09:32.966Z</time></trkpt><trkpt lat="45.4546935" lon="7.6906064"><ele>1109.0</ele><time>2026-04-25T13:09:33.969Z</time></trkpt><trkpt lat="45.4547332" lon="7.6904899"><ele>1115.0</ele><time>2026-04-25T13:09:34.966Z</time></trkpt><trkpt lat="45.4547838" lon="7.6903818"><ele>1121.0</ele><time>2026-04-25T13:09:35.953Z</time></trkpt><trkpt lat="45.4548482" lon="7.6902823"><ele>1118.6</ele><time>2026-04-25T13:09:36.96Z</time></trkpt><trkpt lat="45.4549096" lon="7.690213"><ele>1116.1999999999998</ele><time>2026-04-25T13:09:37.979Z</time></trkpt><trkpt lat="45.4549713" lon="7.69016"><ele>1113.8000000000002</ele><time>2026-04-25T13:09:38.97Z</time></trkpt><trkpt lat="45.4550576" lon="7.6901268"><ele>1111.4</ele><time>2026-04-25T13:09:39.972Z</time></trkpt><trkpt lat="45.4551619" lon="7.6901199"><ele>1109.0</ele><time>2026-04-25T13:09:40.965Z</time></trkpt><trkpt lat="45.4552777" lon="7.6901244"><ele>1109.0</ele><time>2026-04-25T13:09:41.965Z</time></trkpt><trkpt lat="45.4553905" lon="7.6901099"><ele>1109.0</ele><time>2026-04-25T13:09:42.967Z</time></trkpt><trkpt lat="45.4554973" lon="7.6900662"><ele>1109.0</ele><time>2026-04-25T13:09:43.966Z</time></trkpt><trkpt lat="45.4555984" lon="7.6899989"><ele>1109.0</ele><time>2026-04-25T13:09:44.962Z</time></trkpt><trkpt lat="45.4556946" lon="7.6899212"><ele>1109.0</ele><time>2026-04-25T13:09:45.974Z</time></trkpt><trkpt lat="45.4557886" lon="7.689843"><ele>1114.0</ele><time>2026-04-25T13:09:46.968Z</time></trkpt><trkpt lat="45.4558817" lon="7.6897587"><ele>1119.0</ele><time>2026-04-25T13:09:47.966Z</time></trkpt><trkpt lat="45.4559913" lon="7.6896731"><ele>1124.0</ele><time>2026-04-25T13:09:48.962Z</time></trkpt><trkpt lat="45.4561236" lon="7.6896057"><ele>1129.0</ele><time>2026-04-25T13:09:49.966Z</time></trkpt><trkpt lat="45.4562845" lon="7.6895368"><ele>1125.3333333333333</ele><time>2026-04-25T13:09:50.967Z</time></trkpt><trkpt lat="45.4564468" lon="7.6894751"><ele>1121.6666666666667</ele><time>2026-04-25T13:09:51.961Z</time></trkpt><trkpt lat="45.456597" lon="7.6894063"><ele>1118.0</ele><time>2026-04-25T13:09:52.966Z</time></trkpt><trkpt lat="45.4567263" lon="7.6893509"><ele>1118.0</ele><time>2026-04-25T13:09:53.955Z</time></trkpt><trkpt lat="45.456847" lon="7.6892927"><ele>1118.0</ele><time>2026-04-25T13:09:54.966Z</time></trkpt><trkpt lat="45.456956" lon="7.6892302"><ele>1118.0</ele><time>2026-04-25T13:09:55.964Z</time></trkpt><trkpt lat="45.457053" lon="7.6891876"><ele>1118.0</ele><time>2026-04-25T13:09:56.958Z</time></trkpt><trkpt lat="45.4571497" lon="7.6891529"><ele>1118.0</ele><time>2026-04-25T13:09:57.968Z</time></trkpt><trkpt lat="45.4572675" lon="7.6891421"><ele>1120.5</ele><time>2026-04-25T13:09:58.963Z</time></trkpt><trkpt lat="45.4574003" lon="7.6891551"><ele>1123.0</ele><time>2026-04-25T13:09:59.97Z</time></trkpt><trkpt lat="45.4575477" lon="7.6891725"><ele>1125.5</ele><time>2026-04-25T13:10:00.965Z</time></trkpt><trkpt lat="45.4576945" lon="7.6891904"><ele>1128.0</ele><time>2026-04-25T13:10:01.97Z</time></trkpt><trkpt lat="45.4578315" lon="7.6892029"><ele>1130.75</ele><time>2026-04-25T13:10:02.969Z</time></trkpt><trkpt lat="45.4579678" lon="7.6892115"><ele>1133.5</ele><time>2026-04-25T13:10:03.966Z</time></trkpt><trkpt lat="45.4581048" lon="7.6892033"><ele>1136.25</ele><time>2026-04-25T13:10:04.963Z</time></trkpt><trkpt lat="45.4582424" lon="7.6891818"><ele>1139.0</ele><time>2026-04-25T13:10:05.964Z</time></trkpt><trkpt lat="45.4583855" lon="7.6891478"><ele>1139.0</ele><time>2026-04-25T13:10:06.961Z</time></trkpt><trkpt lat="45.4585243" lon="7.6891002"><ele>1139.0</ele><time>2026-04-25T13:10:07.964Z</time></trkpt><trkpt lat="45.4586547" lon="7.6890524"><ele>1139.0</ele><time>2026-04-25T13:10:08.96Z</time></trkpt><trkpt lat="45.4587735" lon="7.6889781"><ele>1139.0</ele><time>2026-04-25T13:10:09.965Z</time></trkpt><trkpt lat="45.4588854" lon="7.688896"><ele>1144.5</ele><time>2026-04-25T13:10:10.964Z</time></trkpt><trkpt lat="45.4590023" lon="7.6888188"><ele>1150.0</ele><time>2026-04-25T13:10:11.959Z</time></trkpt><trkpt lat="45.4591288" lon="7.6887609"><ele>1155.5</ele><time>2026-04-25T13:10:12.967Z</time></trkpt><trkpt lat="45.4592547" lon="7.6887148"><ele>1161.0</ele><time>2026-04-25T13:10:13.961Z</time></trkpt><trkpt lat="45.4593759" lon="7.6886941"><ele>1161.0</ele><time>2026-04-25T13:10:14.961Z</time></trkpt><trkpt lat="45.4594932" lon="7.6887008"><ele>1161.0</ele><time>2026-04-25T13:10:15.965Z</time></trkpt><trkpt lat="45.4596104" lon="7.6887258"><ele>1161.0</ele><time>2026-04-25T13:10:16.965Z</time></trkpt><trkpt lat="45.459724" lon="7.6887587"><ele>1161.0</ele><time>2026-04-25T13:10:18.046Z</time></trkpt><trkpt lat="45.4598307" lon="7.6887579"><ele>1158.6666666666667</ele><time>2026-04-25T13:10:19.048Z</time></trkpt><trkpt lat="45.4600485" lon="7.6886607"><ele>1156.3333333333335</ele><time>2026-04-25T13:10:20.949Z</time></trkpt><trkpt lat="45.460176" lon="7.6886194"><ele>1154.0</ele><time>2026-04-25T13:10:21.967Z</time></trkpt><trkpt lat="45.460305" lon="7.6885828"><ele>1154.0</ele><time>2026-04-25T13:10:23.028Z</time></trkpt><trkpt lat="45.4604139" lon="7.6885365"><ele>1154.0</ele><time>2026-04-25T13:10:24.029Z</time></trkpt><trkpt lat="45.4605017" lon="7.6884583"><ele>1154.0</ele><time>2026-04-25T13:10:24.944Z</time></trkpt><trkpt lat="45.4605808" lon="7.6883647"><ele>1154.0</ele><time>2026-04-25T13:10:26.009Z</time></trkpt><trkpt lat="45.4606475" lon="7.6882648"><ele>1154.0</ele><time>2026-04-25T13:10:27.027Z</time></trkpt><trkpt lat="45.4607165" lon="7.6881829"><ele>1157.2</ele><time>2026-04-25T13:10:28.02Z</time></trkpt><trkpt lat="45.4608044" lon="7.6881423"><ele>1160.4</ele><time>2026-04-25T13:10:28.964Z</time></trkpt><trkpt lat="45.4609" lon="7.6881167"><ele>1163.6</ele><time>2026-04-25T13:10:29.942Z</time></trkpt><trkpt lat="45.4610073" lon="7.6881232"><ele>1166.8</ele><time>2026-04-25T13:10:30.953Z</time></trkpt><trkpt lat="45.4611193" lon="7.6881563"><ele>1170.0</ele><time>2026-04-25T13:10:32.03Z</time></trkpt><trkpt lat="45.4612361" lon="7.6882189"><ele>1171.0</ele><time>2026-04-25T13:10:33.014Z</time></trkpt><trkpt lat="45.4613507" lon="7.6883041"><ele>1172.0</ele><time>2026-04-25T13:10:34.015Z</time></trkpt><trkpt lat="45.4614636" lon="7.6883998"><ele>1173.0</ele><time>2026-04-25T13:10:34.95Z</time></trkpt><trkpt lat="45.4615885" lon="7.6885041"><ele>1174.0</ele><time>2026-04-25T13:10:36.008Z</time></trkpt><trkpt lat="45.4617047" lon="7.6886181"><ele>1177.5</ele><time>2026-04-25T13:10:36.945Z</time></trkpt><trkpt lat="45.4618159" lon="7.6887268"><ele>1181.0</ele><time>2026-04-25T13:10:38.012Z</time></trkpt><trkpt lat="45.4619221" lon="7.6888356"><ele>1184.5</ele><time>2026-04-25T13:10:39.012Z</time></trkpt><trkpt lat="45.4620237" lon="7.6889427"><ele>1188.0</ele><time>2026-04-25T13:10:39.948Z</time></trkpt><trkpt lat="45.4621289" lon="7.6890595"><ele>1188.0</ele><time>2026-04-25T13:10:40.945Z</time></trkpt><trkpt lat="45.4622328" lon="7.6891832"><ele>1188.0</ele><time>2026-04-25T13:10:41.955Z</time></trkpt><trkpt lat="45.4623256" lon="7.6893134"><ele>1188.0</ele><time>2026-04-25T13:10:42.972Z</time></trkpt><trkpt lat="45.4624229" lon="7.6894381"><ele>1188.0</ele><time>2026-04-25T13:10:43.935Z</time></trkpt><trkpt lat="45.4625336" lon="7.6895518"><ele>1193.25</ele><time>2026-04-25T13:10:44.942Z</time></trkpt><trkpt lat="45.462649" lon="7.6896438"><ele>1198.5</ele><time>2026-04-25T13:10:45.951Z</time></trkpt><trkpt lat="45.4627539" lon="7.6897229"><ele>1203.75</ele><time>2026-04-25T13:10:46.943Z</time></trkpt><trkpt lat="45.4628442" lon="7.6898133"><ele>1209.0</ele><time>2026-04-25T13:10:47.939Z</time></trkpt><trkpt lat="45.4629329" lon="7.6899208"><ele>1207.8</ele><time>2026-04-25T13:10:48.948Z</time></trkpt><trkpt lat="45.4630255" lon="7.6900126"><ele>1206.6000000000001</ele><time>2026-04-25T13:10:49.948Z</time></trkpt><trkpt lat="45.4631149" lon="7.690081"><ele>1205.4</ele><time>2026-04-25T13:10:50.941Z</time></trkpt><trkpt lat="45.4632015" lon="7.6901287"><ele>1204.2</ele><time>2026-04-25T13:10:51.945Z</time></trkpt><trkpt lat="45.4632953" lon="7.6901508"><ele>1203.0</ele><time>2026-04-25T13:10:52.947Z</time></trkpt><trkpt lat="45.4633976" lon="7.6901477"><ele>1203.0</ele><time>2026-04-25T13:10:53.96Z</time></trkpt><trkpt lat="45.4635108" lon="7.6901304"><ele>1203.0</ele><time>2026-04-25T13:10:54.951Z</time></trkpt><trkpt lat="45.4636293" lon="7.6901389"><ele>1203.0</ele><time>2026-04-25T13:10:55.946Z</time></trkpt><trkpt lat="45.4637642" lon="7.6901503"><ele>1203.0</ele><time>2026-04-25T13:10:56.948Z</time></trkpt><trkpt lat="45.4638992" lon="7.6901448"><ele>1204.25</ele><time>2026-04-25T13:10:57.952Z</time></trkpt><trkpt lat="45.4640259" lon="7.690138"><ele>1205.5</ele><time>2026-04-25T13:10:58.947Z</time></trkpt><trkpt lat="45.4641445" lon="7.6901391"><ele>1206.75</ele><time>2026-04-25T13:10:59.948Z</time></trkpt><trkpt lat="45.4642517" lon="7.6901521"><ele>1208.0</ele><time>2026-04-25T13:11:01.027Z</time></trkpt><trkpt lat="45.4643601" lon="7.6901686"><ele>1208.0</ele><time>2026-04-25T13:11:01.942Z</time></trkpt><trkpt lat="45.4644693" lon="7.690174"><ele>1208.0</ele><time>2026-04-25T13:11:02.94Z</time></trkpt><trkpt lat="45.4646011" lon="7.6901458"><ele>1208.0</ele><time>2026-04-25T13:11:03.947Z</time></trkpt><trkpt lat="45.4647267" lon="7.6901038"><ele>1208.0</ele><time>2026-04-25T13:11:04.942Z</time></trkpt><trkpt lat="45.4648422" lon="7.6900493"><ele>1212.0</ele><time>2026-04-25T13:11:05.945Z</time></trkpt><trkpt lat="45.4649385" lon="7.6900005"><ele>1216.0</ele><time>2026-04-25T13:11:06.949Z</time></trkpt><trkpt lat="45.4650085" lon="7.6899798"><ele>1220.0</ele><time>2026-04-25T13:11:08.029Z</time></trkpt><trkpt lat="45.465037" lon="7.690103"><ele>1224.0</ele><time>2026-04-25T13:11:10.956Z</time></trkpt><trkpt lat="45.4649419" lon="7.690255"><ele>1228.0</ele><time>2026-04-25T13:11:12.953Z</time></trkpt><trkpt lat="45.4648428" lon="7.6903453"><ele>1228.75</ele><time>2026-04-25T13:11:14.029Z</time></trkpt><trkpt lat="45.4647371" lon="7.6904465"><ele>1229.5</ele><time>2026-04-25T13:11:14.953Z</time></trkpt><trkpt lat="45.4646192" lon="7.6905573"><ele>1230.25</ele><time>2026-04-25T13:11:15.954Z</time></trkpt><trkpt lat="45.4644946" lon="7.6906956"><ele>1231.0</ele><time>2026-04-25T13:11:16.96Z</time></trkpt><trkpt lat="45.4643718" lon="7.6908501"><ele>1231.0</ele><time>2026-04-25T13:11:17.95Z</time></trkpt><trkpt lat="45.4642846" lon="7.6910039"><ele>1231.0</ele><time>2026-04-25T13:11:18.945Z</time></trkpt><trkpt lat="45.4642113" lon="7.6911257"><ele>1231.0</ele><time>2026-04-25T13:11:19.948Z</time></trkpt><trkpt lat="45.4641594" lon="7.6912148"><ele>1231.0</ele><time>2026-04-25T13:11:20.946Z</time></trkpt><trkpt lat="45.4641465" lon="7.691326"><ele>1231.0</ele><time>2026-04-25T13:11:22.998Z</time></trkpt><trkpt lat="45.4642334" lon="7.6913734"><ele>1231.0</ele><time>2026-04-25T13:11:24.954Z</time></trkpt><trkpt lat="45.4643581" lon="7.6912605"><ele>1231.0</ele><time>2026-04-25T13:11:26.944Z</time></trkpt><trkpt lat="45.4644374" lon="7.6911658"><ele>1231.0</ele><time>2026-04-25T13:11:27.953Z</time></trkpt><trkpt lat="45.4645437" lon="7.6910805"><ele>1231.0</ele><time>2026-04-25T13:11:28.935Z</time></trkpt><trkpt lat="45.4646681" lon="7.6910142"><ele>1236.0</ele><time>2026-04-25T13:11:29.954Z</time></trkpt><trkpt lat="45.4648123" lon="7.6909711"><ele>1241.0</ele><time>2026-04-25T13:11:30.947Z</time></trkpt><trkpt lat="45.4649609" lon="7.6909313"><ele>1246.0</ele><time>2026-04-25T13:11:31.953Z</time></trkpt><trkpt lat="45.4651144" lon="7.6908973"><ele>1246.0</ele><time>2026-04-25T13:11:32.949Z</time></trkpt><trkpt lat="45.4652569" lon="7.6908514"><ele>1246.0</ele><time>2026-04-25T13:11:33.947Z</time></trkpt><trkpt lat="45.4653811" lon="7.6907933"><ele>1246.0</ele><time>2026-04-25T13:11:34.941Z</time></trkpt><trkpt lat="45.4654939" lon="7.6907437"><ele>1246.0</ele><time>2026-04-25T13:11:35.948Z</time></trkpt><trkpt lat="45.4655814" lon="7.6907013"><ele>1248.8</ele><time>2026-04-25T13:11:36.945Z</time></trkpt><trkpt lat="45.4656609" lon="7.6906449"><ele>1251.6</ele><time>2026-04-25T13:11:37.952Z</time></trkpt><trkpt lat="45.4657225" lon="7.690556"><ele>1254.4</ele><time>2026-04-25T13:11:38.952Z</time></trkpt><trkpt lat="45.4657701" lon="7.6904291"><ele>1257.2</ele><time>2026-04-25T13:11:39.948Z</time></trkpt><trkpt lat="45.465808" lon="7.6902672"><ele>1260.0</ele><time>2026-04-25T13:11:40.953Z</time></trkpt><trkpt lat="45.4658677" lon="7.6900985"><ele>1260.0</ele><time>2026-04-25T13:11:41.946Z</time></trkpt><trkpt lat="45.4659381" lon="7.6899192"><ele>1260.0</ele><time>2026-04-25T13:11:42.947Z</time></trkpt><trkpt lat="45.4660233" lon="7.6897482"><ele>1260.0</ele><time>2026-04-25T13:11:43.95Z</time></trkpt><trkpt lat="45.4661061" lon="7.6895923"><ele>1260.0</ele><time>2026-04-25T13:11:44.943Z</time></trkpt><trkpt lat="45.4661569" lon="7.6894519"><ele>1259.5</ele><time>2026-04-25T13:11:45.948Z</time></trkpt><trkpt lat="45.4661856" lon="7.6893195"><ele>1259.0</ele><time>2026-04-25T13:11:46.944Z</time></trkpt><trkpt lat="45.4661871" lon="7.6892017"><ele>1258.5</ele><time>2026-04-25T13:11:47.945Z</time></trkpt><trkpt lat="45.4661724" lon="7.6890968"><ele>1258.0</ele><time>2026-04-25T13:11:48.945Z</time></trkpt><trkpt lat="45.4661674" lon="7.6889684"><ele>1257.5</ele><time>2026-04-25T13:11:51.025Z</time></trkpt><trkpt lat="45.4662522" lon="7.6890505"><ele>1257.0</ele><time>2026-04-25T13:11:53.955Z</time></trkpt><trkpt lat="45.4662605" lon="7.6891574"><ele>1257.0</ele><time>2026-04-25T13:11:54.942Z</time></trkpt><trkpt lat="45.4662662" lon="7.6893079"><ele>1257.0</ele><time>2026-04-25T13:11:55.951Z</time></trkpt><trkpt lat="45.4662595" lon="7.6894828"><ele>1257.0</ele><time>2026-04-25T13:11:57.045Z</time></trkpt><trkpt lat="45.4662377" lon="7.6896819"><ele>1257.0</ele><time>2026-04-25T13:11:57.952Z</time></trkpt><trkpt lat="45.4662033" lon="7.689886"><ele>1257.6</ele><time>2026-04-25T13:11:58.949Z</time></trkpt><trkpt lat="45.4661821" lon="7.690061"><ele>1258.2</ele><time>2026-04-25T13:11:59.947Z</time></trkpt><trkpt lat="45.4661855" lon="7.690221"><ele>1258.8</ele><time>2026-04-25T13:12:00.941Z</time></trkpt><trkpt lat="45.4662045" lon="7.6903529"><ele>1259.4</ele><time>2026-04-25T13:12:01.95Z</time></trkpt><trkpt lat="45.4662505" lon="7.6904724"><ele>1260.0</ele><time>2026-04-25T13:12:02.952Z</time></trkpt><trkpt lat="45.4663163" lon="7.690572"><ele>1265.75</ele><time>2026-04-25T13:12:04.041Z</time></trkpt><trkpt lat="45.4664001" lon="7.6906491"><ele>1271.5</ele><time>2026-04-25T13:12:04.951Z</time></trkpt><trkpt lat="45.4664977" lon="7.6907019"><ele>1277.25</ele><time>2026-04-25T13:12:05.957Z</time></trkpt><trkpt lat="45.4666079" lon="7.6907731"><ele>1283.0</ele><time>2026-04-25T13:12:06.961Z</time></trkpt><trkpt lat="45.4667277" lon="7.690862"><ele>1283.0</ele><time>2026-04-25T13:12:08.031Z</time></trkpt><trkpt lat="45.4668387" lon="7.6909453"><ele>1283.0</ele><time>2026-04-25T13:12:09.029Z</time></trkpt><trkpt lat="45.4669598" lon="7.6910044"><ele>1283.0</ele><time>2026-04-25T13:12:09.961Z</time></trkpt><trkpt lat="45.4670899" lon="7.6910376"><ele>1283.0</ele><time>2026-04-25T13:12:10.968Z</time></trkpt><trkpt lat="45.4672192" lon="7.6910842"><ele>1283.75</ele><time>2026-04-25T13:12:11.969Z</time></trkpt><trkpt lat="45.4673336" lon="7.691157"><ele>1284.5</ele><time>2026-04-25T13:12:13.031Z</time></trkpt><trkpt lat="45.4674487" lon="7.6912605"><ele>1285.25</ele><time>2026-04-25T13:12:14.033Z</time></trkpt><trkpt lat="45.4675694" lon="7.6913781"><ele>1286.0</ele><time>2026-04-25T13:12:14.954Z</time></trkpt><trkpt lat="45.4677116" lon="7.6915041"><ele>1286.0</ele><time>2026-04-25T13:12:15.961Z</time></trkpt><trkpt lat="45.4678443" lon="7.691624"><ele>1286.0</ele><time>2026-04-25T13:12:16.978Z</time></trkpt><trkpt lat="45.4679648" lon="7.6917299"><ele>1286.0</ele><time>2026-04-25T13:12:18.04Z</time></trkpt><trkpt lat="45.4680787" lon="7.6918243"><ele>1286.0</ele><time>2026-04-25T13:12:18.948Z</time></trkpt><trkpt lat="45.4681887" lon="7.6919086"><ele>1287.75</ele><time>2026-04-25T13:12:19.958Z</time></trkpt><trkpt lat="45.4682991" lon="7.6919893"><ele>1289.5</ele><time>2026-04-25T13:12:20.959Z</time></trkpt><trkpt lat="45.4684201" lon="7.692077"><ele>1291.25</ele><time>2026-04-25T13:12:22.03Z</time></trkpt><trkpt lat="45.4685491" lon="7.6921657"><ele>1293.0</ele><time>2026-04-25T13:12:23.04Z</time></trkpt><trkpt lat="45.4686887" lon="7.6922383"><ele>1298.3333333333333</ele><time>2026-04-25T13:12:24.029Z</time></trkpt><trkpt lat="45.4688538" lon="7.692301"><ele>1303.6666666666665</ele><time>2026-04-25T13:12:24.964Z</time></trkpt><trkpt lat="45.4690145" lon="7.6923764"><ele>1309.0</ele><time>2026-04-25T13:12:25.969Z</time></trkpt><trkpt lat="45.4691694" lon="7.6924593"><ele>1309.0</ele><time>2026-04-25T13:12:26.968Z</time></trkpt><trkpt lat="45.4693234" lon="7.692548"><ele>1309.0</ele><time>2026-04-25T13:12:28.03Z</time></trkpt><trkpt lat="45.4694789" lon="7.6926221"><ele>1309.0</ele><time>2026-04-25T13:12:29.034Z</time></trkpt><trkpt lat="45.469623" lon="7.6926975"><ele>1310.0</ele><time>2026-04-25T13:12:29.956Z</time></trkpt><trkpt lat="45.4697566" lon="7.6927973"><ele>1311.0</ele><time>2026-04-25T13:12:30.953Z</time></trkpt><trkpt lat="45.4698863" lon="7.692914"><ele>1312.0</ele><time>2026-04-25T13:12:31.97Z</time></trkpt><trkpt lat="45.4700261" lon="7.6930476"><ele>1312.0</ele><time>2026-04-25T13:12:32.953Z</time></trkpt><trkpt lat="45.4701635" lon="7.6931777"><ele>1312.0</ele><time>2026-04-25T13:12:33.956Z</time></trkpt><trkpt lat="45.4703005" lon="7.6932968"><ele>1312.0</ele><time>2026-04-25T13:12:34.953Z</time></trkpt><trkpt lat="45.4704301" lon="7.6934104"><ele>1315.5</ele><time>2026-04-25T13:12:36.036Z</time></trkpt><trkpt lat="45.4705494" lon="7.6935325"><ele>1319.0</ele><time>2026-04-25T13:12:37.032Z</time></trkpt><trkpt lat="45.4706648" lon="7.6936742"><ele>1322.5</ele><time>2026-04-25T13:12:38.029Z</time></trkpt><trkpt lat="45.4707755" lon="7.6938051"><ele>1326.0</ele><time>2026-04-25T13:12:38.959Z</time></trkpt><trkpt lat="45.4708788" lon="7.6939275"><ele>1326.0</ele><time>2026-04-25T13:12:39.969Z</time></trkpt><trkpt lat="45.4709759" lon="7.6940254"><ele>1326.0</ele><time>2026-04-25T13:12:40.963Z</time></trkpt><trkpt lat="45.4710646" lon="7.6941071"><ele>1326.0</ele><time>2026-04-25T13:12:41.964Z</time></trkpt><trkpt lat="45.4711479" lon="7.6941809"><ele>1326.0</ele><time>2026-04-25T13:12:42.96Z</time></trkpt><trkpt lat="45.4712185" lon="7.6942265"><ele>1326.0</ele><time>2026-04-25T13:12:43.96Z</time></trkpt><trkpt lat="45.471336" lon="7.6942208"><ele>1327.0</ele><time>2026-04-25T13:12:45.963Z</time></trkpt><trkpt lat="45.4713906" lon="7.6941669"><ele>1328.0</ele><time>2026-04-25T13:12:47.027Z</time></trkpt><trkpt lat="45.4714348" lon="7.694075"><ele>1329.0</ele><time>2026-04-25T13:12:47.964Z</time></trkpt><trkpt lat="45.471462" lon="7.6939482"><ele>1330.0</ele><time>2026-04-25T13:12:48.959Z</time></trkpt><trkpt lat="45.471483" lon="7.6938149"><ele>1331.0</ele><time>2026-04-25T13:12:49.959Z</time></trkpt><trkpt lat="45.4714988" lon="7.6936733"><ele>1332.0</ele><time>2026-04-25T13:12:50.954Z</time></trkpt><trkpt lat="45.471516" lon="7.6935317"><ele>1332.6</ele><time>2026-04-25T13:12:51.962Z</time></trkpt><trkpt lat="45.4715388" lon="7.6933969"><ele>1333.1999999999998</ele><time>2026-04-25T13:12:53.018Z</time></trkpt><trkpt lat="45.4715657" lon="7.6932602"><ele>1333.8</ele><time>2026-04-25T13:12:54.019Z</time></trkpt><trkpt lat="45.4715828" lon="7.6931345"><ele>1334.4</ele><time>2026-04-25T13:12:54.963Z</time></trkpt><trkpt lat="45.4715968" lon="7.6930108"><ele>1335.0</ele><time>2026-04-25T13:12:55.96Z</time></trkpt><trkpt lat="45.4716159" lon="7.6928952"><ele>1335.0</ele><time>2026-04-25T13:12:56.983Z</time></trkpt><trkpt lat="45.4716388" lon="7.6927841"><ele>1335.0</ele><time>2026-04-25T13:12:58.02Z</time></trkpt><trkpt lat="45.4716546" lon="7.69269"><ele>1335.0</ele><time>2026-04-25T13:12:59.023Z</time></trkpt><trkpt lat="45.4716716" lon="7.6925401"><ele>1335.0</ele><time>2026-04-25T13:13:00.963Z</time></trkpt><trkpt lat="45.4716854" lon="7.6924113"><ele>1335.0</ele><time>2026-04-25T13:13:03.021Z</time></trkpt><trkpt lat="45.4716892" lon="7.6923094"><ele>1335.0</ele><time>2026-04-25T13:13:04.951Z</time></trkpt><trkpt lat="45.4716925" lon="7.6921789"><ele>1335.857142857143</ele><time>2026-04-25T13:13:37.956Z</time></trkpt><trkpt lat="45.4716956" lon="7.692088"><ele>1336.7142857142858</ele><time>2026-04-25T13:13:38.953Z</time></trkpt><trkpt lat="45.4716991" lon="7.6919963"><ele>1337.5714285714287</ele><time>2026-04-25T13:13:39.957Z</time></trkpt><trkpt lat="45.4717074" lon="7.6918979"><ele>1338.4285714285716</ele><time>2026-04-25T13:13:40.956Z</time></trkpt><trkpt lat="45.4717182" lon="7.691797"><ele>1339.2857142857142</ele><time>2026-04-25T13:13:41.955Z</time></trkpt><trkpt lat="45.4717308" lon="7.6916972"><ele>1340.1428571428573</ele><time>2026-04-25T13:13:42.961Z</time></trkpt><trkpt lat="45.4717395" lon="7.6915856"><ele>1341.0</ele><time>2026-04-25T13:13:43.952Z</time></trkpt><trkpt lat="45.4717549" lon="7.6914672"><ele>1342.8333333333333</ele><time>2026-04-25T13:13:44.955Z</time></trkpt><trkpt lat="45.4717688" lon="7.6913489"><ele>1344.6666666666667</ele><time>2026-04-25T13:13:45.959Z</time></trkpt><trkpt lat="45.4717779" lon="7.6912366"><ele>1346.5</ele><time>2026-04-25T13:13:46.95Z</time></trkpt><trkpt lat="45.4717846" lon="7.6911231"><ele>1348.3333333333335</ele><time>2026-04-25T13:13:47.955Z</time></trkpt><trkpt lat="45.4717903" lon="7.6910067"><ele>1350.1666666666667</ele><time>2026-04-25T13:13:48.957Z</time></trkpt><trkpt lat="45.4717944" lon="7.6908987"><ele>1352.0</ele><time>2026-04-25T13:13:49.963Z</time></trkpt><trkpt lat="45.4717929" lon="7.6908002"><ele>1353.1999999999998</ele><time>2026-04-25T13:13:50.96Z</time></trkpt><trkpt lat="45.4717779" lon="7.6906731"><ele>1354.4</ele><time>2026-04-25T13:13:52.955Z</time></trkpt><trkpt lat="45.4717058" lon="7.6906242"><ele>1355.6</ele><time>2026-04-25T13:13:54.962Z</time></trkpt><trkpt lat="45.4716256" lon="7.690657"><ele>1356.8000000000002</ele><time>2026-04-25T13:13:56.961Z</time></trkpt><trkpt lat="45.4715657" lon="7.6907682"><ele>1358.0</ele><time>2026-04-25T13:13:58.955Z</time></trkpt><trkpt lat="45.4714857" lon="7.6908496"><ele>1358.0</ele><time>2026-04-25T13:14:00.962Z</time></trkpt><trkpt lat="45.4714083" lon="7.6908042"><ele>1358.0</ele><time>2026-04-25T13:14:02.953Z</time></trkpt><trkpt lat="45.4713898" lon="7.6906747"><ele>1358.0</ele><time>2026-04-25T13:14:04.955Z</time></trkpt><trkpt lat="45.4713973" lon="7.6905828"><ele>1358.0</ele><time>2026-04-25T13:14:05.955Z</time></trkpt><trkpt lat="45.4714048" lon="7.6904913"><ele>1358.0</ele><time>2026-04-25T13:14:06.96Z</time></trkpt><trkpt lat="45.4714063" lon="7.6903861"><ele>1358.0</ele><time>2026-04-25T13:14:07.961Z</time></trkpt><trkpt lat="45.4714052" lon="7.6902794"><ele>1358.7142857142858</ele><time>2026-04-25T13:14:08.999Z</time></trkpt><trkpt lat="45.4714046" lon="7.6901639"><ele>1359.4285714285716</ele><time>2026-04-25T13:14:09.961Z</time></trkpt><trkpt lat="45.4714049" lon="7.6900532"><ele>1360.142857142857</ele><time>2026-04-25T13:14:10.956Z</time></trkpt><trkpt lat="45.4714054" lon="7.6899549"><ele>1360.857142857143</ele><time>2026-04-25T13:14:11.977Z</time></trkpt><trkpt lat="45.4714111" lon="7.6898574"><ele>1361.5714285714287</ele><time>2026-04-25T13:14:12.953Z</time></trkpt><trkpt lat="45.4714151" lon="7.6897653"><ele>1362.2857142857142</ele><time>2026-04-25T13:14:13.953Z</time></trkpt><trkpt lat="45.4714124" lon="7.6896709"><ele>1363.0</ele><time>2026-04-25T13:14:14.96Z</time></trkpt><trkpt lat="45.4714021" lon="7.6895712"><ele>1363.0</ele><time>2026-04-25T13:14:15.967Z</time></trkpt><trkpt lat="45.4713908" lon="7.6894626"><ele>1363.0</ele><time>2026-04-25T13:14:16.955Z</time></trkpt><trkpt lat="45.4713759" lon="7.6893655"><ele>1363.0</ele><time>2026-04-25T13:14:17.958Z</time></trkpt><trkpt lat="45.4713072" lon="7.6892207"><ele>1363.0</ele><time>2026-04-25T13:14:19.958Z</time></trkpt><trkpt lat="45.4712491" lon="7.6891732"><ele>1363.0</ele><time>2026-04-25T13:14:20.974Z</time></trkpt><trkpt lat="45.4711771" lon="7.689139"><ele>1363.0</ele><time>2026-04-25T13:14:21.96Z</time></trkpt><trkpt lat="45.4710893" lon="7.6891042"><ele>1367.6000000000001</ele><time>2026-04-25T13:14:22.957Z</time></trkpt><trkpt lat="45.4710034" lon="7.6890535"><ele>1372.2</ele><time>2026-04-25T13:14:23.962Z</time></trkpt><trkpt lat="45.4709115" lon="7.6889949"><ele>1376.8</ele><time>2026-04-25T13:14:24.957Z</time></trkpt><trkpt lat="45.4708139" lon="7.688948"><ele>1381.4</ele><time>2026-04-25T13:14:25.961Z</time></trkpt><trkpt lat="45.4707083" lon="7.6889035"><ele>1386.0</ele><time>2026-04-25T13:14:26.962Z</time></trkpt><trkpt lat="45.4706087" lon="7.688869"><ele>1386.0</ele><time>2026-04-25T13:14:27.958Z</time></trkpt><trkpt lat="45.4705121" lon="7.6888544"><ele>1386.0</ele><time>2026-04-25T13:14:28.962Z</time></trkpt><trkpt lat="45.4704174" lon="7.6888424"><ele>1386.0</ele><time>2026-04-25T13:14:29.957Z</time></trkpt><trkpt lat="45.470328" lon="7.688832"><ele>1386.0</ele><time>2026-04-25T13:14:30.96Z</time></trkpt><trkpt lat="45.4702455" lon="7.688822"><ele>1386.0</ele><time>2026-04-25T13:14:31.957Z</time></trkpt><trkpt lat="45.4701794" lon="7.6888085"><ele>1386.0</ele><time>2026-04-25T13:14:32.95Z</time></trkpt><trkpt lat="45.4700839" lon="7.6887901"><ele>1385.4</ele><time>2026-04-25T13:14:34.963Z</time></trkpt><trkpt lat="45.4700557" lon="7.6887079"><ele>1384.8</ele><time>2026-04-25T13:14:36.957Z</time></trkpt><trkpt lat="45.4701057" lon="7.6886127"><ele>1384.2</ele><time>2026-04-25T13:14:38.958Z</time></trkpt><trkpt lat="45.4702048" lon="7.6886096"><ele>1383.6000000000001</ele><time>2026-04-25T13:14:40.956Z</time></trkpt><trkpt lat="45.4703048" lon="7.6886055"><ele>1383.0</ele><time>2026-04-25T13:14:43.077Z</time></trkpt><trkpt lat="45.4704132" lon="7.688574"><ele>1385.2</ele><time>2026-04-25T13:14:44.961Z</time></trkpt><trkpt lat="45.4705042" lon="7.6885774"><ele>1387.4</ele><time>2026-04-25T13:14:46.959Z</time></trkpt><trkpt lat="45.470583" lon="7.6885302"><ele>1389.6000000000001</ele><time>2026-04-25T13:14:49.088Z</time></trkpt><trkpt lat="45.4705836" lon="7.6884317"><ele>1391.8000000000002</ele><time>2026-04-25T13:14:50.954Z</time></trkpt><trkpt lat="45.4705131" lon="7.6883635"><ele>1394.0</ele><time>2026-04-25T13:14:52.959Z</time></trkpt><trkpt lat="45.4703955" lon="7.6883876"><ele>1394.0</ele><time>2026-04-25T13:14:54.954Z</time></trkpt><trkpt lat="45.4703316" lon="7.6883889"><ele>1394.0</ele><time>2026-04-25T13:14:55.958Z</time></trkpt><trkpt lat="45.4702344" lon="7.6883439"><ele>1394.0</ele><time>2026-04-25T13:14:57.956Z</time></trkpt><trkpt lat="45.470213" lon="7.6882143"><ele>1394.0</ele><time>2026-04-25T13:14:59.954Z</time></trkpt><trkpt lat="45.4702828" lon="7.6880625"><ele>1394.0</ele><time>2026-04-25T13:15:02.021Z</time></trkpt><trkpt lat="45.4703374" lon="7.6879754"><ele>1394.0</ele><time>2026-04-25T13:15:03.012Z</time></trkpt><trkpt lat="45.4703844" lon="7.687887"><ele>1394.0</ele><time>2026-04-25T13:15:04.026Z</time></trkpt><trkpt lat="45.4704279" lon="7.6877966"><ele>1394.0</ele><time>2026-04-25T13:15:04.954Z</time></trkpt><trkpt lat="45.4704754" lon="7.6876976"><ele>1394.0</ele><time>2026-04-25T13:15:05.953Z</time></trkpt><trkpt lat="45.4705269" lon="7.6875976"><ele>1394.0</ele><time>2026-04-25T13:15:06.952Z</time></trkpt><trkpt lat="45.4705839" lon="7.6874912"><ele>1394.0</ele><time>2026-04-25T13:15:07.97Z</time></trkpt><trkpt lat="45.4706348" lon="7.6873778"><ele>1397.4</ele><time>2026-04-25T13:15:08.949Z</time></trkpt><trkpt lat="45.4706812" lon="7.6872623"><ele>1400.8000000000002</ele><time>2026-04-25T13:15:09.959Z</time></trkpt><trkpt lat="45.4707247" lon="7.6871428"><ele>1404.1999999999998</ele><time>2026-04-25T13:15:10.963Z</time></trkpt><trkpt lat="45.4707665" lon="7.6870219"><ele>1407.6</ele><time>2026-04-25T13:15:12.052Z</time></trkpt><trkpt lat="45.4708055" lon="7.6869038"><ele>1411.0</ele><time>2026-04-25T13:15:13.022Z</time></trkpt><trkpt lat="45.4708351" lon="7.6867917"><ele>1411.1666666666665</ele><time>2026-04-25T13:15:14.018Z</time></trkpt><trkpt lat="45.470863" lon="7.6866896"><ele>1411.3333333333333</ele><time>2026-04-25T13:15:14.955Z</time></trkpt><trkpt lat="45.4708823" lon="7.6865916"><ele>1411.5</ele><time>2026-04-25T13:15:15.96Z</time></trkpt><trkpt lat="45.4709182" lon="7.6864628"><ele>1411.6666666666667</ele><time>2026-04-25T13:15:18.017Z</time></trkpt><trkpt lat="45.470991" lon="7.6864731"><ele>1411.8333333333335</ele><time>2026-04-25T13:15:19.944Z</time></trkpt><trkpt lat="45.4710435" lon="7.6865992"><ele>1412.0</ele><time>2026-04-25T13:15:21.952Z</time></trkpt><trkpt lat="45.4710407" lon="7.6867869"><ele>1412.0</ele><time>2026-04-25T13:15:23.95Z</time></trkpt><trkpt lat="45.471038" lon="7.6868823"><ele>1412.0</ele><time>2026-04-25T13:15:24.95Z</time></trkpt><trkpt lat="45.4710633" lon="7.6870152"><ele>1412.0</ele><time>2026-04-25T13:15:26.955Z</time></trkpt><trkpt lat="45.4711561" lon="7.6870396"><ele>1412.0</ele><time>2026-04-25T13:15:28.959Z</time></trkpt><trkpt lat="45.4712166" lon="7.6869292"><ele>1412.0</ele><time>2026-04-25T13:15:30.942Z</time></trkpt><trkpt lat="45.4712137" lon="7.6868349"><ele>1412.0</ele><time>2026-04-25T13:15:31.948Z</time></trkpt><trkpt lat="45.4712003" lon="7.6867335"><ele>1412.0</ele><time>2026-04-25T13:15:32.949Z</time></trkpt><trkpt lat="45.4711931" lon="7.6866285"><ele>1412.0</ele><time>2026-04-25T13:15:33.953Z</time></trkpt><trkpt lat="45.4711951" lon="7.6865307"><ele>1412.0</ele><time>2026-04-25T13:15:34.95Z</time></trkpt><trkpt lat="45.4712045" lon="7.6864359"><ele>1412.0</ele><time>2026-04-25T13:15:35.955Z</time></trkpt><trkpt lat="45.4712216" lon="7.6863449"><ele>1412.0</ele><time>2026-04-25T13:15:36.948Z</time></trkpt><trkpt lat="45.4712751" lon="7.6861969"><ele>1412.0</ele><time>2026-04-25T13:15:38.978Z</time></trkpt><trkpt lat="45.4713596" lon="7.68608"><ele>1414.8</ele><time>2026-04-25T13:15:40.951Z</time></trkpt><trkpt lat="45.4714452" lon="7.6859636"><ele>1417.6</ele><time>2026-04-25T13:15:43.027Z</time></trkpt><trkpt lat="45.4714959" lon="7.685826"><ele>1420.3999999999999</ele><time>2026-04-25T13:15:44.958Z</time></trkpt><trkpt lat="45.4715383" lon="7.6856642"><ele>1423.1999999999998</ele><time>2026-04-25T13:15:46.958Z</time></trkpt><trkpt lat="45.4715732" lon="7.6855781"><ele>1426.0</ele><time>2026-04-25T13:15:48.02Z</time></trkpt><trkpt lat="45.4716105" lon="7.685487"><ele>1426.0</ele><time>2026-04-25T13:15:49.015Z</time></trkpt><trkpt lat="45.4716503" lon="7.6853829"><ele>1426.0</ele><time>2026-04-25T13:15:49.949Z</time></trkpt><trkpt lat="45.4716941" lon="7.6852815"><ele>1426.0</ele><time>2026-04-25T13:15:50.958Z</time></trkpt><trkpt lat="45.4717408" lon="7.6851813"><ele>1426.0</ele><time>2026-04-25T13:15:51.978Z</time></trkpt><trkpt lat="45.4717861" lon="7.6850824"><ele>1426.0</ele><time>2026-04-25T13:15:53.015Z</time></trkpt><trkpt lat="45.4718346" lon="7.6849866"><ele>1426.0</ele><time>2026-04-25T13:15:54.017Z</time></trkpt><trkpt lat="45.4718858" lon="7.6848975"><ele>1427.8333333333333</ele><time>2026-04-25T13:15:54.959Z</time></trkpt><trkpt lat="45.4719283" lon="7.6848062"><ele>1429.6666666666665</ele><time>2026-04-25T13:15:55.962Z</time></trkpt><trkpt lat="45.4719575" lon="7.6846955"><ele>1431.5</ele><time>2026-04-25T13:15:56.973Z</time></trkpt><trkpt lat="45.4719821" lon="7.68459"><ele>1433.3333333333333</ele><time>2026-04-25T13:15:58.016Z</time></trkpt><trkpt lat="45.4720121" lon="7.6844901"><ele>1435.1666666666667</ele><time>2026-04-25T13:15:59.019Z</time></trkpt><trkpt lat="45.472045" lon="7.6843977"><ele>1437.0</ele><time>2026-04-25T13:15:59.962Z</time></trkpt><trkpt lat="45.4720937" lon="7.6843211"><ele>1440.0</ele><time>2026-04-25T13:16:00.962Z</time></trkpt><trkpt lat="45.4721533" lon="7.6842569"><ele>1443.0</ele><time>2026-04-25T13:16:01.965Z</time></trkpt><trkpt lat="45.4722244" lon="7.6842048"><ele>1446.0</ele><time>2026-04-25T13:16:03.014Z</time></trkpt><trkpt lat="45.4722941" lon="7.6841537"><ele>1449.0</ele><time>2026-04-25T13:16:04.021Z</time></trkpt><trkpt lat="45.4723694" lon="7.6840998"><ele>1452.0</ele><time>2026-04-25T13:16:04.955Z</time></trkpt><trkpt lat="45.4724425" lon="7.6840539"><ele>1455.0</ele><time>2026-04-25T13:16:05.96Z</time></trkpt><trkpt lat="45.4725123" lon="7.6840078"><ele>1455.0</ele><time>2026-04-25T13:16:06.946Z</time></trkpt><trkpt lat="45.4725779" lon="7.6839646"><ele>1455.0</ele><time>2026-04-25T13:16:07.954Z</time></trkpt><trkpt lat="45.4726375" lon="7.6839293"><ele>1455.0</ele><time>2026-04-25T13:16:08.949Z</time></trkpt><trkpt lat="45.472709" lon="7.683855"><ele>1455.0</ele><time>2026-04-25T13:16:10.945Z</time></trkpt><trkpt lat="45.4726975" lon="7.6837455"><ele>1455.0</ele><time>2026-04-25T13:16:12.943Z</time></trkpt><trkpt lat="45.4726181" lon="7.6837399"><ele>1455.0</ele><time>2026-04-25T13:16:14.96Z</time></trkpt><trkpt lat="45.4725549" lon="7.6837623"><ele>1455.0</ele><time>2026-04-25T13:16:15.953Z</time></trkpt><trkpt lat="45.4724906" lon="7.6838024"><ele>1455.0</ele><time>2026-04-25T13:16:16.956Z</time></trkpt><trkpt lat="45.4723639" lon="7.683836"><ele>1455.0</ele><time>2026-04-25T13:16:18.954Z</time></trkpt><trkpt lat="45.4722412" lon="7.6838227"><ele>1455.0</ele><time>2026-04-25T13:16:20.953Z</time></trkpt><trkpt lat="45.4721631" lon="7.6836999"><ele>1455.0</ele><time>2026-04-25T13:16:22.954Z</time></trkpt><trkpt lat="45.472143" lon="7.6836072"><ele>1455.0</ele><time>2026-04-25T13:16:23.954Z</time></trkpt><trkpt lat="45.472129" lon="7.6834916"><ele>1454.8333333333333</ele><time>2026-04-25T13:16:24.952Z</time></trkpt><trkpt lat="45.4721073" lon="7.6833803"><ele>1454.6666666666667</ele><time>2026-04-25T13:16:25.956Z</time></trkpt><trkpt lat="45.4720809" lon="7.6832713"><ele>1454.5</ele><time>2026-04-25T13:16:26.954Z</time></trkpt><trkpt lat="45.4720571" lon="7.6831601"><ele>1454.3333333333335</ele><time>2026-04-25T13:16:27.964Z</time></trkpt><trkpt lat="45.472027" lon="7.6830441"><ele>1454.1666666666667</ele><time>2026-04-25T13:16:28.955Z</time></trkpt><trkpt lat="45.4720075" lon="7.6829232"><ele>1454.0</ele><time>2026-04-25T13:16:29.956Z</time></trkpt><trkpt lat="45.4719962" lon="7.6828062"><ele>1456.0</ele><time>2026-04-25T13:16:30.946Z</time></trkpt><trkpt lat="45.4719905" lon="7.6826738"><ele>1458.0</ele><time>2026-04-25T13:16:31.959Z</time></trkpt><trkpt lat="45.4719865" lon="7.6825346"><ele>1460.0</ele><time>2026-04-25T13:16:32.959Z</time></trkpt><trkpt lat="45.4719795" lon="7.6823927"><ele>1462.0</ele><time>2026-04-25T13:16:33.959Z</time></trkpt><trkpt lat="45.4719638" lon="7.6822498"><ele>1464.0</ele><time>2026-04-25T13:16:34.95Z</time></trkpt><trkpt lat="45.4719462" lon="7.6821084"><ele>1464.0</ele><time>2026-04-25T13:16:35.958Z</time></trkpt><trkpt lat="45.4719365" lon="7.6819614"><ele>1464.0</ele><time>2026-04-25T13:16:36.954Z</time></trkpt><trkpt lat="45.4719289" lon="7.6818149"><ele>1464.0</ele><time>2026-04-25T13:16:37.957Z</time></trkpt><trkpt lat="45.4719159" lon="7.6816732"><ele>1464.0</ele><time>2026-04-25T13:16:38.948Z</time></trkpt><trkpt lat="45.4719004" lon="7.6815446"><ele>1464.0</ele><time>2026-04-25T13:16:39.956Z</time></trkpt><trkpt lat="45.471884" lon="7.6814232"><ele>1466.0</ele><time>2026-04-25T13:16:40.953Z</time></trkpt><trkpt lat="45.471868" lon="7.6813196"><ele>1468.0</ele><time>2026-04-25T13:16:41.955Z</time></trkpt><trkpt lat="45.4718541" lon="7.68121"><ele>1470.0</ele><time>2026-04-25T13:16:42.95Z</time></trkpt><trkpt lat="45.4718495" lon="7.6811037"><ele>1472.0</ele><time>2026-04-25T13:16:44.017Z</time></trkpt><trkpt lat="45.4718555" lon="7.6809995"><ele>1474.0</ele><time>2026-04-25T13:16:44.956Z</time></trkpt><trkpt lat="45.4718618" lon="7.6808899"><ele>1476.0</ele><time>2026-04-25T13:16:45.957Z</time></trkpt><trkpt lat="45.4718646" lon="7.6807841"><ele>1477.142857142857</ele><time>2026-04-25T13:16:46.973Z</time></trkpt><trkpt lat="45.4718596" lon="7.6806718"><ele>1478.2857142857142</ele><time>2026-04-25T13:16:48.019Z</time></trkpt><trkpt lat="45.4718545" lon="7.6805738"><ele>1479.4285714285716</ele><time>2026-04-25T13:16:49.018Z</time></trkpt><trkpt lat="45.4718569" lon="7.6804777"><ele>1480.5714285714284</ele><time>2026-04-25T13:16:49.949Z</time></trkpt><trkpt lat="45.471862" lon="7.6803826"><ele>1481.7142857142858</ele><time>2026-04-25T13:16:50.956Z</time></trkpt><trkpt lat="45.47187" lon="7.6802822"><ele>1482.857142857143</ele><time>2026-04-25T13:16:51.953Z</time></trkpt><trkpt lat="45.4718812" lon="7.6801878"><ele>1484.0</ele><time>2026-04-25T13:16:52.957Z</time></trkpt><trkpt lat="45.4719005" lon="7.6800094"><ele>1485.2</ele><time>2026-04-25T13:16:54.946Z</time></trkpt><trkpt lat="45.4719329" lon="7.6798493"><ele>1486.4</ele><time>2026-04-25T13:16:57.02Z</time></trkpt><trkpt lat="45.4719899" lon="7.6796904"><ele>1487.6</ele><time>2026-04-25T13:16:58.955Z</time></trkpt><trkpt lat="45.4720459" lon="7.6795312"><ele>1488.8</ele><time>2026-04-25T13:17:00.956Z</time></trkpt><trkpt lat="45.4720672" lon="7.6794443"><ele>1490.0</ele><time>2026-04-25T13:17:01.954Z</time></trkpt><trkpt lat="45.4720839" lon="7.6793577"><ele>1490.4</ele><time>2026-04-25T13:17:02.956Z</time></trkpt><trkpt lat="45.4721027" lon="7.6791988"><ele>1490.8</ele><time>2026-04-25T13:17:04.954Z</time></trkpt><trkpt lat="45.4721148" lon="7.6790409"><ele>1491.1999999999998</ele><time>2026-04-25T13:17:07.059Z</time></trkpt><trkpt lat="45.4721342" lon="7.6788954"><ele>1491.6</ele><time>2026-04-25T13:17:08.953Z</time></trkpt><trkpt lat="45.4721832" lon="7.6787943"><ele>1492.0</ele><time>2026-04-25T13:17:10.954Z</time></trkpt><trkpt lat="45.4722717" lon="7.678808"><ele>1497.0</ele><time>2026-04-25T13:17:12.946Z</time></trkpt><trkpt lat="45.4723557" lon="7.6789144"><ele>1502.0</ele><time>2026-04-25T13:17:14.957Z</time></trkpt><trkpt lat="45.4723946" lon="7.6789986"><ele>1507.0</ele><time>2026-04-25T13:17:15.95Z</time></trkpt><trkpt lat="45.4724246" lon="7.6790904"><ele>1512.0</ele><time>2026-04-25T13:17:16.97Z</time></trkpt><trkpt lat="45.4724518" lon="7.6791789"><ele>1517.0</ele><time>2026-04-25T13:17:18.006Z</time></trkpt><trkpt lat="45.4724785" lon="7.6792657"><ele>1522.0</ele><time>2026-04-25T13:17:19.011Z</time></trkpt><trkpt lat="45.4725186" lon="7.6793572"><ele>1521.2857142857142</ele><time>2026-04-25T13:17:19.953Z</time></trkpt><trkpt lat="45.472567" lon="7.6794413"><ele>1520.5714285714284</ele><time>2026-04-25T13:17:20.956Z</time></trkpt><trkpt lat="45.4726183" lon="7.6795191"><ele>1519.8571428571427</ele><time>2026-04-25T13:17:21.989Z</time></trkpt><trkpt lat="45.4726642" lon="7.6796052"><ele>1519.142857142857</ele><time>2026-04-25T13:17:23.017Z</time></trkpt><trkpt lat="45.4727022" lon="7.6796865"><ele>1518.4285714285716</ele><time>2026-04-25T13:17:24.009Z</time></trkpt><trkpt lat="45.4727254" lon="7.6797853"><ele>1517.7142857142856</ele><time>2026-04-25T13:17:24.96Z</time></trkpt><trkpt lat="45.4727429" lon="7.6798824"><ele>1517.0</ele><time>2026-04-25T13:17:25.952Z</time></trkpt><trkpt lat="45.4727574" lon="7.6799749"><ele>1517.0</ele><time>2026-04-25T13:17:26.974Z</time></trkpt><trkpt lat="45.4727826" lon="7.6801443"><ele>1517.0</ele><time>2026-04-25T13:17:29.011Z</time></trkpt><trkpt lat="45.472836" lon="7.680244"><ele>1517.0</ele><time>2026-04-25T13:17:30.955Z</time></trkpt><trkpt lat="45.4729197" lon="7.6802194"><ele>1517.0</ele><time>2026-04-25T13:17:33.011Z</time></trkpt><trkpt lat="45.4729462" lon="7.6801046"><ele>1517.0</ele><time>2026-04-25T13:17:34.951Z</time></trkpt><trkpt lat="45.4729182" lon="7.6799324"><ele>1517.0</ele><time>2026-04-25T13:17:37.008Z</time></trkpt><trkpt lat="45.4729153" lon="7.6798342"><ele>1517.0</ele><time>2026-04-25T13:17:38.011Z</time></trkpt><trkpt lat="45.4729233" lon="7.6797273"><ele>1517.0</ele><time>2026-04-25T13:17:39.014Z</time></trkpt><trkpt lat="45.4729301" lon="7.6796227"><ele>1517.0</ele><time>2026-04-25T13:17:39.956Z</time></trkpt><trkpt lat="45.4729284" lon="7.6795285"><ele>1517.0</ele><time>2026-04-25T13:17:40.954Z</time></trkpt><trkpt lat="45.4729126" lon="7.6794396"><ele>1517.0</ele><time>2026-04-25T13:17:41.949Z</time></trkpt><trkpt lat="45.4728921" lon="7.6793526"><ele>1517.0</ele><time>2026-04-25T13:17:42.943Z</time></trkpt><trkpt lat="45.472868" lon="7.6791875"><ele>1518.0</ele><time>2026-04-25T13:17:44.962Z</time></trkpt><trkpt lat="45.4728647" lon="7.6790286"><ele>1519.0</ele><time>2026-04-25T13:17:47.016Z</time></trkpt><trkpt lat="45.4728543" lon="7.6788606"><ele>1520.0</ele><time>2026-04-25T13:17:48.954Z</time></trkpt><trkpt lat="45.4728358" lon="7.6786792"><ele>1521.0</ele><time>2026-04-25T13:17:50.952Z</time></trkpt><trkpt lat="45.4728175" lon="7.6785911"><ele>1522.0</ele><time>2026-04-25T13:17:51.96Z</time></trkpt><trkpt lat="45.4727995" lon="7.6784996"><ele>1523.0</ele><time>2026-04-25T13:17:52.956Z</time></trkpt><trkpt lat="45.4727766" lon="7.6784159"><ele>1524.0</ele><time>2026-04-25T13:17:54.012Z</time></trkpt><trkpt lat="45.4727492" lon="7.6782468"><ele>1525.0</ele><time>2026-04-25T13:17:55.956Z</time></trkpt><trkpt lat="45.4727487" lon="7.6781496"><ele>1526.0</ele><time>2026-04-25T13:17:56.977Z</time></trkpt><trkpt lat="45.4727527" lon="7.6780489"><ele>1527.0</ele><time>2026-04-25T13:17:58.013Z</time></trkpt><trkpt lat="45.4727578" lon="7.6779469"><ele>1528.0</ele><time>2026-04-25T13:17:59.016Z</time></trkpt><trkpt lat="45.4727499" lon="7.677843"><ele>1529.142857142857</ele><time>2026-04-25T13:17:59.951Z</time></trkpt><trkpt lat="45.4727329" lon="7.6777359"><ele>1530.2857142857142</ele><time>2026-04-25T13:18:00.951Z</time></trkpt><trkpt lat="45.4727179" lon="7.6776297"><ele>1531.4285714285713</ele><time>2026-04-25T13:18:01.987Z</time></trkpt><trkpt lat="45.4727071" lon="7.6775242"><ele>1532.5714285714284</ele><time>2026-04-25T13:18:03.012Z</time></trkpt><trkpt lat="45.472693" lon="7.6774191"><ele>1533.7142857142858</ele><time>2026-04-25T13:18:04.015Z</time></trkpt><trkpt lat="45.4726802" lon="7.6773175"><ele>1534.8571428571427</ele><time>2026-04-25T13:18:04.959Z</time></trkpt><trkpt lat="45.4726707" lon="7.6772206"><ele>1536.0</ele><time>2026-04-25T13:18:05.947Z</time></trkpt><trkpt lat="45.4726666" lon="7.6771221"><ele>1535.9999999999998</ele><time>2026-04-25T13:18:06.974Z</time></trkpt><trkpt lat="45.4726653" lon="7.6770217"><ele>1536.0</ele><time>2026-04-25T13:18:08.018Z</time></trkpt><trkpt lat="45.4726651" lon="7.6769226"><ele>1536.0</ele><time>2026-04-25T13:18:09.013Z</time></trkpt><trkpt lat="45.4726712" lon="7.6768234"><ele>1536.0</ele><time>2026-04-25T13:18:09.95Z</time></trkpt><trkpt lat="45.4726859" lon="7.6767173"><ele>1536.0</ele><time>2026-04-25T13:18:10.951Z</time></trkpt><trkpt lat="45.4727006" lon="7.6766055"><ele>1535.9999999999998</ele><time>2026-04-25T13:18:11.962Z</time></trkpt><trkpt lat="45.4727114" lon="7.6764875"><ele>1536.0</ele><time>2026-04-25T13:18:13.01Z</time></trkpt><trkpt lat="45.4727214" lon="7.6763732"><ele>1537.0</ele><time>2026-04-25T13:18:14.019Z</time></trkpt><trkpt lat="45.4727316" lon="7.6762561"><ele>1538.0</ele><time>2026-04-25T13:18:14.955Z</time></trkpt><trkpt lat="45.4727408" lon="7.6761264"><ele>1539.0</ele><time>2026-04-25T13:18:15.949Z</time></trkpt><trkpt lat="45.4727519" lon="7.6759914"><ele>1540.0</ele><time>2026-04-25T13:18:16.973Z</time></trkpt><trkpt lat="45.472761" lon="7.6758587"><ele>1541.0</ele><time>2026-04-25T13:18:18.026Z</time></trkpt><trkpt lat="45.4727744" lon="7.6757086"><ele>1541.25</ele><time>2026-04-25T13:18:19.006Z</time></trkpt><trkpt lat="45.4727923" lon="7.6755383"><ele>1541.5</ele><time>2026-04-25T13:18:19.954Z</time></trkpt><trkpt lat="45.4728105" lon="7.6753677"><ele>1541.75</ele><time>2026-04-25T13:18:20.949Z</time></trkpt><trkpt lat="45.4728336" lon="7.6752061"><ele>1542.0</ele><time>2026-04-25T13:18:21.957Z</time></trkpt><trkpt lat="45.4728681" lon="7.6750481"><ele>1542.6</ele><time>2026-04-25T13:18:22.949Z</time></trkpt><trkpt lat="45.4729038" lon="7.674914"><ele>1543.1999999999998</ele><time>2026-04-25T13:18:23.951Z</time></trkpt><trkpt lat="45.4729326" lon="7.6747772"><ele>1543.8</ele><time>2026-04-25T13:18:24.959Z</time></trkpt><trkpt lat="45.4729565" lon="7.6746352"><ele>1544.4</ele><time>2026-04-25T13:18:25.957Z</time></trkpt><trkpt lat="45.4729706" lon="7.6745088"><ele>1545.0</ele><time>2026-04-25T13:18:27.019Z</time></trkpt><trkpt lat="45.4729707" lon="7.6743825"><ele>1546.3333333333333</ele><time>2026-04-25T13:18:28.013Z</time></trkpt><trkpt lat="45.4729583" lon="7.6742671"><ele>1547.6666666666665</ele><time>2026-04-25T13:18:29.017Z</time></trkpt><trkpt lat="45.4729322" lon="7.674158"><ele>1549.0</ele><time>2026-04-25T13:18:29.946Z</time></trkpt><trkpt lat="45.4729065" lon="7.6740546"><ele>1550.3333333333333</ele><time>2026-04-25T13:18:30.953Z</time></trkpt><trkpt lat="45.4728953" lon="7.6739586"><ele>1551.6666666666665</ele><time>2026-04-25T13:18:31.957Z</time></trkpt><trkpt lat="45.4729034" lon="7.6737831"><ele>1553.0</ele><time>2026-04-25T13:18:33.954Z</time></trkpt><trkpt lat="45.4729221" lon="7.6736912"><ele>1555.8333333333333</ele><time>2026-04-25T13:18:34.954Z</time></trkpt><trkpt lat="45.4729198" lon="7.673498"><ele>1558.6666666666665</ele><time>2026-04-25T13:18:37.039Z</time></trkpt><trkpt lat="45.4729051" lon="7.6733795"><ele>1561.5</ele><time>2026-04-25T13:18:38.009Z</time></trkpt><trkpt lat="45.4728943" lon="7.673273"><ele>1564.3333333333335</ele><time>2026-04-25T13:18:39.032Z</time></trkpt><trkpt lat="45.4728821" lon="7.6731822"><ele>1567.1666666666667</ele><time>2026-04-25T13:18:39.951Z</time></trkpt><trkpt lat="45.4728501" lon="7.6731037"><ele>1570.0</ele><time>2026-04-25T13:18:40.95Z</time></trkpt><trkpt lat="45.4727888" lon="7.673004"><ele>1570.0000000000002</ele><time>2026-04-25T13:18:43.025Z</time></trkpt><trkpt lat="45.4728392" lon="7.67291"><ele>1570.0</ele><time>2026-04-25T13:18:45.945Z</time></trkpt><trkpt lat="45.4729077" lon="7.6729678"><ele>1570.0</ele><time>2026-04-25T13:18:47.946Z</time></trkpt><trkpt lat="45.4729399" lon="7.6730471"><ele>1570.0</ele><time>2026-04-25T13:18:48.956Z</time></trkpt><trkpt lat="45.4729809" lon="7.6731542"><ele>1570.0000000000002</ele><time>2026-04-25T13:18:49.957Z</time></trkpt><trkpt lat="45.4730269" lon="7.6732703"><ele>1570.0</ele><time>2026-04-25T13:18:50.957Z</time></trkpt><trkpt lat="45.4730848" lon="7.6734126"><ele>1576.6</ele><time>2026-04-25T13:18:51.959Z</time></trkpt><trkpt lat="45.4731356" lon="7.6735462"><ele>1583.2</ele><time>2026-04-25T13:18:52.956Z</time></trkpt><trkpt lat="45.4731521" lon="7.673655"><ele>1589.8000000000002</ele><time>2026-04-25T13:18:53.954Z</time></trkpt><trkpt lat="45.4731798" lon="7.6738093"><ele>1596.4</ele><time>2026-04-25T13:18:55.958Z</time></trkpt><trkpt lat="45.4732511" lon="7.6738412"><ele>1603.0</ele><time>2026-04-25T13:18:57.95Z</time></trkpt><trkpt lat="45.4732903" lon="7.6737103"><ele>1603.0</ele><time>2026-04-25T13:18:59.958Z</time></trkpt><trkpt lat="45.4732809" lon="7.6736076"><ele>1603.0</ele><time>2026-04-25T13:19:00.956Z</time></trkpt><trkpt lat="45.4732631" lon="7.6734772"><ele>1603.0</ele><time>2026-04-25T13:19:01.954Z</time></trkpt><trkpt lat="45.4732541" lon="7.6733318"><ele>1603.0</ele><time>2026-04-25T13:19:02.942Z</time></trkpt><trkpt lat="45.473256" lon="7.6731874"><ele>1603.0</ele><time>2026-04-25T13:19:04.023Z</time></trkpt><trkpt lat="45.4732545" lon="7.6730442"><ele>1604.3333333333335</ele><time>2026-04-25T13:19:04.952Z</time></trkpt><trkpt lat="45.4732525" lon="7.6729124"><ele>1605.6666666666667</ele><time>2026-04-25T13:19:05.956Z</time></trkpt><trkpt lat="45.4732409" lon="7.6727819"><ele>1607.0</ele><time>2026-04-25T13:19:07.032Z</time></trkpt><trkpt lat="45.4732229" lon="7.6726611"><ele>1608.3333333333335</ele><time>2026-04-25T13:19:08.018Z</time></trkpt><trkpt lat="45.473193" lon="7.6725464"><ele>1609.6666666666667</ele><time>2026-04-25T13:19:09.013Z</time></trkpt><trkpt lat="45.4731511" lon="7.672442"><ele>1611.0</ele><time>2026-04-25T13:19:09.958Z</time></trkpt><trkpt lat="45.4731071" lon="7.672352"><ele>1612.8333333333333</ele><time>2026-04-25T13:19:10.956Z</time></trkpt><trkpt lat="45.4730562" lon="7.6722777"><ele>1614.6666666666665</ele><time>2026-04-25T13:19:11.969Z</time></trkpt><trkpt lat="45.4729991" lon="7.6722367"><ele>1616.5</ele><time>2026-04-25T13:19:12.951Z</time></trkpt><trkpt lat="45.4729362" lon="7.6722067"><ele>1618.3333333333333</ele><time>2026-04-25T13:19:14.03Z</time></trkpt><trkpt lat="45.4728348" lon="7.672154"><ele>1620.1666666666665</ele><time>2026-04-25T13:19:15.957Z</time></trkpt><trkpt lat="45.4728236" lon="7.6720456"><ele>1622.0</ele><time>2026-04-25T13:19:17.954Z</time></trkpt><trkpt lat="45.472897" lon="7.6719825"><ele>1622.0</ele><time>2026-04-25T13:19:19.952Z</time></trkpt><trkpt lat="45.4730133" lon="7.672028"><ele>1622.0</ele><time>2026-04-25T13:19:21.952Z</time></trkpt><trkpt lat="45.4730905" lon="7.6720953"><ele>1622.0</ele><time>2026-04-25T13:19:22.951Z</time></trkpt><trkpt lat="45.4731724" lon="7.6721644"><ele>1622.0</ele><time>2026-04-25T13:19:23.957Z</time></trkpt><trkpt lat="45.4732544" lon="7.6722326"><ele>1622.0</ele><time>2026-04-25T13:19:24.949Z</time></trkpt><trkpt lat="45.4733254" lon="7.6722884"><ele>1622.0</ele><time>2026-04-25T13:19:25.957Z</time></trkpt><trkpt lat="45.4733901" lon="7.6723454"><ele>1622.0</ele><time>2026-04-25T13:19:26.954Z</time></trkpt><trkpt lat="45.4734446" lon="7.6724063"><ele>1622.0</ele><time>2026-04-25T13:19:27.952Z</time></trkpt><trkpt lat="45.4734866" lon="7.6724832"><ele>1622.0</ele><time>2026-04-25T13:19:28.949Z</time></trkpt><trkpt lat="45.4735232" lon="7.6725724"><ele>1622.0</ele><time>2026-04-25T13:19:29.954Z</time></trkpt><trkpt lat="45.4735545" lon="7.6726701"><ele>1622.0</ele><time>2026-04-25T13:19:31.014Z</time></trkpt><trkpt lat="45.4735725" lon="7.6727799"><ele>1622.0</ele><time>2026-04-25T13:19:32.016Z</time></trkpt><trkpt lat="45.4735958" lon="7.6728741"><ele>1621.9999999999998</ele><time>2026-04-25T13:19:32.957Z</time></trkpt><trkpt lat="45.4736693" lon="7.6729618"><ele>1622.0</ele><time>2026-04-25T13:19:34.948Z</time></trkpt><trkpt lat="45.4737042" lon="7.6728768"><ele>1622.0</ele><time>2026-04-25T13:19:36.956Z</time></trkpt><trkpt lat="45.4736894" lon="7.6727856"><ele>1622.0</ele><time>2026-04-25T13:19:37.95Z</time></trkpt><trkpt lat="45.4736694" lon="7.6726737"><ele>1621.9999999999998</ele><time>2026-04-25T13:19:38.952Z</time></trkpt><trkpt lat="45.4736548" lon="7.6725288"><ele>1622.0</ele><time>2026-04-25T13:19:39.951Z</time></trkpt><trkpt lat="45.4736469" lon="7.67237"><ele>1621.9999999999998</ele><time>2026-04-25T13:19:40.954Z</time></trkpt><trkpt lat="45.4736424" lon="7.6722373"><ele>1622.0</ele><time>2026-04-25T13:19:41.956Z</time></trkpt><trkpt lat="45.4736321" lon="7.6721292"><ele>1622.0</ele><time>2026-04-25T13:19:42.953Z</time></trkpt><trkpt lat="45.4736044" lon="7.6720324"><ele>1622.0</ele><time>2026-04-25T13:19:43.954Z</time></trkpt><trkpt lat="45.4735572" lon="7.6719027"><ele>1621.9999999999998</ele><time>2026-04-25T13:19:45.952Z</time></trkpt><trkpt lat="45.4735946" lon="7.671795"><ele>1622.0</ele><time>2026-04-25T13:19:48.963Z</time></trkpt><trkpt lat="45.4736673" lon="7.6718024"><ele>1622.0</ele><time>2026-04-25T13:19:50.941Z</time></trkpt><trkpt lat="45.4737199" lon="7.6719132"><ele>1622.0</ele><time>2026-04-25T13:19:52.949Z</time></trkpt><trkpt lat="45.473752" lon="7.6720271"><ele>1622.0</ele><time>2026-04-25T13:19:53.958Z</time></trkpt><trkpt lat="45.4737871" lon="7.6721533"><ele>1622.0</ele><time>2026-04-25T13:19:54.953Z</time></trkpt><trkpt lat="45.473818" lon="7.6722771"><ele>1622.0</ele><time>2026-04-25T13:19:55.95Z</time></trkpt><trkpt lat="45.4738432" lon="7.6723928"><ele>1628.9999999999998</ele><time>2026-04-25T13:19:56.956Z</time></trkpt><trkpt lat="45.473873" lon="7.672512"><ele>1636.0</ele><time>2026-04-25T13:19:57.952Z</time></trkpt><trkpt lat="45.473897" lon="7.6726197"><ele>1643.0</ele><time>2026-04-25T13:19:58.988Z</time></trkpt><trkpt lat="45.4739376" lon="7.6727255"><ele>1650.0</ele><time>2026-04-25T13:20:00.952Z</time></trkpt><trkpt lat="45.4740145" lon="7.6727137"><ele>1656.9999999999998</ele><time>2026-04-25T13:20:03.946Z</time></trkpt><trkpt lat="45.4740109" lon="7.672586"><ele>1664.0</ele><time>2026-04-25T13:20:05.951Z</time></trkpt><trkpt lat="45.4739939" lon="7.6724336"><ele>1664.0</ele><time>2026-04-25T13:20:07.941Z</time></trkpt><trkpt lat="45.4739925" lon="7.6723432"><ele>1664.0</ele><time>2026-04-25T13:20:08.949Z</time></trkpt><trkpt lat="45.4740076" lon="7.6722439"><ele>1664.0</ele><time>2026-04-25T13:20:09.954Z</time></trkpt><trkpt lat="45.4740225" lon="7.6721358"><ele>1664.0</ele><time>2026-04-25T13:20:10.953Z</time></trkpt><trkpt lat="45.4740315" lon="7.672026"><ele>1664.0</ele><time>2026-04-25T13:20:11.947Z</time></trkpt><trkpt lat="45.4740385" lon="7.6719213"><ele>1664.0</ele><time>2026-04-25T13:20:12.947Z</time></trkpt><trkpt lat="45.4740421" lon="7.6718181"><ele>1664.0</ele><time>2026-04-25T13:20:13.948Z</time></trkpt><trkpt lat="45.4740373" lon="7.6717139"><ele>1665.1666666666665</ele><time>2026-04-25T13:20:14.95Z</time></trkpt><trkpt lat="45.4740285" lon="7.6716118"><ele>1666.3333333333333</ele><time>2026-04-25T13:20:15.954Z</time></trkpt><trkpt lat="45.4740117" lon="7.6715194"><ele>1667.5</ele><time>2026-04-25T13:20:16.948Z</time></trkpt><trkpt lat="45.4739713" lon="7.6713493"><ele>1668.6666666666665</ele><time>2026-04-25T13:20:18.965Z</time></trkpt><trkpt lat="45.4739231" lon="7.6712086"><ele>1669.8333333333333</ele><time>2026-04-25T13:20:20.947Z</time></trkpt><trkpt lat="45.4739087" lon="7.6711066"><ele>1671.0</ele><time>2026-04-25T13:20:22.952Z</time></trkpt><trkpt lat="45.473962" lon="7.6710574"><ele>1671.0</ele><time>2026-04-25T13:20:24.955Z</time></trkpt><trkpt lat="45.4740608" lon="7.6711192"><ele>1671.0</ele><time>2026-04-25T13:20:26.954Z</time></trkpt><trkpt lat="45.4741389" lon="7.6712449"><ele>1671.0</ele><time>2026-04-25T13:20:28.947Z</time></trkpt><trkpt lat="45.4741793" lon="7.6713511"><ele>1671.0</ele><time>2026-04-25T13:20:29.957Z</time></trkpt><trkpt lat="45.4742184" lon="7.6714681"><ele>1671.0</ele><time>2026-04-25T13:20:30.948Z</time></trkpt><trkpt lat="45.4742494" lon="7.6715774"><ele>1671.0</ele><time>2026-04-25T13:20:31.954Z</time></trkpt><trkpt lat="45.4742724" lon="7.6716702"><ele>1671.0</ele><time>2026-04-25T13:20:32.955Z</time></trkpt><trkpt lat="45.4743278" lon="7.6717619"><ele>1671.0</ele><time>2026-04-25T13:20:34.94Z</time></trkpt><trkpt lat="45.4743915" lon="7.6717209"><ele>1671.0</ele><time>2026-04-25T13:20:36.946Z</time></trkpt><trkpt lat="45.4743872" lon="7.671574"><ele>1671.0</ele><time>2026-04-25T13:20:38.952Z</time></trkpt><trkpt lat="45.4743565" lon="7.6714515"><ele>1671.0</ele><time>2026-04-25T13:20:39.948Z</time></trkpt><trkpt lat="45.4743171" lon="7.6712845"><ele>1671.0</ele><time>2026-04-25T13:20:40.948Z</time></trkpt><trkpt lat="45.4742848" lon="7.6711108"><ele>1671.0</ele><time>2026-04-25T13:20:41.953Z</time></trkpt><trkpt lat="45.4742672" lon="7.6709845"><ele>1671.0</ele><time>2026-04-25T13:20:42.95Z</time></trkpt><trkpt lat="45.4742442" lon="7.6708718"><ele>1671.0</ele><time>2026-04-25T13:20:43.949Z</time></trkpt><trkpt lat="45.4742078" lon="7.6707687"><ele>1671.0</ele><time>2026-04-25T13:20:44.951Z</time></trkpt><trkpt lat="45.4741677" lon="7.6706742"><ele>1673.5</ele><time>2026-04-25T13:20:45.954Z</time></trkpt><trkpt lat="45.4741332" lon="7.6705824"><ele>1676.0</ele><time>2026-04-25T13:20:46.948Z</time></trkpt><trkpt lat="45.4741048" lon="7.6704943"><ele>1678.5</ele><time>2026-04-25T13:20:47.949Z</time></trkpt><trkpt lat="45.4740789" lon="7.6704095"><ele>1681.0</ele><time>2026-04-25T13:20:48.96Z</time></trkpt><trkpt lat="45.4740768" lon="7.6702393"><ele>1683.5</ele><time>2026-04-25T13:20:50.956Z</time></trkpt><trkpt lat="45.4740892" lon="7.6701406"><ele>1686.0</ele><time>2026-04-25T13:20:51.956Z</time></trkpt><trkpt lat="45.4741118" lon="7.6700322"><ele>1687.5</ele><time>2026-04-25T13:20:52.95Z</time></trkpt><trkpt lat="45.4741426" lon="7.6699213"><ele>1689.0</ele><time>2026-04-25T13:20:53.954Z</time></trkpt><trkpt lat="45.4741834" lon="7.6698114"><ele>1690.5</ele><time>2026-04-25T13:20:54.957Z</time></trkpt><trkpt lat="45.4742291" lon="7.669702"><ele>1692.0</ele><time>2026-04-25T13:20:55.949Z</time></trkpt><trkpt lat="45.4742718" lon="7.6695833"><ele>1693.5</ele><time>2026-04-25T13:20:56.952Z</time></trkpt><trkpt lat="45.474315" lon="7.6694625"><ele>1695.0</ele><time>2026-04-25T13:20:57.951Z</time></trkpt><trkpt lat="45.474356" lon="7.6693492"><ele>1695.5</ele><time>2026-04-25T13:20:58.946Z</time></trkpt><trkpt lat="45.4743938" lon="7.6692396"><ele>1696.0</ele><time>2026-04-25T13:20:59.953Z</time></trkpt><trkpt lat="45.4744184" lon="7.6691146"><ele>1696.5</ele><time>2026-04-25T13:21:00.95Z</time></trkpt><trkpt lat="45.4744266" lon="7.6689871"><ele>1697.0</ele><time>2026-04-25T13:21:01.953Z</time></trkpt><trkpt lat="45.4744264" lon="7.6688971"><ele>1697.5</ele><time>2026-04-25T13:21:02.955Z</time></trkpt><trkpt lat="45.4744522" lon="7.66881"><ele>1698.0</ele><time>2026-04-25T13:21:04.948Z</time></trkpt><trkpt lat="45.4745238" lon="7.6688135"><ele>1698.0</ele><time>2026-04-25T13:21:06.947Z</time></trkpt><trkpt lat="45.4745786" lon="7.6689206"><ele>1698.0</ele><time>2026-04-25T13:21:08.957Z</time></trkpt><trkpt lat="45.4745771" lon="7.6691168"><ele>1698.0</ele><time>2026-04-25T13:21:10.955Z</time></trkpt><trkpt lat="45.4745739" lon="7.6692255"><ele>1698.0</ele><time>2026-04-25T13:21:11.95Z</time></trkpt><trkpt lat="45.4745787" lon="7.6693277"><ele>1698.0</ele><time>2026-04-25T13:21:12.949Z</time></trkpt><trkpt lat="45.4745914" lon="7.6694377"><ele>1697.4</ele><time>2026-04-25T13:21:13.956Z</time></trkpt><trkpt lat="45.474601" lon="7.6695552"><ele>1696.8000000000002</ele><time>2026-04-25T13:21:14.954Z</time></trkpt><trkpt lat="45.4746036" lon="7.6696897"><ele>1696.2</ele><time>2026-04-25T13:21:15.945Z</time></trkpt><trkpt lat="45.4746055" lon="7.669821"><ele>1695.6</ele><time>2026-04-25T13:21:16.95Z</time></trkpt><trkpt lat="45.4746046" lon="7.6699363"><ele>1695.0</ele><time>2026-04-25T13:21:17.95Z</time></trkpt><trkpt lat="45.4746075" lon="7.6700809"><ele>1703.4</ele><time>2026-04-25T13:21:19.942Z</time></trkpt><trkpt lat="45.4746822" lon="7.6700881"><ele>1711.8</ele><time>2026-04-25T13:21:22.952Z</time></trkpt><trkpt lat="45.4747038" lon="7.6699031"><ele>1720.1999999999998</ele><time>2026-04-25T13:21:24.949Z</time></trkpt><trkpt lat="45.4747119" lon="7.6697748"><ele>1728.6</ele><time>2026-04-25T13:21:25.956Z</time></trkpt><trkpt lat="45.4747261" lon="7.6696426"><ele>1737.0</ele><time>2026-04-25T13:21:26.947Z</time></trkpt><trkpt lat="45.4747422" lon="7.6695314"><ele>1737.0</ele><time>2026-04-25T13:21:27.951Z</time></trkpt><trkpt lat="45.474766" lon="7.6694023"><ele>1737.0</ele><time>2026-04-25T13:21:28.952Z</time></trkpt><trkpt lat="45.4747973" lon="7.6692837"><ele>1737.0</ele><time>2026-04-25T13:21:29.951Z</time></trkpt><trkpt lat="45.4748323" lon="7.6691827"><ele>1737.0</ele><time>2026-04-25T13:21:30.953Z</time></trkpt><trkpt lat="45.4748754" lon="7.669078"><ele>1737.0</ele><time>2026-04-25T13:21:31.953Z</time></trkpt><trkpt lat="45.4749269" lon="7.6689691"><ele>1737.0</ele><time>2026-04-25T13:21:32.95Z</time></trkpt><trkpt lat="45.4749784" lon="7.6688574"><ele>1737.0</ele><time>2026-04-25T13:21:33.954Z</time></trkpt><trkpt lat="45.4750289" lon="7.6687255"><ele>1736.9999999999998</ele><time>2026-04-25T13:21:34.953Z</time></trkpt><trkpt lat="45.4750779" lon="7.6686048"><ele>1736.9999999999998</ele><time>2026-04-25T13:21:35.946Z</time></trkpt><trkpt lat="45.4751154" lon="7.6684987"><ele>1737.0</ele><time>2026-04-25T13:21:36.955Z</time></trkpt><trkpt lat="45.4751415" lon="7.6684137"><ele>1737.0</ele><time>2026-04-25T13:21:37.955Z</time></trkpt><trkpt lat="45.4751748" lon="7.6682687"><ele>1737.0</ele><time>2026-04-25T13:21:39.95Z</time></trkpt><trkpt lat="45.4752537" lon="7.6682219"><ele>1736.9999999999998</ele><time>2026-04-25T13:21:41.954Z</time></trkpt><trkpt lat="45.4753151" lon="7.6682858"><ele>1736.9999999999998</ele><time>2026-04-25T13:21:43.945Z</time></trkpt><trkpt lat="45.4753186" lon="7.6684438"><ele>1737.0</ele><time>2026-04-25T13:21:45.942Z</time></trkpt><trkpt lat="45.4752899" lon="7.6685537"><ele>1737.0</ele><time>2026-04-25T13:21:46.953Z</time></trkpt><trkpt lat="45.47526" lon="7.6686853"><ele>1737.0</ele><time>2026-04-25T13:21:47.959Z</time></trkpt><trkpt lat="45.4752433" lon="7.6688167"><ele>1736.9999999999998</ele><time>2026-04-25T13:21:48.952Z</time></trkpt><trkpt lat="45.4752332" lon="7.6689348"><ele>1736.9999999999998</ele><time>2026-04-25T13:21:49.958Z</time></trkpt><trkpt lat="45.4752271" lon="7.6690668"><ele>1737.0</ele><time>2026-04-25T13:21:50.954Z</time></trkpt><trkpt lat="45.4752224" lon="7.6692097"><ele>1737.0</ele><time>2026-04-25T13:21:51.953Z</time></trkpt><trkpt lat="45.4752209" lon="7.6693287"><ele>1737.0</ele><time>2026-04-25T13:21:52.948Z</time></trkpt><trkpt lat="45.4752234" lon="7.6694332"><ele>1737.0</ele><time>2026-04-25T13:21:53.953Z</time></trkpt><trkpt lat="45.4752383" lon="7.6695447"><ele>1737.0</ele><time>2026-04-25T13:21:55.953Z</time></trkpt><trkpt lat="45.4752987" lon="7.6696064"><ele>1737.0</ele><time>2026-04-25T13:21:57.95Z</time></trkpt><trkpt lat="45.4753666" lon="7.669566"><ele>1737.0</ele><time>2026-04-25T13:21:59.954Z</time></trkpt><trkpt lat="45.475428" lon="7.6694207"><ele>1737.0</ele><time>2026-04-25T13:22:01.949Z</time></trkpt><trkpt lat="45.4754651" lon="7.6693025"><ele>1737.0</ele><time>2026-04-25T13:22:03.953Z</time></trkpt><trkpt lat="45.4754425" lon="7.6691791"><ele>1737.0</ele><time>2026-04-25T13:22:06.942Z</time></trkpt><trkpt lat="45.4753899" lon="7.6691291"><ele>1737.0</ele><time>2026-04-25T13:22:08.94Z</time></trkpt><trkpt lat="45.4753825" lon="7.6690277"><ele>1737.0</ele><time>2026-04-25T13:35:55.94Z</time></trkpt><trkpt lat="45.4754246" lon="7.6691158"><ele>1737.0</ele><time>2026-04-25T13:44:39.929Z</time></trkpt><trkpt lat="45.4754627" lon="7.6692039"><ele>1737.0</ele><time>2026-04-25T13:44:42.993Z</time></trkpt><trkpt lat="45.4755894" lon="7.6693401"><ele>1743.3999999999999</ele><time>2026-04-25T13:44:44.955Z</time></trkpt><trkpt lat="45.475648" lon="7.6693919"><ele>1749.7999999999997</ele><time>2026-04-25T13:44:45.958Z</time></trkpt><trkpt lat="45.4757396" lon="7.6694899"><ele>1756.2</ele><time>2026-04-25T13:44:47.955Z</time></trkpt><trkpt lat="45.4758195" lon="7.6695934"><ele>1762.6</ele><time>2026-04-25T13:44:49.957Z</time></trkpt><trkpt lat="45.4758878" lon="7.6696874"><ele>1769.0</ele><time>2026-04-25T13:44:51.953Z</time></trkpt><trkpt lat="45.475934" lon="7.669798"><ele>1769.2</ele><time>2026-04-25T13:44:53.957Z</time></trkpt><trkpt lat="45.4759395" lon="7.6699291"><ele>1769.4</ele><time>2026-04-25T13:44:56.022Z</time></trkpt><trkpt lat="45.475923" lon="7.6700862"><ele>1769.6</ele><time>2026-04-25T13:44:57.969Z</time></trkpt><trkpt lat="45.4758942" lon="7.6702161"><ele>1769.8</ele><time>2026-04-25T13:44:59.946Z</time></trkpt><trkpt lat="45.475828" lon="7.670343"><ele>1770.0</ele><time>2026-04-25T13:45:01.949Z</time></trkpt><trkpt lat="45.4757712" lon="7.6704486"><ele>1771.0</ele><time>2026-04-25T13:45:04.02Z</time></trkpt><trkpt lat="45.4758014" lon="7.6705987"><ele>1772.0</ele><time>2026-04-25T13:45:06.95Z</time></trkpt><trkpt lat="45.4758336" lon="7.6706801"><ele>1773.0</ele><time>2026-04-25T13:45:07.959Z</time></trkpt><trkpt lat="45.4758643" lon="7.6707645"><ele>1774.0</ele><time>2026-04-25T13:45:08.98Z</time></trkpt><trkpt lat="45.4759173" lon="7.6709325"><ele>1775.0</ele><time>2026-04-25T13:45:10.947Z</time></trkpt><trkpt lat="45.475915" lon="7.671096"><ele>1776.1666666666665</ele><time>2026-04-25T13:45:12.948Z</time></trkpt><trkpt lat="45.4758868" lon="7.6711812"><ele>1777.3333333333333</ele><time>2026-04-25T13:45:13.957Z</time></trkpt><trkpt lat="45.4758577" lon="7.6712663"><ele>1778.5</ele><time>2026-04-25T13:45:14.949Z</time></trkpt><trkpt lat="45.4758313" lon="7.6713481"><ele>1779.6666666666665</ele><time>2026-04-25T13:45:15.944Z</time></trkpt><trkpt lat="45.4758325" lon="7.6714503"><ele>1780.8333333333333</ele><time>2026-04-25T13:45:17.946Z</time></trkpt><trkpt lat="45.4759126" lon="7.6714839"><ele>1782.0</ele><time>2026-04-25T13:45:20.949Z</time></trkpt><trkpt lat="45.4759712" lon="7.6713663"><ele>1782.0</ele><time>2026-04-25T13:45:22.954Z</time></trkpt><trkpt lat="45.4760081" lon="7.6712226"><ele>1781.9999999999998</ele><time>2026-04-25T13:45:24.951Z</time></trkpt><trkpt lat="45.4760633" lon="7.6710685"><ele>1781.9999999999998</ele><time>2026-04-25T13:45:26.94Z</time></trkpt><trkpt lat="45.4761006" lon="7.6709957"><ele>1782.0</ele><time>2026-04-25T13:45:27.947Z</time></trkpt><trkpt lat="45.476137" lon="7.6708413"><ele>1782.0</ele><time>2026-04-25T13:45:29.952Z</time></trkpt><trkpt lat="45.4761615" lon="7.6707493"><ele>1780.6</ele><time>2026-04-25T13:45:30.949Z</time></trkpt><trkpt lat="45.4761929" lon="7.6706637"><ele>1779.1999999999998</ele><time>2026-04-25T13:45:31.944Z</time></trkpt><trkpt lat="45.4762664" lon="7.6705165"><ele>1777.8</ele><time>2026-04-25T13:45:33.944Z</time></trkpt><trkpt lat="45.4763082" lon="7.6704476"><ele>1776.4</ele><time>2026-04-25T13:45:34.952Z</time></trkpt><trkpt lat="45.4763548" lon="7.6703846"><ele>1775.0</ele><time>2026-04-25T13:45:35.954Z</time></trkpt><trkpt lat="45.4764533" lon="7.670262"><ele>1780.2857142857144</ele><time>2026-04-25T13:45:37.954Z</time></trkpt><trkpt lat="45.4765038" lon="7.6702004"><ele>1785.5714285714284</ele><time>2026-04-25T13:45:38.95Z</time></trkpt><trkpt lat="45.4765484" lon="7.6701309"><ele>1790.8571428571427</ele><time>2026-04-25T13:45:39.949Z</time></trkpt><trkpt lat="45.476594" lon="7.6700677"><ele>1796.142857142857</ele><time>2026-04-25T13:45:40.952Z</time></trkpt><trkpt lat="45.4766569" lon="7.6699235"><ele>1801.4285714285713</ele><time>2026-04-25T13:45:42.949Z</time></trkpt><trkpt lat="45.4766819" lon="7.6698379"><ele>1806.7142857142856</ele><time>2026-04-25T13:45:43.948Z</time></trkpt><trkpt lat="45.4767018" lon="7.6697443"><ele>1811.9999999999998</ele><time>2026-04-25T13:45:44.947Z</time></trkpt><trkpt lat="45.476716" lon="7.66965"><ele>1811.9999999999998</ele><time>2026-04-25T13:45:45.955Z</time></trkpt><trkpt lat="45.4767265" lon="7.6695516"><ele>1812.0</ele><time>2026-04-25T13:45:46.951Z</time></trkpt><trkpt lat="45.4767422" lon="7.6694568"><ele>1811.9999999999998</ele><time>2026-04-25T13:45:47.947Z</time></trkpt><trkpt lat="45.4767538" lon="7.6693629"><ele>1811.9999999999998</ele><time>2026-04-25T13:45:48.953Z</time></trkpt><trkpt lat="45.4767659" lon="7.669272"><ele>1812.0</ele><time>2026-04-25T13:45:49.958Z</time></trkpt><trkpt lat="45.4767786" lon="7.6691397"><ele>1811.9999999999998</ele><time>2026-04-25T13:45:51.954Z</time></trkpt><trkpt lat="45.4768418" lon="7.6690675"><ele>1811.9999999999998</ele><time>2026-04-25T13:45:54.945Z</time></trkpt><trkpt lat="45.4769132" lon="7.6690998"><ele>1812.0</ele><time>2026-04-25T13:45:56.951Z</time></trkpt><trkpt lat="45.4769693" lon="7.6691986"><ele>1811.9999999999998</ele><time>2026-04-25T13:45:58.952Z</time></trkpt><trkpt lat="45.4769948" lon="7.6693434"><ele>1811.9999999999998</ele><time>2026-04-25T13:46:00.96Z</time></trkpt><trkpt lat="45.4770025" lon="7.6695056"><ele>1812.0</ele><time>2026-04-25T13:46:02.957Z</time></trkpt><trkpt lat="45.4770006" lon="7.6696768"><ele>1812.0</ele><time>2026-04-25T13:46:04.955Z</time></trkpt><trkpt lat="45.4770025" lon="7.6697701"><ele>1812.0</ele><time>2026-04-25T13:46:05.953Z</time></trkpt><trkpt lat="45.4770115" lon="7.6699333"><ele>1812.0</ele><time>2026-04-25T13:46:07.952Z</time></trkpt><trkpt lat="45.4769725" lon="7.6700845"><ele>1812.0</ele><time>2026-04-25T13:46:09.958Z</time></trkpt><trkpt lat="45.4769104" lon="7.6702285"><ele>1812.0</ele><time>2026-04-25T13:46:11.947Z</time></trkpt><trkpt lat="45.4768569" lon="7.6703689"><ele>1814.1999999999998</ele><time>2026-04-25T13:46:13.96Z</time></trkpt><trkpt lat="45.4768396" lon="7.6705326"><ele>1816.3999999999999</ele><time>2026-04-25T13:46:15.948Z</time></trkpt><trkpt lat="45.4768212" lon="7.6707102"><ele>1818.6000000000001</ele><time>2026-04-25T13:46:17.953Z</time></trkpt><trkpt lat="45.4768213" lon="7.6708002"><ele>1820.8000000000002</ele><time>2026-04-25T13:46:18.953Z</time></trkpt><trkpt lat="45.4768115" lon="7.6709548"><ele>1823.0</ele><time>2026-04-25T13:46:20.959Z</time></trkpt><trkpt lat="45.4767713" lon="7.6711231"><ele>1823.0</ele><time>2026-04-25T13:46:22.951Z</time></trkpt><trkpt lat="45.4767385" lon="7.6712699"><ele>1823.0000000000002</ele><time>2026-04-25T13:46:24.957Z</time></trkpt><trkpt lat="45.4767204" lon="7.6713816"><ele>1823.0000000000002</ele><time>2026-04-25T13:46:26.949Z</time></trkpt><trkpt lat="45.4768121" lon="7.6713855"><ele>1823.0</ele><time>2026-04-25T13:46:29.952Z</time></trkpt><trkpt lat="45.4768416" lon="7.6712304"><ele>1823.0</ele><time>2026-04-25T13:46:31.953Z</time></trkpt><trkpt lat="45.4768935" lon="7.6710807"><ele>1823.0</ele><time>2026-04-25T13:46:33.957Z</time></trkpt><trkpt lat="45.4769403" lon="7.6710044"><ele>1823.0000000000002</ele><time>2026-04-25T13:46:34.943Z</time></trkpt><trkpt lat="45.4769887" lon="7.6709259"><ele>1823.0</ele><time>2026-04-25T13:46:35.953Z</time></trkpt><trkpt lat="45.4770276" lon="7.6708534"><ele>1823.0</ele><time>2026-04-25T13:46:36.951Z</time></trkpt><trkpt lat="45.477065" lon="7.6707752"><ele>1823.0000000000002</ele><time>2026-04-25T13:46:37.959Z</time></trkpt><trkpt lat="45.4771078" lon="7.6706934"><ele>1823.0</ele><time>2026-04-25T13:46:38.953Z</time></trkpt><trkpt lat="45.4771515" lon="7.6706182"><ele>1823.0</ele><time>2026-04-25T13:46:39.948Z</time></trkpt><trkpt lat="45.4772021" lon="7.6705497"><ele>1832.0</ele><time>2026-04-25T13:46:40.95Z</time></trkpt><trkpt lat="45.4772535" lon="7.6704878"><ele>1841.0000000000002</ele><time>2026-04-25T13:46:41.955Z</time></trkpt><trkpt lat="45.4773333" lon="7.6703683"><ele>1850.0000000000002</ele><time>2026-04-25T13:46:43.95Z</time></trkpt><trkpt lat="45.4773842" lon="7.6702521"><ele>1859.0</ele><time>2026-04-25T13:46:45.952Z</time></trkpt><trkpt lat="45.4774821" lon="7.6703069"><ele>1868.0</ele><time>2026-04-25T13:46:49.941Z</time></trkpt><trkpt lat="45.477478" lon="7.6704363"><ele>1868.6666666666665</ele><time>2026-04-25T13:46:51.955Z</time></trkpt><trkpt lat="45.4774456" lon="7.6705352"><ele>1869.3333333333333</ele><time>2026-04-25T13:46:52.954Z</time></trkpt><trkpt lat="45.4774019" lon="7.6706379"><ele>1870.0</ele><time>2026-04-25T13:46:53.954Z</time></trkpt><trkpt lat="45.4773633" lon="7.6707321"><ele>1870.6666666666665</ele><time>2026-04-25T13:46:54.957Z</time></trkpt><trkpt lat="45.4773357" lon="7.6708963"><ele>1871.3333333333333</ele><time>2026-04-25T13:46:56.951Z</time></trkpt><trkpt lat="45.4773493" lon="7.671022"><ele>1872.0</ele><time>2026-04-25T13:46:58.955Z</time></trkpt><trkpt lat="45.477375" lon="7.671129"><ele>1869.8333333333333</ele><time>2026-04-25T13:47:01.95Z</time></trkpt><trkpt lat="45.4774568" lon="7.6711525"><ele>1867.6666666666665</ele><time>2026-04-25T13:47:05.955Z</time></trkpt><trkpt lat="45.4775247" lon="7.6711182"><ele>1865.5</ele><time>2026-04-25T13:47:35.95Z</time></trkpt><trkpt lat="45.4776001" lon="7.6711496"><ele>1863.3333333333333</ele><time>2026-04-25T13:47:38.012Z</time></trkpt><trkpt lat="45.4776767" lon="7.6711829"><ele>1861.1666666666665</ele><time>2026-04-25T13:47:39.954Z</time></trkpt><trkpt lat="45.4777477" lon="7.6711795"><ele>1859.0</ele><time>2026-04-25T13:47:42.955Z</time></trkpt><trkpt lat="45.4778314" lon="7.6712223"><ele>1858.9999999999998</ele><time>2026-04-25T13:47:47.008Z</time></trkpt><trkpt lat="45.4779007" lon="7.6712732"><ele>1859.0</ele><time>2026-04-25T13:47:48.953Z</time></trkpt><trkpt lat="45.4779865" lon="7.6713287"><ele>1859.0</ele><time>2026-04-25T13:47:50.952Z</time></trkpt><trkpt lat="45.4780549" lon="7.6713517"><ele>1859.0</ele><time>2026-04-25T13:47:52.948Z</time></trkpt><trkpt lat="45.4781325" lon="7.6714313"><ele>1858.9999999999998</ele><time>2026-04-25T13:47:55.95Z</time></trkpt><trkpt lat="45.4781904" lon="7.6714909"><ele>1859.0</ele><time>2026-04-25T13:47:58.02Z</time></trkpt><trkpt lat="45.4782556" lon="7.671532"><ele>1860.4285714285713</ele><time>2026-04-25T13:48:29.957Z</time></trkpt><trkpt lat="45.4783166" lon="7.6715588"><ele>1861.8571428571427</ele><time>2026-04-25T13:48:32.944Z</time></trkpt><trkpt lat="45.4783871" lon="7.6715707"><ele>1863.2857142857142</ele><time>2026-04-25T13:48:43.013Z</time></trkpt><trkpt lat="45.478451" lon="7.6715693"><ele>1864.7142857142858</ele><time>2026-04-25T13:48:47.954Z</time></trkpt><trkpt lat="45.4783789" lon="7.6716114"><ele>1866.142857142857</ele><time>2026-04-25T13:53:10.957Z</time></trkpt><trkpt lat="45.4783165" lon="7.6715864"><ele>1867.5714285714284</ele><time>2026-04-25T13:53:16.968Z</time></trkpt><trkpt lat="45.478249" lon="7.6715586"><ele>1869.0</ele><time>2026-04-25T13:54:26.948Z</time></trkpt><trkpt lat="45.4781848" lon="7.6715767"><ele>1869.0</ele><time>2026-04-25T13:54:30.94Z</time></trkpt><trkpt lat="45.4781302" lon="7.6714908"><ele>1869.0</ele><time>2026-04-25T13:54:35.954Z</time></trkpt><trkpt lat="45.4780739" lon="7.6714343"><ele>1869.0</ele><time>2026-04-25T13:54:38.954Z</time></trkpt><trkpt lat="45.4780036" lon="7.6713883"><ele>1869.0</ele><time>2026-04-25T13:54:41.958Z</time></trkpt><trkpt lat="45.4779419" lon="7.6713647"><ele>1869.0</ele><time>2026-04-25T13:54:43.957Z</time></trkpt><trkpt lat="45.4778765" lon="7.6713283"><ele>1869.0</ele><time>2026-04-25T13:54:45.95Z</time></trkpt><trkpt lat="45.477815" lon="7.6712819"><ele>1869.0</ele><time>2026-04-25T13:54:47.961Z</time></trkpt><trkpt lat="45.4777598" lon="7.6712332"><ele>1867.5714285714284</ele><time>2026-04-25T13:54:49.953Z</time></trkpt><trkpt lat="45.4776943" lon="7.6712138"><ele>1866.142857142857</ele><time>2026-04-25T13:54:56.974Z</time></trkpt><trkpt lat="45.4776211" lon="7.6711848"><ele>1864.7142857142858</ele><time>2026-04-25T13:55:00.949Z</time></trkpt><trkpt lat="45.477558" lon="7.671163"><ele>1863.2857142857142</ele><time>2026-04-25T13:55:02.954Z</time></trkpt><trkpt lat="45.4774792" lon="7.671135"><ele>1861.8571428571427</ele><time>2026-04-25T13:55:06.031Z</time></trkpt><trkpt lat="45.4774192" lon="7.6711682"><ele>1860.4285714285713</ele><time>2026-04-25T13:58:44.98Z</time></trkpt><trkpt lat="45.4773568" lon="7.6711427"><ele>1859.0</ele><time>2026-04-25T13:59:18.942Z</time></trkpt><trkpt lat="45.4774203" lon="7.6711587"><ele>1861.1666666666665</ele><time>2026-04-25T13:59:46.954Z</time></trkpt><trkpt lat="45.4773548" lon="7.6710889"><ele>1863.3333333333333</ele><time>2026-04-25T14:03:11.948Z</time></trkpt><trkpt lat="45.4773418" lon="7.6709904"><ele>1865.5</ele><time>2026-04-25T14:03:14.031Z</time></trkpt><trkpt lat="45.4773246" lon="7.6708661"><ele>1867.6666666666665</ele><time>2026-04-25T14:03:15.953Z</time></trkpt><trkpt lat="45.4773193" lon="7.6707339"><ele>1869.8333333333333</ele><time>2026-04-25T14:03:17.946Z</time></trkpt><trkpt lat="45.4773661" lon="7.6705892"><ele>1872.0</ele><time>2026-04-25T14:03:19.937Z</time></trkpt><trkpt lat="45.4774129" lon="7.670445"><ele>1872.0</ele><time>2026-04-25T14:03:21.943Z</time></trkpt><trkpt lat="45.4774325" lon="7.6703243"><ele>1872.0</ele><time>2026-04-25T14:03:24.005Z</time></trkpt><trkpt lat="45.4773944" lon="7.6702448"><ele>1872.0</ele><time>2026-04-25T14:03:25.944Z</time></trkpt><trkpt lat="45.4773275" lon="7.6703238"><ele>1872.0</ele><time>2026-04-25T14:03:29.017Z</time></trkpt><trkpt lat="45.4772831" lon="7.6704138"><ele>1872.0</ele><time>2026-04-25T14:03:30.951Z</time></trkpt><trkpt lat="45.4772228" lon="7.6705086"><ele>1872.0</ele><time>2026-04-25T14:03:32.946Z</time></trkpt><trkpt lat="45.4771447" lon="7.6706155"><ele>1863.5</ele><time>2026-04-25T14:03:34.951Z</time></trkpt><trkpt lat="45.477065" lon="7.6707496"><ele>1855.0</ele><time>2026-04-25T14:03:36.971Z</time></trkpt><trkpt lat="45.4769993" lon="7.670883"><ele>1846.5</ele><time>2026-04-25T14:03:39.013Z</time></trkpt><trkpt lat="45.4769292" lon="7.6710203"><ele>1838.0</ele><time>2026-04-25T14:03:40.941Z</time></trkpt><trkpt lat="45.4768538" lon="7.6711517"><ele>1837.9999999999998</ele><time>2026-04-25T14:03:42.934Z</time></trkpt><trkpt lat="45.476806" lon="7.6712827"><ele>1838.0</ele><time>2026-04-25T14:03:44.947Z</time></trkpt><trkpt lat="45.4767794" lon="7.6713693"><ele>1838.0</ele><time>2026-04-25T14:03:46.952Z</time></trkpt><trkpt lat="45.4767323" lon="7.6712893"><ele>1838.0</ele><time>2026-04-25T14:03:49.946Z</time></trkpt><trkpt lat="45.4767435" lon="7.6711598"><ele>1837.9999999999998</ele><time>2026-04-25T14:03:52.949Z</time></trkpt><trkpt lat="45.4767546" lon="7.6710654"><ele>1838.0</ele><time>2026-04-25T14:03:54.95Z</time></trkpt><trkpt lat="45.4767693" lon="7.6709678"><ele>1835.0</ele><time>2026-04-25T14:03:57.01Z</time></trkpt><trkpt lat="45.4767824" lon="7.6708431"><ele>1832.0000000000002</ele><time>2026-04-25T14:03:59.011Z</time></trkpt><trkpt lat="45.4767882" lon="7.6707173"><ele>1829.0000000000002</ele><time>2026-04-25T14:04:00.937Z</time></trkpt><trkpt lat="45.4767871" lon="7.6705937"><ele>1826.0</ele><time>2026-04-25T14:04:02.951Z</time></trkpt><trkpt lat="45.4767903" lon="7.6704616"><ele>1823.0</ele><time>2026-04-25T14:04:04.949Z</time></trkpt><trkpt lat="45.4768167" lon="7.6703109"><ele>1820.8000000000002</ele><time>2026-04-25T14:04:06.992Z</time></trkpt><trkpt lat="45.4768767" lon="7.67017"><ele>1818.6000000000001</ele><time>2026-04-25T14:04:08.953Z</time></trkpt><trkpt lat="45.476919" lon="7.6700559"><ele>1816.3999999999999</ele><time>2026-04-25T14:04:10.948Z</time></trkpt><trkpt lat="45.4769401" lon="7.6699384"><ele>1814.1999999999998</ele><time>2026-04-25T14:04:12.943Z</time></trkpt><trkpt lat="45.4769403" lon="7.6698152"><ele>1812.0</ele><time>2026-04-25T14:04:15.06Z</time></trkpt><trkpt lat="45.4769125" lon="7.6696779"><ele>1812.0</ele><time>2026-04-25T14:04:17.036Z</time></trkpt><trkpt lat="45.4769046" lon="7.6695577"><ele>1812.0</ele><time>2026-04-25T14:04:19.959Z</time></trkpt><trkpt lat="45.4769016" lon="7.6694593"><ele>1812.0</ele><time>2026-04-25T14:04:21.954Z</time></trkpt><trkpt lat="45.4768894" lon="7.669341"><ele>1812.0</ele><time>2026-04-25T14:04:24.031Z</time></trkpt><trkpt lat="45.4768752" lon="7.6692306"><ele>1812.0</ele><time>2026-04-25T14:04:25.963Z</time></trkpt><trkpt lat="45.4768356" lon="7.6691545"><ele>1812.0</ele><time>2026-04-25T14:04:27.949Z</time></trkpt><trkpt lat="45.4767663" lon="7.6691676"><ele>1812.0</ele><time>2026-04-25T14:04:29.958Z</time></trkpt><trkpt lat="45.4767465" lon="7.6692775"><ele>1811.9999999999998</ele><time>2026-04-25T14:04:32.956Z</time></trkpt><trkpt lat="45.4767543" lon="7.6693779"><ele>1811.9999999999998</ele><time>2026-04-25T14:04:34.955Z</time></trkpt><trkpt lat="45.4767295" lon="7.6695046"><ele>1812.0</ele><time>2026-04-25T14:04:37.026Z</time></trkpt><trkpt lat="45.4767066" lon="7.6696512"><ele>1812.0</ele><time>2026-04-25T14:04:38.956Z</time></trkpt><trkpt lat="45.4766849" lon="7.6698022"><ele>1812.0</ele><time>2026-04-25T14:04:40.954Z</time></trkpt><trkpt lat="45.4766456" lon="7.6699391"><ele>1811.9999999999998</ele><time>2026-04-25T14:04:42.95Z</time></trkpt><trkpt lat="45.4765868" lon="7.6700734"><ele>1811.9999999999998</ele><time>2026-04-25T14:04:44.965Z</time></trkpt><trkpt lat="45.4765148" lon="7.6701794"><ele>1812.0</ele><time>2026-04-25T14:04:46.95Z</time></trkpt><trkpt lat="45.476427" lon="7.6702821"><ele>1812.0</ele><time>2026-04-25T14:04:48.955Z</time></trkpt><trkpt lat="45.4763446" lon="7.6704117"><ele>1804.6</ele><time>2026-04-25T14:04:50.954Z</time></trkpt><trkpt lat="45.4762599" lon="7.6705192"><ele>1797.1999999999998</ele><time>2026-04-25T14:04:53.02Z</time></trkpt><trkpt lat="45.4761937" lon="7.6706349"><ele>1789.8</ele><time>2026-04-25T14:04:54.962Z</time></trkpt><trkpt lat="45.476147" lon="7.6707873"><ele>1782.4</ele><time>2026-04-25T14:04:57.061Z</time></trkpt><trkpt lat="45.4761044" lon="7.6709386"><ele>1775.0</ele><time>2026-04-25T14:04:59.015Z</time></trkpt><trkpt lat="45.4760533" lon="7.6710848"><ele>1776.1666666666665</ele><time>2026-04-25T14:05:00.961Z</time></trkpt><trkpt lat="45.4759955" lon="7.6712089"><ele>1777.3333333333333</ele><time>2026-04-25T14:05:03.026Z</time></trkpt><trkpt lat="45.47596" lon="7.6712949"><ele>1778.5</ele><time>2026-04-25T14:05:04.955Z</time></trkpt><trkpt lat="45.4759405" lon="7.6713884"><ele>1779.6666666666665</ele><time>2026-04-25T14:05:06.952Z</time></trkpt><trkpt lat="45.4758962" lon="7.67147"><ele>1780.8333333333333</ele><time>2026-04-25T14:05:09.04Z</time></trkpt><trkpt lat="45.4758139" lon="7.6714407"><ele>1782.0</ele><time>2026-04-25T14:05:11.99Z</time></trkpt><trkpt lat="45.4758093" lon="7.6713146"><ele>1782.0</ele><time>2026-04-25T14:05:14.968Z</time></trkpt><trkpt lat="45.4758528" lon="7.6712181"><ele>1782.0</ele><time>2026-04-25T14:05:16.983Z</time></trkpt><trkpt lat="45.4758906" lon="7.6711093"><ele>1782.0</ele><time>2026-04-25T14:05:19.029Z</time></trkpt><trkpt lat="45.4759072" lon="7.6710014"><ele>1782.0</ele><time>2026-04-25T14:05:20.96Z</time></trkpt><trkpt lat="45.4758836" lon="7.6708685"><ele>1782.0</ele><time>2026-04-25T14:05:22.966Z</time></trkpt><trkpt lat="45.4758346" lon="7.6707404"><ele>1782.0</ele><time>2026-04-25T14:05:24.97Z</time></trkpt><trkpt lat="45.4757832" lon="7.6706079"><ele>1780.8333333333333</ele><time>2026-04-25T14:05:27.032Z</time></trkpt><trkpt lat="45.475746" lon="7.6705013"><ele>1779.6666666666665</ele><time>2026-04-25T14:05:29.032Z</time></trkpt><trkpt lat="45.4757773" lon="7.6703798"><ele>1778.5</ele><time>2026-04-25T14:05:31.964Z</time></trkpt><trkpt lat="45.4758293" lon="7.670286"><ele>1777.3333333333333</ele><time>2026-04-25T14:05:34.023Z</time></trkpt><trkpt lat="45.4758709" lon="7.6701768"><ele>1776.1666666666665</ele><time>2026-04-25T14:05:35.961Z</time></trkpt><trkpt lat="45.475909" lon="7.6700476"><ele>1775.0</ele><time>2026-04-25T14:05:37.976Z</time></trkpt><trkpt lat="45.4759149" lon="7.6698877"><ele>1774.0</ele><time>2026-04-25T14:05:39.956Z</time></trkpt><trkpt lat="45.4758936" lon="7.6697355"><ele>1773.0</ele><time>2026-04-25T14:05:41.965Z</time></trkpt><trkpt lat="45.4758154" lon="7.6696003"><ele>1772.0</ele><time>2026-04-25T14:05:44.03Z</time></trkpt><trkpt lat="45.4757546" lon="7.6695525"><ele>1771.0</ele><time>2026-04-25T14:05:44.966Z</time></trkpt><trkpt lat="45.4757009" lon="7.6694967"><ele>1770.0</ele><time>2026-04-25T14:05:45.963Z</time></trkpt><trkpt lat="45.4756135" lon="7.6693909"><ele>1769.8333333333333</ele><time>2026-04-25T14:05:47.961Z</time></trkpt><trkpt lat="45.4755336" lon="7.6693171"><ele>1769.6666666666665</ele><time>2026-04-25T14:05:49.963Z</time></trkpt><trkpt lat="45.4754527" lon="7.6693393"><ele>1769.5</ele><time>2026-04-25T14:05:52.964Z</time></trkpt><trkpt lat="45.4754175" lon="7.6694208"><ele>1769.3333333333333</ele><time>2026-04-25T14:05:54.954Z</time></trkpt><trkpt lat="45.4753817" lon="7.6695085"><ele>1769.1666666666665</ele><time>2026-04-25T14:05:56.957Z</time></trkpt><trkpt lat="45.475334" lon="7.6695846"><ele>1769.0</ele><time>2026-04-25T14:05:58.964Z</time></trkpt><trkpt lat="45.4752609" lon="7.6695974"><ele>1762.6</ele><time>2026-04-25T14:06:00.967Z</time></trkpt><trkpt lat="45.4752177" lon="7.6695017"><ele>1756.2</ele><time>2026-04-25T14:06:03.033Z</time></trkpt><trkpt lat="45.4752223" lon="7.6693749"><ele>1749.7999999999997</ele><time>2026-04-25T14:06:04.964Z</time></trkpt><trkpt lat="45.4752279" lon="7.669245"><ele>1743.3999999999999</ele><time>2026-04-25T14:06:06.958Z</time></trkpt><trkpt lat="45.4752196" lon="7.6691089"><ele>1737.0</ele><time>2026-04-25T14:06:08.96Z</time></trkpt><trkpt lat="45.4752181" lon="7.6689634"><ele>1737.0</ele><time>2026-04-25T14:06:10.966Z</time></trkpt><trkpt lat="45.475234" lon="7.6688068"><ele>1736.9999999999998</ele><time>2026-04-25T14:06:12.962Z</time></trkpt><trkpt lat="45.4752576" lon="7.6686481"><ele>1736.9999999999998</ele><time>2026-04-25T14:06:14.964Z</time></trkpt><trkpt lat="45.4752962" lon="7.6684917"><ele>1737.0</ele><time>2026-04-25T14:06:16.954Z</time></trkpt><trkpt lat="45.4753039" lon="7.6683573"><ele>1737.0</ele><time>2026-04-25T14:06:18.958Z</time></trkpt><trkpt lat="45.4752639" lon="7.6682609"><ele>1737.0</ele><time>2026-04-25T14:06:20.962Z</time></trkpt><trkpt lat="45.4751948" lon="7.6682728"><ele>1737.0</ele><time>2026-04-25T14:06:22.96Z</time></trkpt><trkpt lat="45.4751597" lon="7.6683699"><ele>1737.0</ele><time>2026-04-25T14:06:24.965Z</time></trkpt><trkpt lat="45.4751356" lon="7.6684881"><ele>1737.0</ele><time>2026-04-25T14:06:26.966Z</time></trkpt><trkpt lat="45.475095" lon="7.6686082"><ele>1737.0</ele><time>2026-04-25T14:06:28.965Z</time></trkpt><trkpt lat="45.475045" lon="7.6687298"><ele>1737.0</ele><time>2026-04-25T14:06:30.962Z</time></trkpt><trkpt lat="45.4749921" lon="7.6688745"><ele>1737.0</ele><time>2026-04-25T14:06:32.965Z</time></trkpt><trkpt lat="45.4749257" lon="7.6690225"><ele>1737.0</ele><time>2026-04-25T14:06:34.965Z</time></trkpt><trkpt lat="45.4748913" lon="7.6691097"><ele>1737.0</ele><time>2026-04-25T14:06:35.967Z</time></trkpt><trkpt lat="45.4748529" lon="7.6691951"><ele>1737.0</ele><time>2026-04-25T14:06:36.966Z</time></trkpt><trkpt lat="45.4747933" lon="7.6693431"><ele>1737.0</ele><time>2026-04-25T14:06:38.968Z</time></trkpt><trkpt lat="45.4747733" lon="7.6694317"><ele>1737.0</ele><time>2026-04-25T14:06:39.96Z</time></trkpt><trkpt lat="45.474742" lon="7.6696033"><ele>1737.0</ele><time>2026-04-25T14:06:41.961Z</time></trkpt><trkpt lat="45.4746992" lon="7.6697474"><ele>1736.9999999999998</ele><time>2026-04-25T14:06:43.965Z</time></trkpt><trkpt lat="45.4747016" lon="7.6698872"><ele>1736.9999999999998</ele><time>2026-04-25T14:06:45.963Z</time></trkpt><trkpt lat="45.4746861" lon="7.6700061"><ele>1737.0</ele><time>2026-04-25T14:06:47.962Z</time></trkpt><trkpt lat="45.4746084" lon="7.6700431"><ele>1737.0</ele><time>2026-04-25T14:06:50.963Z</time></trkpt><trkpt lat="45.4745804" lon="7.6699156"><ele>1729.1999999999998</ele><time>2026-04-25T14:06:53.968Z</time></trkpt><trkpt lat="45.4745811" lon="7.6698125"><ele>1721.3999999999999</ele><time>2026-04-25T14:06:55.959Z</time></trkpt><trkpt lat="45.4745763" lon="7.6696863"><ele>1713.6</ele><time>2026-04-25T14:06:57.97Z</time></trkpt><trkpt lat="45.4745781" lon="7.6695527"><ele>1705.8000000000002</ele><time>2026-04-25T14:06:59.967Z</time></trkpt><trkpt lat="45.4745736" lon="7.669409"><ele>1698.0</ele><time>2026-04-25T14:07:01.964Z</time></trkpt><trkpt lat="45.4745508" lon="7.6692646"><ele>1698.0</ele><time>2026-04-25T14:07:03.966Z</time></trkpt><trkpt lat="45.4745446" lon="7.6691183"><ele>1698.0</ele><time>2026-04-25T14:07:05.954Z</time></trkpt><trkpt lat="45.4745574" lon="7.6689618"><ele>1698.0</ele><time>2026-04-25T14:07:07.961Z</time></trkpt><trkpt lat="45.474524" lon="7.6688577"><ele>1698.0</ele><time>2026-04-25T14:07:09.965Z</time></trkpt><trkpt lat="45.4744491" lon="7.6688625"><ele>1698.0</ele><time>2026-04-25T14:07:11.958Z</time></trkpt><trkpt lat="45.4744045" lon="7.6689415"><ele>1698.0</ele><time>2026-04-25T14:07:13.964Z</time></trkpt><trkpt lat="45.4744011" lon="7.6690833"><ele>1698.0</ele><time>2026-04-25T14:07:15.963Z</time></trkpt><trkpt lat="45.4743887" lon="7.6692398"><ele>1698.0</ele><time>2026-04-25T14:07:17.963Z</time></trkpt><trkpt lat="45.4743623" lon="7.6693246"><ele>1698.0</ele><time>2026-04-25T14:07:18.962Z</time></trkpt><trkpt lat="45.4743337" lon="7.6694137"><ele>1698.0</ele><time>2026-04-25T14:07:19.957Z</time></trkpt><trkpt lat="45.4742716" lon="7.6695722"><ele>1698.0</ele><time>2026-04-25T14:07:21.965Z</time></trkpt><trkpt lat="45.4742486" lon="7.6696662"><ele>1698.0</ele><time>2026-04-25T14:07:22.961Z</time></trkpt><trkpt lat="45.4742175" lon="7.6697597"><ele>1697.4</ele><time>2026-04-25T14:07:23.962Z</time></trkpt><trkpt lat="45.4741647" lon="7.6699265"><ele>1696.8000000000002</ele><time>2026-04-25T14:07:25.977Z</time></trkpt><trkpt lat="45.4741404" lon="7.6700122"><ele>1696.2</ele><time>2026-04-25T14:07:26.947Z</time></trkpt><trkpt lat="45.4741159" lon="7.6700954"><ele>1695.6</ele><time>2026-04-25T14:07:27.954Z</time></trkpt><trkpt lat="45.4740827" lon="7.6702515"><ele>1695.0</ele><time>2026-04-25T14:07:29.96Z</time></trkpt><trkpt lat="45.4740662" lon="7.6704076"><ele>1693.2</ele><time>2026-04-25T14:07:31.965Z</time></trkpt><trkpt lat="45.4740885" lon="7.6705388"><ele>1691.4</ele><time>2026-04-25T14:07:33.991Z</time></trkpt><trkpt lat="45.4741285" lon="7.6706696"><ele>1689.6</ele><time>2026-04-25T14:07:35.968Z</time></trkpt><trkpt lat="45.4741812" lon="7.6708004"><ele>1687.8</ele><time>2026-04-25T14:07:38.03Z</time></trkpt><trkpt lat="45.4742393" lon="7.6709434"><ele>1686.0</ele><time>2026-04-25T14:07:39.961Z</time></trkpt><trkpt lat="45.4742814" lon="7.6711141"><ele>1683.857142857143</ele><time>2026-04-25T14:07:41.993Z</time></trkpt><trkpt lat="45.4742946" lon="7.6712039"><ele>1681.7142857142858</ele><time>2026-04-25T14:07:42.958Z</time></trkpt><trkpt lat="45.4743089" lon="7.6713032"><ele>1679.5714285714284</ele><time>2026-04-25T14:07:43.955Z</time></trkpt><trkpt lat="45.4743278" lon="7.6713946"><ele>1677.4285714285716</ele><time>2026-04-25T14:07:44.964Z</time></trkpt><trkpt lat="45.4743498" lon="7.6714875"><ele>1675.2857142857144</ele><time>2026-04-25T14:07:46.034Z</time></trkpt><trkpt lat="45.4743716" lon="7.6715799"><ele>1673.142857142857</ele><time>2026-04-25T14:07:47.034Z</time></trkpt><trkpt lat="45.4743689" lon="7.6717119"><ele>1671.0</ele><time>2026-04-25T14:07:49.025Z</time></trkpt><trkpt lat="45.4742886" lon="7.6717435"><ele>1671.0</ele><time>2026-04-25T14:07:50.959Z</time></trkpt><trkpt lat="45.4742395" lon="7.6716298"><ele>1671.0</ele><time>2026-04-25T14:07:53.029Z</time></trkpt><trkpt lat="45.4742063" lon="7.6714924"><ele>1671.0</ele><time>2026-04-25T14:07:54.969Z</time></trkpt><trkpt lat="45.4741671" lon="7.671356"><ele>1671.0</ele><time>2026-04-25T14:07:57.009Z</time></trkpt><trkpt lat="45.4741102" lon="7.6712091"><ele>1671.0</ele><time>2026-04-25T14:07:58.975Z</time></trkpt><trkpt lat="45.4740528" lon="7.6710957"><ele>1671.0</ele><time>2026-04-25T14:08:00.953Z</time></trkpt><trkpt lat="45.4739866" lon="7.6710817"><ele>1671.0</ele><time>2026-04-25T14:08:02.971Z</time></trkpt><trkpt lat="45.4739262" lon="7.6711169"><ele>1671.0</ele><time>2026-04-25T14:08:04.975Z</time></trkpt><trkpt lat="45.4739237" lon="7.6712319"><ele>1671.0</ele><time>2026-04-25T14:08:07.962Z</time></trkpt><trkpt lat="45.4739615" lon="7.6713283"><ele>1671.0</ele><time>2026-04-25T14:08:09.963Z</time></trkpt><trkpt lat="45.4740006" lon="7.671435"><ele>1671.0</ele><time>2026-04-25T14:08:11.965Z</time></trkpt><trkpt lat="45.4740265" lon="7.6715334"><ele>1671.0</ele><time>2026-04-25T14:08:13.962Z</time></trkpt><trkpt lat="45.4740444" lon="7.6716258"><ele>1671.0</ele><time>2026-04-25T14:08:15.96Z</time></trkpt><trkpt lat="45.47405" lon="7.6717292"><ele>1671.0</ele><time>2026-04-25T14:08:17.968Z</time></trkpt><trkpt lat="45.4740473" lon="7.6718611"><ele>1671.0</ele><time>2026-04-25T14:08:19.961Z</time></trkpt><trkpt lat="45.4740409" lon="7.6720185"><ele>1671.0</ele><time>2026-04-25T14:08:21.965Z</time></trkpt><trkpt lat="45.4740286" lon="7.6721934"><ele>1671.0</ele><time>2026-04-25T14:08:23.968Z</time></trkpt><trkpt lat="45.4740229" lon="7.6722844"><ele>1669.6</ele><time>2026-04-25T14:08:24.964Z</time></trkpt><trkpt lat="45.4740023" lon="7.6724514"><ele>1668.1999999999998</ele><time>2026-04-25T14:08:26.964Z</time></trkpt><trkpt lat="45.4740071" lon="7.6725889"><ele>1666.8000000000002</ele><time>2026-04-25T14:08:28.95Z</time></trkpt><trkpt lat="45.4740078" lon="7.6726984"><ele>1665.4</ele><time>2026-04-25T14:08:30.964Z</time></trkpt><trkpt lat="45.47394" lon="7.672738"><ele>1664.0</ele><time>2026-04-25T14:08:33.962Z</time></trkpt><trkpt lat="45.4738985" lon="7.672632"><ele>1664.0</ele><time>2026-04-25T14:08:35.964Z</time></trkpt><trkpt lat="45.4738732" lon="7.6725089"><ele>1664.0</ele><time>2026-04-25T14:08:37.971Z</time></trkpt><trkpt lat="45.4738434" lon="7.6723793"><ele>1664.0</ele><time>2026-04-25T14:08:39.97Z</time></trkpt><trkpt lat="45.4738046" lon="7.6722436"><ele>1664.0</ele><time>2026-04-25T14:08:41.957Z</time></trkpt><trkpt lat="45.4737589" lon="7.6720932"><ele>1664.0</ele><time>2026-04-25T14:08:43.97Z</time></trkpt><trkpt lat="45.4737222" lon="7.6719321"><ele>1658.8333333333333</ele><time>2026-04-25T14:08:45.963Z</time></trkpt><trkpt lat="45.4736787" lon="7.6718333"><ele>1653.6666666666665</ele><time>2026-04-25T14:08:47.971Z</time></trkpt><trkpt lat="45.4736017" lon="7.671838"><ele>1648.5</ele><time>2026-04-25T14:08:49.969Z</time></trkpt><trkpt lat="45.4735598" lon="7.6719107"><ele>1643.3333333333335</ele><time>2026-04-25T14:08:51.955Z</time></trkpt><trkpt lat="45.4735893" lon="7.6720138"><ele>1638.1666666666667</ele><time>2026-04-25T14:08:53.971Z</time></trkpt><trkpt lat="45.4736277" lon="7.6721316"><ele>1633.0</ele><time>2026-04-25T14:08:55.967Z</time></trkpt><trkpt lat="45.4736437" lon="7.6722526"><ele>1630.8000000000002</ele><time>2026-04-25T14:08:57.966Z</time></trkpt><trkpt lat="45.4736489" lon="7.6723915"><ele>1628.6</ele><time>2026-04-25T14:08:59.965Z</time></trkpt><trkpt lat="45.4736588" lon="7.672542"><ele>1626.4</ele><time>2026-04-25T14:09:02.025Z</time></trkpt><trkpt lat="45.4736671" lon="7.6726991"><ele>1624.1999999999998</ele><time>2026-04-25T14:09:03.959Z</time></trkpt><trkpt lat="45.4736823" lon="7.6728632"><ele>1622.0</ele><time>2026-04-25T14:09:05.959Z</time></trkpt><trkpt lat="45.4736529" lon="7.6729472"><ele>1622.0</ele><time>2026-04-25T14:09:07.957Z</time></trkpt><trkpt lat="45.4735883" lon="7.6728843"><ele>1622.0</ele><time>2026-04-25T14:09:09.956Z</time></trkpt><trkpt lat="45.4735456" lon="7.6727386"><ele>1622.0</ele><time>2026-04-25T14:09:12.026Z</time></trkpt><trkpt lat="45.4734949" lon="7.6725777"><ele>1622.0</ele><time>2026-04-25T14:09:14.031Z</time></trkpt><trkpt lat="45.4734579" lon="7.6724912"><ele>1622.0</ele><time>2026-04-25T14:09:14.936Z</time></trkpt><trkpt lat="45.4734132" lon="7.6724071"><ele>1622.0</ele><time>2026-04-25T14:09:15.943Z</time></trkpt><trkpt lat="45.4733659" lon="7.672331"><ele>1622.0</ele><time>2026-04-25T14:09:16.961Z</time></trkpt><trkpt lat="45.4733132" lon="7.6722658"><ele>1622.0</ele><time>2026-04-25T14:09:18.014Z</time></trkpt><trkpt lat="45.473255" lon="7.6722104"><ele>1622.0</ele><time>2026-04-25T14:09:19.016Z</time></trkpt><trkpt lat="45.4731962" lon="7.672166"><ele>1622.0</ele><time>2026-04-25T14:09:19.944Z</time></trkpt><trkpt lat="45.4731316" lon="7.6721205"><ele>1622.0</ele><time>2026-04-25T14:09:20.95Z</time></trkpt><trkpt lat="45.4730736" lon="7.6720818"><ele>1622.0</ele><time>2026-04-25T14:09:21.969Z</time></trkpt><trkpt lat="45.4729633" lon="7.6720145"><ele>1621.9999999999998</ele><time>2026-04-25T14:09:24.016Z</time></trkpt><trkpt lat="45.4728931" lon="7.6720244"><ele>1622.0</ele><time>2026-04-25T14:09:25.949Z</time></trkpt><trkpt lat="45.4728605" lon="7.6721083"><ele>1622.0</ele><time>2026-04-25T14:09:27.95Z</time></trkpt><trkpt lat="45.4729193" lon="7.6722146"><ele>1622.0</ele><time>2026-04-25T14:09:30.953Z</time></trkpt><trkpt lat="45.4729893" lon="7.672243"><ele>1621.9999999999998</ele><time>2026-04-25T14:09:32.953Z</time></trkpt><trkpt lat="45.4730625" lon="7.6722902"><ele>1622.0</ele><time>2026-04-25T14:09:34.945Z</time></trkpt><trkpt lat="45.4731282" lon="7.6723708"><ele>1622.0</ele><time>2026-04-25T14:09:37.063Z</time></trkpt><trkpt lat="45.4731778" lon="7.6724762"><ele>1622.0</ele><time>2026-04-25T14:09:39.013Z</time></trkpt><trkpt lat="45.4732189" lon="7.6726183"><ele>1622.0</ele><time>2026-04-25T14:09:40.953Z</time></trkpt><trkpt lat="45.4732478" lon="7.6727703"><ele>1622.0</ele><time>2026-04-25T14:09:42.943Z</time></trkpt><trkpt lat="45.4732687" lon="7.6729314"><ele>1622.0</ele><time>2026-04-25T14:09:44.945Z</time></trkpt><trkpt lat="45.4732717" lon="7.6730905"><ele>1620.1666666666665</ele><time>2026-04-25T14:09:46.949Z</time></trkpt><trkpt lat="45.4732713" lon="7.6732573"><ele>1618.3333333333333</ele><time>2026-04-25T14:09:48.946Z</time></trkpt><trkpt lat="45.4732699" lon="7.6733501"><ele>1616.5</ele><time>2026-04-25T14:09:49.952Z</time></trkpt><trkpt lat="45.473273" lon="7.6734421"><ele>1614.6666666666665</ele><time>2026-04-25T14:09:50.95Z</time></trkpt><trkpt lat="45.4732778" lon="7.6735394"><ele>1612.8333333333333</ele><time>2026-04-25T14:09:51.948Z</time></trkpt><trkpt lat="45.4732859" lon="7.6736347"><ele>1611.0</ele><time>2026-04-25T14:09:52.946Z</time></trkpt><trkpt lat="45.4732686" lon="7.673787"><ele>1611.0</ele><time>2026-04-25T14:09:54.946Z</time></trkpt><trkpt lat="45.4731985" lon="7.6738169"><ele>1611.0</ele><time>2026-04-25T14:09:56.941Z</time></trkpt><trkpt lat="45.4731571" lon="7.6736956"><ele>1611.0</ele><time>2026-04-25T14:09:58.946Z</time></trkpt><trkpt lat="45.473144" lon="7.6735499"><ele>1611.0</ele><time>2026-04-25T14:10:00.933Z</time></trkpt><trkpt lat="45.4730854" lon="7.6734021"><ele>1611.0</ele><time>2026-04-25T14:10:02.95Z</time></trkpt><trkpt lat="45.4730559" lon="7.6733214"><ele>1611.0</ele><time>2026-04-25T14:10:03.948Z</time></trkpt><trkpt lat="45.472997" lon="7.6731579"><ele>1611.0</ele><time>2026-04-25T14:10:05.952Z</time></trkpt><trkpt lat="45.4729621" lon="7.6730791"><ele>1611.0</ele><time>2026-04-25T14:10:06.934Z</time></trkpt><trkpt lat="45.4728918" lon="7.6729559"><ele>1611.0</ele><time>2026-04-25T14:10:08.951Z</time></trkpt><trkpt lat="45.4728214" lon="7.6729517"><ele>1611.0</ele><time>2026-04-25T14:10:10.95Z</time></trkpt><trkpt lat="45.472803" lon="7.6730767"><ele>1602.8</ele><time>2026-04-25T14:10:13.952Z</time></trkpt><trkpt lat="45.4728546" lon="7.6731423"><ele>1594.6</ele><time>2026-04-25T14:10:16.016Z</time></trkpt><trkpt lat="45.4728947" lon="7.6732523"><ele>1586.4</ele><time>2026-04-25T14:10:17.939Z</time></trkpt><trkpt lat="45.4729066" lon="7.6733964"><ele>1578.2</ele><time>2026-04-25T14:10:19.943Z</time></trkpt><trkpt lat="45.4729198" lon="7.6735356"><ele>1570.0</ele><time>2026-04-25T14:10:21.94Z</time></trkpt><trkpt lat="45.4729345" lon="7.6736847"><ele>1565.75</ele><time>2026-04-25T14:10:24.009Z</time></trkpt><trkpt lat="45.4729163" lon="7.6738365"><ele>1561.5</ele><time>2026-04-25T14:10:25.953Z</time></trkpt><trkpt lat="45.4728909" lon="7.6740014"><ele>1557.25</ele><time>2026-04-25T14:10:27.949Z</time></trkpt><trkpt lat="45.4729103" lon="7.6741662"><ele>1553.0</ele><time>2026-04-25T14:10:29.942Z</time></trkpt><trkpt lat="45.4729487" lon="7.6743268"><ele>1551.6666666666665</ele><time>2026-04-25T14:10:32.011Z</time></trkpt><trkpt lat="45.4729581" lon="7.6744895"><ele>1550.3333333333333</ele><time>2026-04-25T14:10:33.947Z</time></trkpt><trkpt lat="45.4729437" lon="7.6746612"><ele>1549.0</ele><time>2026-04-25T14:10:35.954Z</time></trkpt><trkpt lat="45.4729297" lon="7.6747499"><ele>1547.6666666666665</ele><time>2026-04-25T14:10:36.946Z</time></trkpt><trkpt lat="45.4729137" lon="7.6748383"><ele>1546.3333333333333</ele><time>2026-04-25T14:10:37.945Z</time></trkpt><trkpt lat="45.4728938" lon="7.6749421"><ele>1545.0</ele><time>2026-04-25T14:10:38.95Z</time></trkpt><trkpt lat="45.4728687" lon="7.6750507"><ele>1545.0</ele><time>2026-04-25T14:10:39.948Z</time></trkpt><trkpt lat="45.4728417" lon="7.6751613"><ele>1545.0</ele><time>2026-04-25T14:10:40.949Z</time></trkpt><trkpt lat="45.4728248" lon="7.6752806"><ele>1545.0</ele><time>2026-04-25T14:10:42.018Z</time></trkpt><trkpt lat="45.4728069" lon="7.6754155"><ele>1545.0</ele><time>2026-04-25T14:10:43.019Z</time></trkpt><trkpt lat="45.4727921" lon="7.6755568"><ele>1545.0</ele><time>2026-04-25T14:10:44.009Z</time></trkpt><trkpt lat="45.4727758" lon="7.675702"><ele>1544.5</ele><time>2026-04-25T14:10:44.938Z</time></trkpt><trkpt lat="45.4727618" lon="7.6758355"><ele>1544.0</ele><time>2026-04-25T14:10:45.947Z</time></trkpt><trkpt lat="45.4727501" lon="7.6759717"><ele>1543.5</ele><time>2026-04-25T14:10:46.958Z</time></trkpt><trkpt lat="45.4727337" lon="7.6761012"><ele>1543.0</ele><time>2026-04-25T14:10:48.008Z</time></trkpt><trkpt lat="45.4727233" lon="7.6762201"><ele>1542.5</ele><time>2026-04-25T14:10:49.005Z</time></trkpt><trkpt lat="45.4727205" lon="7.6763281"><ele>1542.0</ele><time>2026-04-25T14:10:49.946Z</time></trkpt><trkpt lat="45.4727203" lon="7.6764296"><ele>1541.857142857143</ele><time>2026-04-25T14:10:50.95Z</time></trkpt><trkpt lat="45.472716" lon="7.676525"><ele>1541.7142857142856</ele><time>2026-04-25T14:10:51.96Z</time></trkpt><trkpt lat="45.4727085" lon="7.6766337"><ele>1541.5714285714284</ele><time>2026-04-25T14:10:52.944Z</time></trkpt><trkpt lat="45.4726938" lon="7.6767429"><ele>1541.4285714285716</ele><time>2026-04-25T14:10:53.946Z</time></trkpt><trkpt lat="45.4726782" lon="7.6768476"><ele>1541.2857142857142</ele><time>2026-04-25T14:10:54.952Z</time></trkpt><trkpt lat="45.4726685" lon="7.6769425"><ele>1541.142857142857</ele><time>2026-04-25T14:10:55.95Z</time></trkpt><trkpt lat="45.4726671" lon="7.677034"><ele>1541.0</ele><time>2026-04-25T14:10:56.979Z</time></trkpt><trkpt lat="45.472678" lon="7.6771312"><ele>1540.0</ele><time>2026-04-25T14:10:57.948Z</time></trkpt><trkpt lat="45.4726864" lon="7.6772287"><ele>1539.0</ele><time>2026-04-25T14:10:58.949Z</time></trkpt><trkpt lat="45.4727042" lon="7.6774043"><ele>1538.0</ele><time>2026-04-25T14:11:01.011Z</time></trkpt><trkpt lat="45.4727197" lon="7.6775726"><ele>1537.0</ele><time>2026-04-25T14:11:03.009Z</time></trkpt><trkpt lat="45.4727383" lon="7.6777359"><ele>1536.0</ele><time>2026-04-25T14:11:04.948Z</time></trkpt><trkpt lat="45.4727584" lon="7.6779038"><ele>1534.4</ele><time>2026-04-25T14:11:06.945Z</time></trkpt><trkpt lat="45.4727743" lon="7.67807"><ele>1532.8</ele><time>2026-04-25T14:11:08.945Z</time></trkpt><trkpt lat="45.4727718" lon="7.6782372"><ele>1531.2</ele><time>2026-04-25T14:11:10.949Z</time></trkpt><trkpt lat="45.472781" lon="7.6783904"><ele>1529.6000000000001</ele><time>2026-04-25T14:11:12.943Z</time></trkpt><trkpt lat="45.4728074" lon="7.6785229"><ele>1528.0</ele><time>2026-04-25T14:11:14.948Z</time></trkpt><trkpt lat="45.4728366" lon="7.6786526"><ele>1526.8000000000002</ele><time>2026-04-25T14:11:16.947Z</time></trkpt><trkpt lat="45.4728675" lon="7.678789"><ele>1525.6</ele><time>2026-04-25T14:11:18.946Z</time></trkpt><trkpt lat="45.4728746" lon="7.6789496"><ele>1524.4</ele><time>2026-04-25T14:11:21.029Z</time></trkpt><trkpt lat="45.4728825" lon="7.6791095"><ele>1523.1999999999998</ele><time>2026-04-25T14:11:23.034Z</time></trkpt><trkpt lat="45.4728881" lon="7.679276"><ele>1522.0</ele><time>2026-04-25T14:11:24.95Z</time></trkpt><trkpt lat="45.4729142" lon="7.6794416"><ele>1521.0</ele><time>2026-04-25T14:11:26.951Z</time></trkpt><trkpt lat="45.4729344" lon="7.6796042"><ele>1520.0</ele><time>2026-04-25T14:11:28.95Z</time></trkpt><trkpt lat="45.4729341" lon="7.679762"><ele>1519.0</ele><time>2026-04-25T14:11:30.954Z</time></trkpt><trkpt lat="45.472933" lon="7.6799274"><ele>1518.0</ele><time>2026-04-25T14:11:33.03Z</time></trkpt><trkpt lat="45.4729432" lon="7.680079"><ele>1517.0</ele><time>2026-04-25T14:11:34.954Z</time></trkpt><trkpt lat="45.4729249" lon="7.6801959"><ele>1517.0</ele><time>2026-04-25T14:11:37.032Z</time></trkpt><trkpt lat="45.4728654" lon="7.6802672"><ele>1517.0</ele><time>2026-04-25T14:11:38.956Z</time></trkpt><trkpt lat="45.4728027" lon="7.6802807"><ele>1517.0</ele><time>2026-04-25T14:20:25.954Z</time></trkpt><trkpt lat="45.472785" lon="7.6801754"><ele>1517.0</ele><time>2026-04-25T14:20:30.941Z</time></trkpt><trkpt lat="45.4727754" lon="7.6800671"><ele>1517.0</ele><time>2026-04-25T14:20:34.957Z</time></trkpt><trkpt lat="45.4727526" lon="7.6799757"><ele>1517.0</ele><time>2026-04-25T14:20:38.934Z</time></trkpt><trkpt lat="45.4727364" lon="7.6798657"><ele>1517.0</ele><time>2026-04-25T14:20:41.962Z</time></trkpt><trkpt lat="45.4727187" lon="7.6797646"><ele>1517.0</ele><time>2026-04-25T14:20:43.944Z</time></trkpt><trkpt lat="45.4727007" lon="7.6796543"><ele>1517.0</ele><time>2026-04-25T14:20:45.957Z</time></trkpt><trkpt lat="45.4726543" lon="7.6795539"><ele>1517.0</ele><time>2026-04-25T14:20:47.946Z</time></trkpt><trkpt lat="45.4726023" lon="7.6794679"><ele>1517.0</ele><time>2026-04-25T14:20:49.954Z</time></trkpt><trkpt lat="45.4725497" lon="7.6793723"><ele>1517.0</ele><time>2026-04-25T14:20:52.018Z</time></trkpt><trkpt lat="45.4724982" lon="7.6792609"><ele>1517.0</ele><time>2026-04-25T14:20:53.952Z</time></trkpt><trkpt lat="45.4724583" lon="7.679138"><ele>1518.0</ele><time>2026-04-25T14:20:55.952Z</time></trkpt><trkpt lat="45.4724147" lon="7.6790102"><ele>1519.0</ele><time>2026-04-25T14:20:57.95Z</time></trkpt><trkpt lat="45.4723624" lon="7.6788846"><ele>1520.0</ele><time>2026-04-25T14:20:59.947Z</time></trkpt><trkpt lat="45.4722762" lon="7.6788018"><ele>1521.0</ele><time>2026-04-25T14:21:02.027Z</time></trkpt><trkpt lat="45.472179" lon="7.6788038"><ele>1522.0</ele><time>2026-04-25T14:21:03.948Z</time></trkpt><trkpt lat="45.4721125" lon="7.6789238"><ele>1516.0</ele><time>2026-04-25T14:21:05.951Z</time></trkpt><trkpt lat="45.4721047" lon="7.6790591"><ele>1510.0</ele><time>2026-04-25T14:21:08.011Z</time></trkpt><trkpt lat="45.4721015" lon="7.6791976"><ele>1504.0</ele><time>2026-04-25T14:21:09.96Z</time></trkpt><trkpt lat="45.4720766" lon="7.6793476"><ele>1498.0</ele><time>2026-04-25T14:21:11.952Z</time></trkpt><trkpt lat="45.4720387" lon="7.679504"><ele>1492.0</ele><time>2026-04-25T14:21:13.95Z</time></trkpt><trkpt lat="45.4720042" lon="7.6796674"><ele>1491.5</ele><time>2026-04-25T14:21:15.947Z</time></trkpt><trkpt lat="45.4719504" lon="7.6798159"><ele>1491.0</ele><time>2026-04-25T14:21:18.035Z</time></trkpt><trkpt lat="45.4719046" lon="7.6799762"><ele>1490.5</ele><time>2026-04-25T14:21:19.958Z</time></trkpt><trkpt lat="45.4718804" lon="7.6801479"><ele>1490.0</ele><time>2026-04-25T14:21:21.958Z</time></trkpt><trkpt lat="45.4718689" lon="7.6803254"><ele>1488.8</ele><time>2026-04-25T14:21:23.956Z</time></trkpt><trkpt lat="45.4718585" lon="7.6804941"><ele>1487.6</ele><time>2026-04-25T14:21:25.953Z</time></trkpt><trkpt lat="45.4718722" lon="7.6807647"><ele>1486.4</ele><time>2026-04-25T14:21:28.956Z</time></trkpt><trkpt lat="45.47188" lon="7.6808608"><ele>1485.2</ele><time>2026-04-25T14:21:29.959Z</time></trkpt><trkpt lat="45.4718801" lon="7.6809573"><ele>1484.0</ele><time>2026-04-25T14:21:30.955Z</time></trkpt><trkpt lat="45.4718725" lon="7.6810533"><ele>1482.857142857143</ele><time>2026-04-25T14:21:31.954Z</time></trkpt><trkpt lat="45.4718662" lon="7.681154"><ele>1481.7142857142858</ele><time>2026-04-25T14:21:32.956Z</time></trkpt><trkpt lat="45.471869" lon="7.681254"><ele>1480.5714285714284</ele><time>2026-04-25T14:21:34.034Z</time></trkpt><trkpt lat="45.4718778" lon="7.6813476"><ele>1479.4285714285716</ele><time>2026-04-25T14:21:34.952Z</time></trkpt><trkpt lat="45.4718947" lon="7.6814429"><ele>1478.2857142857142</ele><time>2026-04-25T14:21:35.955Z</time></trkpt><trkpt lat="45.4719095" lon="7.6815379"><ele>1477.142857142857</ele><time>2026-04-25T14:21:36.987Z</time></trkpt><trkpt lat="45.4719201" lon="7.6816354"><ele>1476.0</ele><time>2026-04-25T14:21:38.027Z</time></trkpt><trkpt lat="45.471927" lon="7.6817326"><ele>1476.0</ele><time>2026-04-25T14:21:39.03Z</time></trkpt><trkpt lat="45.4719344" lon="7.681827"><ele>1476.0</ele><time>2026-04-25T14:21:39.951Z</time></trkpt><trkpt lat="45.4719382" lon="7.6819208"><ele>1476.0</ele><time>2026-04-25T14:21:40.95Z</time></trkpt><trkpt lat="45.471945" lon="7.682016"><ele>1476.0</ele><time>2026-04-25T14:21:41.952Z</time></trkpt><trkpt lat="45.4719512" lon="7.6821161"><ele>1476.0</ele><time>2026-04-25T14:21:43.029Z</time></trkpt><trkpt lat="45.4719602" lon="7.6822153"><ele>1476.0</ele><time>2026-04-25T14:21:44.026Z</time></trkpt><trkpt lat="45.47197" lon="7.6823215"><ele>1476.0</ele><time>2026-04-25T14:21:44.959Z</time></trkpt><trkpt lat="45.4719867" lon="7.6824245"><ele>1474.2857142857142</ele><time>2026-04-25T14:21:45.964Z</time></trkpt><trkpt lat="45.4719917" lon="7.6825271"><ele>1472.5714285714284</ele><time>2026-04-25T14:21:46.966Z</time></trkpt><trkpt lat="45.4719936" lon="7.6826338"><ele>1470.857142857143</ele><time>2026-04-25T14:21:47.96Z</time></trkpt><trkpt lat="45.4719982" lon="7.6827348"><ele>1469.142857142857</ele><time>2026-04-25T14:21:48.963Z</time></trkpt><trkpt lat="45.4720018" lon="7.6828418"><ele>1467.4285714285716</ele><time>2026-04-25T14:21:49.965Z</time></trkpt><trkpt lat="45.4720128" lon="7.6829446"><ele>1465.7142857142858</ele><time>2026-04-25T14:21:50.962Z</time></trkpt><trkpt lat="45.4720314" lon="7.6830331"><ele>1464.0</ele><time>2026-04-25T14:21:51.956Z</time></trkpt><trkpt lat="45.4720529" lon="7.683122"><ele>1462.5</ele><time>2026-04-25T14:21:53.029Z</time></trkpt><trkpt lat="45.4720713" lon="7.6832112"><ele>1461.0</ele><time>2026-04-25T14:21:53.972Z</time></trkpt><trkpt lat="45.4720898" lon="7.6833026"><ele>1459.5</ele><time>2026-04-25T14:21:54.955Z</time></trkpt><trkpt lat="45.4721044" lon="7.6833917"><ele>1458.0</ele><time>2026-04-25T14:21:55.954Z</time></trkpt><trkpt lat="45.4721267" lon="7.6834792"><ele>1456.5</ele><time>2026-04-25T14:21:56.948Z</time></trkpt><trkpt lat="45.4721462" lon="7.6835671"><ele>1455.0</ele><time>2026-04-25T14:21:57.974Z</time></trkpt><trkpt lat="45.4721848" lon="7.6837361"><ele>1455.0</ele><time>2026-04-25T14:21:59.962Z</time></trkpt><trkpt lat="45.4722587" lon="7.6838332"><ele>1455.0</ele><time>2026-04-25T14:22:01.95Z</time></trkpt><trkpt lat="45.4723578" lon="7.6838364"><ele>1455.0</ele><time>2026-04-25T14:22:03.949Z</time></trkpt><trkpt lat="45.4724539" lon="7.683819"><ele>1455.0</ele><time>2026-04-25T14:22:06.017Z</time></trkpt><trkpt lat="45.4725495" lon="7.6837912"><ele>1455.0</ele><time>2026-04-25T14:22:08.028Z</time></trkpt><trkpt lat="45.4726478" lon="7.6837558"><ele>1455.0</ele><time>2026-04-25T14:22:09.957Z</time></trkpt><trkpt lat="45.4727105" lon="7.6837838"><ele>1455.0</ele><time>2026-04-25T14:22:11.95Z</time></trkpt><trkpt lat="45.4727046" lon="7.6838864"><ele>1455.0</ele><time>2026-04-25T14:22:13.948Z</time></trkpt><trkpt lat="45.4726284" lon="7.6839596"><ele>1455.0</ele><time>2026-04-25T14:22:15.953Z</time></trkpt><trkpt lat="45.4725357" lon="7.6840209"><ele>1455.0</ele><time>2026-04-25T14:22:17.95Z</time></trkpt><trkpt lat="45.4724327" lon="7.6840854"><ele>1455.0</ele><time>2026-04-25T14:22:19.953Z</time></trkpt><trkpt lat="45.4723296" lon="7.6841532"><ele>1455.0</ele><time>2026-04-25T14:22:21.95Z</time></trkpt><trkpt lat="45.4722306" lon="7.6842179"><ele>1455.0</ele><time>2026-04-25T14:22:24.023Z</time></trkpt><trkpt lat="45.4721441" lon="7.6842932"><ele>1455.0</ele><time>2026-04-25T14:22:25.957Z</time></trkpt><trkpt lat="45.4720789" lon="7.6843852"><ele>1455.0</ele><time>2026-04-25T14:22:28.009Z</time></trkpt><trkpt lat="45.472033" lon="7.684508"><ele>1455.0</ele><time>2026-04-25T14:22:29.956Z</time></trkpt><trkpt lat="45.4719902" lon="7.6846389"><ele>1452.4285714285713</ele><time>2026-04-25T14:22:31.966Z</time></trkpt><trkpt lat="45.4719577" lon="7.6847397"><ele>1449.8571428571427</ele><time>2026-04-25T14:22:33.955Z</time></trkpt><trkpt lat="45.4719211" lon="7.6848385"><ele>1447.2857142857142</ele><time>2026-04-25T14:22:35.956Z</time></trkpt><trkpt lat="45.4718865" lon="7.6849241"><ele>1444.7142857142858</ele><time>2026-04-25T14:22:37.951Z</time></trkpt><trkpt lat="45.4718396" lon="7.6850053"><ele>1442.142857142857</ele><time>2026-04-25T14:27:00.94Z</time></trkpt><trkpt lat="45.471798" lon="7.6850897"><ele>1439.5714285714287</ele><time>2026-04-25T14:27:03.955Z</time></trkpt><trkpt lat="45.4717607" lon="7.6851722"><ele>1437.0</ele><time>2026-04-25T14:27:05.951Z</time></trkpt><trkpt lat="45.4717274" lon="7.6852605"><ele>1435.1666666666667</ele><time>2026-04-25T14:27:07.953Z</time></trkpt><trkpt lat="45.4716871" lon="7.6853312"><ele>1433.3333333333333</ele><time>2026-04-25T14:27:09.951Z</time></trkpt><trkpt lat="45.4716527" lon="7.6854207"><ele>1431.5</ele><time>2026-04-25T14:27:11.976Z</time></trkpt><trkpt lat="45.4716129" lon="7.6855126"><ele>1429.6666666666665</ele><time>2026-04-25T14:27:13.95Z</time></trkpt><trkpt lat="45.4715703" lon="7.6856033"><ele>1427.8333333333333</ele><time>2026-04-25T14:27:15.949Z</time></trkpt><trkpt lat="45.4715297" lon="7.6857119"><ele>1426.0</ele><time>2026-04-25T14:27:17.951Z</time></trkpt><trkpt lat="45.4714859" lon="7.6858258"><ele>1426.0</ele><time>2026-04-25T14:27:19.955Z</time></trkpt><trkpt lat="45.4714472" lon="7.6859521"><ele>1426.0</ele><time>2026-04-25T14:27:21.954Z</time></trkpt><trkpt lat="45.4713935" lon="7.6860693"><ele>1426.0</ele><time>2026-04-25T14:27:23.957Z</time></trkpt><trkpt lat="45.4713156" lon="7.6861658"><ele>1426.0</ele><time>2026-04-25T14:27:25.953Z</time></trkpt><trkpt lat="45.4712519" lon="7.6862962"><ele>1426.0</ele><time>2026-04-25T14:27:27.95Z</time></trkpt><trkpt lat="45.4712054" lon="7.6864492"><ele>1423.6666666666665</ele><time>2026-04-25T14:27:29.951Z</time></trkpt><trkpt lat="45.4711997" lon="7.6865391"><ele>1421.3333333333333</ele><time>2026-04-25T14:27:30.95Z</time></trkpt><trkpt lat="45.4712019" lon="7.6867201"><ele>1419.0</ele><time>2026-04-25T14:27:32.951Z</time></trkpt><trkpt lat="45.4712063" lon="7.6868102"><ele>1416.6666666666667</ele><time>2026-04-25T14:27:33.945Z</time></trkpt><trkpt lat="45.471193" lon="7.6869579"><ele>1414.3333333333335</ele><time>2026-04-25T14:27:35.949Z</time></trkpt><trkpt lat="45.4711202" lon="7.6870113"><ele>1412.0</ele><time>2026-04-25T14:27:37.954Z</time></trkpt><trkpt lat="45.4710548" lon="7.6869295"><ele>1412.0</ele><time>2026-04-25T14:27:39.961Z</time></trkpt><trkpt lat="45.4710447" lon="7.68681"><ele>1412.0</ele><time>2026-04-25T14:27:41.951Z</time></trkpt><trkpt lat="45.4710431" lon="7.6865767"><ele>1412.0</ele><time>2026-04-25T14:27:44.948Z</time></trkpt><trkpt lat="45.4709927" lon="7.6864723"><ele>1412.0</ele><time>2026-04-25T14:27:46.947Z</time></trkpt><trkpt lat="45.4709156" lon="7.6864883"><ele>1412.0</ele><time>2026-04-25T14:27:48.947Z</time></trkpt><trkpt lat="45.4708709" lon="7.6865919"><ele>1412.0</ele><time>2026-04-25T14:27:50.951Z</time></trkpt><trkpt lat="45.4708412" lon="7.6867098"><ele>1412.0</ele><time>2026-04-25T14:27:52.957Z</time></trkpt><trkpt lat="45.4708066" lon="7.6868212"><ele>1412.0</ele><time>2026-04-25T14:27:54.951Z</time></trkpt><trkpt lat="45.4707687" lon="7.6869525"><ele>1412.0</ele><time>2026-04-25T14:27:56.941Z</time></trkpt><trkpt lat="45.4707219" lon="7.6870992"><ele>1412.0</ele><time>2026-04-25T14:27:59.012Z</time></trkpt><trkpt lat="45.4706711" lon="7.6872548"><ele>1411.8</ele><time>2026-04-25T14:28:00.954Z</time></trkpt><trkpt lat="45.4706121" lon="7.6874085"><ele>1411.6</ele><time>2026-04-25T14:28:03.027Z</time></trkpt><trkpt lat="45.4705781" lon="7.6874848"><ele>1411.3999999999999</ele><time>2026-04-25T14:28:04.03Z</time></trkpt><trkpt lat="45.4705074" lon="7.6876365"><ele>1411.1999999999998</ele><time>2026-04-25T14:28:05.948Z</time></trkpt><trkpt lat="45.4704331" lon="7.6877794"><ele>1411.0</ele><time>2026-04-25T14:28:08.02Z</time></trkpt><trkpt lat="45.4703979" lon="7.6878589"><ele>1408.1666666666665</ele><time>2026-04-25T14:28:08.955Z</time></trkpt><trkpt lat="45.4703621" lon="7.6879376"><ele>1405.3333333333333</ele><time>2026-04-25T14:28:09.95Z</time></trkpt><trkpt lat="45.4703226" lon="7.6880143"><ele>1402.5</ele><time>2026-04-25T14:28:10.956Z</time></trkpt><trkpt lat="45.4702797" lon="7.688092"><ele>1399.6666666666667</ele><time>2026-04-25T14:28:11.975Z</time></trkpt><trkpt lat="45.470243" lon="7.6881659"><ele>1396.8333333333335</ele><time>2026-04-25T14:28:13.016Z</time></trkpt><trkpt lat="45.4702229" lon="7.6883099"><ele>1394.0</ele><time>2026-04-25T14:28:14.957Z</time></trkpt><trkpt lat="45.470293" lon="7.688376"><ele>1394.0</ele><time>2026-04-25T14:28:16.952Z</time></trkpt><trkpt lat="45.4703869" lon="7.688389"><ele>1394.0</ele><time>2026-04-25T14:28:18.95Z</time></trkpt><trkpt lat="45.4704878" lon="7.6883839"><ele>1394.0</ele><time>2026-04-25T14:28:20.956Z</time></trkpt><trkpt lat="45.4705744" lon="7.6884076"><ele>1394.0</ele><time>2026-04-25T14:28:22.947Z</time></trkpt><trkpt lat="45.4705698" lon="7.6885314"><ele>1394.0</ele><time>2026-04-25T14:28:24.944Z</time></trkpt><trkpt lat="45.4704826" lon="7.688562"><ele>1394.0</ele><time>2026-04-25T14:28:26.945Z</time></trkpt><trkpt lat="45.4703922" lon="7.6885719"><ele>1394.0</ele><time>2026-04-25T14:28:28.957Z</time></trkpt><trkpt lat="45.4702993" lon="7.6885996"><ele>1394.0</ele><time>2026-04-25T14:28:30.954Z</time></trkpt><trkpt lat="45.4701907" lon="7.6886168"><ele>1394.0</ele><time>2026-04-25T14:28:32.944Z</time></trkpt><trkpt lat="45.470103" lon="7.6886371"><ele>1394.0</ele><time>2026-04-25T14:28:34.947Z</time></trkpt><trkpt lat="45.4700827" lon="7.6887226"><ele>1394.0</ele><time>2026-04-25T14:28:36.94Z</time></trkpt><trkpt lat="45.4701642" lon="7.6887817"><ele>1392.6666666666667</ele><time>2026-04-25T14:28:39.958Z</time></trkpt><trkpt lat="45.4702351" lon="7.6887835"><ele>1391.3333333333335</ele><time>2026-04-25T14:28:41.955Z</time></trkpt><trkpt lat="45.4703249" lon="7.6888108"><ele>1390.0</ele><time>2026-04-25T14:28:43.955Z</time></trkpt><trkpt lat="45.4703978" lon="7.6888267"><ele>1388.6666666666667</ele><time>2026-04-25T14:28:44.952Z</time></trkpt><trkpt lat="45.4704834" lon="7.6888422"><ele>1387.3333333333333</ele><time>2026-04-25T14:28:45.954Z</time></trkpt><trkpt lat="45.4705791" lon="7.6888662"><ele>1386.0</ele><time>2026-04-25T14:28:47.044Z</time></trkpt><trkpt lat="45.470672" lon="7.6888919"><ele>1386.0</ele><time>2026-04-25T14:28:47.951Z</time></trkpt><trkpt lat="45.4707572" lon="7.6889164"><ele>1386.0</ele><time>2026-04-25T14:28:48.953Z</time></trkpt><trkpt lat="45.4708391" lon="7.6889429"><ele>1386.0</ele><time>2026-04-25T14:28:49.953Z</time></trkpt><trkpt lat="45.4709149" lon="7.688975"><ele>1386.0</ele><time>2026-04-25T14:28:50.939Z</time></trkpt><trkpt lat="45.4709886" lon="7.6890155"><ele>1386.0</ele><time>2026-04-25T14:28:51.948Z</time></trkpt><trkpt lat="45.4710638" lon="7.6890611"><ele>1386.0</ele><time>2026-04-25T14:28:52.951Z</time></trkpt><trkpt lat="45.4711408" lon="7.6891053"><ele>1386.0</ele><time>2026-04-25T14:28:53.954Z</time></trkpt><trkpt lat="45.4712162" lon="7.6891446"><ele>1386.0</ele><time>2026-04-25T14:28:54.952Z</time></trkpt><trkpt lat="45.471286" lon="7.6891817"><ele>1386.0</ele><time>2026-04-25T14:28:55.958Z</time></trkpt><trkpt lat="45.4713705" lon="7.6892911"><ele>1386.0</ele><time>2026-04-25T14:28:57.957Z</time></trkpt><trkpt lat="45.4714021" lon="7.6894569"><ele>1386.0</ele><time>2026-04-25T14:28:59.944Z</time></trkpt><trkpt lat="45.4714196" lon="7.6896329"><ele>1382.1666666666667</ele><time>2026-04-25T14:29:01.954Z</time></trkpt><trkpt lat="45.4714249" lon="7.6897277"><ele>1378.3333333333333</ele><time>2026-04-25T14:29:02.953Z</time></trkpt><trkpt lat="45.4714161" lon="7.6899055"><ele>1374.5</ele><time>2026-04-25T14:29:04.96Z</time></trkpt><trkpt lat="45.4714067" lon="7.6899968"><ele>1370.6666666666665</ele><time>2026-04-25T14:29:05.957Z</time></trkpt><trkpt lat="45.4714115" lon="7.6900904"><ele>1366.8333333333333</ele><time>2026-04-25T14:29:06.95Z</time></trkpt><trkpt lat="45.4714155" lon="7.690187"><ele>1363.0</ele><time>2026-04-25T14:29:07.951Z</time></trkpt><trkpt lat="45.4714191" lon="7.690279"><ele>1362.0</ele><time>2026-04-25T14:29:08.95Z</time></trkpt><trkpt lat="45.4714144" lon="7.6904486"><ele>1361.0</ele><time>2026-04-25T14:29:10.952Z</time></trkpt><trkpt lat="45.4714017" lon="7.6906169"><ele>1360.0</ele><time>2026-04-25T14:29:12.954Z</time></trkpt><trkpt lat="45.4714038" lon="7.6907683"><ele>1359.0</ele><time>2026-04-25T14:29:14.955Z</time></trkpt><trkpt lat="45.471466" lon="7.6908576"><ele>1358.0</ele><time>2026-04-25T14:29:16.952Z</time></trkpt><trkpt lat="45.4715413" lon="7.6908383"><ele>1358.0</ele><time>2026-04-25T14:29:18.958Z</time></trkpt><trkpt lat="45.4715996" lon="7.6907306"><ele>1358.0</ele><time>2026-04-25T14:29:20.955Z</time></trkpt><trkpt lat="45.4716606" lon="7.690641"><ele>1358.0</ele><time>2026-04-25T14:29:22.95Z</time></trkpt><trkpt lat="45.4717414" lon="7.6906179"><ele>1358.0</ele><time>2026-04-25T14:29:24.953Z</time></trkpt><trkpt lat="45.4717863" lon="7.6907141"><ele>1358.0</ele><time>2026-04-25T14:29:26.959Z</time></trkpt><trkpt lat="45.4717856" lon="7.6908583"><ele>1358.0</ele><time>2026-04-25T14:29:28.951Z</time></trkpt><trkpt lat="45.4717836" lon="7.690951"><ele>1357.0</ele><time>2026-04-25T14:29:29.959Z</time></trkpt><trkpt lat="45.471782" lon="7.6911255"><ele>1356.0</ele><time>2026-04-25T14:29:31.951Z</time></trkpt><trkpt lat="45.4717746" lon="7.6912183"><ele>1355.0</ele><time>2026-04-25T14:29:32.956Z</time></trkpt><trkpt lat="45.4717726" lon="7.6913143"><ele>1354.0</ele><time>2026-04-25T14:29:33.965Z</time></trkpt><trkpt lat="45.4717645" lon="7.6914098"><ele>1353.0</ele><time>2026-04-25T14:29:34.953Z</time></trkpt><trkpt lat="45.4717573" lon="7.6915081"><ele>1352.0</ele><time>2026-04-25T14:29:35.952Z</time></trkpt><trkpt lat="45.4717476" lon="7.691612"><ele>1352.0</ele><time>2026-04-25T14:29:36.952Z</time></trkpt><trkpt lat="45.4717381" lon="7.6917106"><ele>1352.0</ele><time>2026-04-25T14:29:37.952Z</time></trkpt><trkpt lat="45.4717276" lon="7.6918152"><ele>1352.0</ele><time>2026-04-25T14:29:38.95Z</time></trkpt><trkpt lat="45.4717217" lon="7.6919114"><ele>1352.0</ele><time>2026-04-25T14:29:39.954Z</time></trkpt><trkpt lat="45.4717123" lon="7.6920132"><ele>1352.0</ele><time>2026-04-25T14:29:40.955Z</time></trkpt><trkpt lat="45.4717024" lon="7.6921171"><ele>1352.0</ele><time>2026-04-25T14:29:41.957Z</time></trkpt><trkpt lat="45.4716968" lon="7.6922202"><ele>1352.0</ele><time>2026-04-25T14:29:42.958Z</time></trkpt><trkpt lat="45.4716886" lon="7.692323"><ele>1350.4285714285716</ele><time>2026-04-25T14:29:43.958Z</time></trkpt><trkpt lat="45.4716819" lon="7.6924236"><ele>1348.857142857143</ele><time>2026-04-25T14:29:44.955Z</time></trkpt><trkpt lat="45.4716788" lon="7.692527"><ele>1347.2857142857142</ele><time>2026-04-25T14:29:45.945Z</time></trkpt><trkpt lat="45.471674" lon="7.6926269"><ele>1345.7142857142858</ele><time>2026-04-25T14:29:46.951Z</time></trkpt><trkpt lat="45.4716643" lon="7.6927239"><ele>1344.142857142857</ele><time>2026-04-25T14:29:47.956Z</time></trkpt><trkpt lat="45.4716473" lon="7.6928188"><ele>1342.5714285714287</ele><time>2026-04-25T14:29:48.95Z</time></trkpt><trkpt lat="45.4716269" lon="7.6929131"><ele>1341.0</ele><time>2026-04-25T14:29:49.959Z</time></trkpt><trkpt lat="45.4716104" lon="7.6930065"><ele>1340.1428571428573</ele><time>2026-04-25T14:29:50.953Z</time></trkpt><trkpt lat="45.471595" lon="7.6931062"><ele>1339.2857142857142</ele><time>2026-04-25T14:29:51.95Z</time></trkpt><trkpt lat="45.4715846" lon="7.6932062"><ele>1338.4285714285716</ele><time>2026-04-25T14:29:52.96Z</time></trkpt><trkpt lat="45.4715704" lon="7.693302"><ele>1337.5714285714287</ele><time>2026-04-25T14:29:53.957Z</time></trkpt><trkpt lat="45.4715555" lon="7.6933988"><ele>1336.7142857142858</ele><time>2026-04-25T14:29:54.954Z</time></trkpt><trkpt lat="45.4715375" lon="7.6934994"><ele>1335.857142857143</ele><time>2026-04-25T14:29:55.954Z</time></trkpt><trkpt lat="45.4715212" lon="7.6935945"><ele>1335.0</ele><time>2026-04-25T14:29:56.952Z</time></trkpt><trkpt lat="45.4715085" lon="7.6936846"><ele>1334.5</ele><time>2026-04-25T14:29:57.953Z</time></trkpt><trkpt lat="45.4714921" lon="7.693778"><ele>1334.0</ele><time>2026-04-25T14:29:58.947Z</time></trkpt><trkpt lat="45.47148" lon="7.6938684"><ele>1333.5</ele><time>2026-04-25T14:29:59.954Z</time></trkpt><trkpt lat="45.471467" lon="7.6939634"><ele>1333.0</ele><time>2026-04-25T14:30:00.95Z</time></trkpt><trkpt lat="45.4714428" lon="7.6940486"><ele>1332.5</ele><time>2026-04-25T14:30:01.952Z</time></trkpt><trkpt lat="45.471407" lon="7.6941274"><ele>1332.0</ele><time>2026-04-25T14:30:02.956Z</time></trkpt><trkpt lat="45.4713024" lon="7.694216"><ele>1331.0</ele><time>2026-04-25T14:30:04.953Z</time></trkpt><trkpt lat="45.4712316" lon="7.69422"><ele>1330.0</ele><time>2026-04-25T14:30:05.946Z</time></trkpt><trkpt lat="45.4711635" lon="7.6942057"><ele>1329.0</ele><time>2026-04-25T14:30:06.94Z</time></trkpt><trkpt lat="45.4711042" lon="7.6941539"><ele>1328.0</ele><time>2026-04-25T14:30:07.948Z</time></trkpt><trkpt lat="45.4710379" lon="7.6940857"><ele>1327.0</ele><time>2026-04-25T14:30:08.948Z</time></trkpt><trkpt lat="45.4709569" lon="7.6940054"><ele>1326.0</ele><time>2026-04-25T14:30:09.952Z</time></trkpt><trkpt lat="45.4708691" lon="7.6939233"><ele>1326.0</ele><time>2026-04-25T14:30:10.955Z</time></trkpt><trkpt lat="45.4707859" lon="7.6938299"><ele>1326.0</ele><time>2026-04-25T14:30:11.953Z</time></trkpt><trkpt lat="45.4707055" lon="7.6937323"><ele>1326.0</ele><time>2026-04-25T14:30:12.951Z</time></trkpt><trkpt lat="45.4706257" lon="7.6936273"><ele>1326.0</ele><time>2026-04-25T14:30:13.955Z</time></trkpt><trkpt lat="45.4705456" lon="7.6935282"><ele>1326.0</ele><time>2026-04-25T14:30:14.949Z</time></trkpt><trkpt lat="45.4704583" lon="7.6934342"><ele>1322.5</ele><time>2026-04-25T14:30:15.951Z</time></trkpt><trkpt lat="45.4703616" lon="7.6933466"><ele>1319.0</ele><time>2026-04-25T14:30:16.948Z</time></trkpt><trkpt lat="45.4702634" lon="7.6932644"><ele>1315.5</ele><time>2026-04-25T14:30:18.024Z</time></trkpt><trkpt lat="45.4701558" lon="7.6931776"><ele>1312.0</ele><time>2026-04-25T14:30:19.024Z</time></trkpt><trkpt lat="45.470051" lon="7.6930857"><ele>1312.0</ele><time>2026-04-25T14:30:19.951Z</time></trkpt><trkpt lat="45.4699504" lon="7.6929873"><ele>1312.0</ele><time>2026-04-25T14:30:20.951Z</time></trkpt><trkpt lat="45.4698522" lon="7.6928866"><ele>1312.0</ele><time>2026-04-25T14:30:21.975Z</time></trkpt><trkpt lat="45.4697519" lon="7.692793"><ele>1312.0</ele><time>2026-04-25T14:30:22.955Z</time></trkpt><trkpt lat="45.46965" lon="7.6927196"><ele>1311.25</ele><time>2026-04-25T14:30:23.951Z</time></trkpt><trkpt lat="45.4695435" lon="7.6926619"><ele>1310.5</ele><time>2026-04-25T14:30:24.956Z</time></trkpt><trkpt lat="45.4694296" lon="7.6926036"><ele>1309.75</ele><time>2026-04-25T14:30:25.955Z</time></trkpt><trkpt lat="45.4693065" lon="7.6925433"><ele>1309.0</ele><time>2026-04-25T14:30:27.03Z</time></trkpt><trkpt lat="45.4691879" lon="7.6924769"><ele>1309.0</ele><time>2026-04-25T14:30:28.032Z</time></trkpt><trkpt lat="45.4690769" lon="7.6924053"><ele>1309.0</ele><time>2026-04-25T14:30:28.947Z</time></trkpt><trkpt lat="45.4689772" lon="7.692348"><ele>1309.0</ele><time>2026-04-25T14:30:29.947Z</time></trkpt><trkpt lat="45.4688814" lon="7.6923072"><ele>1309.0</ele><time>2026-04-25T14:30:30.956Z</time></trkpt><trkpt lat="45.4687857" lon="7.6922769"><ele>1309.0</ele><time>2026-04-25T14:30:32.018Z</time></trkpt><trkpt lat="45.4686896" lon="7.6922346"><ele>1305.8000000000002</ele><time>2026-04-25T14:30:32.957Z</time></trkpt><trkpt lat="45.4685884" lon="7.6921853"><ele>1302.6000000000001</ele><time>2026-04-25T14:30:34.032Z</time></trkpt><trkpt lat="45.4684897" lon="7.6921214"><ele>1299.4</ele><time>2026-04-25T14:30:34.949Z</time></trkpt><trkpt lat="45.4683966" lon="7.692051"><ele>1296.2</ele><time>2026-04-25T14:30:35.956Z</time></trkpt><trkpt lat="45.4683056" lon="7.6919901"><ele>1293.0</ele><time>2026-04-25T14:30:36.969Z</time></trkpt><trkpt lat="45.4682147" lon="7.6919272"><ele>1291.6000000000001</ele><time>2026-04-25T14:30:38.034Z</time></trkpt><trkpt lat="45.4681229" lon="7.691854"><ele>1290.2</ele><time>2026-04-25T14:30:39.035Z</time></trkpt><trkpt lat="45.4680322" lon="7.6917819"><ele>1288.8</ele><time>2026-04-25T14:30:39.969Z</time></trkpt><trkpt lat="45.4679424" lon="7.6917021"><ele>1287.4</ele><time>2026-04-25T14:30:40.967Z</time></trkpt><trkpt lat="45.4678512" lon="7.6916227"><ele>1286.0</ele><time>2026-04-25T14:30:41.983Z</time></trkpt><trkpt lat="45.4677577" lon="7.6915441"><ele>1286.0</ele><time>2026-04-25T14:30:43.035Z</time></trkpt><trkpt lat="45.4676613" lon="7.6914621"><ele>1286.0</ele><time>2026-04-25T14:30:44.027Z</time></trkpt><trkpt lat="45.4675676" lon="7.6913872"><ele>1286.0</ele><time>2026-04-25T14:30:44.952Z</time></trkpt><trkpt lat="45.4674768" lon="7.6913053"><ele>1286.0</ele><time>2026-04-25T14:30:45.953Z</time></trkpt><trkpt lat="45.4673886" lon="7.6912203"><ele>1286.0</ele><time>2026-04-25T14:30:46.995Z</time></trkpt><trkpt lat="45.4672985" lon="7.6911406"><ele>1285.4</ele><time>2026-04-25T14:30:48.033Z</time></trkpt><trkpt lat="45.467208" lon="7.691084"><ele>1284.8</ele><time>2026-04-25T14:30:49.031Z</time></trkpt><trkpt lat="45.4671125" lon="7.6910511"><ele>1284.2</ele><time>2026-04-25T14:30:49.958Z</time></trkpt><trkpt lat="45.4670128" lon="7.6910286"><ele>1283.6000000000001</ele><time>2026-04-25T14:30:50.964Z</time></trkpt><trkpt lat="45.4669178" lon="7.6909883"><ele>1283.0</ele><time>2026-04-25T14:30:51.958Z</time></trkpt><trkpt lat="45.4668262" lon="7.690935"><ele>1283.0</ele><time>2026-04-25T14:30:52.962Z</time></trkpt><trkpt lat="45.4667394" lon="7.6908603"><ele>1283.0</ele><time>2026-04-25T14:30:53.958Z</time></trkpt><trkpt lat="45.4666503" lon="7.6907874"><ele>1283.0</ele><time>2026-04-25T14:30:54.959Z</time></trkpt><trkpt lat="45.4665593" lon="7.6907151"><ele>1283.0</ele><time>2026-04-25T14:30:55.958Z</time></trkpt><trkpt lat="45.4664641" lon="7.6906509"><ele>1283.0</ele><time>2026-04-25T14:30:56.954Z</time></trkpt><trkpt lat="45.4663728" lon="7.6905927"><ele>1283.0</ele><time>2026-04-25T14:30:57.955Z</time></trkpt><trkpt lat="45.4662944" lon="7.6905213"><ele>1283.0</ele><time>2026-04-25T14:30:59.011Z</time></trkpt><trkpt lat="45.4662366" lon="7.6904242"><ele>1283.0</ele><time>2026-04-25T14:30:59.953Z</time></trkpt><trkpt lat="45.4662007" lon="7.6903031"><ele>1283.0</ele><time>2026-04-25T14:31:00.957Z</time></trkpt><trkpt lat="45.4661815" lon="7.6901824"><ele>1283.0</ele><time>2026-04-25T14:31:01.961Z</time></trkpt><trkpt lat="45.4661802" lon="7.690059"><ele>1283.0</ele><time>2026-04-25T14:31:02.954Z</time></trkpt><trkpt lat="45.466194" lon="7.689933"><ele>1279.1666666666667</ele><time>2026-04-25T14:31:03.963Z</time></trkpt><trkpt lat="45.4662168" lon="7.6898007"><ele>1275.3333333333335</ele><time>2026-04-25T14:31:04.962Z</time></trkpt><trkpt lat="45.4662356" lon="7.6896772"><ele>1271.5</ele><time>2026-04-25T14:31:05.964Z</time></trkpt><trkpt lat="45.4662545" lon="7.6895546"><ele>1267.6666666666667</ele><time>2026-04-25T14:31:06.956Z</time></trkpt><trkpt lat="45.4662638" lon="7.6894306"><ele>1263.8333333333333</ele><time>2026-04-25T14:31:07.959Z</time></trkpt><trkpt lat="45.4662662" lon="7.6893044"><ele>1260.0</ele><time>2026-04-25T14:31:08.959Z</time></trkpt><trkpt lat="45.4662636" lon="7.6891783"><ele>1260.0</ele><time>2026-04-25T14:31:09.952Z</time></trkpt><trkpt lat="45.4662547" lon="7.6890753"><ele>1260.0</ele><time>2026-04-25T14:31:11.025Z</time></trkpt><trkpt lat="45.4662034" lon="7.6889598"><ele>1260.0</ele><time>2026-04-25T14:31:13.017Z</time></trkpt><trkpt lat="45.4661352" lon="7.688998"><ele>1260.0</ele><time>2026-04-25T14:31:14.944Z</time></trkpt><trkpt lat="45.4661248" lon="7.6891169"><ele>1260.0</ele><time>2026-04-25T14:31:16.948Z</time></trkpt><trkpt lat="45.4661444" lon="7.6892706"><ele>1260.0</ele><time>2026-04-25T14:31:19.018Z</time></trkpt><trkpt lat="45.4661223" lon="7.6894432"><ele>1260.0</ele><time>2026-04-25T14:31:20.951Z</time></trkpt><trkpt lat="45.4660906" lon="7.6895291"><ele>1260.0</ele><time>2026-04-25T14:31:21.951Z</time></trkpt><trkpt lat="45.4660595" lon="7.6896113"><ele>1260.0</ele><time>2026-04-25T14:31:22.949Z</time></trkpt><trkpt lat="45.4660184" lon="7.6897058"><ele>1260.0</ele><time>2026-04-25T14:31:23.956Z</time></trkpt><trkpt lat="45.4659743" lon="7.6897952"><ele>1260.0</ele><time>2026-04-25T14:31:24.956Z</time></trkpt><trkpt lat="45.4659259" lon="7.6898829"><ele>1260.0</ele><time>2026-04-25T14:31:25.952Z</time></trkpt><trkpt lat="45.4658794" lon="7.6899744"><ele>1260.0</ele><time>2026-04-25T14:31:27.011Z</time></trkpt><trkpt lat="45.4658435" lon="7.690082"><ele>1260.0</ele><time>2026-04-25T14:31:28.022Z</time></trkpt><trkpt lat="45.465811" lon="7.6901894"><ele>1260.0</ele><time>2026-04-25T14:31:28.956Z</time></trkpt><trkpt lat="45.4657821" lon="7.6902998"><ele>1260.0</ele><time>2026-04-25T14:31:29.954Z</time></trkpt><trkpt lat="45.465745" lon="7.6904112"><ele>1260.0</ele><time>2026-04-25T14:31:30.954Z</time></trkpt><trkpt lat="45.4657041" lon="7.6905211"><ele>1260.0</ele><time>2026-04-25T14:31:31.952Z</time></trkpt><trkpt lat="45.4656523" lon="7.6906217"><ele>1260.0</ele><time>2026-04-25T14:31:32.959Z</time></trkpt><trkpt lat="45.4655897" lon="7.6906976"><ele>1261.1666666666667</ele><time>2026-04-25T14:31:33.956Z</time></trkpt><trkpt lat="45.4655076" lon="7.6907388"><ele>1262.3333333333333</ele><time>2026-04-25T14:31:34.953Z</time></trkpt><trkpt lat="45.4654222" lon="7.6907785"><ele>1263.5</ele><time>2026-04-25T14:31:35.938Z</time></trkpt><trkpt lat="45.4653385" lon="7.6908003"><ele>1264.6666666666665</ele><time>2026-04-25T14:31:36.984Z</time></trkpt><trkpt lat="45.4652538" lon="7.6908283"><ele>1265.8333333333333</ele><time>2026-04-25T14:31:37.983Z</time></trkpt><trkpt lat="45.4651679" lon="7.6908596"><ele>1267.0</ele><time>2026-04-25T14:31:38.949Z</time></trkpt><trkpt lat="45.46508" lon="7.6908756"><ele>1262.8</ele><time>2026-04-25T14:31:39.95Z</time></trkpt><trkpt lat="45.4649859" lon="7.6908988"><ele>1258.6</ele><time>2026-04-25T14:31:40.954Z</time></trkpt><trkpt lat="45.4648994" lon="7.6909173"><ele>1254.3999999999999</ele><time>2026-04-25T14:31:41.958Z</time></trkpt><trkpt lat="45.4648102" lon="7.6909409"><ele>1250.2</ele><time>2026-04-25T14:31:42.952Z</time></trkpt><trkpt lat="45.464717" lon="7.6909746"><ele>1246.0</ele><time>2026-04-25T14:31:44.035Z</time></trkpt><trkpt lat="45.4646226" lon="7.6910144"><ele>1246.3999999999999</ele><time>2026-04-25T14:31:44.968Z</time></trkpt><trkpt lat="45.4645345" lon="7.6910733"><ele>1246.8</ele><time>2026-04-25T14:31:45.961Z</time></trkpt><trkpt lat="45.4644535" lon="7.6911459"><ele>1247.1999999999998</ele><time>2026-04-25T14:31:46.982Z</time></trkpt><trkpt lat="45.4643777" lon="7.6912264"><ele>1247.6</ele><time>2026-04-25T14:31:47.984Z</time></trkpt><trkpt lat="45.4643145" lon="7.6913022"><ele>1248.0</ele><time>2026-04-25T14:31:48.973Z</time></trkpt><trkpt lat="45.4642175" lon="7.6913514"><ele>1248.0</ele><time>2026-04-25T14:31:51.036Z</time></trkpt><trkpt lat="45.4641622" lon="7.6912734"><ele>1248.0</ele><time>2026-04-25T14:31:52.961Z</time></trkpt><trkpt lat="45.4642096" lon="7.6911388"><ele>1248.0</ele><time>2026-04-25T14:31:54.96Z</time></trkpt><trkpt lat="45.4642755" lon="7.6910353"><ele>1248.0</ele><time>2026-04-25T14:31:57.068Z</time></trkpt><trkpt lat="45.4643536" lon="7.6909111"><ele>1248.0</ele><time>2026-04-25T14:31:58.975Z</time></trkpt><trkpt lat="45.464424" lon="7.69077"><ele>1247.6666666666667</ele><time>2026-04-25T14:32:00.967Z</time></trkpt><trkpt lat="45.4645064" lon="7.6906412"><ele>1247.3333333333333</ele><time>2026-04-25T14:32:02.96Z</time></trkpt><trkpt lat="45.4645946" lon="7.6905216"><ele>1247.0</ele><time>2026-04-25T14:32:04.972Z</time></trkpt><trkpt lat="45.4646456" lon="7.690462"><ele>1246.6666666666665</ele><time>2026-04-25T14:32:05.975Z</time></trkpt><trkpt lat="45.4647001" lon="7.6904096"><ele>1246.3333333333333</ele><time>2026-04-25T14:32:06.975Z</time></trkpt><trkpt lat="45.4647587" lon="7.6903581"><ele>1246.0</ele><time>2026-04-25T14:32:07.974Z</time></trkpt><trkpt lat="45.4648213" lon="7.6903046"><ele>1243.0</ele><time>2026-04-25T14:32:08.968Z</time></trkpt><trkpt lat="45.4648785" lon="7.6902463"><ele>1240.0</ele><time>2026-04-25T14:32:09.957Z</time></trkpt><trkpt lat="45.4649336" lon="7.6901891"><ele>1237.0</ele><time>2026-04-25T14:32:10.959Z</time></trkpt><trkpt lat="45.464991" lon="7.6901274"><ele>1234.0</ele><time>2026-04-25T14:32:11.995Z</time></trkpt><trkpt lat="45.4650562" lon="7.6900175"><ele>1231.0</ele><time>2026-04-25T14:32:13.963Z</time></trkpt><trkpt lat="45.4649662" lon="7.6899542"><ele>1228.0</ele><time>2026-04-25T14:32:16.961Z</time></trkpt><trkpt lat="45.4649058" lon="7.6899873"><ele>1228.0</ele><time>2026-04-25T14:32:17.967Z</time></trkpt><trkpt lat="45.4647933" lon="7.690058"><ele>1228.0</ele><time>2026-04-25T14:32:19.966Z</time></trkpt><trkpt lat="45.4647233" lon="7.6900823"><ele>1228.0</ele><time>2026-04-25T14:32:20.946Z</time></trkpt><trkpt lat="45.4646393" lon="7.6901047"><ele>1228.0</ele><time>2026-04-25T14:32:21.96Z</time></trkpt><trkpt lat="45.4645602" lon="7.6901248"><ele>1228.0</ele><time>2026-04-25T14:32:22.96Z</time></trkpt><trkpt lat="45.4644763" lon="7.6901479"><ele>1228.0</ele><time>2026-04-25T14:32:23.954Z</time></trkpt><trkpt lat="45.4643909" lon="7.690162"><ele>1224.0</ele><time>2026-04-25T14:32:24.963Z</time></trkpt><trkpt lat="45.4643045" lon="7.6901565"><ele>1220.0</ele><time>2026-04-25T14:32:25.961Z</time></trkpt><trkpt lat="45.4642167" lon="7.6901401"><ele>1216.0</ele><time>2026-04-25T14:32:26.987Z</time></trkpt><trkpt lat="45.4641273" lon="7.6901233"><ele>1212.0</ele><time>2026-04-25T14:32:27.964Z</time></trkpt><trkpt lat="45.4640346" lon="7.690125"><ele>1208.0</ele><time>2026-04-25T14:32:28.956Z</time></trkpt><trkpt lat="45.4639397" lon="7.6901296"><ele>1208.0</ele><time>2026-04-25T14:32:29.951Z</time></trkpt><trkpt lat="45.4638394" lon="7.6901336"><ele>1208.0</ele><time>2026-04-25T14:32:30.961Z</time></trkpt><trkpt lat="45.4637371" lon="7.6901209"><ele>1208.0</ele><time>2026-04-25T14:32:31.965Z</time></trkpt><trkpt lat="45.4636397" lon="7.6901066"><ele>1208.0</ele><time>2026-04-25T14:32:32.962Z</time></trkpt><trkpt lat="45.4635277" lon="7.6901026"><ele>1208.0</ele><time>2026-04-25T14:32:33.961Z</time></trkpt><trkpt lat="45.4634226" lon="7.6901152"><ele>1207.0</ele><time>2026-04-25T14:32:34.965Z</time></trkpt><trkpt lat="45.4633155" lon="7.6901266"><ele>1206.0</ele><time>2026-04-25T14:32:35.973Z</time></trkpt><trkpt lat="45.4632104" lon="7.6901138"><ele>1205.0</ele><time>2026-04-25T14:32:36.968Z</time></trkpt><trkpt lat="45.4631161" lon="7.6900642"><ele>1204.0</ele><time>2026-04-25T14:32:37.963Z</time></trkpt><trkpt lat="45.4630318" lon="7.6899885"><ele>1203.0</ele><time>2026-04-25T14:32:38.961Z</time></trkpt><trkpt lat="45.4629499" lon="7.6899134"><ele>1204.2</ele><time>2026-04-25T14:32:39.97Z</time></trkpt><trkpt lat="45.462875" lon="7.689828"><ele>1205.4</ele><time>2026-04-25T14:32:40.968Z</time></trkpt><trkpt lat="45.4627973" lon="7.6897489"><ele>1206.6000000000001</ele><time>2026-04-25T14:32:41.958Z</time></trkpt><trkpt lat="45.4627142" lon="7.689687"><ele>1207.8</ele><time>2026-04-25T14:32:42.962Z</time></trkpt><trkpt lat="45.4626285" lon="7.6896266"><ele>1209.0</ele><time>2026-04-25T14:32:43.965Z</time></trkpt><trkpt lat="45.4625472" lon="7.6895529"><ele>1209.0</ele><time>2026-04-25T14:32:44.962Z</time></trkpt><trkpt lat="45.4624623" lon="7.6894771"><ele>1209.0</ele><time>2026-04-25T14:32:45.965Z</time></trkpt><trkpt lat="45.462385" lon="7.6893888"><ele>1209.0</ele><time>2026-04-25T14:32:46.959Z</time></trkpt><trkpt lat="45.4623063" lon="7.6892916"><ele>1209.0</ele><time>2026-04-25T14:32:47.962Z</time></trkpt><trkpt lat="45.4622312" lon="7.6891788"><ele>1209.0</ele><time>2026-04-25T14:32:48.959Z</time></trkpt><trkpt lat="45.462149" lon="7.6890651"><ele>1205.75</ele><time>2026-04-25T14:32:49.962Z</time></trkpt><trkpt lat="45.4620584" lon="7.6889694"><ele>1202.5</ele><time>2026-04-25T14:32:50.966Z</time></trkpt><trkpt lat="45.4619634" lon="7.6888738"><ele>1199.25</ele><time>2026-04-25T14:32:51.966Z</time></trkpt><trkpt lat="45.4618678" lon="7.6887662"><ele>1196.0</ele><time>2026-04-25T14:32:52.966Z</time></trkpt><trkpt lat="45.4617686" lon="7.6886568"><ele>1190.5</ele><time>2026-04-25T14:32:53.972Z</time></trkpt><trkpt lat="45.4616635" lon="7.6885594"><ele>1185.0</ele><time>2026-04-25T14:32:54.956Z</time></trkpt><trkpt lat="45.4615549" lon="7.6884658"><ele>1179.5</ele><time>2026-04-25T14:32:55.956Z</time></trkpt><trkpt lat="45.4614359" lon="7.6883702"><ele>1174.0</ele><time>2026-04-25T14:32:56.969Z</time></trkpt><trkpt lat="45.4613257" lon="7.6882777"><ele>1173.2</ele><time>2026-04-25T14:32:57.964Z</time></trkpt><trkpt lat="45.4612232" lon="7.6881993"><ele>1172.4</ele><time>2026-04-25T14:32:58.964Z</time></trkpt><trkpt lat="45.4611366" lon="7.6881315"><ele>1171.6</ele><time>2026-04-25T14:32:59.964Z</time></trkpt><trkpt lat="45.4610454" lon="7.688102"><ele>1170.8</ele><time>2026-04-25T14:33:00.972Z</time></trkpt><trkpt lat="45.460946" lon="7.6880893"><ele>1170.0</ele><time>2026-04-25T14:33:01.969Z</time></trkpt><trkpt lat="45.4608484" lon="7.6880952"><ele>1170.0</ele><time>2026-04-25T14:33:02.966Z</time></trkpt><trkpt lat="45.4607534" lon="7.6881258"><ele>1170.0</ele><time>2026-04-25T14:33:03.957Z</time></trkpt><trkpt lat="45.46067" lon="7.6881837"><ele>1170.0</ele><time>2026-04-25T14:33:04.954Z</time></trkpt><trkpt lat="45.4605997" lon="7.68829"><ele>1170.0</ele><time>2026-04-25T14:33:05.96Z</time></trkpt><trkpt lat="45.4605383" lon="7.6884082"><ele>1170.0</ele><time>2026-04-25T14:33:06.959Z</time></trkpt><trkpt lat="45.460463" lon="7.6885075"><ele>1171.0</ele><time>2026-04-25T14:33:07.959Z</time></trkpt><trkpt lat="45.4603749" lon="7.6885697"><ele>1172.0</ele><time>2026-04-25T14:33:08.975Z</time></trkpt><trkpt lat="45.4602789" lon="7.6886049"><ele>1173.0</ele><time>2026-04-25T14:33:09.953Z</time></trkpt><trkpt lat="45.4601861" lon="7.6886255"><ele>1174.0</ele><time>2026-04-25T14:33:10.946Z</time></trkpt><trkpt lat="45.4600867" lon="7.6886443"><ele>1175.0</ele><time>2026-04-25T14:33:11.95Z</time></trkpt><trkpt lat="45.4599957" lon="7.6886718"><ele>1175.0</ele><time>2026-04-25T14:33:12.978Z</time></trkpt><trkpt lat="45.459912" lon="7.688707"><ele>1175.0</ele><time>2026-04-25T14:33:13.95Z</time></trkpt><trkpt lat="45.4598232" lon="7.6887393"><ele>1175.0</ele><time>2026-04-25T14:33:14.947Z</time></trkpt><trkpt lat="45.459723" lon="7.6887434"><ele>1175.0</ele><time>2026-04-25T14:33:15.961Z</time></trkpt><trkpt lat="45.4596191" lon="7.6887286"><ele>1175.0</ele><time>2026-04-25T14:33:17.026Z</time></trkpt><trkpt lat="45.459531" lon="7.6886993"><ele>1172.2</ele><time>2026-04-25T14:33:18.029Z</time></trkpt><trkpt lat="45.4594293" lon="7.6886797"><ele>1169.4</ele><time>2026-04-25T14:33:19.019Z</time></trkpt><trkpt lat="45.4593285" lon="7.6886961"><ele>1166.6</ele><time>2026-04-25T14:33:19.951Z</time></trkpt><trkpt lat="45.4592304" lon="7.6887149"><ele>1163.8</ele><time>2026-04-25T14:33:20.942Z</time></trkpt><trkpt lat="45.4591331" lon="7.6887374"><ele>1161.0</ele><time>2026-04-25T14:33:21.959Z</time></trkpt><trkpt lat="45.4590356" lon="7.6887813"><ele>1161.0</ele><time>2026-04-25T14:33:22.953Z</time></trkpt><trkpt lat="45.4589338" lon="7.688836"><ele>1161.0</ele><time>2026-04-25T14:33:23.955Z</time></trkpt><trkpt lat="45.4588354" lon="7.6889025"><ele>1161.0</ele><time>2026-04-25T14:33:24.943Z</time></trkpt><trkpt lat="45.4587437" lon="7.6889736"><ele>1161.0</ele><time>2026-04-25T14:33:25.966Z</time></trkpt><trkpt lat="45.4586392" lon="7.6890402"><ele>1161.0</ele><time>2026-04-25T14:33:26.972Z</time></trkpt><trkpt lat="45.4585252" lon="7.6890865"><ele>1155.5</ele><time>2026-04-25T14:33:27.951Z</time></trkpt><trkpt lat="45.4584111" lon="7.6891201"><ele>1150.0</ele><time>2026-04-25T14:33:29.03Z</time></trkpt><trkpt lat="45.4582974" lon="7.6891582"><ele>1144.5</ele><time>2026-04-25T14:33:29.962Z</time></trkpt><trkpt lat="45.4581754" lon="7.6891802"><ele>1139.0</ele><time>2026-04-25T14:33:30.948Z</time></trkpt><trkpt lat="45.4580561" lon="7.6891888"><ele>1136.25</ele><time>2026-04-25T14:33:31.968Z</time></trkpt><trkpt lat="45.4579289" lon="7.6891829"><ele>1133.5</ele><time>2026-04-25T14:33:33.011Z</time></trkpt><trkpt lat="45.4578081" lon="7.6891797"><ele>1130.75</ele><time>2026-04-25T14:33:34.022Z</time></trkpt><trkpt lat="45.4576951" lon="7.6891592"><ele>1128.0</ele><time>2026-04-25T14:33:34.943Z</time></trkpt><trkpt lat="45.4575842" lon="7.6891429"><ele>1128.0</ele><time>2026-04-25T14:33:35.954Z</time></trkpt><trkpt lat="45.4574827" lon="7.6891266"><ele>1128.0</ele><time>2026-04-25T14:33:36.97Z</time></trkpt><trkpt lat="45.4573793" lon="7.6891168"><ele>1128.0</ele><time>2026-04-25T14:33:38.025Z</time></trkpt><trkpt lat="45.4572793" lon="7.689117"><ele>1128.0</ele><time>2026-04-25T14:33:39.006Z</time></trkpt><trkpt lat="45.4571868" lon="7.6891328"><ele>1128.0</ele><time>2026-04-25T14:33:39.943Z</time></trkpt><trkpt lat="45.4570937" lon="7.6891584"><ele>1126.3333333333333</ele><time>2026-04-25T14:33:40.937Z</time></trkpt><trkpt lat="45.4570017" lon="7.6892001"><ele>1124.6666666666667</ele><time>2026-04-25T14:33:41.939Z</time></trkpt><trkpt lat="45.4569178" lon="7.6892496"><ele>1123.0</ele><time>2026-04-25T14:33:43.006Z</time></trkpt><trkpt lat="45.4568386" lon="7.6892918"><ele>1121.3333333333335</ele><time>2026-04-25T14:33:43.949Z</time></trkpt><trkpt lat="45.4567572" lon="7.6893308"><ele>1119.6666666666667</ele><time>2026-04-25T14:33:44.944Z</time></trkpt><trkpt lat="45.4566737" lon="7.6893657"><ele>1118.0</ele><time>2026-04-25T14:33:45.938Z</time></trkpt><trkpt lat="45.4565963" lon="7.6894058"><ele>1119.5714285714287</ele><time>2026-04-25T14:33:47.045Z</time></trkpt><trkpt lat="45.4565212" lon="7.6894392"><ele>1121.1428571428573</ele><time>2026-04-25T14:33:48.028Z</time></trkpt><trkpt lat="45.4564499" lon="7.6894766"><ele>1122.7142857142858</ele><time>2026-04-25T14:33:49.03Z</time></trkpt><trkpt lat="45.4563817" lon="7.6895054"><ele>1124.2857142857142</ele><time>2026-04-25T14:33:49.948Z</time></trkpt><trkpt lat="45.4563147" lon="7.6895409"><ele>1125.8571428571427</ele><time>2026-04-25T14:33:50.945Z</time></trkpt><trkpt lat="45.456247" lon="7.6895733"><ele>1127.4285714285713</ele><time>2026-04-25T14:33:51.973Z</time></trkpt><trkpt lat="45.4561791" lon="7.6896084"><ele>1129.0</ele><time>2026-04-25T14:33:52.943Z</time></trkpt><trkpt lat="45.4561123" lon="7.6896421"><ele>1129.0</ele><time>2026-04-25T14:33:53.952Z</time></trkpt><trkpt lat="45.4560479" lon="7.6896742"><ele>1129.0</ele><time>2026-04-25T14:33:54.95Z</time></trkpt><trkpt lat="45.4559876" lon="7.6897042"><ele>1129.0</ele><time>2026-04-25T14:33:55.948Z</time></trkpt><trkpt lat="45.4558707" lon="7.6897622"><ele>1129.0</ele><time>2026-04-25T14:33:58.03Z</time></trkpt><trkpt lat="45.4557669" lon="7.6898351"><ele>1129.0</ele><time>2026-04-25T14:33:59.964Z</time></trkpt><trkpt lat="45.455665" lon="7.6899351"><ele>1129.0</ele><time>2026-04-25T14:34:01.956Z</time></trkpt><trkpt lat="45.4556143" lon="7.6899918"><ele>1129.0</ele><time>2026-04-25T14:34:02.95Z</time></trkpt><trkpt lat="45.4555073" lon="7.6900707"><ele>1129.0</ele><time>2026-04-25T14:34:04.955Z</time></trkpt><trkpt lat="45.455395" lon="7.6900959"><ele>1129.0</ele><time>2026-04-25T14:34:07.027Z</time></trkpt><trkpt lat="45.4552831" lon="7.6901002"><ele>1129.0</ele><time>2026-04-25T14:34:09.035Z</time></trkpt><trkpt lat="45.4551709" lon="7.6901041"><ele>1127.4</ele><time>2026-04-25T14:34:10.968Z</time></trkpt><trkpt lat="45.4550602" lon="7.6901213"><ele>1125.8000000000002</ele><time>2026-04-25T14:34:12.965Z</time></trkpt><trkpt lat="45.454955" lon="7.6901726"><ele>1124.1999999999998</ele><time>2026-04-25T14:34:14.966Z</time></trkpt><trkpt lat="45.454873" lon="7.6902509"><ele>1122.6</ele><time>2026-04-25T14:34:16.998Z</time></trkpt><trkpt lat="45.454792" lon="7.6903431"><ele>1121.0</ele><time>2026-04-25T14:34:18.962Z</time></trkpt><trkpt lat="45.4547175" lon="7.6904604"><ele>1121.0</ele><time>2026-04-25T14:34:20.967Z</time></trkpt><trkpt lat="45.4546681" lon="7.6906037"><ele>1121.0</ele><time>2026-04-25T14:34:22.965Z</time></trkpt><trkpt lat="45.4546483" lon="7.6906956"><ele>1121.0</ele><time>2026-04-25T14:34:24.045Z</time></trkpt><trkpt lat="45.4546411" lon="7.6907899"><ele>1121.0</ele><time>2026-04-25T14:34:24.961Z</time></trkpt><trkpt lat="45.4546376" lon="7.6908878"><ele>1121.0</ele><time>2026-04-25T14:34:25.955Z</time></trkpt><trkpt lat="45.4546419" lon="7.6910789"><ele>1121.0</ele><time>2026-04-25T14:34:28.04Z</time></trkpt><trkpt lat="45.4546372" lon="7.6911804"><ele>1116.0</ele><time>2026-04-25T14:34:28.966Z</time></trkpt><trkpt lat="45.4546131" lon="7.6912848"><ele>1111.0</ele><time>2026-04-25T14:34:29.965Z</time></trkpt><trkpt lat="45.4545674" lon="7.6913866"><ele>1106.0</ele><time>2026-04-25T14:34:30.97Z</time></trkpt><trkpt lat="45.4545155" lon="7.6914732"><ele>1101.0</ele><time>2026-04-25T14:34:31.964Z</time></trkpt><trkpt lat="45.4544646" lon="7.6915553"><ele>1096.0</ele><time>2026-04-25T14:34:33.075Z</time></trkpt><trkpt lat="45.4544146" lon="7.6916416"><ele>1091.0</ele><time>2026-04-25T14:34:34.026Z</time></trkpt><trkpt lat="45.4543715" lon="7.6917392"><ele>1091.0</ele><time>2026-04-25T14:34:34.958Z</time></trkpt><trkpt lat="45.454339" lon="7.6918449"><ele>1091.0</ele><time>2026-04-25T14:34:35.97Z</time></trkpt><trkpt lat="45.4543124" lon="7.6919552"><ele>1091.0</ele><time>2026-04-25T14:34:36.989Z</time></trkpt><trkpt lat="45.4542912" lon="7.6920777"><ele>1091.0</ele><time>2026-04-25T14:34:38.029Z</time></trkpt><trkpt lat="45.4542596" lon="7.6921916"><ele>1091.0</ele><time>2026-04-25T14:34:38.981Z</time></trkpt><trkpt lat="45.4542139" lon="7.6923063"><ele>1091.0</ele><time>2026-04-25T14:34:39.955Z</time></trkpt><trkpt lat="45.4541492" lon="7.6923934"><ele>1092.0</ele><time>2026-04-25T14:34:40.963Z</time></trkpt><trkpt lat="45.4540681" lon="7.6924673"><ele>1093.0</ele><time>2026-04-25T14:34:42.015Z</time></trkpt><trkpt lat="45.4539886" lon="7.6925307"><ele>1094.0</ele><time>2026-04-25T14:34:42.97Z</time></trkpt><trkpt lat="45.4539117" lon="7.6925996"><ele>1095.0</ele><time>2026-04-25T14:34:43.959Z</time></trkpt><trkpt lat="45.4538421" lon="7.6926683"><ele>1096.0</ele><time>2026-04-25T14:34:44.96Z</time></trkpt><trkpt lat="45.4537832" lon="7.6927454"><ele>1097.0</ele><time>2026-04-25T14:34:45.963Z</time></trkpt><trkpt lat="45.4537353" lon="7.692834"><ele>1093.8333333333335</ele><time>2026-04-25T14:34:46.964Z</time></trkpt><trkpt lat="45.4537279" lon="7.6929436"><ele>1090.6666666666667</ele><time>2026-04-25T14:34:48.017Z</time></trkpt><trkpt lat="45.453729" lon="7.6930613"><ele>1087.5</ele><time>2026-04-25T14:34:49.052Z</time></trkpt><trkpt lat="45.4537277" lon="7.6931779"><ele>1084.3333333333333</ele><time>2026-04-25T14:34:50.007Z</time></trkpt><trkpt lat="45.4537122" lon="7.6932837"><ele>1081.1666666666665</ele><time>2026-04-25T14:34:50.964Z</time></trkpt><trkpt lat="45.4536922" lon="7.6933795"><ele>1078.0</ele><time>2026-04-25T14:34:51.966Z</time></trkpt><trkpt lat="45.4536541" lon="7.6934524"><ele>1078.0</ele><time>2026-04-25T14:34:52.966Z</time></trkpt><trkpt lat="45.4535957" lon="7.6934903"><ele>1078.0</ele><time>2026-04-25T14:34:53.959Z</time></trkpt><trkpt lat="45.4535258" lon="7.693496"><ele>1078.0</ele><time>2026-04-25T14:34:54.96Z</time></trkpt><trkpt lat="45.4534596" lon="7.6934753"><ele>1078.0</ele><time>2026-04-25T14:34:56.043Z</time></trkpt><trkpt lat="45.4533367" lon="7.6934704"><ele>1078.0</ele><time>2026-04-25T14:34:58.031Z</time></trkpt><trkpt lat="45.4532743" lon="7.6935277"><ele>1078.0</ele><time>2026-04-25T14:34:59.028Z</time></trkpt><trkpt lat="45.4532237" lon="7.6936013"><ele>1076.0</ele><time>2026-04-25T14:34:59.951Z</time></trkpt><trkpt lat="45.4531764" lon="7.69367"><ele>1074.0</ele><time>2026-04-25T14:35:00.95Z</time></trkpt><trkpt lat="45.4531245" lon="7.6937467"><ele>1072.0</ele><time>2026-04-25T14:35:01.949Z</time></trkpt><trkpt lat="45.4530707" lon="7.6938176"><ele>1070.0</ele><time>2026-04-25T14:35:03.028Z</time></trkpt><trkpt lat="45.4530204" lon="7.6938959"><ele>1068.0</ele><time>2026-04-25T14:35:03.948Z</time></trkpt><trkpt lat="45.4529746" lon="7.6939701"><ele>1066.0</ele><time>2026-04-25T14:35:04.958Z</time></trkpt><trkpt lat="45.4529354" lon="7.6940504"><ele>1064.0</ele><time>2026-04-25T14:35:05.955Z</time></trkpt><trkpt lat="45.4529025" lon="7.6941411"><ele>1064.0</ele><time>2026-04-25T14:35:07.025Z</time></trkpt><trkpt lat="45.4528711" lon="7.6942264"><ele>1064.0</ele><time>2026-04-25T14:35:08.021Z</time></trkpt><trkpt lat="45.452834" lon="7.6943143"><ele>1064.0</ele><time>2026-04-25T14:35:09.017Z</time></trkpt><trkpt lat="45.4527883" lon="7.6943969"><ele>1064.0</ele><time>2026-04-25T14:35:09.946Z</time></trkpt><trkpt lat="45.4527378" lon="7.694472"><ele>1064.0</ele><time>2026-04-25T14:35:10.946Z</time></trkpt><trkpt lat="45.4526796" lon="7.6945326"><ele>1064.0</ele><time>2026-04-25T14:35:12.021Z</time></trkpt><trkpt lat="45.4526245" lon="7.6945872"><ele>1064.0</ele><time>2026-04-25T14:35:13.018Z</time></trkpt><trkpt lat="45.4525627" lon="7.6946396"><ele>1064.7142857142858</ele><time>2026-04-25T14:35:14.026Z</time></trkpt><trkpt lat="45.4525014" lon="7.6946895"><ele>1065.4285714285716</ele><time>2026-04-25T14:35:14.957Z</time></trkpt><trkpt lat="45.4524392" lon="7.6947397"><ele>1066.142857142857</ele><time>2026-04-25T14:35:15.968Z</time></trkpt><trkpt lat="45.452373" lon="7.6947808"><ele>1066.857142857143</ele><time>2026-04-25T14:35:16.965Z</time></trkpt><trkpt lat="45.4523033" lon="7.6948046"><ele>1067.5714285714287</ele><time>2026-04-25T14:35:18.02Z</time></trkpt><trkpt lat="45.452237" lon="7.6948325"><ele>1068.2857142857142</ele><time>2026-04-25T14:35:19.025Z</time></trkpt><trkpt lat="45.4521683" lon="7.6948524"><ele>1069.0</ele><time>2026-04-25T14:35:19.956Z</time></trkpt><trkpt lat="45.4521008" lon="7.6948696"><ele>1069.0</ele><time>2026-04-25T14:35:20.961Z</time></trkpt><trkpt lat="45.4520381" lon="7.6948853"><ele>1069.0</ele><time>2026-04-25T14:35:21.974Z</time></trkpt><trkpt lat="45.4519748" lon="7.6949103"><ele>1069.0</ele><time>2026-04-25T14:35:22.962Z</time></trkpt><trkpt lat="45.4519117" lon="7.6949339"><ele>1069.0</ele><time>2026-04-25T14:35:23.96Z</time></trkpt><trkpt lat="45.4518454" lon="7.6949552"><ele>1069.0</ele><time>2026-04-25T14:35:24.962Z</time></trkpt><trkpt lat="45.4517818" lon="7.6949844"><ele>1069.0</ele><time>2026-04-25T14:35:25.968Z</time></trkpt><trkpt lat="45.4517135" lon="7.6950169"><ele>1069.0</ele><time>2026-04-25T14:35:26.962Z</time></trkpt><trkpt lat="45.4516443" lon="7.6950464"><ele>1069.0</ele><time>2026-04-25T14:35:27.961Z</time></trkpt><trkpt lat="45.4515742" lon="7.6950761"><ele>1069.0</ele><time>2026-04-25T14:35:29.029Z</time></trkpt><trkpt lat="45.451508" lon="7.6951071"><ele>1069.0</ele><time>2026-04-25T14:35:29.96Z</time></trkpt><trkpt lat="45.4514403" lon="7.6951318"><ele>1069.0</ele><time>2026-04-25T14:35:31.006Z</time></trkpt><trkpt lat="45.4513666" lon="7.6951589"><ele>1069.0</ele><time>2026-04-25T14:35:31.946Z</time></trkpt><trkpt lat="45.4512975" lon="7.6951783"><ele>1069.0</ele><time>2026-04-25T14:35:32.949Z</time></trkpt><trkpt lat="45.4512298" lon="7.6951989"><ele>1069.0</ele><time>2026-04-25T14:35:33.93Z</time></trkpt><trkpt lat="45.4511605" lon="7.6952141"><ele>1069.5714285714287</ele><time>2026-04-25T14:35:34.94Z</time></trkpt><trkpt lat="45.4510955" lon="7.6952281"><ele>1070.1428571428573</ele><time>2026-04-25T14:35:35.945Z</time></trkpt><trkpt lat="45.4510344" lon="7.6952524"><ele>1070.7142857142858</ele><time>2026-04-25T14:35:37.012Z</time></trkpt><trkpt lat="45.4509696" lon="7.6952836"><ele>1071.2857142857142</ele><time>2026-04-25T14:35:38.039Z</time></trkpt><trkpt lat="45.450906" lon="7.6953118"><ele>1071.8571428571427</ele><time>2026-04-25T14:35:39.032Z</time></trkpt><trkpt lat="45.4508378" lon="7.6953405"><ele>1072.4285714285713</ele><time>2026-04-25T14:35:39.95Z</time></trkpt><trkpt lat="45.4507669" lon="7.6953593"><ele>1073.0</ele><time>2026-04-25T14:35:40.954Z</time></trkpt><trkpt lat="45.4506943" lon="7.695381"><ele>1073.0</ele><time>2026-04-25T14:35:41.949Z</time></trkpt><trkpt lat="45.4506233" lon="7.6954043"><ele>1073.0</ele><time>2026-04-25T14:35:42.949Z</time></trkpt><trkpt lat="45.4505553" lon="7.6954262"><ele>1073.0</ele><time>2026-04-25T14:35:43.952Z</time></trkpt><trkpt lat="45.4504832" lon="7.6954393"><ele>1073.0</ele><time>2026-04-25T14:35:44.951Z</time></trkpt><trkpt lat="45.4504126" lon="7.6954561"><ele>1073.0</ele><time>2026-04-25T14:35:46.035Z</time></trkpt><trkpt lat="45.4503467" lon="7.6954783"><ele>1073.0</ele><time>2026-04-25T14:35:46.943Z</time></trkpt><trkpt lat="45.4502771" lon="7.6954997"><ele>1073.0</ele><time>2026-04-25T14:35:48.03Z</time></trkpt><trkpt lat="45.4502127" lon="7.695515"><ele>1070.3333333333335</ele><time>2026-04-25T14:35:49.031Z</time></trkpt><trkpt lat="45.4501507" lon="7.6955346"><ele>1067.6666666666667</ele><time>2026-04-25T14:35:49.943Z</time></trkpt><trkpt lat="45.4500315" lon="7.6955654"><ele>1065.0</ele><time>2026-04-25T14:35:51.946Z</time></trkpt><trkpt lat="45.4499659" lon="7.6955744"><ele>1062.3333333333333</ele><time>2026-04-25T14:35:53.029Z</time></trkpt><trkpt lat="45.4498388" lon="7.6955677"><ele>1059.6666666666665</ele><time>2026-04-25T14:35:54.948Z</time></trkpt><trkpt lat="45.4497741" lon="7.6955692"><ele>1057.0</ele><time>2026-04-25T14:35:55.947Z</time></trkpt><trkpt lat="45.4496667" lon="7.6955242"><ele>1054.0</ele><time>2026-04-25T14:35:58.036Z</time></trkpt><trkpt lat="45.449575" lon="7.6954375"><ele>1051.0</ele><time>2026-04-25T14:35:59.963Z</time></trkpt><trkpt lat="45.4494945" lon="7.6953318"><ele>1048.0</ele><time>2026-04-25T14:36:01.994Z</time></trkpt><trkpt lat="45.4494242" lon="7.6952135"><ele>1045.0</ele><time>2026-04-25T14:36:03.973Z</time></trkpt><trkpt lat="45.4493665" lon="7.6950658"><ele>1042.0</ele><time>2026-04-25T14:36:06.019Z</time></trkpt><trkpt lat="45.4493237" lon="7.694959"><ele>1042.0</ele><time>2026-04-25T14:36:08.016Z</time></trkpt><trkpt lat="45.4492578" lon="7.6949703"><ele>1042.0</ele><time>2026-04-25T14:36:09.958Z</time></trkpt><trkpt lat="45.4491792" lon="7.6950576"><ele>1042.0</ele><time>2026-04-25T14:36:12.018Z</time></trkpt><trkpt lat="45.4490921" lon="7.6951928"><ele>1042.0</ele><time>2026-04-25T14:36:14.041Z</time></trkpt><trkpt lat="45.4490561" lon="7.6952778"><ele>1042.0</ele><time>2026-04-25T14:36:14.945Z</time></trkpt><trkpt lat="45.4490269" lon="7.6953793"><ele>1042.0</ele><time>2026-04-25T14:36:15.957Z</time></trkpt><trkpt lat="45.4490069" lon="7.6954846"><ele>1041.8333333333333</ele><time>2026-04-25T14:36:16.951Z</time></trkpt><trkpt lat="45.4489815" lon="7.6955934"><ele>1041.6666666666665</ele><time>2026-04-25T14:36:17.954Z</time></trkpt><trkpt lat="45.4489677" lon="7.6957082"><ele>1041.5</ele><time>2026-04-25T14:36:18.96Z</time></trkpt><trkpt lat="45.4489631" lon="7.6958269"><ele>1041.3333333333333</ele><time>2026-04-25T14:36:19.956Z</time></trkpt><trkpt lat="45.4489665" lon="7.6959478"><ele>1041.1666666666667</ele><time>2026-04-25T14:36:20.96Z</time></trkpt><trkpt lat="45.4489724" lon="7.6960772"><ele>1041.0</ele><time>2026-04-25T14:36:22.033Z</time></trkpt><trkpt lat="45.4489779" lon="7.6962031"><ele>1040.3999999999999</ele><time>2026-04-25T14:36:23.025Z</time></trkpt><trkpt lat="45.4489684" lon="7.6963368"><ele>1039.8</ele><time>2026-04-25T14:36:23.97Z</time></trkpt><trkpt lat="45.4489398" lon="7.6964776"><ele>1039.1999999999998</ele><time>2026-04-25T14:36:24.963Z</time></trkpt><trkpt lat="45.4488917" lon="7.6966017"><ele>1038.6</ele><time>2026-04-25T14:36:25.958Z</time></trkpt><trkpt lat="45.44884" lon="7.6967253"><ele>1038.0</ele><time>2026-04-25T14:36:26.961Z</time></trkpt><trkpt lat="45.4487952" lon="7.6968522"><ele>1031.5</ele><time>2026-04-25T14:36:27.963Z</time></trkpt><trkpt lat="45.4487435" lon="7.6969798"><ele>1025.0</ele><time>2026-04-25T14:36:29.077Z</time></trkpt><trkpt lat="45.4486046" lon="7.6972221"><ele>1018.5</ele><time>2026-04-25T14:36:31.04Z</time></trkpt><trkpt lat="45.4485357" lon="7.6973314"><ele>1012.0</ele><time>2026-04-25T14:36:32.027Z</time></trkpt><trkpt lat="45.4484775" lon="7.6974464"><ele>1012.0</ele><time>2026-04-25T14:36:32.981Z</time></trkpt><trkpt lat="45.4484343" lon="7.697571"><ele>1012.0</ele><time>2026-04-25T14:36:33.957Z</time></trkpt><trkpt lat="45.4484017" lon="7.6976953"><ele>1012.0</ele><time>2026-04-25T14:36:34.957Z</time></trkpt><trkpt lat="45.4483833" lon="7.6977974"><ele>1012.0</ele><time>2026-04-25T14:36:35.956Z</time></trkpt><trkpt lat="45.4484334" lon="7.6979098"><ele>1012.0</ele><time>2026-04-25T14:36:38.022Z</time></trkpt><trkpt lat="45.448524" lon="7.6979713"><ele>1011.25</ele><time>2026-04-25T14:36:39.958Z</time></trkpt><trkpt lat="45.4486138" lon="7.6980625"><ele>1010.5</ele><time>2026-04-25T14:36:42.034Z</time></trkpt><trkpt lat="45.4486744" lon="7.6982152"><ele>1009.75</ele><time>2026-04-25T14:36:44.006Z</time></trkpt><trkpt lat="45.4486391" lon="7.6983673"><ele>1009.0</ele><time>2026-04-25T14:36:45.948Z</time></trkpt><trkpt lat="45.4485861" lon="7.6984963"><ele>1008.8000000000001</ele><time>2026-04-25T14:36:48.003Z</time></trkpt><trkpt lat="45.4485216" lon="7.6986125"><ele>1008.6000000000001</ele><time>2026-04-25T14:36:49.939Z</time></trkpt><trkpt lat="45.4484428" lon="7.6987258"><ele>1008.4</ele><time>2026-04-25T14:36:51.964Z</time></trkpt><trkpt lat="45.448371" lon="7.6988621"><ele>1008.2</ele><time>2026-04-25T14:36:54.03Z</time></trkpt><trkpt lat="45.4483369" lon="7.6989379"><ele>1008.0</ele><time>2026-04-25T14:36:54.956Z</time></trkpt><trkpt lat="45.4483022" lon="7.699025"><ele>1008.0</ele><time>2026-04-25T14:36:55.947Z</time></trkpt><trkpt lat="45.4482666" lon="7.6991148"><ele>1008.0</ele><time>2026-04-25T14:36:56.961Z</time></trkpt><trkpt lat="45.4482327" lon="7.699206"><ele>1008.0</ele><time>2026-04-25T14:36:57.941Z</time></trkpt><trkpt lat="45.4481954" lon="7.6993044"><ele>1008.0</ele><time>2026-04-25T14:36:58.951Z</time></trkpt><trkpt lat="45.4481571" lon="7.6994063"><ele>1008.0</ele><time>2026-04-25T14:36:59.954Z</time></trkpt><trkpt lat="45.4481178" lon="7.6995013"><ele>1008.0</ele><time>2026-04-25T14:37:00.947Z</time></trkpt><trkpt lat="45.4480709" lon="7.6995886"><ele>1010.2</ele><time>2026-04-25T14:37:01.982Z</time></trkpt><trkpt lat="45.4480186" lon="7.6996751"><ele>1012.4</ele><time>2026-04-25T14:37:02.958Z</time></trkpt><trkpt lat="45.4479448" lon="7.6997533"><ele>1014.6000000000001</ele><time>2026-04-25T14:37:03.98Z</time></trkpt><trkpt lat="45.4478679" lon="7.6998268"><ele>1016.8000000000001</ele><time>2026-04-25T14:37:04.957Z</time></trkpt><trkpt lat="45.4477849" lon="7.6999012"><ele>1019.0</ele><time>2026-04-25T14:37:05.939Z</time></trkpt><trkpt lat="45.4477067" lon="7.6999747"><ele>1015.8333333333334</ele><time>2026-04-25T14:37:06.95Z</time></trkpt><trkpt lat="45.4476297" lon="7.7000408"><ele>1012.6666666666667</ele><time>2026-04-25T14:37:07.948Z</time></trkpt><trkpt lat="45.4475562" lon="7.7001022"><ele>1009.5</ele><time>2026-04-25T14:37:08.947Z</time></trkpt><trkpt lat="45.4474986" lon="7.7001711"><ele>1006.3333333333333</ele><time>2026-04-25T14:37:09.951Z</time></trkpt><trkpt lat="45.447459" lon="7.7002565"><ele>1003.1666666666666</ele><time>2026-04-25T14:37:10.948Z</time></trkpt><trkpt lat="45.4474295" lon="7.7003658"><ele>1000.0</ele><time>2026-04-25T14:37:11.951Z</time></trkpt><trkpt lat="45.447408" lon="7.7004793"><ele>999.9999999999999</ele><time>2026-04-25T14:37:12.952Z</time></trkpt><trkpt lat="45.4473899" lon="7.7005924"><ele>1000.0</ele><time>2026-04-25T14:37:13.947Z</time></trkpt><trkpt lat="45.4473666" lon="7.7007092"><ele>1000.0</ele><time>2026-04-25T14:37:14.956Z</time></trkpt><trkpt lat="45.4473454" lon="7.7008292"><ele>1000.0</ele><time>2026-04-25T14:37:15.954Z</time></trkpt><trkpt lat="45.4473317" lon="7.7009414"><ele>999.9999999999999</ele><time>2026-04-25T14:37:16.951Z</time></trkpt><trkpt lat="45.4473265" lon="7.7010604"><ele>1000.0</ele><time>2026-04-25T14:37:17.96Z</time></trkpt><trkpt lat="45.4473256" lon="7.7011792"><ele>999.1666666666666</ele><time>2026-04-25T14:37:18.951Z</time></trkpt><trkpt lat="45.4473099" lon="7.7012918"><ele>998.3333333333333</ele><time>2026-04-25T14:37:19.951Z</time></trkpt><trkpt lat="45.4472726" lon="7.7014019"><ele>997.5</ele><time>2026-04-25T14:37:20.945Z</time></trkpt><trkpt lat="45.4472189" lon="7.7015039"><ele>996.6666666666667</ele><time>2026-04-25T14:37:21.942Z</time></trkpt><trkpt lat="45.4471605" lon="7.7016008"><ele>995.8333333333334</ele><time>2026-04-25T14:37:22.948Z</time></trkpt><trkpt lat="45.4470954" lon="7.7016946"><ele>995.0</ele><time>2026-04-25T14:37:23.95Z</time></trkpt><trkpt lat="45.4470256" lon="7.7017745"><ele>991.4</ele><time>2026-04-25T14:37:24.948Z</time></trkpt><trkpt lat="45.4469445" lon="7.7018504"><ele>987.8</ele><time>2026-04-25T14:37:25.957Z</time></trkpt><trkpt lat="45.4468644" lon="7.7019265"><ele>984.2</ele><time>2026-04-25T14:37:26.95Z</time></trkpt><trkpt lat="45.4467836" lon="7.7020039"><ele>980.6</ele><time>2026-04-25T14:37:27.942Z</time></trkpt><trkpt lat="45.4467032" lon="7.7020768"><ele>977.0</ele><time>2026-04-25T14:37:28.951Z</time></trkpt><trkpt lat="45.446614" lon="7.7021489"><ele>977.0</ele><time>2026-04-25T14:37:29.944Z</time></trkpt><trkpt lat="45.446522" lon="7.7022227"><ele>977.0</ele><time>2026-04-25T14:37:30.967Z</time></trkpt><trkpt lat="45.44643" lon="7.7022994"><ele>977.0</ele><time>2026-04-25T14:37:31.959Z</time></trkpt><trkpt lat="45.4463344" lon="7.7023814"><ele>977.0</ele><time>2026-04-25T14:37:32.954Z</time></trkpt><trkpt lat="45.4462348" lon="7.7024689"><ele>977.0</ele><time>2026-04-25T14:37:33.946Z</time></trkpt><trkpt lat="45.4461371" lon="7.7025482"><ele>974.2</ele><time>2026-04-25T14:37:34.948Z</time></trkpt><trkpt lat="45.4460332" lon="7.702607"><ele>971.4000000000001</ele><time>2026-04-25T14:37:35.951Z</time></trkpt><trkpt lat="45.4459266" lon="7.702637"><ele>968.5999999999999</ele><time>2026-04-25T14:37:36.952Z</time></trkpt><trkpt lat="45.4458122" lon="7.7026324"><ele>965.8</ele><time>2026-04-25T14:37:37.949Z</time></trkpt><trkpt lat="45.4457024" lon="7.7026116"><ele>963.0</ele><time>2026-04-25T14:37:38.944Z</time></trkpt><trkpt lat="45.4455935" lon="7.7025933"><ele>963.0</ele><time>2026-04-25T14:37:39.951Z</time></trkpt><trkpt lat="45.4454752" lon="7.7025787"><ele>963.0</ele><time>2026-04-25T14:37:40.951Z</time></trkpt><trkpt lat="45.4453587" lon="7.7025645"><ele>963.0</ele><time>2026-04-25T14:37:41.96Z</time></trkpt><trkpt lat="45.4452484" lon="7.7025518"><ele>963.0</ele><time>2026-04-25T14:37:42.948Z</time></trkpt><trkpt lat="45.4451317" lon="7.7025448"><ele>960.4</ele><time>2026-04-25T14:37:43.95Z</time></trkpt><trkpt lat="45.4450174" lon="7.7025332"><ele>957.8</ele><time>2026-04-25T14:37:44.952Z</time></trkpt><trkpt lat="45.444906" lon="7.7025196"><ele>955.2</ele><time>2026-04-25T14:37:45.954Z</time></trkpt><trkpt lat="45.4448029" lon="7.7025172"><ele>952.6</ele><time>2026-04-25T14:37:46.951Z</time></trkpt><trkpt lat="45.4447109" lon="7.7025211"><ele>950.0</ele><time>2026-04-25T14:37:47.96Z</time></trkpt><trkpt lat="45.4446357" lon="7.7025586"><ele>950.0</ele><time>2026-04-25T14:37:48.939Z</time></trkpt><trkpt lat="45.4445695" lon="7.7025819"><ele>950.0</ele><time>2026-04-25T14:37:49.949Z</time></trkpt><trkpt lat="45.4444847" lon="7.702557"><ele>950.0</ele><time>2026-04-25T14:37:51.952Z</time></trkpt><trkpt lat="45.4445647" lon="7.7024076"><ele>950.0</ele><time>2026-04-25T14:37:54.96Z</time></trkpt><trkpt lat="45.4446547" lon="7.7023053"><ele>950.0</ele><time>2026-04-25T14:37:56.952Z</time></trkpt><trkpt lat="45.4447389" lon="7.7021821"><ele>950.0000000000001</ele><time>2026-04-25T14:37:58.957Z</time></trkpt><trkpt lat="45.4448221" lon="7.7020427"><ele>950.0</ele><time>2026-04-25T14:38:00.957Z</time></trkpt><trkpt lat="45.4448616" lon="7.7019722"><ele>950.0</ele><time>2026-04-25T14:38:01.965Z</time></trkpt><trkpt lat="45.4449033" lon="7.7018977"><ele>950.0</ele><time>2026-04-25T14:38:02.953Z</time></trkpt><trkpt lat="45.4449392" lon="7.7018165"><ele>950.0000000000001</ele><time>2026-04-25T14:38:03.954Z</time></trkpt><trkpt lat="45.4449615" lon="7.7017186"><ele>950.0</ele><time>2026-04-25T14:38:04.959Z</time></trkpt><trkpt lat="45.4449796" lon="7.7016242"><ele>947.8</ele><time>2026-04-25T14:38:05.95Z</time></trkpt><trkpt lat="45.4450233" lon="7.7014527"><ele>945.6</ele><time>2026-04-25T14:38:07.95Z</time></trkpt><trkpt lat="45.4450607" lon="7.7013719"><ele>943.4000000000001</ele><time>2026-04-25T14:38:08.947Z</time></trkpt><trkpt lat="45.4451472" lon="7.701262"><ele>941.2</ele><time>2026-04-25T14:38:10.951Z</time></trkpt><trkpt lat="45.4451872" lon="7.7011081"><ele>939.0</ele><time>2026-04-25T14:38:12.955Z</time></trkpt><trkpt lat="45.4451349" lon="7.700984"><ele>939.0</ele><time>2026-04-25T14:38:14.95Z</time></trkpt><trkpt lat="45.4450398" lon="7.70094"><ele>939.0000000000001</ele><time>2026-04-25T14:38:16.956Z</time></trkpt><trkpt lat="45.444965" lon="7.7008969"><ele>939.0000000000001</ele><time>2026-04-25T14:38:18.956Z</time></trkpt><trkpt lat="45.4448655" lon="7.7007606"><ele>939.0</ele><time>2026-04-25T14:38:21.951Z</time></trkpt><trkpt lat="45.4448217" lon="7.7006565"><ele>939.0</ele><time>2026-04-25T14:38:22.95Z</time></trkpt><trkpt lat="45.4447779" lon="7.7005397"><ele>939.0</ele><time>2026-04-25T14:38:23.949Z</time></trkpt><trkpt lat="45.444735" lon="7.7004302"><ele>939.0</ele><time>2026-04-25T14:38:24.954Z</time></trkpt><trkpt lat="45.4447008" lon="7.7003417"><ele>939.0</ele><time>2026-04-25T14:38:25.952Z</time></trkpt><trkpt lat="45.4446629" lon="7.7002567"><ele>939.0</ele><time>2026-04-25T14:38:26.951Z</time></trkpt><trkpt lat="45.4446379" lon="7.7001584"><ele>939.0</ele><time>2026-04-25T14:38:27.944Z</time></trkpt><trkpt lat="45.4446489" lon="7.6999809"><ele>939.0</ele><time>2026-04-25T14:38:29.952Z</time></trkpt><trkpt lat="45.4446824" lon="7.6998829"><ele>938.6666666666666</ele><time>2026-04-25T14:38:30.949Z</time></trkpt><trkpt lat="45.4447291" lon="7.6997921"><ele>938.3333333333333</ele><time>2026-04-25T14:38:31.952Z</time></trkpt><trkpt lat="45.44478" lon="7.6996901"><ele>938.0</ele><time>2026-04-25T14:38:32.944Z</time></trkpt><trkpt lat="45.4448419" lon="7.6996038"><ele>937.6666666666666</ele><time>2026-04-25T14:38:33.956Z</time></trkpt><trkpt lat="45.4449023" lon="7.6995168"><ele>937.3333333333333</ele><time>2026-04-25T14:38:34.941Z</time></trkpt><trkpt lat="45.4449493" lon="7.6994372"><ele>937.0</ele><time>2026-04-25T14:38:35.944Z</time></trkpt><trkpt lat="45.4449708" lon="7.6992838"><ele>936.8</ele><time>2026-04-25T14:38:37.952Z</time></trkpt><trkpt lat="45.4448968" lon="7.6991392"><ele>936.6</ele><time>2026-04-25T14:38:39.949Z</time></trkpt><trkpt lat="45.444837" lon="7.6990467"><ele>936.3999999999999</ele><time>2026-04-25T14:38:40.948Z</time></trkpt><trkpt lat="45.4447758" lon="7.6989325"><ele>936.1999999999999</ele><time>2026-04-25T14:38:41.95Z</time></trkpt><trkpt lat="45.444713" lon="7.6988076"><ele>936.0</ele><time>2026-04-25T14:38:42.943Z</time></trkpt><trkpt lat="45.4446507" lon="7.6986921"><ele>933.1666666666666</ele><time>2026-04-25T14:38:43.944Z</time></trkpt><trkpt lat="45.4445901" lon="7.6985843"><ele>930.3333333333333</ele><time>2026-04-25T14:38:44.947Z</time></trkpt><trkpt lat="45.4445312" lon="7.698488"><ele>927.5</ele><time>2026-04-25T14:38:45.955Z</time></trkpt><trkpt lat="45.4444918" lon="7.6983825"><ele>924.6666666666666</ele><time>2026-04-25T14:38:46.952Z</time></trkpt><trkpt lat="45.4444642" lon="7.6982802"><ele>921.8333333333333</ele><time>2026-04-25T14:38:47.95Z</time></trkpt><trkpt lat="45.4444404" lon="7.6981936"><ele>919.0</ele><time>2026-04-25T14:38:49.029Z</time></trkpt><trkpt lat="45.4443995" lon="7.6981218"><ele>918.9999999999999</ele><time>2026-04-25T14:38:49.95Z</time></trkpt><trkpt lat="45.4443383" lon="7.6980712"><ele>919.0</ele><time>2026-04-25T14:38:50.955Z</time></trkpt><trkpt lat="45.4442647" lon="7.6980353"><ele>919.0</ele><time>2026-04-25T14:38:51.974Z</time></trkpt><trkpt lat="45.4441835" lon="7.6980114"><ele>919.0</ele><time>2026-04-25T14:38:53.027Z</time></trkpt><trkpt lat="45.4440968" lon="7.6979828"><ele>918.9999999999999</ele><time>2026-04-25T14:38:54.027Z</time></trkpt><trkpt lat="45.4440086" lon="7.6979411"><ele>919.0</ele><time>2026-04-25T14:38:54.957Z</time></trkpt><trkpt lat="45.443928" lon="7.697882"><ele>918.9999999999999</ele><time>2026-04-25T14:38:56.05Z</time></trkpt><trkpt lat="45.4438584" lon="7.6978057"><ele>919.0</ele><time>2026-04-25T14:38:57.033Z</time></trkpt><trkpt lat="45.4438037" lon="7.6977178"><ele>919.0</ele><time>2026-04-25T14:38:58.025Z</time></trkpt><trkpt lat="45.4437492" lon="7.6976216"><ele>919.0</ele><time>2026-04-25T14:38:58.949Z</time></trkpt><trkpt lat="45.4436866" lon="7.6975359"><ele>918.9999999999999</ele><time>2026-04-25T14:38:59.945Z</time></trkpt><trkpt lat="45.4436142" lon="7.6974573"><ele>919.0</ele><time>2026-04-25T14:39:00.945Z</time></trkpt><trkpt lat="45.4435341" lon="7.6973839"><ele>916.2</ele><time>2026-04-25T14:39:01.957Z</time></trkpt><trkpt lat="45.4434535" lon="7.6973174"><ele>913.4000000000001</ele><time>2026-04-25T14:39:02.949Z</time></trkpt><trkpt lat="45.4433738" lon="7.6972483"><ele>910.6</ele><time>2026-04-25T14:39:04.019Z</time></trkpt><trkpt lat="45.4432946" lon="7.6971771"><ele>907.8</ele><time>2026-04-25T14:39:04.937Z</time></trkpt><trkpt lat="45.4432146" lon="7.6971034"><ele>905.0</ele><time>2026-04-25T14:39:06.053Z</time></trkpt><trkpt lat="45.4430588" lon="7.696967"><ele>904.0</ele><time>2026-04-25T14:39:07.954Z</time></trkpt><trkpt lat="45.4429746" lon="7.6969136"><ele>903.0</ele><time>2026-04-25T14:39:08.947Z</time></trkpt><trkpt lat="45.4428855" lon="7.6968605"><ele>902.0</ele><time>2026-04-25T14:39:09.945Z</time></trkpt><trkpt lat="45.4427995" lon="7.6968168"><ele>901.0</ele><time>2026-04-25T14:39:10.941Z</time></trkpt><trkpt lat="45.4427102" lon="7.6967833"><ele>900.0</ele><time>2026-04-25T14:39:11.95Z</time></trkpt><trkpt lat="45.442626" lon="7.6967509"><ele>898.6666666666666</ele><time>2026-04-25T14:39:12.975Z</time></trkpt><trkpt lat="45.4425375" lon="7.6967206"><ele>897.3333333333333</ele><time>2026-04-25T14:39:13.949Z</time></trkpt><trkpt lat="45.4424418" lon="7.6966862"><ele>896.0</ele><time>2026-04-25T14:39:14.946Z</time></trkpt><trkpt lat="45.44235" lon="7.6966563"><ele>894.6666666666666</ele><time>2026-04-25T14:39:15.945Z</time></trkpt><trkpt lat="45.442276" lon="7.6966336"><ele>893.3333333333333</ele><time>2026-04-25T14:39:16.953Z</time></trkpt><trkpt lat="45.4422047" lon="7.6966478"><ele>892.0</ele><time>2026-04-25T14:39:17.955Z</time></trkpt><trkpt lat="45.4421378" lon="7.6966872"><ele>889.9999999999999</ele><time>2026-04-25T14:39:18.949Z</time></trkpt><trkpt lat="45.4420739" lon="7.6967664"><ele>888.0</ele><time>2026-04-25T14:39:19.943Z</time></trkpt><trkpt lat="45.4420106" lon="7.6968525"><ele>886.0</ele><time>2026-04-25T14:39:21.011Z</time></trkpt><trkpt lat="45.4419606" lon="7.6969269"><ele>884.0</ele><time>2026-04-25T14:39:22.02Z</time></trkpt><trkpt lat="45.4418524" lon="7.6969577"><ele>881.9999999999999</ele><time>2026-04-25T14:39:24.015Z</time></trkpt><trkpt lat="45.4418012" lon="7.6969043"><ele>880.0</ele><time>2026-04-25T14:39:24.946Z</time></trkpt><trkpt lat="45.4417654" lon="7.6968042"><ele>879.9999999999999</ele><time>2026-04-25T14:39:25.947Z</time></trkpt><trkpt lat="45.4417348" lon="7.6966908"><ele>880.0</ele><time>2026-04-25T14:39:26.939Z</time></trkpt><trkpt lat="45.4417159" lon="7.6965764"><ele>880.0</ele><time>2026-04-25T14:39:27.95Z</time></trkpt><trkpt lat="45.4416907" lon="7.6964622"><ele>880.0</ele><time>2026-04-25T14:39:29.018Z</time></trkpt><trkpt lat="45.4416513" lon="7.696372"><ele>879.9999999999999</ele><time>2026-04-25T14:39:29.95Z</time></trkpt><trkpt lat="45.4416003" lon="7.6963054"><ele>880.0</ele><time>2026-04-25T14:39:31.008Z</time></trkpt><trkpt lat="45.4415233" lon="7.6962651"><ele>879.9999999999999</ele><time>2026-04-25T14:39:32.019Z</time></trkpt><trkpt lat="45.4414352" lon="7.6962425"><ele>880.0</ele><time>2026-04-25T14:39:33.013Z</time></trkpt><trkpt lat="45.441341" lon="7.6962261"><ele>880.0</ele><time>2026-04-25T14:39:34.005Z</time></trkpt><trkpt lat="45.4412534" lon="7.6962114"><ele>880.0</ele><time>2026-04-25T14:39:34.955Z</time></trkpt><trkpt lat="45.441185" lon="7.6962095"><ele>879.9999999999999</ele><time>2026-04-25T14:39:35.944Z</time></trkpt><trkpt lat="45.441095" lon="7.6962597"><ele>880.0</ele><time>2026-04-25T14:39:38.009Z</time></trkpt><trkpt lat="45.4410527" lon="7.6963331"><ele>875.6</ele><time>2026-04-25T14:39:39.013Z</time></trkpt><trkpt lat="45.4410323" lon="7.6964507"><ele>871.2</ele><time>2026-04-25T14:39:39.956Z</time></trkpt><trkpt lat="45.4410189" lon="7.6965914"><ele>866.8</ele><time>2026-04-25T14:39:40.95Z</time></trkpt><trkpt lat="45.4410197" lon="7.6967404"><ele>862.4</ele><time>2026-04-25T14:39:41.953Z</time></trkpt><trkpt lat="45.4410142" lon="7.6968667"><ele>858.0</ele><time>2026-04-25T14:39:43.004Z</time></trkpt><trkpt lat="45.4410094" lon="7.6969762"><ele>856.0</ele><time>2026-04-25T14:39:43.932Z</time></trkpt><trkpt lat="45.441029" lon="7.6970744"><ele>854.0</ele><time>2026-04-25T14:39:44.949Z</time></trkpt><trkpt lat="45.4410804" lon="7.6971578"><ele>852.0</ele><time>2026-04-25T14:39:45.949Z</time></trkpt><trkpt lat="45.4411393" lon="7.6972676"><ele>850.0</ele><time>2026-04-25T14:39:47.941Z</time></trkpt><trkpt lat="45.4411158" lon="7.6973653"><ele>848.0</ele><time>2026-04-25T14:39:50.948Z</time></trkpt><trkpt lat="45.4409665" lon="7.697308"><ele>848.0</ele><time>2026-04-25T14:39:53.022Z</time></trkpt><trkpt lat="45.4408781" lon="7.6972517"><ele>848.0</ele><time>2026-04-25T14:39:54.034Z</time></trkpt><trkpt lat="45.4407894" lon="7.697177"><ele>848.0</ele><time>2026-04-25T14:39:54.942Z</time></trkpt><trkpt lat="45.4407149" lon="7.6970792"><ele>848.0</ele><time>2026-04-25T14:39:55.946Z</time></trkpt><trkpt lat="45.4406458" lon="7.6969713"><ele>848.0</ele><time>2026-04-25T14:39:56.949Z</time></trkpt><trkpt lat="45.440586" lon="7.6968707"><ele>849.6666666666667</ele><time>2026-04-25T14:39:57.945Z</time></trkpt><trkpt lat="45.4405212" lon="7.6967907"><ele>851.3333333333334</ele><time>2026-04-25T14:39:58.942Z</time></trkpt><trkpt lat="45.4404507" lon="7.6967254"><ele>853.0</ele><time>2026-04-25T14:39:59.971Z</time></trkpt><trkpt lat="45.4403805" lon="7.6966949"><ele>854.6666666666667</ele><time>2026-04-25T14:40:00.958Z</time></trkpt><trkpt lat="45.4403106" lon="7.6966781"><ele>856.3333333333334</ele><time>2026-04-25T14:40:01.962Z</time></trkpt><trkpt lat="45.4402364" lon="7.6966438"><ele>858.0</ele><time>2026-04-25T14:40:02.946Z</time></trkpt><trkpt lat="45.4401567" lon="7.6966018"><ele>855.1666666666666</ele><time>2026-04-25T14:40:04.027Z</time></trkpt><trkpt lat="45.4400891" lon="7.6965598"><ele>852.3333333333333</ele><time>2026-04-25T14:40:04.933Z</time></trkpt><trkpt lat="45.4400356" lon="7.6964882"><ele>849.5</ele><time>2026-04-25T14:40:05.932Z</time></trkpt><trkpt lat="45.4399996" lon="7.6963703"><ele>846.6666666666666</ele><time>2026-04-25T14:40:06.97Z</time></trkpt><trkpt lat="45.4399613" lon="7.6962438"><ele>843.8333333333333</ele><time>2026-04-25T14:40:08.013Z</time></trkpt><trkpt lat="45.4399265" lon="7.6961077"><ele>841.0</ele><time>2026-04-25T14:40:09.011Z</time></trkpt><trkpt lat="45.4398929" lon="7.6959861"><ele>840.9999999999999</ele><time>2026-04-25T14:40:09.948Z</time></trkpt><trkpt lat="45.4398628" lon="7.695883"><ele>841.0</ele><time>2026-04-25T14:40:10.943Z</time></trkpt><trkpt lat="45.4398493" lon="7.6957705"><ele>841.0</ele><time>2026-04-25T14:40:12.033Z</time></trkpt><trkpt lat="45.4398338" lon="7.6956537"><ele>841.0</ele><time>2026-04-25T14:40:13.01Z</time></trkpt><trkpt lat="45.439798" lon="7.6955517"><ele>840.9999999999999</ele><time>2026-04-25T14:40:14.009Z</time></trkpt><trkpt lat="45.4397604" lon="7.6954492"><ele>841.0</ele><time>2026-04-25T14:40:14.945Z</time></trkpt><trkpt lat="45.4397323" lon="7.6953481"><ele>840.4</ele><time>2026-04-25T14:40:15.941Z</time></trkpt><trkpt lat="45.4397321" lon="7.6952423"><ele>839.8</ele><time>2026-04-25T14:40:16.952Z</time></trkpt><trkpt lat="45.4397391" lon="7.6950968"><ele>839.1999999999999</ele><time>2026-04-25T14:40:19.01Z</time></trkpt><trkpt lat="45.4396324" lon="7.6950334"><ele>838.5999999999999</ele><time>2026-04-25T14:40:21.949Z</time></trkpt><trkpt lat="45.4394994" lon="7.6950515"><ele>838.0</ele><time>2026-04-25T14:40:23.969Z</time></trkpt><trkpt lat="45.4394165" lon="7.6950955"><ele>835.8</ele><time>2026-04-25T14:40:24.948Z</time></trkpt><trkpt lat="45.4393224" lon="7.6951319"><ele>833.5999999999999</ele><time>2026-04-25T14:40:25.943Z</time></trkpt><trkpt lat="45.439243" lon="7.6951557"><ele>831.4000000000001</ele><time>2026-04-25T14:40:26.946Z</time></trkpt><trkpt lat="45.4391543" lon="7.695154"><ele>829.2</ele><time>2026-04-25T14:40:27.936Z</time></trkpt><trkpt lat="45.4390618" lon="7.6951298"><ele>827.0</ele><time>2026-04-25T14:40:28.939Z</time></trkpt><trkpt lat="45.4389666" lon="7.6950987"><ele>827.0000000000001</ele><time>2026-04-25T14:40:29.946Z</time></trkpt><trkpt lat="45.4388804" lon="7.6950597"><ele>827.0</ele><time>2026-04-25T14:40:30.946Z</time></trkpt><trkpt lat="45.4388037" lon="7.6950071"><ele>827.0</ele><time>2026-04-25T14:40:31.992Z</time></trkpt><trkpt lat="45.4387344" lon="7.6949464"><ele>827.0</ele><time>2026-04-25T14:40:32.948Z</time></trkpt><trkpt lat="45.4386786" lon="7.6948733"><ele>827.0000000000001</ele><time>2026-04-25T14:40:34.004Z</time></trkpt><trkpt lat="45.438643" lon="7.6947612"><ele>827.0</ele><time>2026-04-25T14:40:34.951Z</time></trkpt><trkpt lat="45.4386123" lon="7.6946299"><ele>826.6666666666667</ele><time>2026-04-25T14:40:35.953Z</time></trkpt><trkpt lat="45.4385686" lon="7.6945139"><ele>826.3333333333334</ele><time>2026-04-25T14:40:36.948Z</time></trkpt><trkpt lat="45.4385116" lon="7.694422"><ele>826.0</ele><time>2026-04-25T14:40:37.944Z</time></trkpt><trkpt lat="45.4384376" lon="7.6943592"><ele>825.6666666666667</ele><time>2026-04-25T14:40:38.949Z</time></trkpt><trkpt lat="45.4383521" lon="7.6942909"><ele>825.3333333333334</ele><time>2026-04-25T14:40:39.944Z</time></trkpt><trkpt lat="45.4382807" lon="7.6942311"><ele>825.0</ele><time>2026-04-25T14:40:41.009Z</time></trkpt><trkpt lat="45.4382136" lon="7.6941693"><ele>825.0</ele><time>2026-04-25T14:40:42.007Z</time></trkpt><trkpt lat="45.4381432" lon="7.6941057"><ele>825.0</ele><time>2026-04-25T14:40:43.008Z</time></trkpt><trkpt lat="45.4380671" lon="7.6940316"><ele>825.0</ele><time>2026-04-25T14:40:44.005Z</time></trkpt><trkpt lat="45.4379849" lon="7.6939603"><ele>825.0</ele><time>2026-04-25T14:40:44.95Z</time></trkpt><trkpt lat="45.4379033" lon="7.6938958"><ele>825.0</ele><time>2026-04-25T14:40:45.943Z</time></trkpt><trkpt lat="45.4378219" lon="7.6938164"><ele>825.0</ele><time>2026-04-25T14:40:46.953Z</time></trkpt><trkpt lat="45.4377449" lon="7.6937387"><ele>825.0</ele><time>2026-04-25T14:40:48.009Z</time></trkpt><trkpt lat="45.4376751" lon="7.6936688"><ele>825.0</ele><time>2026-04-25T14:40:49.007Z</time></trkpt><trkpt lat="45.4376146" lon="7.6935996"><ele>825.0</ele><time>2026-04-25T14:40:49.947Z</time></trkpt><trkpt lat="45.4375708" lon="7.6935322"><ele>825.0</ele><time>2026-04-25T14:40:50.937Z</time></trkpt><trkpt lat="45.4374975" lon="7.6933998"><ele>825.0</ele><time>2026-04-25T14:40:53.007Z</time></trkpt><trkpt lat="45.4374707" lon="7.6933135"><ele>825.0</ele><time>2026-04-25T14:40:54.014Z</time></trkpt><trkpt lat="45.4374475" lon="7.6931984"><ele>825.0</ele><time>2026-04-25T14:40:54.941Z</time></trkpt><trkpt lat="45.4374141" lon="7.6930723"><ele>825.0</ele><time>2026-04-25T14:40:55.941Z</time></trkpt><trkpt lat="45.4373827" lon="7.6929356"><ele>825.0</ele><time>2026-04-25T14:40:56.958Z</time></trkpt><trkpt lat="45.4373572" lon="7.6928125"><ele>825.0</ele><time>2026-04-25T14:40:58.015Z</time></trkpt><trkpt lat="45.437325" lon="7.6926989"><ele>823.4</ele><time>2026-04-25T14:40:59.003Z</time></trkpt><trkpt lat="45.4372977" lon="7.6925768"><ele>821.8</ele><time>2026-04-25T14:40:59.943Z</time></trkpt><trkpt lat="45.4372644" lon="7.692457"><ele>820.2</ele><time>2026-04-25T14:41:00.949Z</time></trkpt><trkpt lat="45.4372334" lon="7.6923394"><ele>818.6</ele><time>2026-04-25T14:41:01.961Z</time></trkpt><trkpt lat="45.4371987" lon="7.6922155"><ele>817.0</ele><time>2026-04-25T14:41:03.009Z</time></trkpt><trkpt lat="45.4371613" lon="7.692101"><ele>817.8</ele><time>2026-04-25T14:41:04.03Z</time></trkpt><trkpt lat="45.437116" lon="7.691987"><ele>818.6</ele><time>2026-04-25T14:41:04.955Z</time></trkpt><trkpt lat="45.4370669" lon="7.6918725"><ele>819.4</ele><time>2026-04-25T14:41:05.964Z</time></trkpt><trkpt lat="45.4370089" lon="7.6917679"><ele>820.1999999999999</ele><time>2026-04-25T14:41:06.965Z</time></trkpt><trkpt lat="45.4369484" lon="7.6916586"><ele>821.0</ele><time>2026-04-25T14:41:07.951Z</time></trkpt><trkpt lat="45.4368761" lon="7.6915573"><ele>821.0</ele><time>2026-04-25T14:41:08.953Z</time></trkpt><trkpt lat="45.4368018" lon="7.691457"><ele>821.0</ele><time>2026-04-25T14:41:09.957Z</time></trkpt><trkpt lat="45.4367289" lon="7.691354"><ele>821.0</ele><time>2026-04-25T14:41:10.959Z</time></trkpt><trkpt lat="45.4366571" lon="7.6912584"><ele>821.0</ele><time>2026-04-25T14:41:11.964Z</time></trkpt><trkpt lat="45.4365887" lon="7.6911612"><ele>821.0</ele><time>2026-04-25T14:41:12.962Z</time></trkpt><trkpt lat="45.436517" lon="7.6910684"><ele>818.6666666666667</ele><time>2026-04-25T14:41:14.034Z</time></trkpt><trkpt lat="45.4364481" lon="7.6909829"><ele>816.3333333333334</ele><time>2026-04-25T14:41:14.96Z</time></trkpt><trkpt lat="45.4363814" lon="7.6909025"><ele>814.0</ele><time>2026-04-25T14:41:15.964Z</time></trkpt><trkpt lat="45.4363141" lon="7.690837"><ele>811.6666666666667</ele><time>2026-04-25T14:41:16.981Z</time></trkpt><trkpt lat="45.4362401" lon="7.6907825"><ele>809.3333333333334</ele><time>2026-04-25T14:41:17.966Z</time></trkpt><trkpt lat="45.4361649" lon="7.6907323"><ele>807.0</ele><time>2026-04-25T14:41:18.963Z</time></trkpt><trkpt lat="45.4360994" lon="7.6907021"><ele>807.0</ele><time>2026-04-25T14:41:19.968Z</time></trkpt><trkpt lat="45.4360439" lon="7.6906571"><ele>807.0</ele><time>2026-04-25T14:41:21.958Z</time></trkpt><trkpt lat="45.4361149" lon="7.6906182"><ele>807.0</ele><time>2026-04-25T14:41:25.967Z</time></trkpt><trkpt lat="45.4362072" lon="7.6906166"><ele>807.0</ele><time>2026-04-25T14:41:27.966Z</time></trkpt><trkpt lat="45.4363218" lon="7.6906027"><ele>807.0</ele><time>2026-04-25T14:41:29.965Z</time></trkpt><trkpt lat="45.4364353" lon="7.6906012"><ele>806.4000000000001</ele><time>2026-04-25T14:41:32.024Z</time></trkpt><trkpt lat="45.4365381" lon="7.6906114"><ele>805.8000000000001</ele><time>2026-04-25T14:41:34.028Z</time></trkpt><trkpt lat="45.4366302" lon="7.6906369"><ele>805.2</ele><time>2026-04-25T14:41:35.964Z</time></trkpt><trkpt lat="45.4367226" lon="7.6906768"><ele>804.6</ele><time>2026-04-25T14:41:38.045Z</time></trkpt><trkpt lat="45.4368194" lon="7.6907227"><ele>804.0</ele><time>2026-04-25T14:41:39.991Z</time></trkpt><trkpt lat="45.4369181" lon="7.690776"><ele>804.0</ele><time>2026-04-25T14:41:42.032Z</time></trkpt><trkpt lat="45.4370156" lon="7.6908611"><ele>804.0</ele><time>2026-04-25T14:41:44.031Z</time></trkpt><trkpt lat="45.4371049" lon="7.6909442"><ele>804.0</ele><time>2026-04-25T14:41:45.961Z</time></trkpt><trkpt lat="45.437196" lon="7.6910014"><ele>804.0</ele><time>2026-04-25T14:41:47.952Z</time></trkpt><trkpt lat="45.4372723" lon="7.6910536"><ele>804.0</ele><time>2026-04-25T14:41:49.955Z</time></trkpt><trkpt lat="45.4373371" lon="7.6910936"><ele>804.8000000000001</ele><time>2026-04-25T14:41:52.038Z</time></trkpt><trkpt lat="45.4374139" lon="7.691137"><ele>805.6</ele><time>2026-04-25T14:41:53.948Z</time></trkpt><trkpt lat="45.4375021" lon="7.6911832"><ele>806.4</ele><time>2026-04-25T14:41:55.95Z</time></trkpt><trkpt lat="45.437594" lon="7.6912307"><ele>807.2</ele><time>2026-04-25T14:41:57.95Z</time></trkpt><trkpt lat="45.4376938" lon="7.6912699"><ele>808.0</ele><time>2026-04-25T14:41:59.965Z</time></trkpt><trkpt lat="45.4377874" lon="7.6913158"><ele>807.9999999999999</ele><time>2026-04-25T14:42:01.992Z</time></trkpt><trkpt lat="45.4378503" lon="7.6913256"><ele>808.0</ele><time>2026-04-25T14:42:03.963Z</time></trkpt><trkpt lat="45.4379073" lon="7.6912591"><ele>808.0</ele><time>2026-04-25T14:42:06.963Z</time></trkpt><trkpt lat="45.437894" lon="7.6911307"><ele>808.0</ele><time>2026-04-25T14:42:09.96Z</time></trkpt><trkpt lat="45.4378473" lon="7.6910413"><ele>807.9999999999999</ele><time>2026-04-25T14:42:11.966Z</time></trkpt><trkpt lat="45.4377941" lon="7.6909536"><ele>808.0</ele><time>2026-04-25T14:42:13.972Z</time></trkpt><trkpt lat="45.437724" lon="7.6908533"><ele>804.2</ele><time>2026-04-25T14:42:15.958Z</time></trkpt><trkpt lat="45.4376511" lon="7.6907416"><ele>800.4</ele><time>2026-04-25T14:42:17.961Z</time></trkpt><trkpt lat="45.4375946" lon="7.6906395"><ele>796.6</ele><time>2026-04-25T14:42:19.96Z</time></trkpt><trkpt lat="45.4375294" lon="7.690563"><ele>792.8000000000001</ele><time>2026-04-25T14:42:21.971Z</time></trkpt><trkpt lat="45.4374506" lon="7.6904646"><ele>789.0</ele><time>2026-04-25T14:42:23.966Z</time></trkpt><trkpt lat="45.4373624" lon="7.6903567"><ele>788.4000000000001</ele><time>2026-04-25T14:42:26.026Z</time></trkpt><trkpt lat="45.4373027" lon="7.6902373"><ele>787.8</ele><time>2026-04-25T14:42:28.022Z</time></trkpt><trkpt lat="45.4372507" lon="7.6901044"><ele>787.2</ele><time>2026-04-25T14:42:29.953Z</time></trkpt><trkpt lat="45.4372022" lon="7.6899814"><ele>786.5999999999999</ele><time>2026-04-25T14:42:31.953Z</time></trkpt><trkpt lat="45.4371462" lon="7.6898844"><ele>786.0</ele><time>2026-04-25T14:42:33.955Z</time></trkpt><trkpt lat="45.4370879" lon="7.6897764"><ele>786.0</ele><time>2026-04-25T14:42:35.95Z</time></trkpt><trkpt lat="45.4370185" lon="7.6896658"><ele>786.0</ele><time>2026-04-25T14:42:37.957Z</time></trkpt><trkpt lat="45.4369435" lon="7.6895617"><ele>786.0</ele><time>2026-04-25T14:42:39.94Z</time></trkpt><trkpt lat="45.4368646" lon="7.6894781"><ele>786.0</ele><time>2026-04-25T14:42:41.989Z</time></trkpt><trkpt lat="45.4367853" lon="7.6894053"><ele>786.0</ele><time>2026-04-25T14:42:43.951Z</time></trkpt><trkpt lat="45.4366819" lon="7.6893664"><ele>780.1999999999999</ele><time>2026-04-25T14:42:45.953Z</time></trkpt><trkpt lat="45.4365734" lon="7.6893313"><ele>774.4</ele><time>2026-04-25T14:42:47.947Z</time></trkpt><trkpt lat="45.4364727" lon="7.6892937"><ele>768.6</ele><time>2026-04-25T14:42:49.958Z</time></trkpt><trkpt lat="45.4363694" lon="7.6892676"><ele>762.8</ele><time>2026-04-25T14:42:51.954Z</time></trkpt><trkpt lat="45.4362794" lon="7.6892424"><ele>757.0</ele><time>2026-04-25T14:42:53.952Z</time></trkpt><trkpt lat="45.436201" lon="7.6892177"><ele>756.0</ele><time>2026-04-25T14:43:16.955Z</time></trkpt><trkpt lat="45.4361315" lon="7.6891851"><ele>755.0</ele><time>2026-04-25T14:43:19.014Z</time></trkpt><trkpt lat="45.4360231" lon="7.689133"><ele>754.0</ele><time>2026-04-25T14:43:20.955Z</time></trkpt><trkpt lat="45.4358978" lon="7.6890977"><ele>753.0</ele><time>2026-04-25T14:43:22.953Z</time></trkpt><trkpt lat="45.4358228" lon="7.6890801"><ele>752.0</ele><time>2026-04-25T14:43:23.948Z</time></trkpt><trkpt lat="45.435751" lon="7.6890651"><ele>752.0</ele><time>2026-04-25T14:43:24.954Z</time></trkpt><trkpt lat="45.4356836" lon="7.689051"><ele>752.0</ele><time>2026-04-25T14:43:26.024Z</time></trkpt><trkpt lat="45.4356109" lon="7.6890398"><ele>752.0</ele><time>2026-04-25T14:43:27.021Z</time></trkpt><trkpt lat="45.4355468" lon="7.6890312"><ele>752.0</ele><time>2026-04-25T14:43:28.007Z</time></trkpt><trkpt lat="45.4354756" lon="7.6889909"><ele>752.0</ele><time>2026-04-25T14:43:29.95Z</time></trkpt><trkpt lat="45.4354093" lon="7.6889525"><ele>752.0</ele><time>2026-04-25T14:43:36.951Z</time></trkpt><trkpt lat="45.4353175" lon="7.6890017"><ele>753.0</ele><time>2026-04-25T14:44:02.944Z</time></trkpt><trkpt lat="45.4352571" lon="7.6890656"><ele>754.0</ele><time>2026-04-25T14:44:20.938Z</time></trkpt><trkpt lat="45.4351844" lon="7.6889653"><ele>755.0</ele><time>2026-04-25T14:45:03.953Z</time></trkpt><trkpt lat="45.4351688" lon="7.6888766"><ele>756.0</ele><time>2026-04-25T14:45:06.957Z</time></trkpt><trkpt lat="45.4351408" lon="7.688796"><ele>757.0</ele><time>2026-04-25T14:45:23.959Z</time></trkpt><trkpt lat="45.4350766" lon="7.6887417"><ele>758.0</ele><time>2026-04-25T14:45:27.959Z</time></trkpt><trkpt lat="45.4350086" lon="7.6886887"><ele>758.0</ele><time>2026-04-25T14:45:48.042Z</time></trkpt><trkpt lat="45.4349357" lon="7.6886391"><ele>758.0</ele><time>2026-04-25T14:45:51.938Z</time></trkpt><trkpt lat="45.4348533" lon="7.6885956"><ele>758.0</ele><time>2026-04-25T14:45:54.958Z</time></trkpt><trkpt lat="45.4347766" lon="7.6885575"><ele>758.0</ele><time>2026-04-25T14:45:58.026Z</time></trkpt><trkpt lat="45.4346872" lon="7.6885218"><ele>758.0</ele><time>2026-04-25T14:46:00.952Z</time></trkpt><trkpt lat="45.4346047" lon="7.6884909"><ele>758.0</ele><time>2026-04-25T14:46:04.027Z</time></trkpt><trkpt lat="45.4345392" lon="7.6884649"><ele>752.1666666666666</ele><time>2026-04-25T14:46:05.96Z</time></trkpt><trkpt lat="45.434467" lon="7.6884254"><ele>746.3333333333333</ele><time>2026-04-25T14:46:07.955Z</time></trkpt><trkpt lat="45.4343964" lon="7.6884019"><ele>740.5</ele><time>2026-04-25T14:46:10.957Z</time></trkpt><trkpt lat="45.4343313" lon="7.6883731"><ele>734.6666666666666</ele><time>2026-04-25T14:46:14.953Z</time></trkpt><trkpt lat="45.4342411" lon="7.6883506"><ele>728.8333333333334</ele><time>2026-04-25T14:46:18.962Z</time></trkpt><trkpt lat="45.434172" lon="7.6883309"><ele>723.0</ele><time>2026-04-25T14:46:20.948Z</time></trkpt><trkpt lat="45.4340995" lon="7.6882891"><ele>723.0</ele><time>2026-04-25T14:46:22.953Z</time></trkpt><trkpt lat="45.4339929" lon="7.6882437"><ele>723.0</ele><time>2026-04-25T14:46:25.953Z</time></trkpt><trkpt lat="45.4339243" lon="7.688232"><ele>723.0</ele><time>2026-04-25T14:46:27.963Z</time></trkpt><trkpt lat="45.433858" lon="7.6882285"><ele>723.0</ele><time>2026-04-25T14:46:29.96Z</time></trkpt><trkpt lat="45.4337879" lon="7.6882208"><ele>723.0</ele><time>2026-04-25T14:46:31.957Z</time></trkpt><trkpt lat="45.4337119" lon="7.6882112"><ele>723.0</ele><time>2026-04-25T14:46:33.959Z</time></trkpt><trkpt lat="45.4336252" lon="7.6882002"><ele>723.5</ele><time>2026-04-25T14:46:36.025Z</time></trkpt><trkpt lat="45.4335465" lon="7.6881498"><ele>724.0</ele><time>2026-04-25T14:46:37.085Z</time></trkpt><trkpt lat="45.4334681" lon="7.6880885"><ele>724.5</ele><time>2026-04-25T14:46:38.951Z</time></trkpt><trkpt lat="45.433383" lon="7.6880452"><ele>725.0</ele><time>2026-04-25T14:46:40.951Z</time></trkpt><trkpt lat="45.4333156" lon="7.6880041"><ele>725.5</ele><time>2026-04-25T14:46:42.953Z</time></trkpt><trkpt lat="45.4332399" lon="7.6879603"><ele>726.0</ele><time>2026-04-25T14:46:44.951Z</time></trkpt><trkpt lat="45.433141" lon="7.6879232"><ele>726.0</ele><time>2026-04-25T14:46:46.95Z</time></trkpt><trkpt lat="45.4330442" lon="7.6878929"><ele>726.0</ele><time>2026-04-25T14:46:48.95Z</time></trkpt><trkpt lat="45.4329611" lon="7.6878538"><ele>726.0</ele><time>2026-04-25T14:46:50.952Z</time></trkpt><trkpt lat="45.4328766" lon="7.6878217"><ele>726.0</ele><time>2026-04-25T14:46:52.95Z</time></trkpt><trkpt lat="45.4327734" lon="7.6877859"><ele>726.0</ele><time>2026-04-25T14:46:54.958Z</time></trkpt><trkpt lat="45.4326849" lon="7.6877627"><ele>725.8333333333334</ele><time>2026-04-25T14:46:57.029Z</time></trkpt><trkpt lat="45.4326063" lon="7.6877602"><ele>725.6666666666666</ele><time>2026-04-25T14:46:58.957Z</time></trkpt><trkpt lat="45.4325141" lon="7.6877766"><ele>725.5</ele><time>2026-04-25T14:47:00.952Z</time></trkpt><trkpt lat="45.4324118" lon="7.6877943"><ele>725.3333333333333</ele><time>2026-04-25T14:47:02.948Z</time></trkpt><trkpt lat="45.4323389" lon="7.6878027"><ele>725.1666666666666</ele><time>2026-04-25T14:47:05.955Z</time></trkpt><trkpt lat="45.4322687" lon="7.6877845"><ele>725.0</ele><time>2026-04-25T14:47:10.988Z</time></trkpt><trkpt lat="45.432158" lon="7.6877578"><ele>719.1666666666666</ele><time>2026-04-25T14:47:12.95Z</time></trkpt><trkpt lat="45.4320382" lon="7.6877314"><ele>713.3333333333333</ele><time>2026-04-25T14:47:14.952Z</time></trkpt><trkpt lat="45.4319554" lon="7.6877327"><ele>707.5</ele><time>2026-04-25T14:47:16.948Z</time></trkpt><trkpt lat="45.431887" lon="7.6877224"><ele>701.6666666666666</ele><time>2026-04-25T14:47:18.943Z</time></trkpt><trkpt lat="45.4318098" lon="7.6877038"><ele>695.8333333333334</ele><time>2026-04-25T14:47:20.955Z</time></trkpt><trkpt lat="45.4317316" lon="7.6876877"><ele>690.0</ele><time>2026-04-25T14:47:22.952Z</time></trkpt><trkpt lat="45.4316552" lon="7.6876699"><ele>690.0</ele><time>2026-04-25T14:47:24.954Z</time></trkpt><trkpt lat="45.4315838" lon="7.6876622"><ele>690.0</ele><time>2026-04-25T14:47:26.956Z</time></trkpt><trkpt lat="45.4315115" lon="7.6876667"><ele>690.0</ele><time>2026-04-25T14:47:28.95Z</time></trkpt><trkpt lat="45.4314169" lon="7.6876709"><ele>690.0</ele><time>2026-04-25T14:47:30.952Z</time></trkpt><trkpt lat="45.4313226" lon="7.6876758"><ele>690.0</ele><time>2026-04-25T14:47:32.951Z</time></trkpt><trkpt lat="45.4312392" lon="7.6876948"><ele>690.0</ele><time>2026-04-25T14:47:34.946Z</time></trkpt><trkpt lat="45.4311513" lon="7.6877284"><ele>690.6</ele><time>2026-04-25T14:47:36.957Z</time></trkpt><trkpt lat="45.4310608" lon="7.6877669"><ele>691.2</ele><time>2026-04-25T14:47:38.956Z</time></trkpt><trkpt lat="45.4309651" lon="7.6877864"><ele>691.8</ele><time>2026-04-25T14:47:40.965Z</time></trkpt><trkpt lat="45.4308297" lon="7.6877977"><ele>692.4</ele><time>2026-04-25T14:47:43.962Z</time></trkpt><trkpt lat="45.4307385" lon="7.6878318"><ele>693.0</ele><time>2026-04-25T14:47:45.964Z</time></trkpt><trkpt lat="45.4306722" lon="7.687919"><ele>693.0</ele><time>2026-04-25T14:47:48.036Z</time></trkpt><trkpt lat="45.4306455" lon="7.6880294"><ele>693.0</ele><time>2026-04-25T14:47:49.943Z</time></trkpt><trkpt lat="45.4306512" lon="7.6881674"><ele>693.0</ele><time>2026-04-25T14:47:51.948Z</time></trkpt><trkpt lat="45.4306404" lon="7.6883084"><ele>693.0</ele><time>2026-04-25T14:47:53.957Z</time></trkpt><trkpt lat="45.4305977" lon="7.6884173"><ele>693.0</ele><time>2026-04-25T14:47:55.956Z</time></trkpt><trkpt lat="45.4305248" lon="7.6884697"><ele>693.0</ele><time>2026-04-25T14:47:57.956Z</time></trkpt><trkpt lat="45.4303991" lon="7.6884475"><ele>689.0</ele><time>2026-04-25T14:47:59.948Z</time></trkpt><trkpt lat="45.4302983" lon="7.6883652"><ele>685.0</ele><time>2026-04-25T14:48:01.963Z</time></trkpt><trkpt lat="45.4302417" lon="7.6882002"><ele>681.0</ele><time>2026-04-25T14:48:03.956Z</time></trkpt><trkpt lat="45.4302239" lon="7.688101"><ele>677.0</ele><time>2026-04-25T14:48:04.963Z</time></trkpt><trkpt lat="45.4302205" lon="7.6879925"><ele>673.0</ele><time>2026-04-25T14:48:05.957Z</time></trkpt><trkpt lat="45.4302196" lon="7.687881"><ele>673.0</ele><time>2026-04-25T14:48:06.955Z</time></trkpt><trkpt lat="45.4302195" lon="7.6877758"><ele>673.0</ele><time>2026-04-25T14:48:07.951Z</time></trkpt><trkpt lat="45.4302178" lon="7.6876782"><ele>673.0</ele><time>2026-04-25T14:48:08.959Z</time></trkpt><trkpt lat="45.4302309" lon="7.6875795"><ele>673.0</ele><time>2026-04-25T14:48:09.956Z</time></trkpt><trkpt lat="45.4302515" lon="7.6874803"><ele>673.0</ele><time>2026-04-25T14:48:10.949Z</time></trkpt><trkpt lat="45.4302833" lon="7.6873906"><ele>673.0</ele><time>2026-04-25T14:48:11.95Z</time></trkpt><trkpt lat="45.4303268" lon="7.6872986"><ele>673.0</ele><time>2026-04-25T14:48:12.958Z</time></trkpt><trkpt lat="45.4303581" lon="7.6872129"><ele>672.8333333333334</ele><time>2026-04-25T14:48:13.956Z</time></trkpt><trkpt lat="45.4303794" lon="7.68711"><ele>672.6666666666667</ele><time>2026-04-25T14:48:16.024Z</time></trkpt><trkpt lat="45.430316" lon="7.6870556"><ele>672.5</ele><time>2026-04-25T14:48:17.951Z</time></trkpt><trkpt lat="45.4302524" lon="7.687024"><ele>672.3333333333334</ele><time>2026-04-25T14:48:18.951Z</time></trkpt><trkpt lat="45.4301828" lon="7.6869825"><ele>672.1666666666666</ele><time>2026-04-25T14:48:19.983Z</time></trkpt><trkpt lat="45.4301097" lon="7.6869393"><ele>672.0</ele><time>2026-04-25T14:48:21.016Z</time></trkpt><trkpt lat="45.4300315" lon="7.6869192"><ele>672.0</ele><time>2026-04-25T14:48:22.033Z</time></trkpt><trkpt lat="45.4299572" lon="7.6869223"><ele>672.0</ele><time>2026-04-25T14:48:22.937Z</time></trkpt><trkpt lat="45.4298809" lon="7.6869358"><ele>672.0</ele><time>2026-04-25T14:48:23.95Z</time></trkpt><trkpt lat="45.4298056" lon="7.6869556"><ele>672.0</ele><time>2026-04-25T14:48:24.951Z</time></trkpt><trkpt lat="45.42973" lon="7.6869858"><ele>672.0</ele><time>2026-04-25T14:48:25.951Z</time></trkpt><trkpt lat="45.4296576" lon="7.6870125"><ele>672.0</ele><time>2026-04-25T14:48:26.95Z</time></trkpt><trkpt lat="45.4295808" lon="7.6870403"><ele>670.1428571428571</ele><time>2026-04-25T14:48:27.959Z</time></trkpt><trkpt lat="45.4295028" lon="7.6870662"><ele>668.2857142857142</ele><time>2026-04-25T14:48:29.036Z</time></trkpt><trkpt lat="45.4294311" lon="7.6870788"><ele>666.4285714285714</ele><time>2026-04-25T14:48:29.952Z</time></trkpt><trkpt lat="45.4293587" lon="7.6870843"><ele>664.5714285714286</ele><time>2026-04-25T14:48:30.96Z</time></trkpt><trkpt lat="45.4292891" lon="7.687089"><ele>662.7142857142857</ele><time>2026-04-25T14:48:31.956Z</time></trkpt><trkpt lat="45.4292207" lon="7.6870843"><ele>660.8571428571429</ele><time>2026-04-25T14:48:32.955Z</time></trkpt><trkpt lat="45.4291553" lon="7.6870883"><ele>659.0</ele><time>2026-04-25T14:48:33.957Z</time></trkpt><trkpt lat="45.4290931" lon="7.6871026"><ele>659.0</ele><time>2026-04-25T14:48:35.959Z</time></trkpt><trkpt lat="45.4290507" lon="7.6872187"><ele>659.0</ele><time>2026-04-25T14:48:39.955Z</time></trkpt><trkpt lat="45.429063" lon="7.6873712"><ele>659.0</ele><time>2026-04-25T14:48:41.957Z</time></trkpt><trkpt lat="45.429075" lon="7.6874609"><ele>659.0</ele><time>2026-04-25T14:48:42.96Z</time></trkpt><trkpt lat="45.4290938" lon="7.6875645"><ele>659.0</ele><time>2026-04-25T14:48:43.946Z</time></trkpt><trkpt lat="45.4291073" lon="7.6876648"><ele>659.0</ele><time>2026-04-25T14:48:44.96Z</time></trkpt><trkpt lat="45.4291231" lon="7.6877542"><ele>659.0</ele><time>2026-04-25T14:48:45.962Z</time></trkpt><trkpt lat="45.4291782" lon="7.6879146"><ele>659.0</ele><time>2026-04-25T14:48:47.959Z</time></trkpt><trkpt lat="45.4292506" lon="7.6880684"><ele>659.0</ele><time>2026-04-25T14:48:49.96Z</time></trkpt><trkpt lat="45.4292891" lon="7.6881555"><ele>659.0</ele><time>2026-04-25T14:48:51.034Z</time></trkpt><trkpt lat="45.4293318" lon="7.6882645"><ele>659.0</ele><time>2026-04-25T14:48:52.033Z</time></trkpt><trkpt lat="45.4293708" lon="7.6883892"><ele>659.0</ele><time>2026-04-25T14:48:52.95Z</time></trkpt><trkpt lat="45.4294163" lon="7.6885222"><ele>659.0</ele><time>2026-04-25T14:48:54.019Z</time></trkpt><trkpt lat="45.4294471" lon="7.6886546"><ele>659.0</ele><time>2026-04-25T14:48:54.953Z</time></trkpt><trkpt lat="45.4294803" lon="7.6887842"><ele>659.0</ele><time>2026-04-25T14:48:55.957Z</time></trkpt><trkpt lat="45.4295092" lon="7.688915"><ele>659.0</ele><time>2026-04-25T14:48:56.976Z</time></trkpt><trkpt lat="45.4295349" lon="7.6890436"><ele>658.2</ele><time>2026-04-25T14:48:58.013Z</time></trkpt><trkpt lat="45.4295619" lon="7.6891716"><ele>657.4000000000001</ele><time>2026-04-25T14:48:59.018Z</time></trkpt><trkpt lat="45.4295834" lon="7.6892939"><ele>656.6</ele><time>2026-04-25T14:48:59.952Z</time></trkpt><trkpt lat="45.4296142" lon="7.6894168"><ele>655.8</ele><time>2026-04-25T14:49:00.959Z</time></trkpt><trkpt lat="45.4296455" lon="7.6895338"><ele>655.0</ele><time>2026-04-25T14:49:01.981Z</time></trkpt><trkpt lat="45.4296824" lon="7.6896495"><ele>655.0</ele><time>2026-04-25T14:49:02.952Z</time></trkpt><trkpt lat="45.429718" lon="7.6897498"><ele>655.0</ele><time>2026-04-25T14:49:03.958Z</time></trkpt><trkpt lat="45.4297738" lon="7.6898788"><ele>655.0</ele><time>2026-04-25T14:49:05.949Z</time></trkpt><trkpt lat="45.4297652" lon="7.6899863"><ele>655.0</ele><time>2026-04-25T14:49:08.952Z</time></trkpt><trkpt lat="45.4296986" lon="7.6900784"><ele>655.0</ele><time>2026-04-25T14:49:10.958Z</time></trkpt><trkpt lat="45.4296377" lon="7.6901175"><ele>655.0</ele><time>2026-04-25T14:49:11.943Z</time></trkpt><trkpt lat="45.4295473" lon="7.690147"><ele>653.6</ele><time>2026-04-25T14:49:12.94Z</time></trkpt><trkpt lat="45.4294448" lon="7.6901732"><ele>652.2</ele><time>2026-04-25T14:49:13.941Z</time></trkpt><trkpt lat="45.4293477" lon="7.6902002"><ele>650.8</ele><time>2026-04-25T14:49:14.974Z</time></trkpt><trkpt lat="45.4292609" lon="7.6902222"><ele>649.4</ele><time>2026-04-25T14:49:15.951Z</time></trkpt><trkpt lat="45.4291784" lon="7.6902418"><ele>648.0</ele><time>2026-04-25T14:49:16.95Z</time></trkpt><trkpt lat="45.4290977" lon="7.6902589"><ele>648.0</ele><time>2026-04-25T14:49:17.946Z</time></trkpt><trkpt lat="45.429012" lon="7.690261"><ele>648.0</ele><time>2026-04-25T14:49:18.954Z</time></trkpt><trkpt lat="45.4289179" lon="7.6902457"><ele>648.0</ele><time>2026-04-25T14:49:19.944Z</time></trkpt><trkpt lat="45.4288331" lon="7.6902152"><ele>648.0</ele><time>2026-04-25T14:49:20.95Z</time></trkpt><trkpt lat="45.4287509" lon="7.6901823"><ele>648.0</ele><time>2026-04-25T14:49:21.954Z</time></trkpt><trkpt lat="45.4286859" lon="7.6901488"><ele>648.0</ele><time>2026-04-25T14:49:22.956Z</time></trkpt><trkpt lat="45.4286258" lon="7.6901146"><ele>646.4</ele><time>2026-04-25T14:49:23.953Z</time></trkpt><trkpt lat="45.4285437" lon="7.690137"><ele>644.8</ele><time>2026-04-25T14:49:25.956Z</time></trkpt><trkpt lat="45.428496" lon="7.6902015"><ele>643.2</ele><time>2026-04-25T14:51:37.948Z</time></trkpt><trkpt lat="45.4285276" lon="7.6903161"><ele>641.6</ele><time>2026-04-25T14:51:42.027Z</time></trkpt><trkpt lat="45.4285539" lon="7.6904834"><ele>640.0</ele><time>2026-04-25T14:51:43.961Z</time></trkpt><trkpt lat="45.4285576" lon="7.6906427"><ele>639.5</ele><time>2026-04-25T14:51:45.955Z</time></trkpt><trkpt lat="45.4285272" lon="7.690733"><ele>639.0</ele><time>2026-04-25T14:51:47.948Z</time></trkpt><trkpt lat="45.4284145" lon="7.6907671"><ele>638.5</ele><time>2026-04-25T14:51:49.952Z</time></trkpt><trkpt lat="45.4283427" lon="7.6907661"><ele>638.0</ele><time>2026-04-25T14:51:50.943Z</time></trkpt><trkpt lat="45.4282587" lon="7.6907751"><ele>637.5</ele><time>2026-04-25T14:51:51.952Z</time></trkpt><trkpt lat="45.4281622" lon="7.6907771"><ele>637.0</ele><time>2026-04-25T14:51:52.956Z</time></trkpt><trkpt lat="45.4280609" lon="7.6907826"><ele>636.6</ele><time>2026-04-25T14:51:53.957Z</time></trkpt><trkpt lat="45.4279665" lon="7.6907962"><ele>636.2</ele><time>2026-04-25T14:51:54.957Z</time></trkpt><trkpt lat="45.4278754" lon="7.6908174"><ele>635.8</ele><time>2026-04-25T14:51:56.031Z</time></trkpt><trkpt lat="45.427778" lon="7.6908464"><ele>635.4</ele><time>2026-04-25T14:51:56.946Z</time></trkpt><trkpt lat="45.4276694" lon="7.6908877"><ele>635.0</ele><time>2026-04-25T14:51:57.949Z</time></trkpt><trkpt lat="45.4275618" lon="7.690934"><ele>635.0</ele><time>2026-04-25T14:51:58.936Z</time></trkpt><trkpt lat="45.4274593" lon="7.6909822"><ele>635.0</ele><time>2026-04-25T14:51:59.952Z</time></trkpt><trkpt lat="45.4273516" lon="7.6910259"><ele>635.0</ele><time>2026-04-25T14:52:00.949Z</time></trkpt><trkpt lat="45.4272449" lon="7.6910749"><ele>635.0</ele><time>2026-04-25T14:52:01.946Z</time></trkpt><trkpt lat="45.4271359" lon="7.6911211"><ele>635.0</ele><time>2026-04-25T14:52:02.952Z</time></trkpt><trkpt lat="45.4270296" lon="7.6911675"><ele>637.25</ele><time>2026-04-25T14:52:03.953Z</time></trkpt><trkpt lat="45.4269157" lon="7.6912069"><ele>639.5</ele><time>2026-04-25T14:52:04.954Z</time></trkpt><trkpt lat="45.4268042" lon="7.6912482"><ele>641.75</ele><time>2026-04-25T14:52:05.953Z</time></trkpt><trkpt lat="45.4267032" lon="7.6912749"><ele>644.0</ele><time>2026-04-25T14:52:07.05Z</time></trkpt><trkpt lat="45.42652" lon="7.6913005"><ele>644.0</ele><time>2026-04-25T14:52:08.956Z</time></trkpt><trkpt lat="45.4264249" lon="7.6913172"><ele>644.0</ele><time>2026-04-25T14:52:09.952Z</time></trkpt><trkpt lat="45.4263169" lon="7.6913238"><ele>644.0</ele><time>2026-04-25T14:52:10.95Z</time></trkpt><trkpt lat="45.4262045" lon="7.6912945"><ele>644.0</ele><time>2026-04-25T14:52:11.952Z</time></trkpt><trkpt lat="45.4260901" lon="7.6912431"><ele>644.0</ele><time>2026-04-25T14:52:12.952Z</time></trkpt><trkpt lat="45.4259875" lon="7.6911973"><ele>643.2</ele><time>2026-04-25T14:52:13.951Z</time></trkpt><trkpt lat="45.4258936" lon="7.6911566"><ele>642.4000000000001</ele><time>2026-04-25T14:52:14.949Z</time></trkpt><trkpt lat="45.4257961" lon="7.6911388"><ele>641.6</ele><time>2026-04-25T14:52:15.947Z</time></trkpt><trkpt lat="45.4256999" lon="7.6911376"><ele>640.8</ele><time>2026-04-25T14:52:16.953Z</time></trkpt><trkpt lat="45.4255787" lon="7.6911575"><ele>640.0</ele><time>2026-04-25T14:52:17.954Z</time></trkpt><trkpt lat="45.4254438" lon="7.6911826"><ele>638.25</ele><time>2026-04-25T14:52:18.95Z</time></trkpt><trkpt lat="45.4253122" lon="7.6912105"><ele>636.5</ele><time>2026-04-25T14:52:19.952Z</time></trkpt><trkpt lat="45.4251968" lon="7.6912362"><ele>634.75</ele><time>2026-04-25T14:52:20.948Z</time></trkpt><trkpt lat="45.4250872" lon="7.6912571"><ele>633.0</ele><time>2026-04-25T14:52:22.032Z</time></trkpt><trkpt lat="45.4249845" lon="7.6912828"><ele>633.0</ele><time>2026-04-25T14:52:23.034Z</time></trkpt><trkpt lat="45.4248845" lon="7.6913188"><ele>633.0</ele><time>2026-04-25T14:52:24.027Z</time></trkpt><trkpt lat="45.4247928" lon="7.6913539"><ele>633.0</ele><time>2026-04-25T14:52:24.958Z</time></trkpt><trkpt lat="45.4246989" lon="7.6913732"><ele>633.0</ele><time>2026-04-25T14:52:25.942Z</time></trkpt><trkpt lat="45.4246024" lon="7.691372"><ele>633.0</ele><time>2026-04-25T14:52:26.954Z</time></trkpt><trkpt lat="45.4244987" lon="7.6913633"><ele>631.8</ele><time>2026-04-25T14:52:27.97Z</time></trkpt><trkpt lat="45.424402" lon="7.691355"><ele>630.5999999999999</ele><time>2026-04-25T14:52:28.949Z</time></trkpt><trkpt lat="45.4243003" lon="7.6913473"><ele>629.4000000000001</ele><time>2026-04-25T14:52:29.949Z</time></trkpt><trkpt lat="45.4242023" lon="7.691319"><ele>628.2</ele><time>2026-04-25T14:52:30.955Z</time></trkpt><trkpt lat="45.4241054" lon="7.6912791"><ele>627.0</ele><time>2026-04-25T14:52:32.072Z</time></trkpt><trkpt lat="45.4239466" lon="7.6911359"><ele>626.8333333333334</ele><time>2026-04-25T14:52:33.957Z</time></trkpt><trkpt lat="45.4238749" lon="7.6910515"><ele>626.6666666666666</ele><time>2026-04-25T14:52:34.954Z</time></trkpt><trkpt lat="45.4238088" lon="7.6909635"><ele>626.5</ele><time>2026-04-25T14:52:36.034Z</time></trkpt><trkpt lat="45.4237489" lon="7.6908864"><ele>626.3333333333333</ele><time>2026-04-25T14:52:37.024Z</time></trkpt><trkpt lat="45.423693" lon="7.690822"><ele>626.1666666666666</ele><time>2026-04-25T14:52:37.949Z</time></trkpt><trkpt lat="45.4236374" lon="7.6907796"><ele>626.0</ele><time>2026-04-25T14:52:39.045Z</time></trkpt><trkpt lat="45.4235301" lon="7.6907651"><ele>625.8333333333333</ele><time>2026-04-25T14:52:40.953Z</time></trkpt><trkpt lat="45.4233998" lon="7.6907997"><ele>625.6666666666666</ele><time>2026-04-25T14:52:42.947Z</time></trkpt><trkpt lat="45.4233328" lon="7.6908018"><ele>625.5</ele><time>2026-04-25T14:52:43.952Z</time></trkpt><trkpt lat="45.4232581" lon="7.6907977"><ele>625.3333333333334</ele><time>2026-04-25T14:52:44.949Z</time></trkpt><trkpt lat="45.4231846" lon="7.6907979"><ele>625.1666666666667</ele><time>2026-04-25T14:52:45.943Z</time></trkpt><trkpt lat="45.4231104" lon="7.6908034"><ele>625.0</ele><time>2026-04-25T14:52:46.946Z</time></trkpt><trkpt lat="45.4230304" lon="7.6908098"><ele>622.6666666666667</ele><time>2026-04-25T14:52:47.947Z</time></trkpt><trkpt lat="45.4229521" lon="7.6908147"><ele>620.3333333333334</ele><time>2026-04-25T14:52:48.955Z</time></trkpt><trkpt lat="45.4228737" lon="7.6908174"><ele>618.0</ele><time>2026-04-25T14:52:49.959Z</time></trkpt><trkpt lat="45.4228019" lon="7.6908152"><ele>615.6666666666666</ele><time>2026-04-25T14:52:50.938Z</time></trkpt><trkpt lat="45.4227129" lon="7.6908333"><ele>613.3333333333333</ele><time>2026-04-25T14:52:52.95Z</time></trkpt><trkpt lat="45.4226451" lon="7.6907899"><ele>611.0</ele><time>2026-04-25T14:52:54.959Z</time></trkpt><trkpt lat="45.4225862" lon="7.6906708"><ele>611.0</ele><time>2026-04-25T14:52:56.947Z</time></trkpt><trkpt lat="45.4225519" lon="7.6905842"><ele>611.0</ele><time>2026-04-25T14:52:58.946Z</time></trkpt><trkpt lat="45.4225009" lon="7.6906798"><ele>611.0</ele><time>2026-04-25T14:53:01.946Z</time></trkpt><trkpt lat="45.4224891" lon="7.6908252"><ele>611.0</ele><time>2026-04-25T14:53:03.946Z</time></trkpt><trkpt lat="45.422491" lon="7.6909929"><ele>611.0</ele><time>2026-04-25T14:53:05.949Z</time></trkpt><trkpt lat="45.4224582" lon="7.6910762"><ele>611.0</ele><time>2026-04-25T14:53:07.949Z</time></trkpt><trkpt lat="45.4223927" lon="7.6910059"><ele>611.0</ele><time>2026-04-25T14:53:10.95Z</time></trkpt><trkpt lat="45.4223528" lon="7.6908828"><ele>611.0</ele><time>2026-04-25T14:53:12.938Z</time></trkpt><trkpt lat="45.4223129" lon="7.6908129"><ele>611.0</ele><time>2026-04-25T14:53:13.981Z</time></trkpt><trkpt lat="45.4222531" lon="7.6906787"><ele>611.0</ele><time>2026-04-25T14:53:15.955Z</time></trkpt><trkpt lat="45.4222222" lon="7.6905164"><ele>611.0</ele><time>2026-04-25T14:53:17.954Z</time></trkpt><trkpt lat="45.4221902" lon="7.690398"><ele>611.0</ele><time>2026-04-25T14:53:19.954Z</time></trkpt><trkpt lat="45.4221794" lon="7.6902742"><ele>611.0</ele><time>2026-04-25T14:53:21.956Z</time></trkpt><trkpt lat="45.4221701" lon="7.6901724"><ele>611.0</ele><time>2026-04-25T14:53:23.942Z</time></trkpt><trkpt lat="45.4221788" lon="7.6903113"><ele>611.0</ele><time>2026-04-25T14:53:31.938Z</time></trkpt><trkpt lat="45.4222075" lon="7.6904417"><ele>611.0</ele><time>2026-04-25T14:53:33.946Z</time></trkpt><trkpt lat="45.4222244" lon="7.6906168"><ele>611.0000000000001</ele><time>2026-04-25T14:53:35.953Z</time></trkpt><trkpt lat="45.4222471" lon="7.6907048"><ele>611.0</ele><time>2026-04-25T14:53:36.953Z</time></trkpt><trkpt lat="45.4222801" lon="7.690793"><ele>611.0</ele><time>2026-04-25T14:53:37.955Z</time></trkpt><trkpt lat="45.4223167" lon="7.6908866"><ele>611.0</ele><time>2026-04-25T14:53:38.953Z</time></trkpt><trkpt lat="45.4223494" lon="7.6909709"><ele>611.0</ele><time>2026-04-25T14:53:39.955Z</time></trkpt><trkpt lat="45.4223897" lon="7.6910737"><ele>611.0000000000001</ele><time>2026-04-25T14:53:41.95Z</time></trkpt><trkpt lat="45.422429" lon="7.6909988"><ele>611.0</ele><time>2026-04-25T14:53:44.953Z</time></trkpt><trkpt lat="45.4224431" lon="7.6908704"><ele>611.0</ele><time>2026-04-25T14:53:46.952Z</time></trkpt><trkpt lat="45.422476" lon="7.6907135"><ele>611.0</ele><time>2026-04-25T14:53:48.953Z</time></trkpt><trkpt lat="45.4225338" lon="7.6906076"><ele>611.0</ele><time>2026-04-25T14:53:50.945Z</time></trkpt><trkpt lat="45.4225806" lon="7.6906987"><ele>611.0</ele><time>2026-04-25T14:53:54.947Z</time></trkpt><trkpt lat="45.422656" lon="7.6907951"><ele>611.0</ele><time>2026-04-25T14:53:56.945Z</time></trkpt><trkpt lat="45.4227373" lon="7.6908106"><ele>611.0</ele><time>2026-04-25T14:53:58.947Z</time></trkpt><trkpt lat="45.4228213" lon="7.6908063"><ele>611.0</ele><time>2026-04-25T14:53:59.948Z</time></trkpt><trkpt lat="45.4229331" lon="7.6908074"><ele>611.0</ele><time>2026-04-25T14:54:00.945Z</time></trkpt><trkpt lat="45.4230382" lon="7.6907935"><ele>611.0</ele><time>2026-04-25T14:54:01.947Z</time></trkpt><trkpt lat="45.4231363" lon="7.6907874"><ele>611.0</ele><time>2026-04-25T14:54:02.946Z</time></trkpt><trkpt lat="45.4232078" lon="7.6907774"><ele>613.0000000000001</ele><time>2026-04-25T14:54:03.953Z</time></trkpt><trkpt lat="45.4232777" lon="7.6907692"><ele>615.0</ele><time>2026-04-25T14:54:04.948Z</time></trkpt><trkpt lat="45.4233498" lon="7.6907668"><ele>617.0</ele><time>2026-04-25T14:54:05.955Z</time></trkpt><trkpt lat="45.4234331" lon="7.6907636"><ele>619.0</ele><time>2026-04-25T14:54:06.954Z</time></trkpt><trkpt lat="45.4235159" lon="7.6907688"><ele>621.0</ele><time>2026-04-25T14:54:07.96Z</time></trkpt><trkpt lat="45.4235865" lon="7.6907634"><ele>623.0000000000001</ele><time>2026-04-25T14:54:08.95Z</time></trkpt><trkpt lat="45.4236519" lon="7.6907868"><ele>625.0</ele><time>2026-04-25T14:54:09.956Z</time></trkpt><trkpt lat="45.42372" lon="7.6908366"><ele>625.0</ele><time>2026-04-25T14:54:10.952Z</time></trkpt><trkpt lat="45.4238034" lon="7.6909384"><ele>625.0</ele><time>2026-04-25T14:54:12.032Z</time></trkpt><trkpt lat="45.4238971" lon="7.6910453"><ele>625.0</ele><time>2026-04-25T14:54:12.958Z</time></trkpt><trkpt lat="45.4239909" lon="7.6911482"><ele>625.0</ele><time>2026-04-25T14:54:13.954Z</time></trkpt><trkpt lat="45.4240798" lon="7.6912261"><ele>625.4</ele><time>2026-04-25T14:54:14.959Z</time></trkpt><trkpt lat="45.4241804" lon="7.6912968"><ele>625.8</ele><time>2026-04-25T14:54:15.945Z</time></trkpt><trkpt lat="45.4242804" lon="7.691338"><ele>626.2</ele><time>2026-04-25T14:54:16.948Z</time></trkpt><trkpt lat="45.4243951" lon="7.6913462"><ele>626.6</ele><time>2026-04-25T14:54:18.024Z</time></trkpt><trkpt lat="45.4245093" lon="7.6913512"><ele>627.0</ele><time>2026-04-25T14:54:18.974Z</time></trkpt><trkpt lat="45.4246229" lon="7.6913627"><ele>628.5</ele><time>2026-04-25T14:54:19.953Z</time></trkpt><trkpt lat="45.4247434" lon="7.6913538"><ele>630.0</ele><time>2026-04-25T14:54:20.95Z</time></trkpt><trkpt lat="45.4248571" lon="7.6913304"><ele>631.5</ele><time>2026-04-25T14:54:21.969Z</time></trkpt><trkpt lat="45.4249746" lon="7.6912888"><ele>633.0</ele><time>2026-04-25T14:54:22.952Z</time></trkpt><trkpt lat="45.425092" lon="7.691257"><ele>633.0</ele><time>2026-04-25T14:54:23.951Z</time></trkpt><trkpt lat="45.4252139" lon="7.6912333"><ele>633.0</ele><time>2026-04-25T14:54:24.951Z</time></trkpt><trkpt lat="45.4253468" lon="7.6912178"><ele>633.0</ele><time>2026-04-25T14:54:25.958Z</time></trkpt><trkpt lat="45.4254795" lon="7.6912055"><ele>633.0</ele><time>2026-04-25T14:54:27.05Z</time></trkpt><trkpt lat="45.4256026" lon="7.6911877"><ele>634.4</ele><time>2026-04-25T14:54:27.978Z</time></trkpt><trkpt lat="45.4257169" lon="7.6911753"><ele>635.8</ele><time>2026-04-25T14:54:29.038Z</time></trkpt><trkpt lat="45.4258256" lon="7.6911697"><ele>637.2</ele><time>2026-04-25T14:54:29.956Z</time></trkpt><trkpt lat="45.4259306" lon="7.6911893"><ele>638.6</ele><time>2026-04-25T14:54:30.959Z</time></trkpt><trkpt lat="45.4260466" lon="7.6912154"><ele>640.0</ele><time>2026-04-25T14:54:31.965Z</time></trkpt><trkpt lat="45.4261635" lon="7.6912558"><ele>640.0</ele><time>2026-04-25T14:54:33.032Z</time></trkpt><trkpt lat="45.4262771" lon="7.6912902"><ele>640.0</ele><time>2026-04-25T14:54:34.031Z</time></trkpt><trkpt lat="45.4263803" lon="7.6913024"><ele>640.0</ele><time>2026-04-25T14:54:34.952Z</time></trkpt><trkpt lat="45.4264689" lon="7.691303"><ele>640.0</ele><time>2026-04-25T14:54:35.96Z</time></trkpt><trkpt lat="45.426545" lon="7.6912913"><ele>640.0</ele><time>2026-04-25T14:54:36.977Z</time></trkpt><trkpt lat="45.4266288" lon="7.6912741"><ele>641.0</ele><time>2026-04-25T14:54:38.03Z</time></trkpt><trkpt lat="45.426726" lon="7.6912439"><ele>642.0</ele><time>2026-04-25T14:54:39.03Z</time></trkpt><trkpt lat="45.4268376" lon="7.6912098"><ele>643.0</ele><time>2026-04-25T14:54:39.954Z</time></trkpt><trkpt lat="45.4269564" lon="7.6911695"><ele>644.0</ele><time>2026-04-25T14:54:40.964Z</time></trkpt><trkpt lat="45.4270864" lon="7.6911206"><ele>641.75</ele><time>2026-04-25T14:54:41.981Z</time></trkpt><trkpt lat="45.4272225" lon="7.691065"><ele>639.5</ele><time>2026-04-25T14:54:43.032Z</time></trkpt><trkpt lat="45.4273446" lon="7.6910126"><ele>637.25</ele><time>2026-04-25T14:54:44.028Z</time></trkpt><trkpt lat="45.4274564" lon="7.690959"><ele>635.0</ele><time>2026-04-25T14:54:44.952Z</time></trkpt><trkpt lat="45.4275621" lon="7.6909048"><ele>635.0</ele><time>2026-04-25T14:54:45.947Z</time></trkpt><trkpt lat="45.4276606" lon="7.6908642"><ele>635.0</ele><time>2026-04-25T14:54:46.969Z</time></trkpt><trkpt lat="45.4277519" lon="7.6908217"><ele>635.0</ele><time>2026-04-25T14:54:48.025Z</time></trkpt><trkpt lat="45.4278423" lon="7.6907883"><ele>635.0</ele><time>2026-04-25T14:54:49.034Z</time></trkpt><trkpt lat="45.4279379" lon="7.6907666"><ele>635.0</ele><time>2026-04-25T14:54:49.946Z</time></trkpt><trkpt lat="45.4280516" lon="7.690763"><ele>635.4</ele><time>2026-04-25T14:54:50.95Z</time></trkpt><trkpt lat="45.428175" lon="7.6907684"><ele>635.8</ele><time>2026-04-25T14:54:52.009Z</time></trkpt><trkpt lat="45.4282892" lon="7.6907738"><ele>636.2</ele><time>2026-04-25T14:54:52.96Z</time></trkpt><trkpt lat="45.4283898" lon="7.6907703"><ele>636.6</ele><time>2026-04-25T14:54:53.951Z</time></trkpt><trkpt lat="45.4284753" lon="7.6907687"><ele>637.0</ele><time>2026-04-25T14:54:54.945Z</time></trkpt><trkpt lat="45.4285429" lon="7.6907593"><ele>637.0</ele><time>2026-04-25T14:54:55.948Z</time></trkpt><trkpt lat="45.4285907" lon="7.6906878"><ele>637.0</ele><time>2026-04-25T14:54:57.947Z</time></trkpt><trkpt lat="45.4285678" lon="7.6905299"><ele>637.0</ele><time>2026-04-25T14:54:59.946Z</time></trkpt><trkpt lat="45.4285445" lon="7.6904259"><ele>637.0</ele><time>2026-04-25T14:55:00.946Z</time></trkpt><trkpt lat="45.4285295" lon="7.690256"><ele>637.0</ele><time>2026-04-25T14:55:02.958Z</time></trkpt><trkpt lat="45.4284944" lon="7.6901299"><ele>637.5</ele><time>2026-04-25T14:55:04.946Z</time></trkpt><trkpt lat="45.428424" lon="7.689988"><ele>638.0</ele><time>2026-04-25T14:55:06.95Z</time></trkpt><trkpt lat="45.4283883" lon="7.6899128"><ele>638.5</ele><time>2026-04-25T14:55:07.951Z</time></trkpt><trkpt lat="45.4283254" lon="7.6898132"><ele>639.0</ele><time>2026-04-25T14:55:09.955Z</time></trkpt><trkpt lat="45.4282781" lon="7.6897509"><ele>639.5</ele><time>2026-04-25T14:55:12.954Z</time></trkpt><trkpt lat="45.428264" lon="7.6896602"><ele>640.0</ele><time>2026-04-25T14:55:18.947Z</time></trkpt><trkpt lat="45.4282871" lon="7.6897448"><ele>640.0</ele><time>2026-04-25T14:55:21.947Z</time></trkpt><trkpt lat="45.428228" lon="7.6898111"><ele>640.0</ele><time>2026-04-25T14:55:23.945Z</time></trkpt><trkpt lat="45.4280887" lon="7.6897704"><ele>640.0</ele><time>2026-04-25T14:55:25.938Z</time></trkpt><trkpt lat="45.4280101" lon="7.6897167"><ele>640.0</ele><time>2026-04-25T14:55:26.942Z</time></trkpt><trkpt lat="45.4279325" lon="7.6896618"><ele>640.0</ele><time>2026-04-25T14:55:27.945Z</time></trkpt><trkpt lat="45.4278494" lon="7.689599"><ele>640.1666666666667</ele><time>2026-04-25T14:55:28.949Z</time></trkpt><trkpt lat="45.4277747" lon="7.6895422"><ele>640.3333333333334</ele><time>2026-04-25T14:55:29.945Z</time></trkpt><trkpt lat="45.427707" lon="7.6894819"><ele>640.5</ele><time>2026-04-25T14:55:30.946Z</time></trkpt><trkpt lat="45.4276342" lon="7.689426"><ele>640.6666666666666</ele><time>2026-04-25T14:55:31.945Z</time></trkpt><trkpt lat="45.4275626" lon="7.6893699"><ele>640.8333333333333</ele><time>2026-04-25T14:55:32.942Z</time></trkpt><trkpt lat="45.4274908" lon="7.6893172"><ele>641.0</ele><time>2026-04-25T14:55:33.946Z</time></trkpt><trkpt lat="45.4274161" lon="7.6892434"><ele>641.0</ele><time>2026-04-25T14:55:34.952Z</time></trkpt><trkpt lat="45.4273443" lon="7.6891577"><ele>641.0</ele><time>2026-04-25T14:55:35.947Z</time></trkpt><trkpt lat="45.4272741" lon="7.6890743"><ele>641.0</ele><time>2026-04-25T14:55:36.945Z</time></trkpt><trkpt lat="45.4272148" lon="7.6890012"><ele>641.0</ele><time>2026-04-25T14:55:37.948Z</time></trkpt><trkpt lat="45.4271608" lon="7.6889215"><ele>641.0</ele><time>2026-04-25T14:55:38.934Z</time></trkpt><trkpt lat="45.4271044" lon="7.6888479"><ele>641.0</ele><time>2026-04-25T14:55:39.946Z</time></trkpt><trkpt lat="45.4270511" lon="7.6887624"><ele>640.0</ele><time>2026-04-25T14:55:40.948Z</time></trkpt><trkpt lat="45.4269964" lon="7.6886577"><ele>639.0</ele><time>2026-04-25T14:55:41.948Z</time></trkpt><trkpt lat="45.4269451" lon="7.6885568"><ele>638.0</ele><time>2026-04-25T14:55:42.945Z</time></trkpt><trkpt lat="45.4268994" lon="7.688457"><ele>637.0</ele><time>2026-04-25T14:55:43.945Z</time></trkpt><trkpt lat="45.4268578" lon="7.6883759"><ele>636.0</ele><time>2026-04-25T14:55:44.944Z</time></trkpt><trkpt lat="45.4268229" lon="7.6882985"><ele>635.0</ele><time>2026-04-25T14:55:45.943Z</time></trkpt><trkpt lat="45.4267926" lon="7.6881838"><ele>635.0</ele><time>2026-04-25T14:55:47.942Z</time></trkpt><trkpt lat="45.4267638" lon="7.6880951"><ele>635.0</ele><time>2026-04-25T14:55:50.949Z</time></trkpt><trkpt lat="45.4267804" lon="7.6882401"><ele>635.0</ele><time>2026-04-25T14:55:55.951Z</time></trkpt><trkpt lat="45.4267972" lon="7.6883552"><ele>635.0</ele><time>2026-04-25T14:55:57.954Z</time></trkpt><trkpt lat="45.4266945" lon="7.6884101"><ele>635.0</ele><time>2026-04-25T14:55:59.953Z</time></trkpt><trkpt lat="45.4266218" lon="7.6884205"><ele>635.0</ele><time>2026-04-25T14:56:00.952Z</time></trkpt><trkpt lat="45.4265419" lon="7.6884268"><ele>634.9999999999999</ele><time>2026-04-25T14:56:01.963Z</time></trkpt><trkpt lat="45.4264734" lon="7.6884353"><ele>635.0</ele><time>2026-04-25T14:56:02.963Z</time></trkpt><trkpt lat="45.4264066" lon="7.6884459"><ele>635.0</ele><time>2026-04-25T14:56:03.954Z</time></trkpt><trkpt lat="45.426339" lon="7.6884537"><ele>635.0</ele><time>2026-04-25T14:56:04.954Z</time></trkpt><trkpt lat="45.4262704" lon="7.6884634"><ele>635.0</ele><time>2026-04-25T14:56:05.951Z</time></trkpt><trkpt lat="45.4262031" lon="7.688462"><ele>634.9999999999999</ele><time>2026-04-25T14:56:06.952Z</time></trkpt><trkpt lat="45.4261359" lon="7.6884665"><ele>635.0</ele><time>2026-04-25T14:56:07.958Z</time></trkpt><trkpt lat="45.4260681" lon="7.6884622"><ele>633.4</ele><time>2026-04-25T14:56:09.016Z</time></trkpt><trkpt lat="45.4259478" lon="7.6884469"><ele>631.8</ele><time>2026-04-25T14:56:10.954Z</time></trkpt><trkpt lat="45.4258668" lon="7.6884325"><ele>630.2</ele><time>2026-04-25T14:56:13.038Z</time></trkpt><trkpt lat="45.4259695" lon="7.6884526"><ele>628.6</ele><time>2026-04-25T14:56:30.947Z</time></trkpt><trkpt lat="45.4260499" lon="7.6884532"><ele>627.0</ele><time>2026-04-25T14:56:31.949Z</time></trkpt><trkpt lat="45.4261442" lon="7.6884601"><ele>627.0</ele><time>2026-04-25T14:56:32.953Z</time></trkpt><trkpt lat="45.4262468" lon="7.6884538"><ele>627.0</ele><time>2026-04-25T14:56:34.04Z</time></trkpt><trkpt lat="45.4263631" lon="7.6884468"><ele>627.0</ele><time>2026-04-25T14:56:34.945Z</time></trkpt><trkpt lat="45.4264851" lon="7.6884324"><ele>627.0</ele><time>2026-04-25T14:56:35.956Z</time></trkpt><trkpt lat="45.4265887" lon="7.6884143"><ele>627.0</ele><time>2026-04-25T14:56:36.984Z</time></trkpt><trkpt lat="45.4266717" lon="7.6883998"><ele>628.3333333333334</ele><time>2026-04-25T14:56:38.04Z</time></trkpt><trkpt lat="45.4267404" lon="7.6883762"><ele>629.6666666666666</ele><time>2026-04-25T14:56:39.041Z</time></trkpt><trkpt lat="45.4268033" lon="7.6883149"><ele>631.0</ele><time>2026-04-25T14:56:40.963Z</time></trkpt><trkpt lat="45.426799" lon="7.688208"><ele>632.3333333333333</ele><time>2026-04-25T14:56:42.963Z</time></trkpt><trkpt lat="45.426782" lon="7.6881132"><ele>633.6666666666666</ele><time>2026-04-25T14:56:43.964Z</time></trkpt><trkpt lat="45.4267545" lon="7.687998"><ele>635.0</ele><time>2026-04-25T14:56:44.963Z</time></trkpt><trkpt lat="45.4267247" lon="7.6878766"><ele>635.5</ele><time>2026-04-25T14:56:46.034Z</time></trkpt><trkpt lat="45.426697" lon="7.6877528"><ele>636.0</ele><time>2026-04-25T14:56:47.029Z</time></trkpt><trkpt lat="45.4266706" lon="7.6876391"><ele>636.5</ele><time>2026-04-25T14:56:47.962Z</time></trkpt><trkpt lat="45.426659" lon="7.6875299"><ele>637.0</ele><time>2026-04-25T14:56:48.958Z</time></trkpt><trkpt lat="45.4266606" lon="7.6874214"><ele>637.5</ele><time>2026-04-25T14:56:49.971Z</time></trkpt><trkpt lat="45.4266741" lon="7.6872971"><ele>638.0</ele><time>2026-04-25T14:56:50.967Z</time></trkpt><trkpt lat="45.4266906" lon="7.6871687"><ele>638.0</ele><time>2026-04-25T14:56:51.965Z</time></trkpt><trkpt lat="45.4267001" lon="7.6870498"><ele>638.0</ele><time>2026-04-25T14:56:52.983Z</time></trkpt><trkpt lat="45.4267092" lon="7.6869417"><ele>638.0</ele><time>2026-04-25T14:56:54.05Z</time></trkpt><trkpt lat="45.4267171" lon="7.6868073"><ele>638.0</ele><time>2026-04-25T14:56:55.963Z</time></trkpt><trkpt lat="45.4266583" lon="7.6867123"><ele>638.0</ele><time>2026-04-25T14:56:58.944Z</time></trkpt><trkpt lat="45.4265926" lon="7.686694"><ele>638.0</ele><time>2026-04-25T14:56:59.965Z</time></trkpt><trkpt lat="45.4265112" lon="7.6866901"><ele>637.1999999999999</ele><time>2026-04-25T14:57:00.957Z</time></trkpt><trkpt lat="45.4264217" lon="7.6866927"><ele>636.4</ele><time>2026-04-25T14:57:02.032Z</time></trkpt><trkpt lat="45.4263158" lon="7.6867047"><ele>635.5999999999999</ele><time>2026-04-25T14:57:03.019Z</time></trkpt><trkpt lat="45.4261989" lon="7.6867143"><ele>634.8</ele><time>2026-04-25T14:57:04.031Z</time></trkpt><trkpt lat="45.4260775" lon="7.686728"><ele>634.0</ele><time>2026-04-25T14:57:04.954Z</time></trkpt><trkpt lat="45.4259562" lon="7.6867401"><ele>632.0</ele><time>2026-04-25T14:57:05.954Z</time></trkpt><trkpt lat="45.4258437" lon="7.6867477"><ele>630.0</ele><time>2026-04-25T14:57:06.981Z</time></trkpt><trkpt lat="45.425727" lon="7.6867774"><ele>628.0</ele><time>2026-04-25T14:57:08.028Z</time></trkpt><trkpt lat="45.4256156" lon="7.686827"><ele>626.0</ele><time>2026-04-25T14:57:09.036Z</time></trkpt><trkpt lat="45.4255058" lon="7.6869045"><ele>624.5</ele><time>2026-04-25T14:57:09.952Z</time></trkpt><trkpt lat="45.4253933" lon="7.6869991"><ele>623.0</ele><time>2026-04-25T14:57:10.956Z</time></trkpt><trkpt lat="45.4252845" lon="7.6871049"><ele>621.5</ele><time>2026-04-25T14:57:11.964Z</time></trkpt><trkpt lat="45.4251751" lon="7.6872074"><ele>620.0</ele><time>2026-04-25T14:57:12.956Z</time></trkpt><trkpt lat="45.4250728" lon="7.687313"><ele>620.0</ele><time>2026-04-25T14:57:13.958Z</time></trkpt><trkpt lat="45.424969" lon="7.6874006"><ele>620.0</ele><time>2026-04-25T14:57:14.953Z</time></trkpt><trkpt lat="45.424864" lon="7.6874893"><ele>620.0</ele><time>2026-04-25T14:57:15.955Z</time></trkpt><trkpt lat="45.424756" lon="7.6875688"><ele>620.0</ele><time>2026-04-25T14:57:16.986Z</time></trkpt><trkpt lat="45.424644" lon="7.6876295"><ele>619.75</ele><time>2026-04-25T14:57:17.951Z</time></trkpt><trkpt lat="45.4245312" lon="7.6876741"><ele>619.5</ele><time>2026-04-25T14:57:18.97Z</time></trkpt><trkpt lat="45.4244184" lon="7.6876802"><ele>619.25</ele><time>2026-04-25T14:57:19.953Z</time></trkpt><trkpt lat="45.4243043" lon="7.6876571"><ele>619.0</ele><time>2026-04-25T14:57:20.947Z</time></trkpt><trkpt lat="45.4241941" lon="7.6876075"><ele>619.0</ele><time>2026-04-25T14:57:21.948Z</time></trkpt><trkpt lat="45.4240845" lon="7.6875535"><ele>619.0</ele><time>2026-04-25T14:57:23.037Z</time></trkpt><trkpt lat="45.4239897" lon="7.6874957"><ele>619.0</ele><time>2026-04-25T14:57:24.039Z</time></trkpt><trkpt lat="45.4238988" lon="7.6874282"><ele>619.0</ele><time>2026-04-25T14:57:24.949Z</time></trkpt><trkpt lat="45.4238319" lon="7.6873694"><ele>619.0</ele><time>2026-04-25T14:57:25.956Z</time></trkpt><trkpt lat="45.4237528" lon="7.6872805"><ele>617.4</ele><time>2026-04-25T14:57:27.952Z</time></trkpt><trkpt lat="45.4237" lon="7.6872013"><ele>615.8</ele><time>2026-04-25T14:57:30.948Z</time></trkpt><trkpt lat="45.4235993" lon="7.6872358"><ele>614.2</ele><time>2026-04-25T14:57:33.948Z</time></trkpt><trkpt lat="45.4235289" lon="7.6872664"><ele>612.6</ele><time>2026-04-25T14:57:34.954Z</time></trkpt><trkpt lat="45.4234357" lon="7.6872805"><ele>611.0</ele><time>2026-04-25T14:57:35.95Z</time></trkpt><trkpt lat="45.4233258" lon="7.6872982"><ele>611.0</ele><time>2026-04-25T14:57:36.955Z</time></trkpt><trkpt lat="45.4232072" lon="7.6873094"><ele>611.0</ele><time>2026-04-25T14:57:37.955Z</time></trkpt><trkpt lat="45.4231049" lon="7.6873004"><ele>611.0</ele><time>2026-04-25T14:57:38.948Z</time></trkpt><trkpt lat="45.4230179" lon="7.6872773"><ele>611.0</ele><time>2026-04-25T14:57:39.968Z</time></trkpt><trkpt lat="45.4229438" lon="7.6872358"><ele>611.0</ele><time>2026-04-25T14:57:41.017Z</time></trkpt><trkpt lat="45.422888" lon="7.687161"><ele>609.8333333333333</ele><time>2026-04-25T14:57:42.013Z</time></trkpt><trkpt lat="45.4228357" lon="7.6870925"><ele>608.6666666666666</ele><time>2026-04-25T14:57:43.03Z</time></trkpt><trkpt lat="45.4227191" lon="7.6870519"><ele>607.5</ele><time>2026-04-25T14:57:44.95Z</time></trkpt><trkpt lat="45.4226406" lon="7.6870697"><ele>606.3333333333334</ele><time>2026-04-25T14:57:45.95Z</time></trkpt><trkpt lat="45.4225589" lon="7.6870912"><ele>605.1666666666667</ele><time>2026-04-25T14:57:46.949Z</time></trkpt><trkpt lat="45.4224757" lon="7.6871189"><ele>604.0</ele><time>2026-04-25T14:57:48.02Z</time></trkpt><trkpt lat="45.4223941" lon="7.6871442"><ele>604.0</ele><time>2026-04-25T14:57:49.012Z</time></trkpt><trkpt lat="45.4223105" lon="7.6871714"><ele>604.0</ele><time>2026-04-25T14:57:49.954Z</time></trkpt><trkpt lat="45.422231" lon="7.6872002"><ele>604.0</ele><time>2026-04-25T14:57:50.948Z</time></trkpt><trkpt lat="45.4221525" lon="7.687239"><ele>604.0</ele><time>2026-04-25T14:57:51.981Z</time></trkpt><trkpt lat="45.4220676" lon="7.6872792"><ele>604.0</ele><time>2026-04-25T14:57:53.014Z</time></trkpt><trkpt lat="45.4219939" lon="7.6873116"><ele>604.0</ele><time>2026-04-25T14:57:54.032Z</time></trkpt><trkpt lat="45.4219173" lon="7.6873156"><ele>602.0</ele><time>2026-04-25T14:57:54.952Z</time></trkpt><trkpt lat="45.4218507" lon="7.6873144"><ele>600.0</ele><time>2026-04-25T14:57:55.953Z</time></trkpt><trkpt lat="45.4217848" lon="7.6873085"><ele>598.0</ele><time>2026-04-25T14:57:56.969Z</time></trkpt><trkpt lat="45.4217169" lon="7.6873034"><ele>596.0</ele><time>2026-04-25T14:57:58.029Z</time></trkpt><trkpt lat="45.4216471" lon="7.6872935"><ele>594.0</ele><time>2026-04-25T14:57:59.03Z</time></trkpt><trkpt lat="45.4215628" lon="7.6872953"><ele>592.0</ele><time>2026-04-25T14:57:59.963Z</time></trkpt><trkpt lat="45.4214683" lon="7.6872973"><ele>592.0</ele><time>2026-04-25T14:58:00.965Z</time></trkpt><trkpt lat="45.4213797" lon="7.6873093"><ele>592.0</ele><time>2026-04-25T14:58:01.984Z</time></trkpt><trkpt lat="45.4212962" lon="7.6873348"><ele>592.0</ele><time>2026-04-25T14:58:03.028Z</time></trkpt><trkpt lat="45.4212172" lon="7.6873601"><ele>592.0</ele><time>2026-04-25T14:58:04.04Z</time></trkpt><trkpt lat="45.4211467" lon="7.6873888"><ele>592.0</ele><time>2026-04-25T14:58:04.944Z</time></trkpt><trkpt lat="45.421078" lon="7.6874099"><ele>592.0</ele><time>2026-04-25T14:58:05.929Z</time></trkpt><trkpt lat="45.4210138" lon="7.6874302"><ele>591.3333333333334</ele><time>2026-04-25T14:58:06.962Z</time></trkpt><trkpt lat="45.4209331" lon="7.687413"><ele>590.6666666666667</ele><time>2026-04-25T14:58:07.948Z</time></trkpt><trkpt lat="45.4208533" lon="7.6873811"><ele>590.0</ele><time>2026-04-25T14:58:08.945Z</time></trkpt><trkpt lat="45.4207831" lon="7.6873444"><ele>589.3333333333334</ele><time>2026-04-25T14:58:09.939Z</time></trkpt><trkpt lat="45.4207197" lon="7.687297"><ele>588.6666666666666</ele><time>2026-04-25T14:58:10.94Z</time></trkpt><trkpt lat="45.4206587" lon="7.6872509"><ele>588.0</ele><time>2026-04-25T14:58:11.943Z</time></trkpt><trkpt lat="45.4205819" lon="7.6872168"><ele>588.0</ele><time>2026-04-25T14:58:12.935Z</time></trkpt><trkpt lat="45.420506" lon="7.68718"><ele>588.0</ele><time>2026-04-25T14:58:13.95Z</time></trkpt><trkpt lat="45.4204242" lon="7.6871369"><ele>588.0</ele><time>2026-04-25T14:58:14.945Z</time></trkpt><trkpt lat="45.4203457" lon="7.6870991"><ele>588.0</ele><time>2026-04-25T14:58:15.944Z</time></trkpt><trkpt lat="45.4202672" lon="7.6870592"><ele>588.0</ele><time>2026-04-25T14:58:16.944Z</time></trkpt><trkpt lat="45.4201831" lon="7.6870083"><ele>588.0</ele><time>2026-04-25T14:58:17.948Z</time></trkpt><trkpt lat="45.4200931" lon="7.6869393"><ele>583.1999999999999</ele><time>2026-04-25T14:58:18.942Z</time></trkpt><trkpt lat="45.4200103" lon="7.6868789"><ele>578.4</ele><time>2026-04-25T14:58:19.946Z</time></trkpt><trkpt lat="45.4199289" lon="7.6868091"><ele>573.5999999999999</ele><time>2026-04-25T14:58:20.942Z</time></trkpt><trkpt lat="45.4198459" lon="7.686751"><ele>568.8</ele><time>2026-04-25T14:58:22.004Z</time></trkpt><trkpt lat="45.4197808" lon="7.686699"><ele>564.0</ele><time>2026-04-25T14:58:22.958Z</time></trkpt><trkpt lat="45.4196772" lon="7.6866148"><ele>564.0</ele><time>2026-04-25T14:58:24.952Z</time></trkpt><trkpt lat="45.4195932" lon="7.6865138"><ele>564.0</ele><time>2026-04-25T14:58:26.952Z</time></trkpt><trkpt lat="45.4195199" lon="7.6864072"><ele>564.0</ele><time>2026-04-25T14:58:28.948Z</time></trkpt><trkpt lat="45.4195168" lon="7.6862831"><ele>564.0</ele><time>2026-04-25T14:58:30.947Z</time></trkpt><trkpt lat="45.4195486" lon="7.6862045"><ele>564.0</ele><time>2026-04-25T14:58:34.953Z</time></trkpt><trkpt lat="45.4195168" lon="7.6861175"><ele>564.0</ele><time>2026-04-25T14:58:37.953Z</time></trkpt><trkpt lat="45.4193917" lon="7.686032"><ele>560.8</ele><time>2026-04-25T14:58:39.946Z</time></trkpt><trkpt lat="45.419305" lon="7.685999"><ele>557.5999999999999</ele><time>2026-04-25T14:58:40.948Z</time></trkpt><trkpt lat="45.4191992" lon="7.686003"><ele>554.4</ele><time>2026-04-25T14:58:41.957Z</time></trkpt><trkpt lat="45.4190837" lon="7.6860117"><ele>551.1999999999999</ele><time>2026-04-25T14:58:42.945Z</time></trkpt><trkpt lat="45.4189679" lon="7.6860227"><ele>548.0</ele><time>2026-04-25T14:58:43.955Z</time></trkpt><trkpt lat="45.4188525" lon="7.6860376"><ele>546.6</ele><time>2026-04-25T14:58:44.949Z</time></trkpt><trkpt lat="45.4187401" lon="7.6860526"><ele>545.1999999999999</ele><time>2026-04-25T14:58:45.953Z</time></trkpt><trkpt lat="45.4186319" lon="7.6860646"><ele>543.8</ele><time>2026-04-25T14:58:46.945Z</time></trkpt><trkpt lat="45.4185332" lon="7.6860733"><ele>542.4</ele><time>2026-04-25T14:58:47.951Z</time></trkpt><trkpt lat="45.4184464" lon="7.6860859"><ele>541.0</ele><time>2026-04-25T14:58:48.945Z</time></trkpt><trkpt lat="45.4183633" lon="7.6860569"><ele>541.0</ele><time>2026-04-25T14:58:50.949Z</time></trkpt><trkpt lat="45.4184255" lon="7.6858983"><ele>541.0</ele><time>2026-04-25T14:58:53.952Z</time></trkpt><trkpt lat="45.4184954" lon="7.6858118"><ele>541.0</ele><time>2026-04-25T14:58:54.946Z</time></trkpt><trkpt lat="45.4185876" lon="7.6857089"><ele>541.0</ele><time>2026-04-25T14:58:55.954Z</time></trkpt><trkpt lat="45.4186719" lon="7.6855811"><ele>541.0</ele><time>2026-04-25T14:58:56.953Z</time></trkpt><trkpt lat="45.4187389" lon="7.6854497"><ele>541.0</ele><time>2026-04-25T14:58:57.956Z</time></trkpt><trkpt lat="45.4187752" lon="7.6853008"><ele>541.0</ele><time>2026-04-25T14:58:58.954Z</time></trkpt><trkpt lat="45.4187986" lon="7.685127"><ele>541.0</ele><time>2026-04-25T14:58:59.951Z</time></trkpt><trkpt lat="45.418819" lon="7.684951"><ele>541.4</ele><time>2026-04-25T14:59:00.951Z</time></trkpt><trkpt lat="45.4188395" lon="7.6847883"><ele>541.8</ele><time>2026-04-25T14:59:01.947Z</time></trkpt><trkpt lat="45.4188586" lon="7.6846345"><ele>542.1999999999999</ele><time>2026-04-25T14:59:02.961Z</time></trkpt><trkpt lat="45.4188817" lon="7.6844947"><ele>542.6</ele><time>2026-04-25T14:59:03.954Z</time></trkpt><trkpt lat="45.4189222" lon="7.6843892"><ele>543.0</ele><time>2026-04-25T14:59:04.953Z</time></trkpt><trkpt lat="45.4189934" lon="7.6843119"><ele>543.0</ele><time>2026-04-25T14:59:05.954Z</time></trkpt><trkpt lat="45.4190757" lon="7.6842505"><ele>543.0</ele><time>2026-04-25T14:59:06.952Z</time></trkpt><trkpt lat="45.4191431" lon="7.6841744"><ele>543.0</ele><time>2026-04-25T14:59:07.951Z</time></trkpt><trkpt lat="45.4192102" lon="7.6841072"><ele>543.0</ele><time>2026-04-25T14:59:08.953Z</time></trkpt><trkpt lat="45.4192483" lon="7.6840323"><ele>543.0</ele><time>2026-04-25T14:59:09.956Z</time></trkpt><trkpt lat="45.4192644" lon="7.6839426"><ele>543.0</ele><time>2026-04-25T14:59:10.948Z</time></trkpt><trkpt lat="45.419247" lon="7.6838225"><ele>543.0</ele><time>2026-04-25T14:59:12.944Z</time></trkpt><trkpt lat="45.4191454" lon="7.6837764"><ele>543.0</ele><time>2026-04-25T14:59:14.943Z</time></trkpt><trkpt lat="45.419053" lon="7.6837764"><ele>543.0</ele><time>2026-04-25T14:59:15.947Z</time></trkpt><trkpt lat="45.4189507" lon="7.6837842"><ele>543.0</ele><time>2026-04-25T14:59:16.944Z</time></trkpt><trkpt lat="45.418848" lon="7.683809"><ele>543.0</ele><time>2026-04-25T14:59:17.952Z</time></trkpt><trkpt lat="45.4187587" lon="7.6838615"><ele>541.6666666666666</ele><time>2026-04-25T14:59:18.944Z</time></trkpt><trkpt lat="45.4186809" lon="7.683896"><ele>540.3333333333334</ele><time>2026-04-25T14:59:19.95Z</time></trkpt><trkpt lat="45.4186029" lon="7.6838921"><ele>539.0</ele><time>2026-04-25T14:59:20.952Z</time></trkpt><trkpt lat="45.4185262" lon="7.6838816"><ele>537.6666666666667</ele><time>2026-04-25T14:59:21.95Z</time></trkpt><trkpt lat="45.4184322" lon="7.6838797"><ele>536.3333333333334</ele><time>2026-04-25T14:59:22.948Z</time></trkpt><trkpt lat="45.4183329" lon="7.6838827"><ele>535.0</ele><time>2026-04-25T14:59:23.948Z</time></trkpt><trkpt lat="45.4182562" lon="7.6838994"><ele>535.0</ele><time>2026-04-25T14:59:24.946Z</time></trkpt><trkpt lat="45.4181787" lon="7.6838812"><ele>535.0</ele><time>2026-04-25T14:59:26.946Z</time></trkpt><trkpt lat="45.4181568" lon="7.683752"><ele>535.0</ele><time>2026-04-25T14:59:28.954Z</time></trkpt><trkpt lat="45.4181562" lon="7.6836176"><ele>535.0</ele><time>2026-04-25T14:59:29.961Z</time></trkpt><trkpt lat="45.4181492" lon="7.6834396"><ele>535.0</ele><time>2026-04-25T14:59:30.956Z</time></trkpt><trkpt lat="45.4181316" lon="7.6832715"><ele>535.6</ele><time>2026-04-25T14:59:31.941Z</time></trkpt><trkpt lat="45.4181076" lon="7.683112"><ele>536.2</ele><time>2026-04-25T14:59:32.941Z</time></trkpt><trkpt lat="45.4180714" lon="7.6829652"><ele>536.8</ele><time>2026-04-25T14:59:33.957Z</time></trkpt><trkpt lat="45.418033" lon="7.6828414"><ele>537.4</ele><time>2026-04-25T14:59:34.952Z</time></trkpt><trkpt lat="45.4180011" lon="7.6827562"><ele>538.0</ele><time>2026-04-25T14:59:35.937Z</time></trkpt><trkpt lat="45.4179279" lon="7.682693"><ele>538.0</ele><time>2026-04-25T14:59:37.944Z</time></trkpt><trkpt lat="45.417851" lon="7.6826829"><ele>538.0</ele><time>2026-04-25T14:59:38.952Z</time></trkpt><trkpt lat="45.4177572" lon="7.6826777"><ele>538.0</ele><time>2026-04-25T14:59:39.953Z</time></trkpt><trkpt lat="45.4176626" lon="7.6826468"><ele>538.0</ele><time>2026-04-25T14:59:40.955Z</time></trkpt><trkpt lat="45.4175566" lon="7.6825936"><ele>538.0</ele><time>2026-04-25T14:59:41.949Z</time></trkpt><trkpt lat="45.4174479" lon="7.6825337"><ele>538.0</ele><time>2026-04-25T14:59:42.95Z</time></trkpt><trkpt lat="45.4173348" lon="7.6824769"><ele>538.0</ele><time>2026-04-25T14:59:43.951Z</time></trkpt><trkpt lat="45.4172277" lon="7.6824249"><ele>538.0</ele><time>2026-04-25T14:59:44.95Z</time></trkpt><trkpt lat="45.4171261" lon="7.6823673"><ele>538.0</ele><time>2026-04-25T14:59:45.947Z</time></trkpt><trkpt lat="45.4170356" lon="7.6822876"><ele>538.0</ele><time>2026-04-25T14:59:46.953Z</time></trkpt><trkpt lat="45.4169641" lon="7.6822123"><ele>536.4</ele><time>2026-04-25T14:59:47.956Z</time></trkpt><trkpt lat="45.4168951" lon="7.6821593"><ele>534.8</ele><time>2026-04-25T14:59:48.947Z</time></trkpt><trkpt lat="45.4168196" lon="7.6821352"><ele>533.2</ele><time>2026-04-25T14:59:49.954Z</time></trkpt><trkpt lat="45.4167162" lon="7.6821263"><ele>531.6</ele><time>2026-04-25T14:59:50.948Z</time></trkpt><trkpt lat="45.4166028" lon="7.6821124"><ele>530.0</ele><time>2026-04-25T14:59:51.953Z</time></trkpt><trkpt lat="45.4164935" lon="7.6820796"><ele>530.0</ele><time>2026-04-25T14:59:52.958Z</time></trkpt><trkpt lat="45.4163977" lon="7.682048"><ele>530.0</ele><time>2026-04-25T14:59:53.947Z</time></trkpt><trkpt lat="45.4163164" lon="7.6820138"><ele>530.0</ele><time>2026-04-25T14:59:54.947Z</time></trkpt><trkpt lat="45.4162559" lon="7.6819778"><ele>530.0</ele><time>2026-04-25T14:59:55.957Z</time></trkpt><trkpt lat="45.4162164" lon="7.6818584"><ele>530.0</ele><time>2026-04-25T14:59:57.956Z</time></trkpt><trkpt lat="45.4162142" lon="7.681759"><ele>530.0</ele><time>2026-04-25T14:59:58.944Z</time></trkpt><trkpt lat="45.4162367" lon="7.6816463"><ele>529.2</ele><time>2026-04-25T14:59:59.944Z</time></trkpt><trkpt lat="45.4162639" lon="7.6815038"><ele>528.4</ele><time>2026-04-25T15:00:00.949Z</time></trkpt><trkpt lat="45.416284" lon="7.6813588"><ele>527.6</ele><time>2026-04-25T15:00:01.946Z</time></trkpt><trkpt lat="45.4162997" lon="7.6812248"><ele>526.8</ele><time>2026-04-25T15:00:02.944Z</time></trkpt><trkpt lat="45.4163089" lon="7.6811129"><ele>526.0</ele><time>2026-04-25T15:00:03.947Z</time></trkpt><trkpt lat="45.4162978" lon="7.6810117"><ele>526.0</ele><time>2026-04-25T15:00:04.952Z</time></trkpt><trkpt lat="45.4162758" lon="7.6809133"><ele>526.0</ele><time>2026-04-25T15:00:05.946Z</time></trkpt><trkpt lat="45.4162439" lon="7.6808135"><ele>526.0</ele><time>2026-04-25T15:00:06.954Z</time></trkpt><trkpt lat="45.4162027" lon="7.6807367"><ele>526.0</ele><time>2026-04-25T15:00:07.948Z</time></trkpt><trkpt lat="45.4161472" lon="7.6806875"><ele>526.0</ele><time>2026-04-25T15:00:08.951Z</time></trkpt><trkpt lat="45.4160819" lon="7.6806546"><ele>526.0</ele><time>2026-04-25T15:00:09.956Z</time></trkpt><trkpt lat="45.4160088" lon="7.6806337"><ele>526.0</ele><time>2026-04-25T15:00:10.951Z</time></trkpt><trkpt lat="45.4159307" lon="7.6805975"><ele>526.0</ele><time>2026-04-25T15:00:11.954Z</time></trkpt><trkpt lat="45.4158515" lon="7.6805478"><ele>526.0</ele><time>2026-04-25T15:00:12.95Z</time></trkpt><trkpt lat="45.4157797" lon="7.6804716"><ele>526.0</ele><time>2026-04-25T15:00:13.958Z</time></trkpt><trkpt lat="45.4157086" lon="7.6803935"><ele>526.0</ele><time>2026-04-25T15:00:14.956Z</time></trkpt><trkpt lat="45.4156267" lon="7.6803233"><ele>526.0</ele><time>2026-04-25T15:00:15.949Z</time></trkpt><trkpt lat="45.4155555" lon="7.6802681"><ele>526.0</ele><time>2026-04-25T15:00:16.95Z</time></trkpt><trkpt lat="45.4154826" lon="7.6802346"><ele>524.8333333333334</ele><time>2026-04-25T15:00:17.954Z</time></trkpt><trkpt lat="45.415415" lon="7.6802154"><ele>523.6666666666667</ele><time>2026-04-25T15:00:18.953Z</time></trkpt><trkpt lat="45.415349" lon="7.680191"><ele>522.5</ele><time>2026-04-25T15:00:19.946Z</time></trkpt><trkpt lat="45.4152896" lon="7.6801443"><ele>521.3333333333334</ele><time>2026-04-25T15:00:20.951Z</time></trkpt><trkpt lat="45.4152057" lon="7.6800382"><ele>520.1666666666666</ele><time>2026-04-25T15:00:22.943Z</time></trkpt><trkpt lat="45.4151263" lon="7.6800253"><ele>519.0</ele><time>2026-04-25T15:00:24.946Z</time></trkpt><trkpt lat="45.4150119" lon="7.6800557"><ele>519.0</ele><time>2026-04-25T15:00:26.952Z</time></trkpt><trkpt lat="45.4148923" lon="7.6800444"><ele>519.0</ele><time>2026-04-25T15:00:28.952Z</time></trkpt><trkpt lat="45.4147858" lon="7.6799586"><ele>519.0</ele><time>2026-04-25T15:00:30.96Z</time></trkpt><trkpt lat="45.41471" lon="7.6798353"><ele>519.0</ele><time>2026-04-25T15:00:32.944Z</time></trkpt><trkpt lat="45.4146602" lon="7.6796774"><ele>517.6666666666666</ele><time>2026-04-25T15:00:34.94Z</time></trkpt><trkpt lat="45.4146261" lon="7.6795963"><ele>516.3333333333334</ele><time>2026-04-25T15:00:35.953Z</time></trkpt><trkpt lat="45.41459" lon="7.6795169"><ele>515.0</ele><time>2026-04-25T15:00:36.946Z</time></trkpt><trkpt lat="45.4145497" lon="7.6794276"><ele>513.6666666666667</ele><time>2026-04-25T15:00:37.95Z</time></trkpt><trkpt lat="45.4145107" lon="7.6793361"><ele>512.3333333333334</ele><time>2026-04-25T15:00:38.947Z</time></trkpt><trkpt lat="45.4144659" lon="7.6792301"><ele>511.0</ele><time>2026-04-25T15:00:39.948Z</time></trkpt><trkpt lat="45.4144225" lon="7.679128"><ele>511.00000000000006</ele><time>2026-04-25T15:00:40.944Z</time></trkpt><trkpt lat="45.4143852" lon="7.6790499"><ele>511.0</ele><time>2026-04-25T15:00:41.948Z</time></trkpt><trkpt lat="45.4143292" lon="7.678977"><ele>511.0</ele><time>2026-04-25T15:00:42.946Z</time></trkpt><trkpt lat="45.414259" lon="7.6788951"><ele>511.0</ele><time>2026-04-25T15:00:43.943Z</time></trkpt><trkpt lat="45.4141915" lon="7.6788017"><ele>511.00000000000006</ele><time>2026-04-25T15:00:44.95Z</time></trkpt><trkpt lat="45.4141234" lon="7.6786975"><ele>511.0</ele><time>2026-04-25T15:00:45.958Z</time></trkpt><trkpt lat="45.4140635" lon="7.6786021"><ele>510.50000000000006</ele><time>2026-04-25T15:00:46.952Z</time></trkpt><trkpt lat="45.4140089" lon="7.6785246"><ele>510.0</ele><time>2026-04-25T15:00:47.96Z</time></trkpt><trkpt lat="45.4139596" lon="7.678464"><ele>509.5</ele><time>2026-04-25T15:00:48.955Z</time></trkpt><trkpt lat="45.4138634" lon="7.6783848"><ele>509.0</ele><time>2026-04-25T15:00:50.948Z</time></trkpt><trkpt lat="45.4137694" lon="7.6783543"><ele>508.50000000000006</ele><time>2026-04-25T15:00:52.95Z</time></trkpt><trkpt lat="45.4136865" lon="7.678322"><ele>508.0</ele><time>2026-04-25T15:00:54.945Z</time></trkpt><trkpt lat="45.4136431" lon="7.6782548"><ele>508.00000000000006</ele><time>2026-04-25T15:00:56.945Z</time></trkpt><trkpt lat="45.4136432" lon="7.6781525"><ele>508.0</ele><time>2026-04-25T15:00:59.954Z</time></trkpt><trkpt lat="45.4136476" lon="7.6780621"><ele>508.0</ele><time>2026-04-25T15:01:01.946Z</time></trkpt><trkpt lat="45.4136686" lon="7.6779557"><ele>508.0</ele><time>2026-04-25T15:01:03.948Z</time></trkpt><trkpt lat="45.4137302" lon="7.6778384"><ele>508.00000000000006</ele><time>2026-04-25T15:01:05.948Z</time></trkpt><trkpt lat="45.4137696" lon="7.6777351"><ele>508.0</ele><time>2026-04-25T15:01:07.943Z</time></trkpt><trkpt lat="45.4137569" lon="7.6776392"><ele>509.6666666666667</ele><time>2026-04-25T15:01:12.953Z</time></trkpt><trkpt lat="45.4136955" lon="7.6775472"><ele>511.33333333333337</ele><time>2026-04-25T15:01:15.951Z</time></trkpt><trkpt lat="45.4136331" lon="7.6775096"><ele>513.0</ele><time>2026-04-25T15:01:16.952Z</time></trkpt><trkpt lat="45.4135564" lon="7.6774694"><ele>514.6666666666666</ele><time>2026-04-25T15:01:17.943Z</time></trkpt><trkpt lat="45.4134738" lon="7.6774249"><ele>516.3333333333333</ele><time>2026-04-25T15:01:18.956Z</time></trkpt><trkpt lat="45.4133922" lon="7.6773809"><ele>518.0</ele><time>2026-04-25T15:01:19.957Z</time></trkpt><trkpt lat="45.4133055" lon="7.67733"><ele>518.0</ele><time>2026-04-25T15:01:20.948Z</time></trkpt><trkpt lat="45.4132209" lon="7.6772943"><ele>518.0</ele><time>2026-04-25T15:01:21.95Z</time></trkpt><trkpt lat="45.4131392" lon="7.6772569"><ele>518.0</ele><time>2026-04-25T15:01:22.95Z</time></trkpt><trkpt lat="45.4130622" lon="7.6772297"><ele>518.0</ele><time>2026-04-25T15:01:23.952Z</time></trkpt><trkpt lat="45.4129848" lon="7.677218"><ele>518.0</ele><time>2026-04-25T15:01:24.955Z</time></trkpt><trkpt lat="45.412903" lon="7.6772114"><ele>518.0</ele><time>2026-04-25T15:01:25.953Z</time></trkpt><trkpt lat="45.4128168" lon="7.6771984"><ele>515.8333333333333</ele><time>2026-04-25T15:01:26.955Z</time></trkpt><trkpt lat="45.412732" lon="7.6771712"><ele>513.6666666666666</ele><time>2026-04-25T15:01:27.957Z</time></trkpt><trkpt lat="45.4126517" lon="7.6771387"><ele>511.5</ele><time>2026-04-25T15:01:28.941Z</time></trkpt><trkpt lat="45.4125767" lon="7.6771063"><ele>509.33333333333337</ele><time>2026-04-25T15:01:29.951Z</time></trkpt><trkpt lat="45.4125126" lon="7.6770854"><ele>507.1666666666667</ele><time>2026-04-25T15:01:30.945Z</time></trkpt><trkpt lat="45.4124419" lon="7.6770273"><ele>505.0</ele><time>2026-04-25T15:01:33.028Z</time></trkpt><trkpt lat="45.4125064" lon="7.6770035"><ele>505.0</ele><time>2026-04-25T15:01:41.959Z</time></trkpt><trkpt lat="45.4126023" lon="7.6770055"><ele>504.99999999999994</ele><time>2026-04-25T15:01:45.956Z</time></trkpt><trkpt lat="45.4126667" lon="7.6769929"><ele>505.0</ele><time>2026-04-25T15:01:46.981Z</time></trkpt><trkpt lat="45.4127403" lon="7.6769638"><ele>505.0</ele><time>2026-04-25T15:01:47.95Z</time></trkpt><trkpt lat="45.4128113" lon="7.6769346"><ele>504.99999999999994</ele><time>2026-04-25T15:01:48.961Z</time></trkpt><trkpt lat="45.4128753" lon="7.6769065"><ele>505.0</ele><time>2026-04-25T15:01:49.958Z</time></trkpt><trkpt lat="45.4129363" lon="7.6768802"><ele>505.0</ele><time>2026-04-25T15:01:50.953Z</time></trkpt><trkpt lat="45.4130339" lon="7.6768409"><ele>505.1666666666667</ele><time>2026-04-25T15:01:52.955Z</time></trkpt><trkpt lat="45.4130144" lon="7.6767426"><ele>505.33333333333337</ele><time>2026-04-25T15:01:59.029Z</time></trkpt><trkpt lat="45.413008" lon="7.6766239"><ele>505.5</ele><time>2026-04-25T15:02:00.958Z</time></trkpt><trkpt lat="45.4129843" lon="7.676528"><ele>505.66666666666663</ele><time>2026-04-25T15:02:02.956Z</time></trkpt><trkpt lat="45.4129406" lon="7.6764239"><ele>505.8333333333333</ele><time>2026-04-25T15:02:05.998Z</time></trkpt><trkpt lat="45.4128684" lon="7.6764215"><ele>506.0</ele><time>2026-04-25T15:02:08.964Z</time></trkpt><trkpt lat="45.4128021" lon="7.6764151"><ele>506.00000000000006</ele><time>2026-04-25T15:02:10.961Z</time></trkpt><trkpt lat="45.4127373" lon="7.6763745"><ele>506.0</ele><time>2026-04-25T15:02:12.965Z</time></trkpt><trkpt lat="45.4126757" lon="7.6763373"><ele>506.00000000000006</ele><time>2026-04-25T15:02:15.958Z</time></trkpt><trkpt lat="45.4125884" lon="7.6763241"><ele>506.00000000000006</ele><time>2026-04-25T15:02:18.961Z</time></trkpt><trkpt lat="45.4125426" lon="7.6762613"><ele>506.0</ele><time>2026-04-25T15:02:27.961Z</time></trkpt><trkpt lat="45.4124973" lon="7.6761963"><ele>506.00000000000006</ele><time>2026-04-25T15:02:32.965Z</time></trkpt><trkpt lat="45.4124876" lon="7.6761064"><ele>506.00000000000006</ele><time>2026-04-25T15:02:39.954Z</time></trkpt><trkpt lat="45.4124331" lon="7.6760032"><ele>504.4</ele><time>2026-04-25T15:02:45.966Z</time></trkpt><trkpt lat="45.4123745" lon="7.6758951"><ele>502.8</ele><time>2026-04-25T15:02:47.958Z</time></trkpt><trkpt lat="45.4123016" lon="7.6757855"><ele>501.19999999999993</ele><time>2026-04-25T15:02:49.958Z</time></trkpt><trkpt lat="45.4122198" lon="7.6756834"><ele>499.59999999999997</ele><time>2026-04-25T15:02:51.963Z</time></trkpt><trkpt lat="45.4121239" lon="7.6756293"><ele>498.0</ele><time>2026-04-25T15:02:53.96Z</time></trkpt><trkpt lat="45.4120273" lon="7.6755941"><ele>497.59999999999997</ele><time>2026-04-25T15:02:55.965Z</time></trkpt><trkpt lat="45.4119122" lon="7.6755653"><ele>497.19999999999993</ele><time>2026-04-25T15:02:57.957Z</time></trkpt><trkpt lat="45.4118183" lon="7.6755619"><ele>496.8</ele><time>2026-04-25T15:02:59.963Z</time></trkpt><trkpt lat="45.4117265" lon="7.6755783"><ele>496.4</ele><time>2026-04-25T15:03:01.959Z</time></trkpt><trkpt lat="45.4116272" lon="7.6755951"><ele>496.0</ele><time>2026-04-25T15:03:03.958Z</time></trkpt><trkpt lat="45.4115289" lon="7.6756151"><ele>496.0</ele><time>2026-04-25T15:03:05.96Z</time></trkpt><trkpt lat="45.4114606" lon="7.6756348"><ele>496.00000000000006</ele><time>2026-04-25T15:03:07.962Z</time></trkpt><trkpt lat="45.4113895" lon="7.6756174"><ele>496.0</ele><time>2026-04-25T15:03:10.961Z</time></trkpt><trkpt lat="45.4113237" lon="7.6755761"><ele>496.0</ele><time>2026-04-25T15:03:15.969Z</time></trkpt><trkpt lat="45.4112569" lon="7.6755312"><ele>496.00000000000006</ele><time>2026-04-25T15:03:19.956Z</time></trkpt><trkpt lat="45.4111892" lon="7.6755314"><ele>496.0</ele><time>2026-04-25T15:03:23.032Z</time></trkpt><trkpt lat="45.4111124" lon="7.6755157"><ele>496.0</ele><time>2026-04-25T15:03:25.955Z</time></trkpt><trkpt lat="45.4110503" lon="7.6754696"><ele>495.1666666666667</ele><time>2026-04-25T15:03:27.955Z</time></trkpt><trkpt lat="45.410978" lon="7.6753921"><ele>494.33333333333337</ele><time>2026-04-25T15:03:29.955Z</time></trkpt><trkpt lat="45.4109022" lon="7.6752987"><ele>493.5</ele><time>2026-04-25T15:03:32.079Z</time></trkpt><trkpt lat="45.4108447" lon="7.6751896"><ele>492.66666666666663</ele><time>2026-04-25T15:03:33.953Z</time></trkpt><trkpt lat="45.4108126" lon="7.6750705"><ele>491.8333333333333</ele><time>2026-04-25T15:03:35.963Z</time></trkpt><trkpt lat="45.4107879" lon="7.6749855"><ele>491.0</ele><time>2026-04-25T15:03:37.961Z</time></trkpt><trkpt lat="45.4107633" lon="7.674884"><ele>491.3333333333333</ele><time>2026-04-25T15:03:40.956Z</time></trkpt><trkpt lat="45.4107271" lon="7.6747782"><ele>491.66666666666663</ele><time>2026-04-25T15:03:44.954Z</time></trkpt><trkpt lat="45.4106884" lon="7.6746715"><ele>492.0</ele><time>2026-04-25T15:03:46.958Z</time></trkpt><trkpt lat="45.4106359" lon="7.6745669"><ele>492.33333333333337</ele><time>2026-04-25T15:03:48.951Z</time></trkpt><trkpt lat="45.4105839" lon="7.6744808"><ele>492.6666666666667</ele><time>2026-04-25T15:03:50.95Z</time></trkpt><trkpt lat="45.4105464" lon="7.6743699"><ele>493.0</ele><time>2026-04-25T15:03:52.957Z</time></trkpt><trkpt lat="45.410519" lon="7.6742555"><ele>493.00000000000006</ele><time>2026-04-25T15:03:54.956Z</time></trkpt><trkpt lat="45.4104835" lon="7.6741764"><ele>493.0</ele><time>2026-04-25T15:03:56.951Z</time></trkpt><trkpt lat="45.4104669" lon="7.674084"><ele>493.0</ele><time>2026-04-25T15:05:24.951Z</time></trkpt><trkpt lat="45.4105583" lon="7.6740766"><ele>493.0</ele><time>2026-04-25T15:05:28.958Z</time></trkpt><trkpt lat="45.4106742" lon="7.6741007"><ele>493.00000000000006</ele><time>2026-04-25T15:05:30.961Z</time></trkpt><trkpt lat="45.4107387" lon="7.6741183"><ele>493.0</ele><time>2026-04-25T15:05:31.96Z</time></trkpt><trkpt lat="45.4108381" lon="7.6740955"><ele>493.00000000000006</ele><time>2026-04-25T15:05:33.97Z</time></trkpt><trkpt lat="45.4109141" lon="7.6740394"><ele>493.0</ele><time>2026-04-25T15:05:35.958Z</time></trkpt><trkpt lat="45.4110029" lon="7.6740038"><ele>493.0</ele><time>2026-04-25T15:05:37.963Z</time></trkpt><trkpt lat="45.4110688" lon="7.6740251"><ele>493.0</ele><time>2026-04-25T15:05:39.967Z</time></trkpt><trkpt lat="45.4111347" lon="7.6740437"><ele>493.00000000000006</ele><time>2026-04-25T15:05:41.956Z</time></trkpt><trkpt lat="45.4112204" lon="7.6740938"><ele>493.0</ele><time>2026-04-25T15:05:44.955Z</time></trkpt><trkpt lat="45.4112837" lon="7.6741317"><ele>492.85714285714283</ele><time>2026-04-25T15:05:46.954Z</time></trkpt><trkpt lat="45.4113406" lon="7.6742168"><ele>492.7142857142858</ele><time>2026-04-25T15:05:48.963Z</time></trkpt><trkpt lat="45.4113768" lon="7.6743272"><ele>492.5714285714286</ele><time>2026-04-25T15:05:50.959Z</time></trkpt><trkpt lat="45.4113976" lon="7.6744122"><ele>492.42857142857144</ele><time>2026-04-25T15:05:52.963Z</time></trkpt><trkpt lat="45.4114616" lon="7.6744427"><ele>492.28571428571433</ele><time>2026-04-25T15:05:54.96Z</time></trkpt><trkpt lat="45.4115268" lon="7.6744225"><ele>492.1428571428572</ele><time>2026-04-25T15:05:57.965Z</time></trkpt><trkpt lat="45.4115854" lon="7.6743719"><ele>492.00000000000006</ele><time>2026-04-25T15:06:00.957Z</time></trkpt><trkpt lat="45.4115917" lon="7.6742468"><ele>493.1666666666667</ele><time>2026-04-25T15:06:03.962Z</time></trkpt><trkpt lat="45.4115595" lon="7.6741469"><ele>494.33333333333337</ele><time>2026-04-25T15:06:05.965Z</time></trkpt><trkpt lat="45.4115471" lon="7.6740514"><ele>495.5</ele><time>2026-04-25T15:06:08.03Z</time></trkpt><trkpt lat="45.4115631" lon="7.6739492"><ele>496.6666666666667</ele><time>2026-04-25T15:06:09.949Z</time></trkpt><trkpt lat="45.4116429" lon="7.6738297"><ele>497.83333333333337</ele><time>2026-04-25T15:06:11.959Z</time></trkpt><trkpt lat="45.4116887" lon="7.6737599"><ele>499.0</ele><time>2026-04-25T15:06:12.962Z</time></trkpt><trkpt lat="45.4117297" lon="7.6736873"><ele>500.00000000000006</ele><time>2026-04-25T15:06:14.031Z</time></trkpt><trkpt lat="45.4118001" lon="7.6735528"><ele>501.0</ele><time>2026-04-25T15:06:15.963Z</time></trkpt><trkpt lat="45.4118436" lon="7.6734869"><ele>502.0</ele><time>2026-04-25T15:06:16.961Z</time></trkpt><trkpt lat="45.4118877" lon="7.6734208"><ele>503.0</ele><time>2026-04-25T15:06:17.963Z</time></trkpt><trkpt lat="45.4119686" lon="7.6733423"><ele>504.00000000000006</ele><time>2026-04-25T15:06:19.965Z</time></trkpt><trkpt lat="45.4120482" lon="7.6733258"><ele>505.0</ele><time>2026-04-25T15:06:21.962Z</time></trkpt><trkpt lat="45.4121264" lon="7.6733503"><ele>505.8</ele><time>2026-04-25T15:06:23.963Z</time></trkpt><trkpt lat="45.4122016" lon="7.6733365"><ele>506.6</ele><time>2026-04-25T15:06:25.965Z</time></trkpt><trkpt lat="45.4122722" lon="7.6732558"><ele>507.4</ele><time>2026-04-25T15:06:27.963Z</time></trkpt><trkpt lat="45.4123417" lon="7.6731225"><ele>508.2</ele><time>2026-04-25T15:06:29.951Z</time></trkpt><trkpt lat="45.4124051" lon="7.6729907"><ele>509.0</ele><time>2026-04-25T15:06:32.029Z</time></trkpt><trkpt lat="45.4124328" lon="7.6729045"><ele>508.99999999999994</ele><time>2026-04-25T15:06:33.03Z</time></trkpt><trkpt lat="45.4124592" lon="7.6728157"><ele>509.0</ele><time>2026-04-25T15:06:33.954Z</time></trkpt><trkpt lat="45.4124912" lon="7.6727248"><ele>508.99999999999994</ele><time>2026-04-25T15:06:34.951Z</time></trkpt><trkpt lat="45.4125273" lon="7.6726368"><ele>508.99999999999994</ele><time>2026-04-25T15:06:35.95Z</time></trkpt><trkpt lat="45.4125671" lon="7.6725563"><ele>509.0</ele><time>2026-04-25T15:06:36.946Z</time></trkpt><trkpt lat="45.4126059" lon="7.6724749"><ele>508.99999999999994</ele><time>2026-04-25T15:06:37.95Z</time></trkpt><trkpt lat="45.4126471" lon="7.672392"><ele>508.99999999999994</ele><time>2026-04-25T15:06:38.956Z</time></trkpt><trkpt lat="45.4126923" lon="7.6723002"><ele>509.66666666666663</ele><time>2026-04-25T15:06:39.955Z</time></trkpt><trkpt lat="45.4127375" lon="7.6722058"><ele>510.3333333333333</ele><time>2026-04-25T15:06:41.038Z</time></trkpt><trkpt lat="45.4127814" lon="7.6721167"><ele>511.0</ele><time>2026-04-25T15:06:41.957Z</time></trkpt><trkpt lat="45.4128342" lon="7.6720237"><ele>511.66666666666663</ele><time>2026-04-25T15:06:42.961Z</time></trkpt><trkpt lat="45.4128832" lon="7.671913"><ele>512.3333333333334</ele><time>2026-04-25T15:06:43.96Z</time></trkpt><trkpt lat="45.412927" lon="7.6718113"><ele>513.0</ele><time>2026-04-25T15:06:44.962Z</time></trkpt><trkpt lat="45.4129806" lon="7.6717147"><ele>515.3333333333334</ele><time>2026-04-25T15:06:45.963Z</time></trkpt><trkpt lat="45.4130367" lon="7.6716222"><ele>517.6666666666666</ele><time>2026-04-25T15:06:46.958Z</time></trkpt><trkpt lat="45.4130951" lon="7.6715396"><ele>520.0</ele><time>2026-04-25T15:06:48.033Z</time></trkpt><trkpt lat="45.4131532" lon="7.671465"><ele>522.3333333333333</ele><time>2026-04-25T15:06:49.031Z</time></trkpt><trkpt lat="45.4132197" lon="7.6713997"><ele>524.6666666666666</ele><time>2026-04-25T15:06:49.96Z</time></trkpt><trkpt lat="45.4132847" lon="7.6713339"><ele>527.0</ele><time>2026-04-25T15:06:51.03Z</time></trkpt><trkpt lat="45.413343" lon="7.6712575"><ele>527.0</ele><time>2026-04-25T15:06:51.966Z</time></trkpt><trkpt lat="45.4134032" lon="7.6711711"><ele>527.0</ele><time>2026-04-25T15:06:52.934Z</time></trkpt><trkpt lat="45.4134602" lon="7.6710868"><ele>527.0</ele><time>2026-04-25T15:06:54.035Z</time></trkpt><trkpt lat="45.4135098" lon="7.6709906"><ele>527.0</ele><time>2026-04-25T15:06:54.951Z</time></trkpt><trkpt lat="45.4135619" lon="7.6708892"><ele>527.0</ele><time>2026-04-25T15:06:55.962Z</time></trkpt><trkpt lat="45.4136049" lon="7.6707864"><ele>527.0</ele><time>2026-04-25T15:06:56.954Z</time></trkpt><trkpt lat="45.413642" lon="7.6706875"><ele>527.1666666666666</ele><time>2026-04-25T15:06:58.026Z</time></trkpt><trkpt lat="45.4136734" lon="7.6706003"><ele>527.3333333333333</ele><time>2026-04-25T15:06:59.014Z</time></trkpt><trkpt lat="45.413712" lon="7.6705264"><ele>527.5</ele><time>2026-04-25T15:06:59.966Z</time></trkpt><trkpt lat="45.4137519" lon="7.670454"><ele>527.6666666666666</ele><time>2026-04-25T15:07:00.957Z</time></trkpt><trkpt lat="45.4138038" lon="7.6703872"><ele>527.8333333333334</ele><time>2026-04-25T15:07:01.954Z</time></trkpt><trkpt lat="45.4138884" lon="7.6703073"><ele>528.0</ele><time>2026-04-25T15:07:03.031Z</time></trkpt><trkpt lat="45.413999" lon="7.6702042"><ele>530.3333333333334</ele><time>2026-04-25T15:07:04.035Z</time></trkpt><trkpt lat="45.4141288" lon="7.6700906"><ele>532.6666666666667</ele><time>2026-04-25T15:07:04.954Z</time></trkpt><trkpt lat="45.4142826" lon="7.6699486"><ele>535.0</ele><time>2026-04-25T15:07:05.959Z</time></trkpt><trkpt lat="45.4144341" lon="7.6698079"><ele>535.0</ele><time>2026-04-25T15:07:06.995Z</time></trkpt><trkpt lat="45.414562" lon="7.6696935"><ele>535.0</ele><time>2026-04-25T15:07:08.034Z</time></trkpt><trkpt lat="45.4146654" lon="7.6695867"><ele>535.0</ele><time>2026-04-25T15:07:09.071Z</time></trkpt><trkpt lat="45.4148646" lon="7.6693561"><ele>537.8</ele><time>2026-04-25T15:07:11.04Z</time></trkpt><trkpt lat="45.4149567" lon="7.6692613"><ele>540.6</ele><time>2026-04-25T15:07:12.034Z</time></trkpt><trkpt lat="45.4150431" lon="7.6691698"><ele>543.4</ele><time>2026-04-25T15:07:13.03Z</time></trkpt><trkpt lat="45.4151291" lon="7.6690936"><ele>546.2</ele><time>2026-04-25T15:07:14.017Z</time></trkpt><trkpt lat="45.4152238" lon="7.6690345"><ele>549.0</ele><time>2026-04-25T15:07:14.944Z</time></trkpt><trkpt lat="45.4153249" lon="7.6689807"><ele>549.0</ele><time>2026-04-25T15:07:15.945Z</time></trkpt><trkpt lat="45.4154284" lon="7.6689325"><ele>549.0</ele><time>2026-04-25T15:07:16.945Z</time></trkpt><trkpt lat="45.4155369" lon="7.6688719"><ele>549.0</ele><time>2026-04-25T15:07:17.956Z</time></trkpt><trkpt lat="45.4156391" lon="7.6688174"><ele>549.0</ele><time>2026-04-25T15:07:18.952Z</time></trkpt><trkpt lat="45.4157315" lon="7.6687741"><ele>549.0</ele><time>2026-04-25T15:07:19.95Z</time></trkpt><trkpt lat="45.4158185" lon="7.6687277"><ele>550.0</ele><time>2026-04-25T15:07:20.943Z</time></trkpt><trkpt lat="45.4159018" lon="7.668675"><ele>551.0</ele><time>2026-04-25T15:07:21.981Z</time></trkpt><trkpt lat="45.4159688" lon="7.6686259"><ele>552.0</ele><time>2026-04-25T15:07:22.98Z</time></trkpt><trkpt lat="45.416061" lon="7.6685586"><ele>553.0</ele><time>2026-04-25T15:07:24.958Z</time></trkpt><trkpt lat="45.41612" lon="7.6685193"><ele>554.0</ele><time>2026-04-25T15:07:28.959Z</time></trkpt><trkpt lat="45.4161754" lon="7.6684661"><ele>555.0</ele><time>2026-04-25T15:07:31.954Z</time></trkpt><trkpt lat="45.4162562" lon="7.6684563"><ele>559.0</ele><time>2026-04-25T15:09:03.957Z</time></trkpt><trkpt lat="45.4163238" lon="7.6684873"><ele>567.0</ele><time>2026-04-25T15:09:05.961Z</time></trkpt><trkpt lat="45.4163953" lon="7.6684886"><ele>567.0</ele><time>2026-04-25T15:09:13.951Z</time></trkpt><trkpt lat="45.4164751" lon="7.6684625"><ele>567.0</ele><time>2026-04-25T15:09:16.954Z</time></trkpt><trkpt lat="45.416432" lon="7.6685343"><ele>567.0</ele><time>2026-04-25T15:09:23.947Z</time></trkpt></trkseg></trk></gpx>